<?xml version="1.0" encoding="UTF-8" standalone="no" ?>
<gpx xmlns="http://www.topografix.com/GPX/1/1" xmlns:xsi="http://www.w3.org/2001/XMLSchema-instance" xsi:schemaLocation="http://www.topografix.com/GPX/1/1 http://www.topografix.com/GPX/1/1/gpx.xsd" version="1.1" creator="VisuGPX - https://www.visugpx.com">
  <metadata>
    <name>Trail « course des volcans » </name>
  </metadata>
  <trk>
    <name><![CDATA[Trail des volcans ( orcines)]]></name>
    <trkseg>
      <trkpt lat="45.7721" lon="2.98729">
        <ele>888</ele>
        <time>2024-09-15T08:31:42.000Z</time>
      </trkpt>
      <trkpt lat="45.77211" lon="2.98731">
        <ele>888</ele>
        <time>2024-09-15T08:31:43.000Z</time>
      </trkpt>
      <trkpt lat="45.77212" lon="2.98735">
        <ele>888</ele>
        <time>2024-09-15T08:31:44.000Z</time>
      </trkpt>
      <trkpt lat="45.77214" lon="2.98739">
        <ele>888</ele>
        <time>2024-09-15T08:31:45.000Z</time>
      </trkpt>
      <trkpt lat="45.77215" lon="2.98743">
        <ele>888</ele>
        <time>2024-09-15T08:31:46.000Z</time>
      </trkpt>
      <trkpt lat="45.77215" lon="2.98748">
        <ele>888.20001220703</ele>
        <time>2024-09-15T08:31:47.000Z</time>
      </trkpt>
      <trkpt lat="45.77216" lon="2.98754">
        <ele>888.40002441406</ele>
        <time>2024-09-15T08:31:48.000Z</time>
      </trkpt>
      <trkpt lat="45.77218" lon="2.98759">
        <ele>888.40002441406</ele>
        <time>2024-09-15T08:31:49.000Z</time>
      </trkpt>
      <trkpt lat="45.7722" lon="2.98764">
        <ele>888.20001220703</ele>
        <time>2024-09-15T08:31:50.000Z</time>
      </trkpt>
      <trkpt lat="45.77222" lon="2.98768">
        <ele>888.20001220703</ele>
        <time>2024-09-15T08:31:51.000Z</time>
      </trkpt>
      <trkpt lat="45.77224" lon="2.98772">
        <ele>888.20001220703</ele>
        <time>2024-09-15T08:31:52.000Z</time>
      </trkpt>
      <trkpt lat="45.77226" lon="2.98775">
        <ele>888.20001220703</ele>
        <time>2024-09-15T08:31:53.000Z</time>
      </trkpt>
      <trkpt lat="45.77228" lon="2.98779">
        <ele>888.20001220703</ele>
        <time>2024-09-15T08:31:54.000Z</time>
      </trkpt>
      <trkpt lat="45.7723" lon="2.98783">
        <ele>888.20001220703</ele>
        <time>2024-09-15T08:31:55.000Z</time>
      </trkpt>
      <trkpt lat="45.77232" lon="2.98786">
        <ele>888.20001220703</ele>
        <time>2024-09-15T08:31:56.000Z</time>
      </trkpt>
      <trkpt lat="45.77233" lon="2.9879">
        <ele>888.20001220703</ele>
        <time>2024-09-15T08:31:57.000Z</time>
      </trkpt>
      <trkpt lat="45.77235" lon="2.98794">
        <ele>888.20001220703</ele>
        <time>2024-09-15T08:31:58.000Z</time>
      </trkpt>
      <trkpt lat="45.77237" lon="2.98798">
        <ele>888.20001220703</ele>
        <time>2024-09-15T08:31:59.000Z</time>
      </trkpt>
      <trkpt lat="45.77239" lon="2.98801">
        <ele>888.20001220703</ele>
        <time>2024-09-15T08:32:00.000Z</time>
      </trkpt>
      <trkpt lat="45.77241" lon="2.98805">
        <ele>888.20001220703</ele>
        <time>2024-09-15T08:32:01.000Z</time>
      </trkpt>
      <trkpt lat="45.77243" lon="2.98809">
        <ele>888</ele>
        <time>2024-09-15T08:32:02.000Z</time>
      </trkpt>
      <trkpt lat="45.77245" lon="2.98813">
        <ele>887.79998779297</ele>
        <time>2024-09-15T08:32:03.000Z</time>
      </trkpt>
      <trkpt lat="45.77246" lon="2.98817">
        <ele>887.79998779297</ele>
        <time>2024-09-15T08:32:04.000Z</time>
      </trkpt>
      <trkpt lat="45.77248" lon="2.98821">
        <ele>887.79998779297</ele>
        <time>2024-09-15T08:32:05.000Z</time>
      </trkpt>
      <trkpt lat="45.7725" lon="2.98826">
        <ele>887.59997558594</ele>
        <time>2024-09-15T08:32:06.000Z</time>
      </trkpt>
      <trkpt lat="45.77251" lon="2.9883">
        <ele>887.59997558594</ele>
        <time>2024-09-15T08:32:07.000Z</time>
      </trkpt>
      <trkpt lat="45.77252" lon="2.98834">
        <ele>887.40002441406</ele>
        <time>2024-09-15T08:32:08.000Z</time>
      </trkpt>
      <trkpt lat="45.77254" lon="2.98838">
        <ele>887.20001220703</ele>
        <time>2024-09-15T08:32:09.000Z</time>
      </trkpt>
      <trkpt lat="45.77255" lon="2.98842">
        <ele>887.20001220703</ele>
        <time>2024-09-15T08:32:10.000Z</time>
      </trkpt>
      <trkpt lat="45.77257" lon="2.98847">
        <ele>887.20001220703</ele>
        <time>2024-09-15T08:32:11.000Z</time>
      </trkpt>
      <trkpt lat="45.77258" lon="2.98851">
        <ele>887.20001220703</ele>
        <time>2024-09-15T08:32:12.000Z</time>
      </trkpt>
      <trkpt lat="45.7726" lon="2.98855">
        <ele>887.20001220703</ele>
        <time>2024-09-15T08:32:13.000Z</time>
      </trkpt>
      <trkpt lat="45.77261" lon="2.98859">
        <ele>887.20001220703</ele>
        <time>2024-09-15T08:32:14.000Z</time>
      </trkpt>
      <trkpt lat="45.77263" lon="2.98864">
        <ele>887</ele>
        <time>2024-09-15T08:32:15.000Z</time>
      </trkpt>
      <trkpt lat="45.77263" lon="2.98869">
        <ele>887.20001220703</ele>
        <time>2024-09-15T08:32:16.000Z</time>
      </trkpt>
      <trkpt lat="45.77265" lon="2.98873">
        <ele>887</ele>
        <time>2024-09-15T08:32:17.000Z</time>
      </trkpt>
      <trkpt lat="45.77266" lon="2.98878">
        <ele>887</ele>
        <time>2024-09-15T08:32:18.000Z</time>
      </trkpt>
      <trkpt lat="45.77267" lon="2.98882">
        <ele>887</ele>
        <time>2024-09-15T08:32:19.000Z</time>
      </trkpt>
      <trkpt lat="45.77268" lon="2.98887">
        <ele>887</ele>
        <time>2024-09-15T08:32:20.000Z</time>
      </trkpt>
      <trkpt lat="45.77268" lon="2.98892">
        <ele>886.79998779297</ele>
        <time>2024-09-15T08:32:21.000Z</time>
      </trkpt>
      <trkpt lat="45.77269" lon="2.98897">
        <ele>886.59997558594</ele>
        <time>2024-09-15T08:32:22.000Z</time>
      </trkpt>
      <trkpt lat="45.77269" lon="2.98901">
        <ele>886.59997558594</ele>
        <time>2024-09-15T08:32:23.000Z</time>
      </trkpt>
      <trkpt lat="45.7727" lon="2.98906">
        <ele>886.59997558594</ele>
        <time>2024-09-15T08:32:24.000Z</time>
      </trkpt>
      <trkpt lat="45.7727" lon="2.98911">
        <ele>886.59997558594</ele>
        <time>2024-09-15T08:32:25.000Z</time>
      </trkpt>
      <trkpt lat="45.7727" lon="2.98916">
        <ele>886.59997558594</ele>
        <time>2024-09-15T08:32:26.000Z</time>
      </trkpt>
      <trkpt lat="45.7727" lon="2.9892">
        <ele>886.59997558594</ele>
        <time>2024-09-15T08:32:27.000Z</time>
      </trkpt>
      <trkpt lat="45.7727" lon="2.98925">
        <ele>886.40002441406</ele>
        <time>2024-09-15T08:32:28.000Z</time>
      </trkpt>
      <trkpt lat="45.7727" lon="2.9893">
        <ele>886.40002441406</ele>
        <time>2024-09-15T08:32:29.000Z</time>
      </trkpt>
      <trkpt lat="45.7727" lon="2.98935">
        <ele>886.40002441406</ele>
        <time>2024-09-15T08:32:30.000Z</time>
      </trkpt>
      <trkpt lat="45.77269" lon="2.98939">
        <ele>886.40002441406</ele>
        <time>2024-09-15T08:32:31.000Z</time>
      </trkpt>
      <trkpt lat="45.77269" lon="2.98944">
        <ele>886.20001220703</ele>
        <time>2024-09-15T08:32:32.000Z</time>
      </trkpt>
      <trkpt lat="45.77269" lon="2.98949">
        <ele>886.20001220703</ele>
        <time>2024-09-15T08:32:33.000Z</time>
      </trkpt>
      <trkpt lat="45.77268" lon="2.98954">
        <ele>886.20001220703</ele>
        <time>2024-09-15T08:32:34.000Z</time>
      </trkpt>
      <trkpt lat="45.77268" lon="2.98958">
        <ele>886</ele>
        <time>2024-09-15T08:32:35.000Z</time>
      </trkpt>
      <trkpt lat="45.77268" lon="2.98964">
        <ele>885.79998779297</ele>
        <time>2024-09-15T08:32:36.000Z</time>
      </trkpt>
      <trkpt lat="45.77268" lon="2.98968">
        <ele>885.40002441406</ele>
        <time>2024-09-15T08:32:37.000Z</time>
      </trkpt>
      <trkpt lat="45.77268" lon="2.98973">
        <ele>885.20001220703</ele>
        <time>2024-09-15T08:32:38.000Z</time>
      </trkpt>
      <trkpt lat="45.77268" lon="2.98978">
        <ele>885</ele>
        <time>2024-09-15T08:32:39.000Z</time>
      </trkpt>
      <trkpt lat="45.77269" lon="2.98983">
        <ele>884.79998779297</ele>
        <time>2024-09-15T08:32:40.000Z</time>
      </trkpt>
      <trkpt lat="45.77269" lon="2.98988">
        <ele>884.79998779297</ele>
        <time>2024-09-15T08:32:41.000Z</time>
      </trkpt>
      <trkpt lat="45.77269" lon="2.98993">
        <ele>884.59997558594</ele>
        <time>2024-09-15T08:32:42.000Z</time>
      </trkpt>
      <trkpt lat="45.7727" lon="2.98998">
        <ele>884.59997558594</ele>
        <time>2024-09-15T08:32:43.000Z</time>
      </trkpt>
      <trkpt lat="45.7727" lon="2.99002">
        <ele>884.59997558594</ele>
        <time>2024-09-15T08:32:44.000Z</time>
      </trkpt>
      <trkpt lat="45.77271" lon="2.99007">
        <ele>884.59997558594</ele>
        <time>2024-09-15T08:32:45.000Z</time>
      </trkpt>
      <trkpt lat="45.77272" lon="2.99012">
        <ele>883.79998779297</ele>
        <time>2024-09-15T08:32:46.000Z</time>
      </trkpt>
      <trkpt lat="45.77273" lon="2.99016">
        <ele>883.20001220703</ele>
        <time>2024-09-15T08:32:47.000Z</time>
      </trkpt>
      <trkpt lat="45.77274" lon="2.99021">
        <ele>883</ele>
        <time>2024-09-15T08:32:48.000Z</time>
      </trkpt>
      <trkpt lat="45.77276" lon="2.99025">
        <ele>882.59997558594</ele>
        <time>2024-09-15T08:32:49.000Z</time>
      </trkpt>
      <trkpt lat="45.77278" lon="2.99029">
        <ele>882.40002441406</ele>
        <time>2024-09-15T08:32:50.000Z</time>
      </trkpt>
      <trkpt lat="45.77279" lon="2.99033">
        <ele>882.40002441406</ele>
        <time>2024-09-15T08:32:51.000Z</time>
      </trkpt>
      <trkpt lat="45.77281" lon="2.99037">
        <ele>882.40002441406</ele>
        <time>2024-09-15T08:32:52.000Z</time>
      </trkpt>
      <trkpt lat="45.77283" lon="2.99041">
        <ele>882.40002441406</ele>
        <time>2024-09-15T08:32:53.000Z</time>
      </trkpt>
      <trkpt lat="45.77285" lon="2.99045">
        <ele>882.59997558594</ele>
        <time>2024-09-15T08:32:54.000Z</time>
      </trkpt>
      <trkpt lat="45.77286" lon="2.99049">
        <ele>882.59997558594</ele>
        <time>2024-09-15T08:32:55.000Z</time>
      </trkpt>
      <trkpt lat="45.77288" lon="2.99052">
        <ele>882.59997558594</ele>
        <time>2024-09-15T08:32:56.000Z</time>
      </trkpt>
      <trkpt lat="45.77291" lon="2.99056">
        <ele>882.59997558594</ele>
        <time>2024-09-15T08:32:57.000Z</time>
      </trkpt>
      <trkpt lat="45.77293" lon="2.99058">
        <ele>882.59997558594</ele>
        <time>2024-09-15T08:32:58.000Z</time>
      </trkpt>
      <trkpt lat="45.77296" lon="2.9906">
        <ele>882.79998779297</ele>
        <time>2024-09-15T08:32:59.000Z</time>
      </trkpt>
      <trkpt lat="45.773" lon="2.99062">
        <ele>882.79998779297</ele>
        <time>2024-09-15T08:33:00.000Z</time>
      </trkpt>
      <trkpt lat="45.77303" lon="2.99063">
        <ele>883</ele>
        <time>2024-09-15T08:33:01.000Z</time>
      </trkpt>
      <trkpt lat="45.77305" lon="2.99063">
        <ele>883</ele>
        <time>2024-09-15T08:33:02.000Z</time>
      </trkpt>
      <trkpt lat="45.77307" lon="2.9906">
        <ele>883.20001220703</ele>
        <time>2024-09-15T08:33:03.000Z</time>
      </trkpt>
      <trkpt lat="45.77308" lon="2.99056">
        <ele>883.20001220703</ele>
        <time>2024-09-15T08:33:04.000Z</time>
      </trkpt>
      <trkpt lat="45.77309" lon="2.99053">
        <ele>883.40002441406</ele>
        <time>2024-09-15T08:33:05.000Z</time>
      </trkpt>
      <trkpt lat="45.7731" lon="2.99049">
        <ele>883.40002441406</ele>
        <time>2024-09-15T08:33:06.000Z</time>
      </trkpt>
      <trkpt lat="45.77311" lon="2.99045">
        <ele>883.59997558594</ele>
        <time>2024-09-15T08:33:07.000Z</time>
      </trkpt>
      <trkpt lat="45.77311" lon="2.99042">
        <ele>883.79998779297</ele>
        <time>2024-09-15T08:33:08.000Z</time>
      </trkpt>
      <trkpt lat="45.77311" lon="2.99038">
        <ele>884.20001220703</ele>
        <time>2024-09-15T08:33:09.000Z</time>
      </trkpt>
      <trkpt lat="45.77312" lon="2.99035">
        <ele>884.59997558594</ele>
        <time>2024-09-15T08:33:10.000Z</time>
      </trkpt>
      <trkpt lat="45.77313" lon="2.99032">
        <ele>885</ele>
        <time>2024-09-15T08:33:11.000Z</time>
      </trkpt>
      <trkpt lat="45.77313" lon="2.99028">
        <ele>885.20001220703</ele>
        <time>2024-09-15T08:33:12.000Z</time>
      </trkpt>
      <trkpt lat="45.77313" lon="2.99024">
        <ele>885.20001220703</ele>
        <time>2024-09-15T08:33:13.000Z</time>
      </trkpt>
      <trkpt lat="45.77313" lon="2.99021">
        <ele>885.59997558594</ele>
        <time>2024-09-15T08:33:14.000Z</time>
      </trkpt>
      <trkpt lat="45.77313" lon="2.99017">
        <ele>885.79998779297</ele>
        <time>2024-09-15T08:33:15.000Z</time>
      </trkpt>
      <trkpt lat="45.77313" lon="2.99015">
        <ele>886.20001220703</ele>
        <time>2024-09-15T08:33:16.000Z</time>
      </trkpt>
      <trkpt lat="45.77312" lon="2.99011">
        <ele>886.40002441406</ele>
        <time>2024-09-15T08:33:17.000Z</time>
      </trkpt>
      <trkpt lat="45.77312" lon="2.99008">
        <ele>886.40002441406</ele>
        <time>2024-09-15T08:33:18.000Z</time>
      </trkpt>
      <trkpt lat="45.77312" lon="2.99004">
        <ele>887</ele>
        <time>2024-09-15T08:33:19.000Z</time>
      </trkpt>
      <trkpt lat="45.77312" lon="2.99">
        <ele>887.20001220703</ele>
        <time>2024-09-15T08:33:20.000Z</time>
      </trkpt>
      <trkpt lat="45.77312" lon="2.98996">
        <ele>887.40002441406</ele>
        <time>2024-09-15T08:33:21.000Z</time>
      </trkpt>
      <trkpt lat="45.77312" lon="2.98993">
        <ele>887.59997558594</ele>
        <time>2024-09-15T08:33:22.000Z</time>
      </trkpt>
      <trkpt lat="45.77312" lon="2.98989">
        <ele>887.79998779297</ele>
        <time>2024-09-15T08:33:23.000Z</time>
      </trkpt>
      <trkpt lat="45.77312" lon="2.98986">
        <ele>887.79998779297</ele>
        <time>2024-09-15T08:33:24.000Z</time>
      </trkpt>
      <trkpt lat="45.77311" lon="2.98983">
        <ele>888</ele>
        <time>2024-09-15T08:33:25.000Z</time>
      </trkpt>
      <trkpt lat="45.77311" lon="2.98979">
        <ele>888.20001220703</ele>
        <time>2024-09-15T08:33:26.000Z</time>
      </trkpt>
      <trkpt lat="45.77312" lon="2.98975">
        <ele>888.40002441406</ele>
        <time>2024-09-15T08:33:27.000Z</time>
      </trkpt>
      <trkpt lat="45.77312" lon="2.98971">
        <ele>888.59997558594</ele>
        <time>2024-09-15T08:33:28.000Z</time>
      </trkpt>
      <trkpt lat="45.77312" lon="2.98967">
        <ele>889</ele>
        <time>2024-09-15T08:33:29.000Z</time>
      </trkpt>
      <trkpt lat="45.77313" lon="2.98964">
        <ele>889.20001220703</ele>
        <time>2024-09-15T08:33:30.000Z</time>
      </trkpt>
      <trkpt lat="45.77314" lon="2.98961">
        <ele>889.20001220703</ele>
        <time>2024-09-15T08:33:31.000Z</time>
      </trkpt>
      <trkpt lat="45.77314" lon="2.98958">
        <ele>889.40002441406</ele>
        <time>2024-09-15T08:33:32.000Z</time>
      </trkpt>
      <trkpt lat="45.77315" lon="2.98955">
        <ele>889.40002441406</ele>
        <time>2024-09-15T08:33:33.000Z</time>
      </trkpt>
      <trkpt lat="45.77315" lon="2.98951">
        <ele>889.59997558594</ele>
        <time>2024-09-15T08:33:34.000Z</time>
      </trkpt>
      <trkpt lat="45.77316" lon="2.98947">
        <ele>890</ele>
        <time>2024-09-15T08:33:35.000Z</time>
      </trkpt>
      <trkpt lat="45.77317" lon="2.98943">
        <ele>890</ele>
        <time>2024-09-15T08:33:36.000Z</time>
      </trkpt>
      <trkpt lat="45.77317" lon="2.9894">
        <ele>890.20001220703</ele>
        <time>2024-09-15T08:33:37.000Z</time>
      </trkpt>
      <trkpt lat="45.77318" lon="2.98936">
        <ele>890.20001220703</ele>
        <time>2024-09-15T08:33:38.000Z</time>
      </trkpt>
      <trkpt lat="45.77318" lon="2.98933">
        <ele>890.40002441406</ele>
        <time>2024-09-15T08:33:39.000Z</time>
      </trkpt>
      <trkpt lat="45.77319" lon="2.98929">
        <ele>890.59997558594</ele>
        <time>2024-09-15T08:33:40.000Z</time>
      </trkpt>
      <trkpt lat="45.77319" lon="2.98926">
        <ele>891</ele>
        <time>2024-09-15T08:33:41.000Z</time>
      </trkpt>
      <trkpt lat="45.7732" lon="2.98923">
        <ele>891.20001220703</ele>
        <time>2024-09-15T08:33:42.000Z</time>
      </trkpt>
      <trkpt lat="45.77321" lon="2.98919">
        <ele>891.20001220703</ele>
        <time>2024-09-15T08:33:43.000Z</time>
      </trkpt>
      <trkpt lat="45.77322" lon="2.98916">
        <ele>891.40002441406</ele>
        <time>2024-09-15T08:33:44.000Z</time>
      </trkpt>
      <trkpt lat="45.77323" lon="2.98913">
        <ele>891.59997558594</ele>
        <time>2024-09-15T08:33:45.000Z</time>
      </trkpt>
      <trkpt lat="45.77324" lon="2.98909">
        <ele>892.20001220703</ele>
        <time>2024-09-15T08:33:46.000Z</time>
      </trkpt>
      <trkpt lat="45.77325" lon="2.98906">
        <ele>892.40002441406</ele>
        <time>2024-09-15T08:33:47.000Z</time>
      </trkpt>
      <trkpt lat="45.77326" lon="2.98903">
        <ele>892.59997558594</ele>
        <time>2024-09-15T08:33:48.000Z</time>
      </trkpt>
      <trkpt lat="45.77327" lon="2.989">
        <ele>892.79998779297</ele>
        <time>2024-09-15T08:33:49.000Z</time>
      </trkpt>
      <trkpt lat="45.77328" lon="2.98897">
        <ele>893</ele>
        <time>2024-09-15T08:33:50.000Z</time>
      </trkpt>
      <trkpt lat="45.77329" lon="2.98894">
        <ele>893</ele>
        <time>2024-09-15T08:33:51.000Z</time>
      </trkpt>
      <trkpt lat="45.7733" lon="2.98891">
        <ele>893.59997558594</ele>
        <time>2024-09-15T08:33:52.000Z</time>
      </trkpt>
      <trkpt lat="45.77331" lon="2.98889">
        <ele>893.79998779297</ele>
        <time>2024-09-15T08:33:53.000Z</time>
      </trkpt>
      <trkpt lat="45.77332" lon="2.98886">
        <ele>893.79998779297</ele>
        <time>2024-09-15T08:33:54.000Z</time>
      </trkpt>
      <trkpt lat="45.77333" lon="2.98883">
        <ele>894</ele>
        <time>2024-09-15T08:33:55.000Z</time>
      </trkpt>
      <trkpt lat="45.77334" lon="2.9888">
        <ele>894.20001220703</ele>
        <time>2024-09-15T08:33:56.000Z</time>
      </trkpt>
      <trkpt lat="45.77336" lon="2.98878">
        <ele>894.59997558594</ele>
        <time>2024-09-15T08:33:57.000Z</time>
      </trkpt>
      <trkpt lat="45.77337" lon="2.98876">
        <ele>894.59997558594</ele>
        <time>2024-09-15T08:33:58.000Z</time>
      </trkpt>
      <trkpt lat="45.77338" lon="2.98873">
        <ele>895</ele>
        <time>2024-09-15T08:33:59.000Z</time>
      </trkpt>
      <trkpt lat="45.77339" lon="2.9887">
        <ele>895.20001220703</ele>
        <time>2024-09-15T08:34:00.000Z</time>
      </trkpt>
      <trkpt lat="45.7734" lon="2.98867">
        <ele>895.40002441406</ele>
        <time>2024-09-15T08:34:01.000Z</time>
      </trkpt>
      <trkpt lat="45.77341" lon="2.98864">
        <ele>895.40002441406</ele>
        <time>2024-09-15T08:34:02.000Z</time>
      </trkpt>
      <trkpt lat="45.77342" lon="2.98861">
        <ele>895.79998779297</ele>
        <time>2024-09-15T08:34:03.000Z</time>
      </trkpt>
      <trkpt lat="45.77343" lon="2.98858">
        <ele>896.20001220703</ele>
        <time>2024-09-15T08:34:04.000Z</time>
      </trkpt>
      <trkpt lat="45.77344" lon="2.98855">
        <ele>896.59997558594</ele>
        <time>2024-09-15T08:34:05.000Z</time>
      </trkpt>
      <trkpt lat="45.77346" lon="2.98853">
        <ele>896.79998779297</ele>
        <time>2024-09-15T08:34:06.000Z</time>
      </trkpt>
      <trkpt lat="45.77347" lon="2.9885">
        <ele>897.20001220703</ele>
        <time>2024-09-15T08:34:07.000Z</time>
      </trkpt>
      <trkpt lat="45.77348" lon="2.98847">
        <ele>897.20001220703</ele>
        <time>2024-09-15T08:34:08.000Z</time>
      </trkpt>
      <trkpt lat="45.77349" lon="2.98844">
        <ele>897.40002441406</ele>
        <time>2024-09-15T08:34:09.000Z</time>
      </trkpt>
      <trkpt lat="45.77351" lon="2.98841">
        <ele>897.79998779297</ele>
        <time>2024-09-15T08:34:10.000Z</time>
      </trkpt>
      <trkpt lat="45.77352" lon="2.98839">
        <ele>897.79998779297</ele>
        <time>2024-09-15T08:34:11.000Z</time>
      </trkpt>
      <trkpt lat="45.77353" lon="2.98836">
        <ele>897.79998779297</ele>
        <time>2024-09-15T08:34:12.000Z</time>
      </trkpt>
      <trkpt lat="45.77355" lon="2.98834">
        <ele>897.79998779297</ele>
        <time>2024-09-15T08:34:13.000Z</time>
      </trkpt>
      <trkpt lat="45.77357" lon="2.98831">
        <ele>898</ele>
        <time>2024-09-15T08:34:14.000Z</time>
      </trkpt>
      <trkpt lat="45.77359" lon="2.98828">
        <ele>898.20001220703</ele>
        <time>2024-09-15T08:34:15.000Z</time>
      </trkpt>
      <trkpt lat="45.7736" lon="2.98826">
        <ele>898.40002441406</ele>
        <time>2024-09-15T08:34:16.000Z</time>
      </trkpt>
      <trkpt lat="45.77362" lon="2.98823">
        <ele>898.59997558594</ele>
        <time>2024-09-15T08:34:17.000Z</time>
      </trkpt>
      <trkpt lat="45.77364" lon="2.9882">
        <ele>898.59997558594</ele>
        <time>2024-09-15T08:34:18.000Z</time>
      </trkpt>
      <trkpt lat="45.77365" lon="2.98816">
        <ele>898.79998779297</ele>
        <time>2024-09-15T08:34:19.000Z</time>
      </trkpt>
      <trkpt lat="45.77368" lon="2.98813">
        <ele>899.20001220703</ele>
        <time>2024-09-15T08:34:20.000Z</time>
      </trkpt>
      <trkpt lat="45.7737" lon="2.98809">
        <ele>899.40002441406</ele>
        <time>2024-09-15T08:34:21.000Z</time>
      </trkpt>
      <trkpt lat="45.77372" lon="2.98806">
        <ele>899.40002441406</ele>
        <time>2024-09-15T08:34:22.000Z</time>
      </trkpt>
      <trkpt lat="45.77375" lon="2.98804">
        <ele>899.59997558594</ele>
        <time>2024-09-15T08:34:23.000Z</time>
      </trkpt>
      <trkpt lat="45.77376" lon="2.98802">
        <ele>899.79998779297</ele>
        <time>2024-09-15T08:34:24.000Z</time>
      </trkpt>
      <trkpt lat="45.77378" lon="2.98799">
        <ele>900</ele>
        <time>2024-09-15T08:34:25.000Z</time>
      </trkpt>
      <trkpt lat="45.7738" lon="2.98797">
        <ele>900.20001220703</ele>
        <time>2024-09-15T08:34:26.000Z</time>
      </trkpt>
      <trkpt lat="45.77382" lon="2.98795">
        <ele>900.40002441406</ele>
        <time>2024-09-15T08:34:27.000Z</time>
      </trkpt>
      <trkpt lat="45.77384" lon="2.98794">
        <ele>900.59997558594</ele>
        <time>2024-09-15T08:34:28.000Z</time>
      </trkpt>
      <trkpt lat="45.77387" lon="2.98792">
        <ele>900.79998779297</ele>
        <time>2024-09-15T08:34:29.000Z</time>
      </trkpt>
      <trkpt lat="45.77388" lon="2.98788">
        <ele>901.20001220703</ele>
        <time>2024-09-15T08:34:30.000Z</time>
      </trkpt>
      <trkpt lat="45.77389" lon="2.98785">
        <ele>901.40002441406</ele>
        <time>2024-09-15T08:34:31.000Z</time>
      </trkpt>
      <trkpt lat="45.77391" lon="2.98783">
        <ele>901.40002441406</ele>
        <time>2024-09-15T08:34:32.000Z</time>
      </trkpt>
      <trkpt lat="45.77393" lon="2.98781">
        <ele>901.59997558594</ele>
        <time>2024-09-15T08:34:33.000Z</time>
      </trkpt>
      <trkpt lat="45.77395" lon="2.98779">
        <ele>901.59997558594</ele>
        <time>2024-09-15T08:34:34.000Z</time>
      </trkpt>
      <trkpt lat="45.77397" lon="2.98777">
        <ele>902</ele>
        <time>2024-09-15T08:34:35.000Z</time>
      </trkpt>
      <trkpt lat="45.77399" lon="2.98774">
        <ele>902</ele>
        <time>2024-09-15T08:34:36.000Z</time>
      </trkpt>
      <trkpt lat="45.77401" lon="2.98772">
        <ele>902.20001220703</ele>
        <time>2024-09-15T08:34:37.000Z</time>
      </trkpt>
      <trkpt lat="45.77403" lon="2.98769">
        <ele>902.20001220703</ele>
        <time>2024-09-15T08:34:38.000Z</time>
      </trkpt>
      <trkpt lat="45.77404" lon="2.98767">
        <ele>902.40002441406</ele>
        <time>2024-09-15T08:34:39.000Z</time>
      </trkpt>
      <trkpt lat="45.77406" lon="2.98764">
        <ele>903.20001220703</ele>
        <time>2024-09-15T08:34:40.000Z</time>
      </trkpt>
      <trkpt lat="45.77408" lon="2.98761">
        <ele>903.20001220703</ele>
        <time>2024-09-15T08:34:41.000Z</time>
      </trkpt>
      <trkpt lat="45.77409" lon="2.98758">
        <ele>903.40002441406</ele>
        <time>2024-09-15T08:34:42.000Z</time>
      </trkpt>
      <trkpt lat="45.77411" lon="2.98755">
        <ele>903.59997558594</ele>
        <time>2024-09-15T08:34:43.000Z</time>
      </trkpt>
      <trkpt lat="45.77412" lon="2.98753">
        <ele>903.79998779297</ele>
        <time>2024-09-15T08:34:44.000Z</time>
      </trkpt>
      <trkpt lat="45.77414" lon="2.9875">
        <ele>904</ele>
        <time>2024-09-15T08:34:45.000Z</time>
      </trkpt>
      <trkpt lat="45.77416" lon="2.98747">
        <ele>904.40002441406</ele>
        <time>2024-09-15T08:34:46.000Z</time>
      </trkpt>
      <trkpt lat="45.77417" lon="2.98745">
        <ele>904.59997558594</ele>
        <time>2024-09-15T08:34:47.000Z</time>
      </trkpt>
      <trkpt lat="45.77419" lon="2.98742">
        <ele>904.79998779297</ele>
        <time>2024-09-15T08:34:48.000Z</time>
      </trkpt>
      <trkpt lat="45.77421" lon="2.98739">
        <ele>904.79998779297</ele>
        <time>2024-09-15T08:34:49.000Z</time>
      </trkpt>
      <trkpt lat="45.77422" lon="2.98736">
        <ele>904.79998779297</ele>
        <time>2024-09-15T08:34:50.000Z</time>
      </trkpt>
      <trkpt lat="45.77424" lon="2.98733">
        <ele>904.79998779297</ele>
        <time>2024-09-15T08:34:51.000Z</time>
      </trkpt>
      <trkpt lat="45.77426" lon="2.98731">
        <ele>904.79998779297</ele>
        <time>2024-09-15T08:34:52.000Z</time>
      </trkpt>
      <trkpt lat="45.77427" lon="2.98728">
        <ele>904.79998779297</ele>
        <time>2024-09-15T08:34:53.000Z</time>
      </trkpt>
      <trkpt lat="45.77429" lon="2.98726">
        <ele>904.79998779297</ele>
        <time>2024-09-15T08:34:54.000Z</time>
      </trkpt>
      <trkpt lat="45.77431" lon="2.98723">
        <ele>904.79998779297</ele>
        <time>2024-09-15T08:34:55.000Z</time>
      </trkpt>
      <trkpt lat="45.77433" lon="2.98721">
        <ele>905</ele>
        <time>2024-09-15T08:34:56.000Z</time>
      </trkpt>
      <trkpt lat="45.77436" lon="2.98718">
        <ele>905.20001220703</ele>
        <time>2024-09-15T08:34:57.000Z</time>
      </trkpt>
      <trkpt lat="45.77437" lon="2.98716">
        <ele>905.20001220703</ele>
        <time>2024-09-15T08:34:58.000Z</time>
      </trkpt>
      <trkpt lat="45.77439" lon="2.98713">
        <ele>905.40002441406</ele>
        <time>2024-09-15T08:34:59.000Z</time>
      </trkpt>
      <trkpt lat="45.77441" lon="2.9871">
        <ele>905.40002441406</ele>
        <time>2024-09-15T08:35:00.000Z</time>
      </trkpt>
      <trkpt lat="45.77443" lon="2.98707">
        <ele>905.40002441406</ele>
        <time>2024-09-15T08:35:01.000Z</time>
      </trkpt>
      <trkpt lat="45.77445" lon="2.98704">
        <ele>905.59997558594</ele>
        <time>2024-09-15T08:35:02.000Z</time>
      </trkpt>
      <trkpt lat="45.77446" lon="2.98702">
        <ele>905.59997558594</ele>
        <time>2024-09-15T08:35:03.000Z</time>
      </trkpt>
      <trkpt lat="45.77448" lon="2.98699">
        <ele>905.59997558594</ele>
        <time>2024-09-15T08:35:04.000Z</time>
      </trkpt>
      <trkpt lat="45.7745" lon="2.98696">
        <ele>905.79998779297</ele>
        <time>2024-09-15T08:35:05.000Z</time>
      </trkpt>
      <trkpt lat="45.77452" lon="2.98694">
        <ele>905.79998779297</ele>
        <time>2024-09-15T08:35:06.000Z</time>
      </trkpt>
      <trkpt lat="45.77454" lon="2.98691">
        <ele>906</ele>
        <time>2024-09-15T08:35:07.000Z</time>
      </trkpt>
      <trkpt lat="45.77456" lon="2.98689">
        <ele>906</ele>
        <time>2024-09-15T08:35:08.000Z</time>
      </trkpt>
      <trkpt lat="45.77457" lon="2.98686">
        <ele>906</ele>
        <time>2024-09-15T08:35:09.000Z</time>
      </trkpt>
      <trkpt lat="45.77459" lon="2.98683">
        <ele>906.20001220703</ele>
        <time>2024-09-15T08:35:10.000Z</time>
      </trkpt>
      <trkpt lat="45.77461" lon="2.9868">
        <ele>906.20001220703</ele>
        <time>2024-09-15T08:35:11.000Z</time>
      </trkpt>
      <trkpt lat="45.77463" lon="2.98677">
        <ele>906.40002441406</ele>
        <time>2024-09-15T08:35:12.000Z</time>
      </trkpt>
      <trkpt lat="45.77465" lon="2.98674">
        <ele>906.40002441406</ele>
        <time>2024-09-15T08:35:13.000Z</time>
      </trkpt>
      <trkpt lat="45.77467" lon="2.98672">
        <ele>906.40002441406</ele>
        <time>2024-09-15T08:35:14.000Z</time>
      </trkpt>
      <trkpt lat="45.77468" lon="2.98669">
        <ele>906.40002441406</ele>
        <time>2024-09-15T08:35:15.000Z</time>
      </trkpt>
      <trkpt lat="45.7747" lon="2.98666">
        <ele>906.40002441406</ele>
        <time>2024-09-15T08:35:16.000Z</time>
      </trkpt>
      <trkpt lat="45.77472" lon="2.98663">
        <ele>906.59997558594</ele>
        <time>2024-09-15T08:35:17.000Z</time>
      </trkpt>
      <trkpt lat="45.77474" lon="2.9866">
        <ele>906.59997558594</ele>
        <time>2024-09-15T08:35:18.000Z</time>
      </trkpt>
      <trkpt lat="45.77475" lon="2.98657">
        <ele>906.59997558594</ele>
        <time>2024-09-15T08:35:19.000Z</time>
      </trkpt>
      <trkpt lat="45.77478" lon="2.98655">
        <ele>906.59997558594</ele>
        <time>2024-09-15T08:35:20.000Z</time>
      </trkpt>
      <trkpt lat="45.77479" lon="2.98652">
        <ele>906.59997558594</ele>
        <time>2024-09-15T08:35:21.000Z</time>
      </trkpt>
      <trkpt lat="45.77481" lon="2.9865">
        <ele>906.79998779297</ele>
        <time>2024-09-15T08:35:22.000Z</time>
      </trkpt>
      <trkpt lat="45.77483" lon="2.98647">
        <ele>906.79998779297</ele>
        <time>2024-09-15T08:35:23.000Z</time>
      </trkpt>
      <trkpt lat="45.77484" lon="2.98644">
        <ele>907</ele>
        <time>2024-09-15T08:35:24.000Z</time>
      </trkpt>
      <trkpt lat="45.77486" lon="2.98641">
        <ele>907</ele>
        <time>2024-09-15T08:35:25.000Z</time>
      </trkpt>
      <trkpt lat="45.77488" lon="2.98639">
        <ele>907.20001220703</ele>
        <time>2024-09-15T08:35:26.000Z</time>
      </trkpt>
      <trkpt lat="45.7749" lon="2.98636">
        <ele>907.40002441406</ele>
        <time>2024-09-15T08:35:27.000Z</time>
      </trkpt>
      <trkpt lat="45.77492" lon="2.98633">
        <ele>907.40002441406</ele>
        <time>2024-09-15T08:35:28.000Z</time>
      </trkpt>
      <trkpt lat="45.77494" lon="2.9863">
        <ele>907.59997558594</ele>
        <time>2024-09-15T08:35:29.000Z</time>
      </trkpt>
      <trkpt lat="45.77496" lon="2.98627">
        <ele>907.59997558594</ele>
        <time>2024-09-15T08:35:30.000Z</time>
      </trkpt>
      <trkpt lat="45.77497" lon="2.98624">
        <ele>907.79998779297</ele>
        <time>2024-09-15T08:35:31.000Z</time>
      </trkpt>
      <trkpt lat="45.77499" lon="2.98621">
        <ele>908</ele>
        <time>2024-09-15T08:35:32.000Z</time>
      </trkpt>
      <trkpt lat="45.77501" lon="2.98619">
        <ele>908.20001220703</ele>
        <time>2024-09-15T08:35:33.000Z</time>
      </trkpt>
      <trkpt lat="45.77503" lon="2.98616">
        <ele>908.20001220703</ele>
        <time>2024-09-15T08:35:34.000Z</time>
      </trkpt>
      <trkpt lat="45.77505" lon="2.98613">
        <ele>908.20001220703</ele>
        <time>2024-09-15T08:35:35.000Z</time>
      </trkpt>
      <trkpt lat="45.77506" lon="2.98611">
        <ele>908.40002441406</ele>
        <time>2024-09-15T08:35:36.000Z</time>
      </trkpt>
      <trkpt lat="45.77508" lon="2.98608">
        <ele>908.59997558594</ele>
        <time>2024-09-15T08:35:37.000Z</time>
      </trkpt>
      <trkpt lat="45.7751" lon="2.98605">
        <ele>908.59997558594</ele>
        <time>2024-09-15T08:35:38.000Z</time>
      </trkpt>
      <trkpt lat="45.77512" lon="2.98603">
        <ele>908.59997558594</ele>
        <time>2024-09-15T08:35:39.000Z</time>
      </trkpt>
      <trkpt lat="45.77514" lon="2.986">
        <ele>908.59997558594</ele>
        <time>2024-09-15T08:35:40.000Z</time>
      </trkpt>
      <trkpt lat="45.77515" lon="2.98597">
        <ele>908.59997558594</ele>
        <time>2024-09-15T08:35:41.000Z</time>
      </trkpt>
      <trkpt lat="45.77517" lon="2.98595">
        <ele>909</ele>
        <time>2024-09-15T08:35:42.000Z</time>
      </trkpt>
      <trkpt lat="45.77519" lon="2.98592">
        <ele>909.20001220703</ele>
        <time>2024-09-15T08:35:43.000Z</time>
      </trkpt>
      <trkpt lat="45.7752" lon="2.9859">
        <ele>909.40002441406</ele>
        <time>2024-09-15T08:35:44.000Z</time>
      </trkpt>
      <trkpt lat="45.77522" lon="2.98587">
        <ele>909.59997558594</ele>
        <time>2024-09-15T08:35:45.000Z</time>
      </trkpt>
      <trkpt lat="45.77524" lon="2.98585">
        <ele>909.79998779297</ele>
        <time>2024-09-15T08:35:46.000Z</time>
      </trkpt>
      <trkpt lat="45.77525" lon="2.98583">
        <ele>909.79998779297</ele>
        <time>2024-09-15T08:35:47.000Z</time>
      </trkpt>
      <trkpt lat="45.77527" lon="2.9858">
        <ele>910</ele>
        <time>2024-09-15T08:35:48.000Z</time>
      </trkpt>
      <trkpt lat="45.77528" lon="2.98577">
        <ele>910.20001220703</ele>
        <time>2024-09-15T08:35:49.000Z</time>
      </trkpt>
      <trkpt lat="45.7753" lon="2.98574">
        <ele>910.40002441406</ele>
        <time>2024-09-15T08:35:50.000Z</time>
      </trkpt>
      <trkpt lat="45.77532" lon="2.98572">
        <ele>910.40002441406</ele>
        <time>2024-09-15T08:35:51.000Z</time>
      </trkpt>
      <trkpt lat="45.77533" lon="2.98569">
        <ele>910.59997558594</ele>
        <time>2024-09-15T08:35:52.000Z</time>
      </trkpt>
      <trkpt lat="45.77535" lon="2.98566">
        <ele>910.59997558594</ele>
        <time>2024-09-15T08:35:53.000Z</time>
      </trkpt>
      <trkpt lat="45.77537" lon="2.98564">
        <ele>911</ele>
        <time>2024-09-15T08:35:54.000Z</time>
      </trkpt>
      <trkpt lat="45.77538" lon="2.98561">
        <ele>911</ele>
        <time>2024-09-15T08:35:55.000Z</time>
      </trkpt>
      <trkpt lat="45.77541" lon="2.98558">
        <ele>911.20001220703</ele>
        <time>2024-09-15T08:35:56.000Z</time>
      </trkpt>
      <trkpt lat="45.77542" lon="2.98556">
        <ele>911.40002441406</ele>
        <time>2024-09-15T08:35:57.000Z</time>
      </trkpt>
      <trkpt lat="45.77544" lon="2.98553">
        <ele>911.79998779297</ele>
        <time>2024-09-15T08:35:58.000Z</time>
      </trkpt>
      <trkpt lat="45.77545" lon="2.98551">
        <ele>912</ele>
        <time>2024-09-15T08:35:59.000Z</time>
      </trkpt>
      <trkpt lat="45.77547" lon="2.98548">
        <ele>912</ele>
        <time>2024-09-15T08:36:00.000Z</time>
      </trkpt>
      <trkpt lat="45.77549" lon="2.98546">
        <ele>912.40002441406</ele>
        <time>2024-09-15T08:36:01.000Z</time>
      </trkpt>
      <trkpt lat="45.7755" lon="2.98544">
        <ele>912.59997558594</ele>
        <time>2024-09-15T08:36:02.000Z</time>
      </trkpt>
      <trkpt lat="45.77552" lon="2.98541">
        <ele>912.59997558594</ele>
        <time>2024-09-15T08:36:03.000Z</time>
      </trkpt>
      <trkpt lat="45.77554" lon="2.98538">
        <ele>912.79998779297</ele>
        <time>2024-09-15T08:36:04.000Z</time>
      </trkpt>
      <trkpt lat="45.77555" lon="2.98536">
        <ele>913</ele>
        <time>2024-09-15T08:36:05.000Z</time>
      </trkpt>
      <trkpt lat="45.77557" lon="2.98533">
        <ele>913.20001220703</ele>
        <time>2024-09-15T08:36:06.000Z</time>
      </trkpt>
      <trkpt lat="45.77559" lon="2.9853">
        <ele>913.40002441406</ele>
        <time>2024-09-15T08:36:07.000Z</time>
      </trkpt>
      <trkpt lat="45.7756" lon="2.98527">
        <ele>913.59997558594</ele>
        <time>2024-09-15T08:36:08.000Z</time>
      </trkpt>
      <trkpt lat="45.77562" lon="2.98524">
        <ele>913.79998779297</ele>
        <time>2024-09-15T08:36:09.000Z</time>
      </trkpt>
      <trkpt lat="45.77563" lon="2.98522">
        <ele>914</ele>
        <time>2024-09-15T08:36:10.000Z</time>
      </trkpt>
      <trkpt lat="45.77565" lon="2.98519">
        <ele>914.20001220703</ele>
        <time>2024-09-15T08:36:11.000Z</time>
      </trkpt>
      <trkpt lat="45.77566" lon="2.98516">
        <ele>914.20001220703</ele>
        <time>2024-09-15T08:36:12.000Z</time>
      </trkpt>
      <trkpt lat="45.77567" lon="2.98514">
        <ele>914.40002441406</ele>
        <time>2024-09-15T08:36:13.000Z</time>
      </trkpt>
      <trkpt lat="45.77569" lon="2.98511">
        <ele>914.79998779297</ele>
        <time>2024-09-15T08:36:14.000Z</time>
      </trkpt>
      <trkpt lat="45.7757" lon="2.98508">
        <ele>915</ele>
        <time>2024-09-15T08:36:15.000Z</time>
      </trkpt>
      <trkpt lat="45.77572" lon="2.98505">
        <ele>915.59997558594</ele>
        <time>2024-09-15T08:36:16.000Z</time>
      </trkpt>
      <trkpt lat="45.77573" lon="2.98502">
        <ele>915.79998779297</ele>
        <time>2024-09-15T08:36:17.000Z</time>
      </trkpt>
      <trkpt lat="45.77574" lon="2.985">
        <ele>915.79998779297</ele>
        <time>2024-09-15T08:36:18.000Z</time>
      </trkpt>
      <trkpt lat="45.77576" lon="2.98497">
        <ele>916</ele>
        <time>2024-09-15T08:36:19.000Z</time>
      </trkpt>
      <trkpt lat="45.77576" lon="2.98494">
        <ele>916.20001220703</ele>
        <time>2024-09-15T08:36:20.000Z</time>
      </trkpt>
      <trkpt lat="45.77578" lon="2.98491">
        <ele>916.40002441406</ele>
        <time>2024-09-15T08:36:21.000Z</time>
      </trkpt>
      <trkpt lat="45.77579" lon="2.98488">
        <ele>916.79998779297</ele>
        <time>2024-09-15T08:36:22.000Z</time>
      </trkpt>
      <trkpt lat="45.77581" lon="2.98485">
        <ele>917.20001220703</ele>
        <time>2024-09-15T08:36:23.000Z</time>
      </trkpt>
      <trkpt lat="45.77582" lon="2.98483">
        <ele>917.59997558594</ele>
        <time>2024-09-15T08:36:24.000Z</time>
      </trkpt>
      <trkpt lat="45.77583" lon="2.9848">
        <ele>917.79998779297</ele>
        <time>2024-09-15T08:36:25.000Z</time>
      </trkpt>
      <trkpt lat="45.77585" lon="2.98477">
        <ele>918.20001220703</ele>
        <time>2024-09-15T08:36:26.000Z</time>
      </trkpt>
      <trkpt lat="45.77586" lon="2.98474">
        <ele>918.59997558594</ele>
        <time>2024-09-15T08:36:27.000Z</time>
      </trkpt>
      <trkpt lat="45.77587" lon="2.98472">
        <ele>918.79998779297</ele>
        <time>2024-09-15T08:36:28.000Z</time>
      </trkpt>
      <trkpt lat="45.77589" lon="2.98469">
        <ele>919</ele>
        <time>2024-09-15T08:36:29.000Z</time>
      </trkpt>
      <trkpt lat="45.7759" lon="2.98466">
        <ele>919.20001220703</ele>
        <time>2024-09-15T08:36:30.000Z</time>
      </trkpt>
      <trkpt lat="45.77591" lon="2.98464">
        <ele>919.20001220703</ele>
        <time>2024-09-15T08:36:31.000Z</time>
      </trkpt>
      <trkpt lat="45.77593" lon="2.98461">
        <ele>919.59997558594</ele>
        <time>2024-09-15T08:36:32.000Z</time>
      </trkpt>
      <trkpt lat="45.77594" lon="2.98458">
        <ele>919.79998779297</ele>
        <time>2024-09-15T08:36:33.000Z</time>
      </trkpt>
      <trkpt lat="45.77595" lon="2.98455">
        <ele>920</ele>
        <time>2024-09-15T08:36:34.000Z</time>
      </trkpt>
      <trkpt lat="45.77597" lon="2.98453">
        <ele>920.40002441406</ele>
        <time>2024-09-15T08:36:35.000Z</time>
      </trkpt>
      <trkpt lat="45.77598" lon="2.9845">
        <ele>920.59997558594</ele>
        <time>2024-09-15T08:36:36.000Z</time>
      </trkpt>
      <trkpt lat="45.77599" lon="2.98448">
        <ele>920.59997558594</ele>
        <time>2024-09-15T08:36:37.000Z</time>
      </trkpt>
      <trkpt lat="45.776" lon="2.98445">
        <ele>921.20001220703</ele>
        <time>2024-09-15T08:36:38.000Z</time>
      </trkpt>
      <trkpt lat="45.77602" lon="2.98442">
        <ele>921.59997558594</ele>
        <time>2024-09-15T08:36:39.000Z</time>
      </trkpt>
      <trkpt lat="45.77603" lon="2.9844">
        <ele>921.79998779297</ele>
        <time>2024-09-15T08:36:40.000Z</time>
      </trkpt>
      <trkpt lat="45.77604" lon="2.98437">
        <ele>922.20001220703</ele>
        <time>2024-09-15T08:36:41.000Z</time>
      </trkpt>
      <trkpt lat="45.77605" lon="2.98434">
        <ele>922.40002441406</ele>
        <time>2024-09-15T08:36:42.000Z</time>
      </trkpt>
      <trkpt lat="45.77607" lon="2.98432">
        <ele>922.59997558594</ele>
        <time>2024-09-15T08:36:43.000Z</time>
      </trkpt>
      <trkpt lat="45.77608" lon="2.98429">
        <ele>922.79998779297</ele>
        <time>2024-09-15T08:36:44.000Z</time>
      </trkpt>
      <trkpt lat="45.77609" lon="2.98426">
        <ele>923.20001220703</ele>
        <time>2024-09-15T08:36:45.000Z</time>
      </trkpt>
      <trkpt lat="45.7761" lon="2.98424">
        <ele>923.20001220703</ele>
        <time>2024-09-15T08:36:46.000Z</time>
      </trkpt>
      <trkpt lat="45.77612" lon="2.98421">
        <ele>923.40002441406</ele>
        <time>2024-09-15T08:36:47.000Z</time>
      </trkpt>
      <trkpt lat="45.77613" lon="2.98419">
        <ele>923.79998779297</ele>
        <time>2024-09-15T08:36:48.000Z</time>
      </trkpt>
      <trkpt lat="45.77614" lon="2.98415">
        <ele>924</ele>
        <time>2024-09-15T08:36:49.000Z</time>
      </trkpt>
      <trkpt lat="45.77616" lon="2.98412">
        <ele>924</ele>
        <time>2024-09-15T08:36:50.000Z</time>
      </trkpt>
      <trkpt lat="45.77617" lon="2.98409">
        <ele>924.20001220703</ele>
        <time>2024-09-15T08:36:51.000Z</time>
      </trkpt>
      <trkpt lat="45.77618" lon="2.98407">
        <ele>924.40002441406</ele>
        <time>2024-09-15T08:36:52.000Z</time>
      </trkpt>
      <trkpt lat="45.7762" lon="2.98404">
        <ele>924.79998779297</ele>
        <time>2024-09-15T08:36:53.000Z</time>
      </trkpt>
      <trkpt lat="45.77621" lon="2.98401">
        <ele>925</ele>
        <time>2024-09-15T08:36:54.000Z</time>
      </trkpt>
      <trkpt lat="45.77623" lon="2.98398">
        <ele>925.20001220703</ele>
        <time>2024-09-15T08:36:55.000Z</time>
      </trkpt>
      <trkpt lat="45.77624" lon="2.98395">
        <ele>925.40002441406</ele>
        <time>2024-09-15T08:36:56.000Z</time>
      </trkpt>
      <trkpt lat="45.77626" lon="2.98391">
        <ele>925.40002441406</ele>
        <time>2024-09-15T08:36:57.000Z</time>
      </trkpt>
      <trkpt lat="45.77626" lon="2.98388">
        <ele>925.59997558594</ele>
        <time>2024-09-15T08:36:58.000Z</time>
      </trkpt>
      <trkpt lat="45.77626" lon="2.98384">
        <ele>925.79998779297</ele>
        <time>2024-09-15T08:36:59.000Z</time>
      </trkpt>
      <trkpt lat="45.77624" lon="2.98381">
        <ele>925.79998779297</ele>
        <time>2024-09-15T08:37:00.000Z</time>
      </trkpt>
      <trkpt lat="45.77622" lon="2.98378">
        <ele>925.79998779297</ele>
        <time>2024-09-15T08:37:01.000Z</time>
      </trkpt>
      <trkpt lat="45.77619" lon="2.98375">
        <ele>925.79998779297</ele>
        <time>2024-09-15T08:37:02.000Z</time>
      </trkpt>
      <trkpt lat="45.77616" lon="2.98373">
        <ele>925.79998779297</ele>
        <time>2024-09-15T08:37:03.000Z</time>
      </trkpt>
      <trkpt lat="45.77613" lon="2.98371">
        <ele>925.79998779297</ele>
        <time>2024-09-15T08:37:04.000Z</time>
      </trkpt>
      <trkpt lat="45.77611" lon="2.98368">
        <ele>925.79998779297</ele>
        <time>2024-09-15T08:37:05.000Z</time>
      </trkpt>
      <trkpt lat="45.77608" lon="2.98366">
        <ele>925.59997558594</ele>
        <time>2024-09-15T08:37:06.000Z</time>
      </trkpt>
      <trkpt lat="45.77605" lon="2.98363">
        <ele>925.59997558594</ele>
        <time>2024-09-15T08:37:07.000Z</time>
      </trkpt>
      <trkpt lat="45.77602" lon="2.98361">
        <ele>925.40002441406</ele>
        <time>2024-09-15T08:37:08.000Z</time>
      </trkpt>
      <trkpt lat="45.77599" lon="2.98359">
        <ele>925.40002441406</ele>
        <time>2024-09-15T08:37:09.000Z</time>
      </trkpt>
      <trkpt lat="45.77596" lon="2.98357">
        <ele>925.20001220703</ele>
        <time>2024-09-15T08:37:10.000Z</time>
      </trkpt>
      <trkpt lat="45.77594" lon="2.98355">
        <ele>925</ele>
        <time>2024-09-15T08:37:11.000Z</time>
      </trkpt>
      <trkpt lat="45.7759" lon="2.98352">
        <ele>924.79998779297</ele>
        <time>2024-09-15T08:37:12.000Z</time>
      </trkpt>
      <trkpt lat="45.77587" lon="2.98349">
        <ele>924.59997558594</ele>
        <time>2024-09-15T08:37:13.000Z</time>
      </trkpt>
      <trkpt lat="45.77584" lon="2.98347">
        <ele>924.40002441406</ele>
        <time>2024-09-15T08:37:14.000Z</time>
      </trkpt>
      <trkpt lat="45.77581" lon="2.98343">
        <ele>924.20001220703</ele>
        <time>2024-09-15T08:37:15.000Z</time>
      </trkpt>
      <trkpt lat="45.77578" lon="2.98341">
        <ele>924.20001220703</ele>
        <time>2024-09-15T08:37:16.000Z</time>
      </trkpt>
      <trkpt lat="45.77575" lon="2.98339">
        <ele>924</ele>
        <time>2024-09-15T08:37:17.000Z</time>
      </trkpt>
      <trkpt lat="45.77573" lon="2.98337">
        <ele>923.79998779297</ele>
        <time>2024-09-15T08:37:18.000Z</time>
      </trkpt>
      <trkpt lat="45.77569" lon="2.98335">
        <ele>923.59997558594</ele>
        <time>2024-09-15T08:37:19.000Z</time>
      </trkpt>
      <trkpt lat="45.77566" lon="2.98332">
        <ele>923.40002441406</ele>
        <time>2024-09-15T08:37:20.000Z</time>
      </trkpt>
      <trkpt lat="45.77563" lon="2.9833">
        <ele>923.40002441406</ele>
        <time>2024-09-15T08:37:21.000Z</time>
      </trkpt>
      <trkpt lat="45.7756" lon="2.98328">
        <ele>923.20001220703</ele>
        <time>2024-09-15T08:37:22.000Z</time>
      </trkpt>
      <trkpt lat="45.77557" lon="2.98326">
        <ele>923.20001220703</ele>
        <time>2024-09-15T08:37:23.000Z</time>
      </trkpt>
      <trkpt lat="45.77554" lon="2.98324">
        <ele>923</ele>
        <time>2024-09-15T08:37:24.000Z</time>
      </trkpt>
      <trkpt lat="45.7755" lon="2.98323">
        <ele>922.79998779297</ele>
        <time>2024-09-15T08:37:25.000Z</time>
      </trkpt>
      <trkpt lat="45.77547" lon="2.98322">
        <ele>922.79998779297</ele>
        <time>2024-09-15T08:37:26.000Z</time>
      </trkpt>
      <trkpt lat="45.77544" lon="2.9832">
        <ele>922.79998779297</ele>
        <time>2024-09-15T08:37:27.000Z</time>
      </trkpt>
      <trkpt lat="45.77542" lon="2.98318">
        <ele>922.79998779297</ele>
        <time>2024-09-15T08:37:28.000Z</time>
      </trkpt>
      <trkpt lat="45.77538" lon="2.98316">
        <ele>922.59997558594</ele>
        <time>2024-09-15T08:37:29.000Z</time>
      </trkpt>
      <trkpt lat="45.77535" lon="2.98314">
        <ele>922.40002441406</ele>
        <time>2024-09-15T08:37:30.000Z</time>
      </trkpt>
      <trkpt lat="45.77532" lon="2.98312">
        <ele>922.40002441406</ele>
        <time>2024-09-15T08:37:31.000Z</time>
      </trkpt>
      <trkpt lat="45.77529" lon="2.9831">
        <ele>922.20001220703</ele>
        <time>2024-09-15T08:37:32.000Z</time>
      </trkpt>
      <trkpt lat="45.77526" lon="2.98309">
        <ele>922.20001220703</ele>
        <time>2024-09-15T08:37:33.000Z</time>
      </trkpt>
      <trkpt lat="45.77523" lon="2.98308">
        <ele>922.20001220703</ele>
        <time>2024-09-15T08:37:34.000Z</time>
      </trkpt>
      <trkpt lat="45.7752" lon="2.98307">
        <ele>922</ele>
        <time>2024-09-15T08:37:35.000Z</time>
      </trkpt>
      <trkpt lat="45.77516" lon="2.98305">
        <ele>922</ele>
        <time>2024-09-15T08:37:36.000Z</time>
      </trkpt>
      <trkpt lat="45.77514" lon="2.98304">
        <ele>922</ele>
        <time>2024-09-15T08:37:37.000Z</time>
      </trkpt>
      <trkpt lat="45.7751" lon="2.98302">
        <ele>922</ele>
        <time>2024-09-15T08:37:38.000Z</time>
      </trkpt>
      <trkpt lat="45.77507" lon="2.98301">
        <ele>922</ele>
        <time>2024-09-15T08:37:39.000Z</time>
      </trkpt>
      <trkpt lat="45.77505" lon="2.98299">
        <ele>922</ele>
        <time>2024-09-15T08:37:40.000Z</time>
      </trkpt>
      <trkpt lat="45.77502" lon="2.98297">
        <ele>922</ele>
        <time>2024-09-15T08:37:41.000Z</time>
      </trkpt>
      <trkpt lat="45.77499" lon="2.98295">
        <ele>922</ele>
        <time>2024-09-15T08:37:42.000Z</time>
      </trkpt>
      <trkpt lat="45.77496" lon="2.98293">
        <ele>922</ele>
        <time>2024-09-15T08:37:43.000Z</time>
      </trkpt>
      <trkpt lat="45.77494" lon="2.98291">
        <ele>922</ele>
        <time>2024-09-15T08:37:44.000Z</time>
      </trkpt>
      <trkpt lat="45.77491" lon="2.98289">
        <ele>922</ele>
        <time>2024-09-15T08:37:45.000Z</time>
      </trkpt>
      <trkpt lat="45.77489" lon="2.98286">
        <ele>922</ele>
        <time>2024-09-15T08:37:46.000Z</time>
      </trkpt>
      <trkpt lat="45.77486" lon="2.98284">
        <ele>922.20001220703</ele>
        <time>2024-09-15T08:37:47.000Z</time>
      </trkpt>
      <trkpt lat="45.77483" lon="2.98283">
        <ele>922.20001220703</ele>
        <time>2024-09-15T08:37:48.000Z</time>
      </trkpt>
      <trkpt lat="45.7748" lon="2.98281">
        <ele>922.20001220703</ele>
        <time>2024-09-15T08:37:49.000Z</time>
      </trkpt>
      <trkpt lat="45.77477" lon="2.9828">
        <ele>922.40002441406</ele>
        <time>2024-09-15T08:37:50.000Z</time>
      </trkpt>
      <trkpt lat="45.77475" lon="2.98278">
        <ele>922.59997558594</ele>
        <time>2024-09-15T08:37:51.000Z</time>
      </trkpt>
      <trkpt lat="45.77472" lon="2.98277">
        <ele>922.40002441406</ele>
        <time>2024-09-15T08:37:52.000Z</time>
      </trkpt>
      <trkpt lat="45.77469" lon="2.98275">
        <ele>922.40002441406</ele>
        <time>2024-09-15T08:37:53.000Z</time>
      </trkpt>
      <trkpt lat="45.77467" lon="2.98274">
        <ele>922.59997558594</ele>
        <time>2024-09-15T08:37:54.000Z</time>
      </trkpt>
      <trkpt lat="45.77464" lon="2.98272">
        <ele>922.59997558594</ele>
        <time>2024-09-15T08:37:55.000Z</time>
      </trkpt>
      <trkpt lat="45.77461" lon="2.98271">
        <ele>922.79998779297</ele>
        <time>2024-09-15T08:37:56.000Z</time>
      </trkpt>
      <trkpt lat="45.77458" lon="2.9827">
        <ele>922.79998779297</ele>
        <time>2024-09-15T08:37:57.000Z</time>
      </trkpt>
      <trkpt lat="45.77456" lon="2.98269">
        <ele>922.79998779297</ele>
        <time>2024-09-15T08:37:58.000Z</time>
      </trkpt>
      <trkpt lat="45.77453" lon="2.98268">
        <ele>923</ele>
        <time>2024-09-15T08:37:59.000Z</time>
      </trkpt>
      <trkpt lat="45.7745" lon="2.98267">
        <ele>923</ele>
        <time>2024-09-15T08:38:00.000Z</time>
      </trkpt>
      <trkpt lat="45.77447" lon="2.98266">
        <ele>923.20001220703</ele>
        <time>2024-09-15T08:38:01.000Z</time>
      </trkpt>
      <trkpt lat="45.77443" lon="2.98266">
        <ele>923.20001220703</ele>
        <time>2024-09-15T08:38:02.000Z</time>
      </trkpt>
      <trkpt lat="45.7744" lon="2.98265">
        <ele>923.20001220703</ele>
        <time>2024-09-15T08:38:03.000Z</time>
      </trkpt>
      <trkpt lat="45.77437" lon="2.98265">
        <ele>923.40002441406</ele>
        <time>2024-09-15T08:38:04.000Z</time>
      </trkpt>
      <trkpt lat="45.77434" lon="2.98264">
        <ele>923.40002441406</ele>
        <time>2024-09-15T08:38:05.000Z</time>
      </trkpt>
      <trkpt lat="45.7743" lon="2.98264">
        <ele>923.40002441406</ele>
        <time>2024-09-15T08:38:06.000Z</time>
      </trkpt>
      <trkpt lat="45.77427" lon="2.98263">
        <ele>923.59997558594</ele>
        <time>2024-09-15T08:38:07.000Z</time>
      </trkpt>
      <trkpt lat="45.77424" lon="2.98262">
        <ele>923.59997558594</ele>
        <time>2024-09-15T08:38:08.000Z</time>
      </trkpt>
      <trkpt lat="45.77421" lon="2.98261">
        <ele>923.59997558594</ele>
        <time>2024-09-15T08:38:09.000Z</time>
      </trkpt>
      <trkpt lat="45.77418" lon="2.9826">
        <ele>923.59997558594</ele>
        <time>2024-09-15T08:38:10.000Z</time>
      </trkpt>
      <trkpt lat="45.77415" lon="2.98259">
        <ele>923.59997558594</ele>
        <time>2024-09-15T08:38:11.000Z</time>
      </trkpt>
      <trkpt lat="45.77411" lon="2.98257">
        <ele>923.40002441406</ele>
        <time>2024-09-15T08:38:12.000Z</time>
      </trkpt>
      <trkpt lat="45.77408" lon="2.98256">
        <ele>923.40002441406</ele>
        <time>2024-09-15T08:38:13.000Z</time>
      </trkpt>
      <trkpt lat="45.77405" lon="2.98254">
        <ele>923.20001220703</ele>
        <time>2024-09-15T08:38:14.000Z</time>
      </trkpt>
      <trkpt lat="45.77402" lon="2.98253">
        <ele>923.20001220703</ele>
        <time>2024-09-15T08:38:15.000Z</time>
      </trkpt>
      <trkpt lat="45.77399" lon="2.98251">
        <ele>923.20001220703</ele>
        <time>2024-09-15T08:38:16.000Z</time>
      </trkpt>
      <trkpt lat="45.77396" lon="2.9825">
        <ele>923.20001220703</ele>
        <time>2024-09-15T08:38:17.000Z</time>
      </trkpt>
      <trkpt lat="45.77393" lon="2.98249">
        <ele>923.20001220703</ele>
        <time>2024-09-15T08:38:18.000Z</time>
      </trkpt>
      <trkpt lat="45.7739" lon="2.98247">
        <ele>923.20001220703</ele>
        <time>2024-09-15T08:38:19.000Z</time>
      </trkpt>
      <trkpt lat="45.77387" lon="2.98246">
        <ele>923</ele>
        <time>2024-09-15T08:38:20.000Z</time>
      </trkpt>
      <trkpt lat="45.77384" lon="2.98244">
        <ele>923.20001220703</ele>
        <time>2024-09-15T08:38:21.000Z</time>
      </trkpt>
      <trkpt lat="45.77381" lon="2.98243">
        <ele>923.20001220703</ele>
        <time>2024-09-15T08:38:22.000Z</time>
      </trkpt>
      <trkpt lat="45.77378" lon="2.98241">
        <ele>923.20001220703</ele>
        <time>2024-09-15T08:38:23.000Z</time>
      </trkpt>
      <trkpt lat="45.77375" lon="2.9824">
        <ele>923.20001220703</ele>
        <time>2024-09-15T08:38:24.000Z</time>
      </trkpt>
      <trkpt lat="45.77372" lon="2.98239">
        <ele>923.20001220703</ele>
        <time>2024-09-15T08:38:25.000Z</time>
      </trkpt>
      <trkpt lat="45.77368" lon="2.98238">
        <ele>923.20001220703</ele>
        <time>2024-09-15T08:38:26.000Z</time>
      </trkpt>
      <trkpt lat="45.77365" lon="2.98236">
        <ele>923.20001220703</ele>
        <time>2024-09-15T08:38:27.000Z</time>
      </trkpt>
      <trkpt lat="45.77363" lon="2.98235">
        <ele>923.20001220703</ele>
        <time>2024-09-15T08:38:28.000Z</time>
      </trkpt>
      <trkpt lat="45.7736" lon="2.98233">
        <ele>923.20001220703</ele>
        <time>2024-09-15T08:38:29.000Z</time>
      </trkpt>
      <trkpt lat="45.77357" lon="2.98231">
        <ele>923</ele>
        <time>2024-09-15T08:38:30.000Z</time>
      </trkpt>
      <trkpt lat="45.77354" lon="2.9823">
        <ele>923</ele>
        <time>2024-09-15T08:38:31.000Z</time>
      </trkpt>
      <trkpt lat="45.77351" lon="2.98228">
        <ele>922.79998779297</ele>
        <time>2024-09-15T08:38:32.000Z</time>
      </trkpt>
      <trkpt lat="45.77348" lon="2.98227">
        <ele>922.79998779297</ele>
        <time>2024-09-15T08:38:33.000Z</time>
      </trkpt>
      <trkpt lat="45.77346" lon="2.98225">
        <ele>922.79998779297</ele>
        <time>2024-09-15T08:38:34.000Z</time>
      </trkpt>
      <trkpt lat="45.77343" lon="2.98223">
        <ele>922.79998779297</ele>
        <time>2024-09-15T08:38:35.000Z</time>
      </trkpt>
      <trkpt lat="45.7734" lon="2.98222">
        <ele>922.79998779297</ele>
        <time>2024-09-15T08:38:36.000Z</time>
      </trkpt>
      <trkpt lat="45.77337" lon="2.9822">
        <ele>922.79998779297</ele>
        <time>2024-09-15T08:38:37.000Z</time>
      </trkpt>
      <trkpt lat="45.77333" lon="2.98218">
        <ele>922.79998779297</ele>
        <time>2024-09-15T08:38:38.000Z</time>
      </trkpt>
      <trkpt lat="45.77331" lon="2.98217">
        <ele>922.79998779297</ele>
        <time>2024-09-15T08:38:39.000Z</time>
      </trkpt>
      <trkpt lat="45.77327" lon="2.98215">
        <ele>923.20001220703</ele>
        <time>2024-09-15T08:38:40.000Z</time>
      </trkpt>
      <trkpt lat="45.77324" lon="2.98214">
        <ele>923</ele>
        <time>2024-09-15T08:38:41.000Z</time>
      </trkpt>
      <trkpt lat="45.77321" lon="2.98213">
        <ele>923</ele>
        <time>2024-09-15T08:38:42.000Z</time>
      </trkpt>
      <trkpt lat="45.77318" lon="2.98211">
        <ele>923</ele>
        <time>2024-09-15T08:38:43.000Z</time>
      </trkpt>
      <trkpt lat="45.77316" lon="2.98209">
        <ele>923.20001220703</ele>
        <time>2024-09-15T08:38:44.000Z</time>
      </trkpt>
      <trkpt lat="45.77313" lon="2.98208">
        <ele>923.20001220703</ele>
        <time>2024-09-15T08:38:45.000Z</time>
      </trkpt>
      <trkpt lat="45.7731" lon="2.98206">
        <ele>923</ele>
        <time>2024-09-15T08:38:46.000Z</time>
      </trkpt>
      <trkpt lat="45.77307" lon="2.98205">
        <ele>923</ele>
        <time>2024-09-15T08:38:47.000Z</time>
      </trkpt>
      <trkpt lat="45.77304" lon="2.98204">
        <ele>922.79998779297</ele>
        <time>2024-09-15T08:38:48.000Z</time>
      </trkpt>
      <trkpt lat="45.77301" lon="2.98202">
        <ele>922.79998779297</ele>
        <time>2024-09-15T08:38:49.000Z</time>
      </trkpt>
      <trkpt lat="45.77298" lon="2.982">
        <ele>922.79998779297</ele>
        <time>2024-09-15T08:38:50.000Z</time>
      </trkpt>
      <trkpt lat="45.77295" lon="2.98198">
        <ele>922.79998779297</ele>
        <time>2024-09-15T08:38:51.000Z</time>
      </trkpt>
      <trkpt lat="45.77293" lon="2.98196">
        <ele>922.59997558594</ele>
        <time>2024-09-15T08:38:52.000Z</time>
      </trkpt>
      <trkpt lat="45.7729" lon="2.98194">
        <ele>922.59997558594</ele>
        <time>2024-09-15T08:38:53.000Z</time>
      </trkpt>
      <trkpt lat="45.77287" lon="2.98193">
        <ele>922.79998779297</ele>
        <time>2024-09-15T08:38:54.000Z</time>
      </trkpt>
      <trkpt lat="45.77285" lon="2.98191">
        <ele>922.79998779297</ele>
        <time>2024-09-15T08:38:55.000Z</time>
      </trkpt>
      <trkpt lat="45.77282" lon="2.98189">
        <ele>922.79998779297</ele>
        <time>2024-09-15T08:38:56.000Z</time>
      </trkpt>
      <trkpt lat="45.77279" lon="2.98187">
        <ele>922.79998779297</ele>
        <time>2024-09-15T08:38:57.000Z</time>
      </trkpt>
      <trkpt lat="45.77276" lon="2.98185">
        <ele>923</ele>
        <time>2024-09-15T08:38:58.000Z</time>
      </trkpt>
      <trkpt lat="45.77274" lon="2.98183">
        <ele>923</ele>
        <time>2024-09-15T08:38:59.000Z</time>
      </trkpt>
      <trkpt lat="45.77271" lon="2.98181">
        <ele>923</ele>
        <time>2024-09-15T08:39:00.000Z</time>
      </trkpt>
      <trkpt lat="45.77268" lon="2.98179">
        <ele>922.79998779297</ele>
        <time>2024-09-15T08:39:01.000Z</time>
      </trkpt>
      <trkpt lat="45.77265" lon="2.98177">
        <ele>922.79998779297</ele>
        <time>2024-09-15T08:39:02.000Z</time>
      </trkpt>
      <trkpt lat="45.77262" lon="2.98175">
        <ele>922.79998779297</ele>
        <time>2024-09-15T08:39:03.000Z</time>
      </trkpt>
      <trkpt lat="45.77259" lon="2.98174">
        <ele>922.79998779297</ele>
        <time>2024-09-15T08:39:04.000Z</time>
      </trkpt>
      <trkpt lat="45.77256" lon="2.98172">
        <ele>922.79998779297</ele>
        <time>2024-09-15T08:39:05.000Z</time>
      </trkpt>
      <trkpt lat="45.77253" lon="2.9817">
        <ele>922.79998779297</ele>
        <time>2024-09-15T08:39:06.000Z</time>
      </trkpt>
      <trkpt lat="45.7725" lon="2.98169">
        <ele>922.79998779297</ele>
        <time>2024-09-15T08:39:07.000Z</time>
      </trkpt>
      <trkpt lat="45.77247" lon="2.98168">
        <ele>922.79998779297</ele>
        <time>2024-09-15T08:39:08.000Z</time>
      </trkpt>
      <trkpt lat="45.77244" lon="2.98166">
        <ele>922.79998779297</ele>
        <time>2024-09-15T08:39:09.000Z</time>
      </trkpt>
      <trkpt lat="45.77241" lon="2.98163">
        <ele>923</ele>
        <time>2024-09-15T08:39:10.000Z</time>
      </trkpt>
      <trkpt lat="45.77239" lon="2.98162">
        <ele>923</ele>
        <time>2024-09-15T08:39:11.000Z</time>
      </trkpt>
      <trkpt lat="45.77236" lon="2.9816">
        <ele>923</ele>
        <time>2024-09-15T08:39:12.000Z</time>
      </trkpt>
      <trkpt lat="45.77233" lon="2.98158">
        <ele>923.20001220703</ele>
        <time>2024-09-15T08:39:13.000Z</time>
      </trkpt>
      <trkpt lat="45.7723" lon="2.98156">
        <ele>923.20001220703</ele>
        <time>2024-09-15T08:39:14.000Z</time>
      </trkpt>
      <trkpt lat="45.77227" lon="2.98154">
        <ele>923.40002441406</ele>
        <time>2024-09-15T08:39:15.000Z</time>
      </trkpt>
      <trkpt lat="45.77224" lon="2.98152">
        <ele>923.40002441406</ele>
        <time>2024-09-15T08:39:16.000Z</time>
      </trkpt>
      <trkpt lat="45.77221" lon="2.9815">
        <ele>923.40002441406</ele>
        <time>2024-09-15T08:39:17.000Z</time>
      </trkpt>
      <trkpt lat="45.77219" lon="2.98147">
        <ele>923.40002441406</ele>
        <time>2024-09-15T08:39:18.000Z</time>
      </trkpt>
      <trkpt lat="45.77216" lon="2.98145">
        <ele>923.59997558594</ele>
        <time>2024-09-15T08:39:19.000Z</time>
      </trkpt>
      <trkpt lat="45.77213" lon="2.98143">
        <ele>923.59997558594</ele>
        <time>2024-09-15T08:39:20.000Z</time>
      </trkpt>
      <trkpt lat="45.7721" lon="2.98142">
        <ele>923.59997558594</ele>
        <time>2024-09-15T08:39:21.000Z</time>
      </trkpt>
      <trkpt lat="45.77208" lon="2.98139">
        <ele>923.79998779297</ele>
        <time>2024-09-15T08:39:22.000Z</time>
      </trkpt>
      <trkpt lat="45.77206" lon="2.98137">
        <ele>923.79998779297</ele>
        <time>2024-09-15T08:39:23.000Z</time>
      </trkpt>
      <trkpt lat="45.77204" lon="2.98134">
        <ele>924</ele>
        <time>2024-09-15T08:39:24.000Z</time>
      </trkpt>
      <trkpt lat="45.77201" lon="2.98132">
        <ele>924</ele>
        <time>2024-09-15T08:39:25.000Z</time>
      </trkpt>
      <trkpt lat="45.77199" lon="2.9813">
        <ele>924</ele>
        <time>2024-09-15T08:39:26.000Z</time>
      </trkpt>
      <trkpt lat="45.77196" lon="2.98128">
        <ele>924.20001220703</ele>
        <time>2024-09-15T08:39:27.000Z</time>
      </trkpt>
      <trkpt lat="45.77193" lon="2.98126">
        <ele>924.40002441406</ele>
        <time>2024-09-15T08:39:28.000Z</time>
      </trkpt>
      <trkpt lat="45.77191" lon="2.98123">
        <ele>924.59997558594</ele>
        <time>2024-09-15T08:39:29.000Z</time>
      </trkpt>
      <trkpt lat="45.77189" lon="2.98121">
        <ele>924.59997558594</ele>
        <time>2024-09-15T08:39:30.000Z</time>
      </trkpt>
      <trkpt lat="45.77186" lon="2.98118">
        <ele>924.79998779297</ele>
        <time>2024-09-15T08:39:31.000Z</time>
      </trkpt>
      <trkpt lat="45.77184" lon="2.98116">
        <ele>925</ele>
        <time>2024-09-15T08:39:32.000Z</time>
      </trkpt>
      <trkpt lat="45.77181" lon="2.98114">
        <ele>925</ele>
        <time>2024-09-15T08:39:33.000Z</time>
      </trkpt>
      <trkpt lat="45.77179" lon="2.98112">
        <ele>925.40002441406</ele>
        <time>2024-09-15T08:39:34.000Z</time>
      </trkpt>
      <trkpt lat="45.77176" lon="2.9811">
        <ele>925.59997558594</ele>
        <time>2024-09-15T08:39:35.000Z</time>
      </trkpt>
      <trkpt lat="45.77174" lon="2.98107">
        <ele>925.79998779297</ele>
        <time>2024-09-15T08:39:36.000Z</time>
      </trkpt>
      <trkpt lat="45.77171" lon="2.98105">
        <ele>926</ele>
        <time>2024-09-15T08:39:37.000Z</time>
      </trkpt>
      <trkpt lat="45.77169" lon="2.98103">
        <ele>926</ele>
        <time>2024-09-15T08:39:38.000Z</time>
      </trkpt>
      <trkpt lat="45.77166" lon="2.98101">
        <ele>926</ele>
        <time>2024-09-15T08:39:39.000Z</time>
      </trkpt>
      <trkpt lat="45.77163" lon="2.98099">
        <ele>926.20001220703</ele>
        <time>2024-09-15T08:39:40.000Z</time>
      </trkpt>
      <trkpt lat="45.77161" lon="2.98097">
        <ele>926.20001220703</ele>
        <time>2024-09-15T08:39:41.000Z</time>
      </trkpt>
      <trkpt lat="45.77158" lon="2.98095">
        <ele>926.40002441406</ele>
        <time>2024-09-15T08:39:42.000Z</time>
      </trkpt>
      <trkpt lat="45.77155" lon="2.98094">
        <ele>926.59997558594</ele>
        <time>2024-09-15T08:39:43.000Z</time>
      </trkpt>
      <trkpt lat="45.77153" lon="2.98092">
        <ele>926.79998779297</ele>
        <time>2024-09-15T08:39:44.000Z</time>
      </trkpt>
      <trkpt lat="45.7715" lon="2.9809">
        <ele>927</ele>
        <time>2024-09-15T08:39:45.000Z</time>
      </trkpt>
      <trkpt lat="45.77147" lon="2.98089">
        <ele>927</ele>
        <time>2024-09-15T08:39:46.000Z</time>
      </trkpt>
      <trkpt lat="45.77144" lon="2.98087">
        <ele>927.20001220703</ele>
        <time>2024-09-15T08:39:47.000Z</time>
      </trkpt>
      <trkpt lat="45.77142" lon="2.98086">
        <ele>927.40002441406</ele>
        <time>2024-09-15T08:39:48.000Z</time>
      </trkpt>
      <trkpt lat="45.77139" lon="2.98083">
        <ele>927.59997558594</ele>
        <time>2024-09-15T08:39:49.000Z</time>
      </trkpt>
      <trkpt lat="45.77136" lon="2.98082">
        <ele>927.59997558594</ele>
        <time>2024-09-15T08:39:50.000Z</time>
      </trkpt>
      <trkpt lat="45.77134" lon="2.98079">
        <ele>927.79998779297</ele>
        <time>2024-09-15T08:39:51.000Z</time>
      </trkpt>
      <trkpt lat="45.77132" lon="2.98078">
        <ele>928</ele>
        <time>2024-09-15T08:39:52.000Z</time>
      </trkpt>
      <trkpt lat="45.77129" lon="2.98075">
        <ele>928.20001220703</ele>
        <time>2024-09-15T08:39:53.000Z</time>
      </trkpt>
      <trkpt lat="45.77127" lon="2.98073">
        <ele>928.59997558594</ele>
        <time>2024-09-15T08:39:54.000Z</time>
      </trkpt>
      <trkpt lat="45.77125" lon="2.98071">
        <ele>928.79998779297</ele>
        <time>2024-09-15T08:39:55.000Z</time>
      </trkpt>
      <trkpt lat="45.77123" lon="2.98069">
        <ele>929</ele>
        <time>2024-09-15T08:39:56.000Z</time>
      </trkpt>
      <trkpt lat="45.77121" lon="2.98068">
        <ele>929.40002441406</ele>
        <time>2024-09-15T08:39:57.000Z</time>
      </trkpt>
      <trkpt lat="45.77118" lon="2.98066">
        <ele>929.79998779297</ele>
        <time>2024-09-15T08:39:58.000Z</time>
      </trkpt>
      <trkpt lat="45.77116" lon="2.98064">
        <ele>930</ele>
        <time>2024-09-15T08:39:59.000Z</time>
      </trkpt>
      <trkpt lat="45.77113" lon="2.98061">
        <ele>930.20001220703</ele>
        <time>2024-09-15T08:40:00.000Z</time>
      </trkpt>
      <trkpt lat="45.77111" lon="2.98059">
        <ele>930.40002441406</ele>
        <time>2024-09-15T08:40:01.000Z</time>
      </trkpt>
      <trkpt lat="45.77108" lon="2.98057">
        <ele>930.59997558594</ele>
        <time>2024-09-15T08:40:02.000Z</time>
      </trkpt>
      <trkpt lat="45.77106" lon="2.98055">
        <ele>931</ele>
        <time>2024-09-15T08:40:03.000Z</time>
      </trkpt>
      <trkpt lat="45.77104" lon="2.98053">
        <ele>931.20001220703</ele>
        <time>2024-09-15T08:40:04.000Z</time>
      </trkpt>
      <trkpt lat="45.77101" lon="2.98051">
        <ele>931.20001220703</ele>
        <time>2024-09-15T08:40:05.000Z</time>
      </trkpt>
      <trkpt lat="45.77099" lon="2.98049">
        <ele>931.40002441406</ele>
        <time>2024-09-15T08:40:06.000Z</time>
      </trkpt>
      <trkpt lat="45.77097" lon="2.98047">
        <ele>931.59997558594</ele>
        <time>2024-09-15T08:40:07.000Z</time>
      </trkpt>
      <trkpt lat="45.77094" lon="2.98044">
        <ele>931.59997558594</ele>
        <time>2024-09-15T08:40:08.000Z</time>
      </trkpt>
      <trkpt lat="45.77092" lon="2.98042">
        <ele>931.59997558594</ele>
        <time>2024-09-15T08:40:09.000Z</time>
      </trkpt>
      <trkpt lat="45.77089" lon="2.9804">
        <ele>931.59997558594</ele>
        <time>2024-09-15T08:40:10.000Z</time>
      </trkpt>
      <trkpt lat="45.77087" lon="2.98038">
        <ele>931.79998779297</ele>
        <time>2024-09-15T08:40:11.000Z</time>
      </trkpt>
      <trkpt lat="45.77084" lon="2.98036">
        <ele>931.79998779297</ele>
        <time>2024-09-15T08:40:12.000Z</time>
      </trkpt>
      <trkpt lat="45.77081" lon="2.98034">
        <ele>931.79998779297</ele>
        <time>2024-09-15T08:40:13.000Z</time>
      </trkpt>
      <trkpt lat="45.77079" lon="2.98032">
        <ele>931.79998779297</ele>
        <time>2024-09-15T08:40:14.000Z</time>
      </trkpt>
      <trkpt lat="45.77076" lon="2.9803">
        <ele>932</ele>
        <time>2024-09-15T08:40:15.000Z</time>
      </trkpt>
      <trkpt lat="45.77074" lon="2.98028">
        <ele>932</ele>
        <time>2024-09-15T08:40:16.000Z</time>
      </trkpt>
      <trkpt lat="45.77071" lon="2.98026">
        <ele>932.20001220703</ele>
        <time>2024-09-15T08:40:17.000Z</time>
      </trkpt>
      <trkpt lat="45.77068" lon="2.98024">
        <ele>932.59997558594</ele>
        <time>2024-09-15T08:40:18.000Z</time>
      </trkpt>
      <trkpt lat="45.77065" lon="2.98023">
        <ele>932.59997558594</ele>
        <time>2024-09-15T08:40:19.000Z</time>
      </trkpt>
      <trkpt lat="45.77062" lon="2.98021">
        <ele>932.79998779297</ele>
        <time>2024-09-15T08:40:20.000Z</time>
      </trkpt>
      <trkpt lat="45.77059" lon="2.98019">
        <ele>933</ele>
        <time>2024-09-15T08:40:21.000Z</time>
      </trkpt>
      <trkpt lat="45.77057" lon="2.98017">
        <ele>933.20001220703</ele>
        <time>2024-09-15T08:40:22.000Z</time>
      </trkpt>
      <trkpt lat="45.77054" lon="2.98015">
        <ele>933.20001220703</ele>
        <time>2024-09-15T08:40:23.000Z</time>
      </trkpt>
      <trkpt lat="45.77051" lon="2.98014">
        <ele>933.40002441406</ele>
        <time>2024-09-15T08:40:24.000Z</time>
      </trkpt>
      <trkpt lat="45.77048" lon="2.98012">
        <ele>933.40002441406</ele>
        <time>2024-09-15T08:40:25.000Z</time>
      </trkpt>
      <trkpt lat="45.77045" lon="2.98011">
        <ele>933.40002441406</ele>
        <time>2024-09-15T08:40:26.000Z</time>
      </trkpt>
      <trkpt lat="45.77042" lon="2.98009">
        <ele>933.40002441406</ele>
        <time>2024-09-15T08:40:27.000Z</time>
      </trkpt>
      <trkpt lat="45.77039" lon="2.98007">
        <ele>933.59997558594</ele>
        <time>2024-09-15T08:40:28.000Z</time>
      </trkpt>
      <trkpt lat="45.77036" lon="2.98005">
        <ele>933.59997558594</ele>
        <time>2024-09-15T08:40:29.000Z</time>
      </trkpt>
      <trkpt lat="45.77033" lon="2.98003">
        <ele>933.79998779297</ele>
        <time>2024-09-15T08:40:30.000Z</time>
      </trkpt>
      <trkpt lat="45.77031" lon="2.98001">
        <ele>933.79998779297</ele>
        <time>2024-09-15T08:40:31.000Z</time>
      </trkpt>
      <trkpt lat="45.77028" lon="2.97999">
        <ele>933.79998779297</ele>
        <time>2024-09-15T08:40:32.000Z</time>
      </trkpt>
      <trkpt lat="45.77025" lon="2.97997">
        <ele>933.79998779297</ele>
        <time>2024-09-15T08:40:33.000Z</time>
      </trkpt>
      <trkpt lat="45.77022" lon="2.97994">
        <ele>933.79998779297</ele>
        <time>2024-09-15T08:40:34.000Z</time>
      </trkpt>
      <trkpt lat="45.7702" lon="2.97992">
        <ele>933.79998779297</ele>
        <time>2024-09-15T08:40:35.000Z</time>
      </trkpt>
      <trkpt lat="45.77017" lon="2.97991">
        <ele>933.79998779297</ele>
        <time>2024-09-15T08:40:36.000Z</time>
      </trkpt>
      <trkpt lat="45.77014" lon="2.97989">
        <ele>933.79998779297</ele>
        <time>2024-09-15T08:40:37.000Z</time>
      </trkpt>
      <trkpt lat="45.77011" lon="2.97987">
        <ele>933.59997558594</ele>
        <time>2024-09-15T08:40:38.000Z</time>
      </trkpt>
      <trkpt lat="45.77008" lon="2.97984">
        <ele>933.59997558594</ele>
        <time>2024-09-15T08:40:39.000Z</time>
      </trkpt>
      <trkpt lat="45.77006" lon="2.97983">
        <ele>933.40002441406</ele>
        <time>2024-09-15T08:40:40.000Z</time>
      </trkpt>
      <trkpt lat="45.77003" lon="2.97981">
        <ele>933.40002441406</ele>
        <time>2024-09-15T08:40:41.000Z</time>
      </trkpt>
      <trkpt lat="45.77001" lon="2.97978">
        <ele>933.40002441406</ele>
        <time>2024-09-15T08:40:42.000Z</time>
      </trkpt>
      <trkpt lat="45.76998" lon="2.97976">
        <ele>933.40002441406</ele>
        <time>2024-09-15T08:40:43.000Z</time>
      </trkpt>
      <trkpt lat="45.76995" lon="2.97974">
        <ele>933.40002441406</ele>
        <time>2024-09-15T08:40:44.000Z</time>
      </trkpt>
      <trkpt lat="45.76993" lon="2.97972">
        <ele>933.40002441406</ele>
        <time>2024-09-15T08:40:45.000Z</time>
      </trkpt>
      <trkpt lat="45.7699" lon="2.9797">
        <ele>933.40002441406</ele>
        <time>2024-09-15T08:40:46.000Z</time>
      </trkpt>
      <trkpt lat="45.76987" lon="2.97969">
        <ele>933.40002441406</ele>
        <time>2024-09-15T08:40:47.000Z</time>
      </trkpt>
      <trkpt lat="45.76984" lon="2.97967">
        <ele>933.59997558594</ele>
        <time>2024-09-15T08:40:48.000Z</time>
      </trkpt>
      <trkpt lat="45.76981" lon="2.97966">
        <ele>933.79998779297</ele>
        <time>2024-09-15T08:40:49.000Z</time>
      </trkpt>
      <trkpt lat="45.76979" lon="2.97965">
        <ele>933.79998779297</ele>
        <time>2024-09-15T08:40:50.000Z</time>
      </trkpt>
      <trkpt lat="45.76976" lon="2.97964">
        <ele>934</ele>
        <time>2024-09-15T08:40:51.000Z</time>
      </trkpt>
      <trkpt lat="45.76973" lon="2.97963">
        <ele>934.20001220703</ele>
        <time>2024-09-15T08:40:52.000Z</time>
      </trkpt>
      <trkpt lat="45.76969" lon="2.97962">
        <ele>934.20001220703</ele>
        <time>2024-09-15T08:40:53.000Z</time>
      </trkpt>
      <trkpt lat="45.76967" lon="2.97962">
        <ele>934.40002441406</ele>
        <time>2024-09-15T08:40:54.000Z</time>
      </trkpt>
      <trkpt lat="45.76964" lon="2.9796">
        <ele>934.40002441406</ele>
        <time>2024-09-15T08:40:55.000Z</time>
      </trkpt>
      <trkpt lat="45.76961" lon="2.9796">
        <ele>934.59997558594</ele>
        <time>2024-09-15T08:40:56.000Z</time>
      </trkpt>
      <trkpt lat="45.76958" lon="2.97959">
        <ele>934.59997558594</ele>
        <time>2024-09-15T08:40:57.000Z</time>
      </trkpt>
      <trkpt lat="45.76955" lon="2.97957">
        <ele>934.59997558594</ele>
        <time>2024-09-15T08:40:58.000Z</time>
      </trkpt>
      <trkpt lat="45.76952" lon="2.97957">
        <ele>934.79998779297</ele>
        <time>2024-09-15T08:40:59.000Z</time>
      </trkpt>
      <trkpt lat="45.76949" lon="2.97956">
        <ele>935</ele>
        <time>2024-09-15T08:41:00.000Z</time>
      </trkpt>
      <trkpt lat="45.76946" lon="2.97955">
        <ele>934.79998779297</ele>
        <time>2024-09-15T08:41:01.000Z</time>
      </trkpt>
      <trkpt lat="45.76943" lon="2.97954">
        <ele>935</ele>
        <time>2024-09-15T08:41:02.000Z</time>
      </trkpt>
      <trkpt lat="45.7694" lon="2.97954">
        <ele>935</ele>
        <time>2024-09-15T08:41:03.000Z</time>
      </trkpt>
      <trkpt lat="45.76937" lon="2.97953">
        <ele>935</ele>
        <time>2024-09-15T08:41:04.000Z</time>
      </trkpt>
      <trkpt lat="45.76934" lon="2.97953">
        <ele>935</ele>
        <time>2024-09-15T08:41:05.000Z</time>
      </trkpt>
      <trkpt lat="45.76931" lon="2.97953">
        <ele>935</ele>
        <time>2024-09-15T08:41:06.000Z</time>
      </trkpt>
      <trkpt lat="45.76928" lon="2.97953">
        <ele>935</ele>
        <time>2024-09-15T08:41:07.000Z</time>
      </trkpt>
      <trkpt lat="45.76925" lon="2.97953">
        <ele>935</ele>
        <time>2024-09-15T08:41:08.000Z</time>
      </trkpt>
      <trkpt lat="45.76922" lon="2.97954">
        <ele>935</ele>
        <time>2024-09-15T08:41:09.000Z</time>
      </trkpt>
      <trkpt lat="45.76919" lon="2.97954">
        <ele>935</ele>
        <time>2024-09-15T08:41:10.000Z</time>
      </trkpt>
      <trkpt lat="45.76916" lon="2.97954">
        <ele>935</ele>
        <time>2024-09-15T08:41:11.000Z</time>
      </trkpt>
      <trkpt lat="45.76913" lon="2.97953">
        <ele>934.79998779297</ele>
        <time>2024-09-15T08:41:12.000Z</time>
      </trkpt>
      <trkpt lat="45.7691" lon="2.97953">
        <ele>934.59997558594</ele>
        <time>2024-09-15T08:41:13.000Z</time>
      </trkpt>
      <trkpt lat="45.76907" lon="2.97953">
        <ele>934.59997558594</ele>
        <time>2024-09-15T08:41:14.000Z</time>
      </trkpt>
      <trkpt lat="45.76903" lon="2.97953">
        <ele>934.59997558594</ele>
        <time>2024-09-15T08:41:15.000Z</time>
      </trkpt>
      <trkpt lat="45.769" lon="2.97953">
        <ele>934.40002441406</ele>
        <time>2024-09-15T08:41:16.000Z</time>
      </trkpt>
      <trkpt lat="45.76897" lon="2.97953">
        <ele>934.40002441406</ele>
        <time>2024-09-15T08:41:17.000Z</time>
      </trkpt>
      <trkpt lat="45.76894" lon="2.97953">
        <ele>934.40002441406</ele>
        <time>2024-09-15T08:41:18.000Z</time>
      </trkpt>
      <trkpt lat="45.76891" lon="2.97953">
        <ele>934.40002441406</ele>
        <time>2024-09-15T08:41:19.000Z</time>
      </trkpt>
      <trkpt lat="45.76887" lon="2.97952">
        <ele>934.40002441406</ele>
        <time>2024-09-15T08:41:20.000Z</time>
      </trkpt>
      <trkpt lat="45.76884" lon="2.97952">
        <ele>934.20001220703</ele>
        <time>2024-09-15T08:41:21.000Z</time>
      </trkpt>
      <trkpt lat="45.76881" lon="2.97952">
        <ele>934.20001220703</ele>
        <time>2024-09-15T08:41:22.000Z</time>
      </trkpt>
      <trkpt lat="45.76878" lon="2.97951">
        <ele>934</ele>
        <time>2024-09-15T08:41:23.000Z</time>
      </trkpt>
      <trkpt lat="45.76875" lon="2.97951">
        <ele>934.20001220703</ele>
        <time>2024-09-15T08:41:24.000Z</time>
      </trkpt>
      <trkpt lat="45.76872" lon="2.97949">
        <ele>933.79998779297</ele>
        <time>2024-09-15T08:41:25.000Z</time>
      </trkpt>
      <trkpt lat="45.76869" lon="2.97948">
        <ele>933.79998779297</ele>
        <time>2024-09-15T08:41:26.000Z</time>
      </trkpt>
      <trkpt lat="45.76866" lon="2.97948">
        <ele>934</ele>
        <time>2024-09-15T08:41:27.000Z</time>
      </trkpt>
      <trkpt lat="45.76862" lon="2.97947">
        <ele>934</ele>
        <time>2024-09-15T08:41:28.000Z</time>
      </trkpt>
      <trkpt lat="45.76859" lon="2.97947">
        <ele>933.79998779297</ele>
        <time>2024-09-15T08:41:29.000Z</time>
      </trkpt>
      <trkpt lat="45.76856" lon="2.97946">
        <ele>934</ele>
        <time>2024-09-15T08:41:30.000Z</time>
      </trkpt>
      <trkpt lat="45.76853" lon="2.97945">
        <ele>934</ele>
        <time>2024-09-15T08:41:31.000Z</time>
      </trkpt>
      <trkpt lat="45.7685" lon="2.97944">
        <ele>934.20001220703</ele>
        <time>2024-09-15T08:41:32.000Z</time>
      </trkpt>
      <trkpt lat="45.76847" lon="2.97944">
        <ele>934.20001220703</ele>
        <time>2024-09-15T08:41:33.000Z</time>
      </trkpt>
      <trkpt lat="45.76844" lon="2.97943">
        <ele>934.20001220703</ele>
        <time>2024-09-15T08:41:34.000Z</time>
      </trkpt>
      <trkpt lat="45.76841" lon="2.97943">
        <ele>934.20001220703</ele>
        <time>2024-09-15T08:41:35.000Z</time>
      </trkpt>
      <trkpt lat="45.76838" lon="2.97942">
        <ele>934.20001220703</ele>
        <time>2024-09-15T08:41:36.000Z</time>
      </trkpt>
      <trkpt lat="45.76835" lon="2.97941">
        <ele>934.20001220703</ele>
        <time>2024-09-15T08:41:37.000Z</time>
      </trkpt>
      <trkpt lat="45.76832" lon="2.9794">
        <ele>934.20001220703</ele>
        <time>2024-09-15T08:41:38.000Z</time>
      </trkpt>
      <trkpt lat="45.76829" lon="2.97939">
        <ele>934.20001220703</ele>
        <time>2024-09-15T08:41:39.000Z</time>
      </trkpt>
      <trkpt lat="45.76826" lon="2.97937">
        <ele>934.40002441406</ele>
        <time>2024-09-15T08:41:40.000Z</time>
      </trkpt>
      <trkpt lat="45.76823" lon="2.97936">
        <ele>934.20001220703</ele>
        <time>2024-09-15T08:41:41.000Z</time>
      </trkpt>
      <trkpt lat="45.7682" lon="2.97935">
        <ele>934.20001220703</ele>
        <time>2024-09-15T08:41:42.000Z</time>
      </trkpt>
      <trkpt lat="45.76817" lon="2.97934">
        <ele>934.20001220703</ele>
        <time>2024-09-15T08:41:43.000Z</time>
      </trkpt>
      <trkpt lat="45.76814" lon="2.97934">
        <ele>934.20001220703</ele>
        <time>2024-09-15T08:41:44.000Z</time>
      </trkpt>
      <trkpt lat="45.76812" lon="2.97933">
        <ele>934.20001220703</ele>
        <time>2024-09-15T08:41:45.000Z</time>
      </trkpt>
      <trkpt lat="45.76809" lon="2.97933">
        <ele>934.20001220703</ele>
        <time>2024-09-15T08:41:46.000Z</time>
      </trkpt>
      <trkpt lat="45.76806" lon="2.97932">
        <ele>934.40002441406</ele>
        <time>2024-09-15T08:41:47.000Z</time>
      </trkpt>
      <trkpt lat="45.76803" lon="2.97932">
        <ele>934.40002441406</ele>
        <time>2024-09-15T08:41:48.000Z</time>
      </trkpt>
      <trkpt lat="45.76799" lon="2.97931">
        <ele>934.40002441406</ele>
        <time>2024-09-15T08:41:49.000Z</time>
      </trkpt>
      <trkpt lat="45.76796" lon="2.97931">
        <ele>934.40002441406</ele>
        <time>2024-09-15T08:41:50.000Z</time>
      </trkpt>
      <trkpt lat="45.76793" lon="2.9793">
        <ele>934.40002441406</ele>
        <time>2024-09-15T08:41:51.000Z</time>
      </trkpt>
      <trkpt lat="45.76789" lon="2.97929">
        <ele>934.40002441406</ele>
        <time>2024-09-15T08:41:52.000Z</time>
      </trkpt>
      <trkpt lat="45.76787" lon="2.97928">
        <ele>934.40002441406</ele>
        <time>2024-09-15T08:41:53.000Z</time>
      </trkpt>
      <trkpt lat="45.76783" lon="2.97927">
        <ele>934.40002441406</ele>
        <time>2024-09-15T08:41:54.000Z</time>
      </trkpt>
      <trkpt lat="45.7678" lon="2.97926">
        <ele>934.40002441406</ele>
        <time>2024-09-15T08:41:55.000Z</time>
      </trkpt>
      <trkpt lat="45.76778" lon="2.97925">
        <ele>934.40002441406</ele>
        <time>2024-09-15T08:41:56.000Z</time>
      </trkpt>
      <trkpt lat="45.76775" lon="2.97923">
        <ele>934.40002441406</ele>
        <time>2024-09-15T08:41:57.000Z</time>
      </trkpt>
      <trkpt lat="45.76772" lon="2.97922">
        <ele>934.40002441406</ele>
        <time>2024-09-15T08:41:58.000Z</time>
      </trkpt>
      <trkpt lat="45.76768" lon="2.97921">
        <ele>934.40002441406</ele>
        <time>2024-09-15T08:41:59.000Z</time>
      </trkpt>
      <trkpt lat="45.76765" lon="2.9792">
        <ele>934.40002441406</ele>
        <time>2024-09-15T08:42:00.000Z</time>
      </trkpt>
      <trkpt lat="45.76762" lon="2.97919">
        <ele>934.20001220703</ele>
        <time>2024-09-15T08:42:01.000Z</time>
      </trkpt>
      <trkpt lat="45.76759" lon="2.97919">
        <ele>934.20001220703</ele>
        <time>2024-09-15T08:42:02.000Z</time>
      </trkpt>
      <trkpt lat="45.76756" lon="2.97917">
        <ele>934.20001220703</ele>
        <time>2024-09-15T08:42:03.000Z</time>
      </trkpt>
      <trkpt lat="45.76753" lon="2.97916">
        <ele>934.20001220703</ele>
        <time>2024-09-15T08:42:04.000Z</time>
      </trkpt>
      <trkpt lat="45.76751" lon="2.97914">
        <ele>934.20001220703</ele>
        <time>2024-09-15T08:42:05.000Z</time>
      </trkpt>
      <trkpt lat="45.76748" lon="2.97913">
        <ele>934.20001220703</ele>
        <time>2024-09-15T08:42:06.000Z</time>
      </trkpt>
      <trkpt lat="45.76745" lon="2.97911">
        <ele>934.40002441406</ele>
        <time>2024-09-15T08:42:07.000Z</time>
      </trkpt>
      <trkpt lat="45.76742" lon="2.9791">
        <ele>934.59997558594</ele>
        <time>2024-09-15T08:42:08.000Z</time>
      </trkpt>
      <trkpt lat="45.76739" lon="2.97909">
        <ele>934.59997558594</ele>
        <time>2024-09-15T08:42:09.000Z</time>
      </trkpt>
      <trkpt lat="45.76736" lon="2.97908">
        <ele>934.79998779297</ele>
        <time>2024-09-15T08:42:10.000Z</time>
      </trkpt>
      <trkpt lat="45.76732" lon="2.97906">
        <ele>934.79998779297</ele>
        <time>2024-09-15T08:42:11.000Z</time>
      </trkpt>
      <trkpt lat="45.76729" lon="2.97905">
        <ele>934.79998779297</ele>
        <time>2024-09-15T08:42:12.000Z</time>
      </trkpt>
      <trkpt lat="45.76726" lon="2.97905">
        <ele>934.79998779297</ele>
        <time>2024-09-15T08:42:13.000Z</time>
      </trkpt>
      <trkpt lat="45.76723" lon="2.97904">
        <ele>934.79998779297</ele>
        <time>2024-09-15T08:42:14.000Z</time>
      </trkpt>
      <trkpt lat="45.7672" lon="2.97904">
        <ele>935</ele>
        <time>2024-09-15T08:42:15.000Z</time>
      </trkpt>
      <trkpt lat="45.76717" lon="2.97903">
        <ele>935.20001220703</ele>
        <time>2024-09-15T08:42:16.000Z</time>
      </trkpt>
      <trkpt lat="45.76714" lon="2.97902">
        <ele>935.20001220703</ele>
        <time>2024-09-15T08:42:17.000Z</time>
      </trkpt>
      <trkpt lat="45.76712" lon="2.97901">
        <ele>935.20001220703</ele>
        <time>2024-09-15T08:42:18.000Z</time>
      </trkpt>
      <trkpt lat="45.76709" lon="2.97899">
        <ele>935.40002441406</ele>
        <time>2024-09-15T08:42:19.000Z</time>
      </trkpt>
      <trkpt lat="45.76706" lon="2.97898">
        <ele>935.40002441406</ele>
        <time>2024-09-15T08:42:20.000Z</time>
      </trkpt>
      <trkpt lat="45.76703" lon="2.97897">
        <ele>935.40002441406</ele>
        <time>2024-09-15T08:42:21.000Z</time>
      </trkpt>
      <trkpt lat="45.767" lon="2.97896">
        <ele>935.40002441406</ele>
        <time>2024-09-15T08:42:22.000Z</time>
      </trkpt>
      <trkpt lat="45.76697" lon="2.97895">
        <ele>935.40002441406</ele>
        <time>2024-09-15T08:42:23.000Z</time>
      </trkpt>
      <trkpt lat="45.76693" lon="2.97893">
        <ele>935.40002441406</ele>
        <time>2024-09-15T08:42:24.000Z</time>
      </trkpt>
      <trkpt lat="45.7669" lon="2.97892">
        <ele>935.40002441406</ele>
        <time>2024-09-15T08:42:25.000Z</time>
      </trkpt>
      <trkpt lat="45.76686" lon="2.97891">
        <ele>935.40002441406</ele>
        <time>2024-09-15T08:42:26.000Z</time>
      </trkpt>
      <trkpt lat="45.76683" lon="2.97889">
        <ele>935.40002441406</ele>
        <time>2024-09-15T08:42:27.000Z</time>
      </trkpt>
      <trkpt lat="45.76679" lon="2.97888">
        <ele>935.40002441406</ele>
        <time>2024-09-15T08:42:28.000Z</time>
      </trkpt>
      <trkpt lat="45.76676" lon="2.97887">
        <ele>935.20001220703</ele>
        <time>2024-09-15T08:42:29.000Z</time>
      </trkpt>
      <trkpt lat="45.76673" lon="2.97887">
        <ele>935.20001220703</ele>
        <time>2024-09-15T08:42:30.000Z</time>
      </trkpt>
      <trkpt lat="45.76669" lon="2.97886">
        <ele>935.20001220703</ele>
        <time>2024-09-15T08:42:31.000Z</time>
      </trkpt>
      <trkpt lat="45.76666" lon="2.97886">
        <ele>935</ele>
        <time>2024-09-15T08:42:32.000Z</time>
      </trkpt>
      <trkpt lat="45.76663" lon="2.97886">
        <ele>935</ele>
        <time>2024-09-15T08:42:33.000Z</time>
      </trkpt>
      <trkpt lat="45.76659" lon="2.97886">
        <ele>935</ele>
        <time>2024-09-15T08:42:34.000Z</time>
      </trkpt>
      <trkpt lat="45.76656" lon="2.97886">
        <ele>935</ele>
        <time>2024-09-15T08:42:35.000Z</time>
      </trkpt>
      <trkpt lat="45.76653" lon="2.97886">
        <ele>935</ele>
        <time>2024-09-15T08:42:36.000Z</time>
      </trkpt>
      <trkpt lat="45.7665" lon="2.97887">
        <ele>934.79998779297</ele>
        <time>2024-09-15T08:42:37.000Z</time>
      </trkpt>
      <trkpt lat="45.76647" lon="2.97887">
        <ele>934.79998779297</ele>
        <time>2024-09-15T08:42:38.000Z</time>
      </trkpt>
      <trkpt lat="45.76643" lon="2.97887">
        <ele>934.59997558594</ele>
        <time>2024-09-15T08:42:39.000Z</time>
      </trkpt>
      <trkpt lat="45.7664" lon="2.97886">
        <ele>934.40002441406</ele>
        <time>2024-09-15T08:42:40.000Z</time>
      </trkpt>
      <trkpt lat="45.76636" lon="2.97886">
        <ele>934</ele>
        <time>2024-09-15T08:42:41.000Z</time>
      </trkpt>
      <trkpt lat="45.76633" lon="2.97885">
        <ele>933.79998779297</ele>
        <time>2024-09-15T08:42:42.000Z</time>
      </trkpt>
      <trkpt lat="45.7663" lon="2.97885">
        <ele>933.79998779297</ele>
        <time>2024-09-15T08:42:43.000Z</time>
      </trkpt>
      <trkpt lat="45.76626" lon="2.97885">
        <ele>933.20001220703</ele>
        <time>2024-09-15T08:42:44.000Z</time>
      </trkpt>
      <trkpt lat="45.76623" lon="2.97885">
        <ele>933</ele>
        <time>2024-09-15T08:42:45.000Z</time>
      </trkpt>
      <trkpt lat="45.76619" lon="2.97885">
        <ele>933</ele>
        <time>2024-09-15T08:42:46.000Z</time>
      </trkpt>
      <trkpt lat="45.76616" lon="2.97885">
        <ele>933</ele>
        <time>2024-09-15T08:42:47.000Z</time>
      </trkpt>
      <trkpt lat="45.76613" lon="2.97885">
        <ele>932.79998779297</ele>
        <time>2024-09-15T08:42:48.000Z</time>
      </trkpt>
      <trkpt lat="45.76609" lon="2.97886">
        <ele>932.59997558594</ele>
        <time>2024-09-15T08:42:49.000Z</time>
      </trkpt>
      <trkpt lat="45.76606" lon="2.97886">
        <ele>932.40002441406</ele>
        <time>2024-09-15T08:42:50.000Z</time>
      </trkpt>
      <trkpt lat="45.76603" lon="2.97887">
        <ele>932.20001220703</ele>
        <time>2024-09-15T08:42:51.000Z</time>
      </trkpt>
      <trkpt lat="45.76599" lon="2.97887">
        <ele>932.20001220703</ele>
        <time>2024-09-15T08:42:52.000Z</time>
      </trkpt>
      <trkpt lat="45.76596" lon="2.97888">
        <ele>932</ele>
        <time>2024-09-15T08:42:53.000Z</time>
      </trkpt>
      <trkpt lat="45.76592" lon="2.97888">
        <ele>932</ele>
        <time>2024-09-15T08:42:54.000Z</time>
      </trkpt>
      <trkpt lat="45.76589" lon="2.97888">
        <ele>932</ele>
        <time>2024-09-15T08:42:55.000Z</time>
      </trkpt>
      <trkpt lat="45.76586" lon="2.97888">
        <ele>932</ele>
        <time>2024-09-15T08:42:56.000Z</time>
      </trkpt>
      <trkpt lat="45.76583" lon="2.97889">
        <ele>931.59997558594</ele>
        <time>2024-09-15T08:42:57.000Z</time>
      </trkpt>
      <trkpt lat="45.7658" lon="2.97889">
        <ele>931.40002441406</ele>
        <time>2024-09-15T08:42:58.000Z</time>
      </trkpt>
      <trkpt lat="45.76576" lon="2.97889">
        <ele>931.40002441406</ele>
        <time>2024-09-15T08:42:59.000Z</time>
      </trkpt>
      <trkpt lat="45.76573" lon="2.97889">
        <ele>931.20001220703</ele>
        <time>2024-09-15T08:43:00.000Z</time>
      </trkpt>
      <trkpt lat="45.76569" lon="2.97889">
        <ele>931.20001220703</ele>
        <time>2024-09-15T08:43:01.000Z</time>
      </trkpt>
      <trkpt lat="45.76566" lon="2.97889">
        <ele>931</ele>
        <time>2024-09-15T08:43:02.000Z</time>
      </trkpt>
      <trkpt lat="45.76563" lon="2.97889">
        <ele>930.79998779297</ele>
        <time>2024-09-15T08:43:03.000Z</time>
      </trkpt>
      <trkpt lat="45.76559" lon="2.97888">
        <ele>930.79998779297</ele>
        <time>2024-09-15T08:43:04.000Z</time>
      </trkpt>
      <trkpt lat="45.76556" lon="2.97888">
        <ele>930.79998779297</ele>
        <time>2024-09-15T08:43:05.000Z</time>
      </trkpt>
      <trkpt lat="45.76553" lon="2.97887">
        <ele>930.59997558594</ele>
        <time>2024-09-15T08:43:06.000Z</time>
      </trkpt>
      <trkpt lat="45.7655" lon="2.97886">
        <ele>930.59997558594</ele>
        <time>2024-09-15T08:43:07.000Z</time>
      </trkpt>
      <trkpt lat="45.76548" lon="2.97885">
        <ele>930.40002441406</ele>
        <time>2024-09-15T08:43:08.000Z</time>
      </trkpt>
      <trkpt lat="45.76545" lon="2.97883">
        <ele>930.40002441406</ele>
        <time>2024-09-15T08:43:09.000Z</time>
      </trkpt>
      <trkpt lat="45.76542" lon="2.97882">
        <ele>930.20001220703</ele>
        <time>2024-09-15T08:43:10.000Z</time>
      </trkpt>
      <trkpt lat="45.76538" lon="2.97881">
        <ele>930</ele>
        <time>2024-09-15T08:43:11.000Z</time>
      </trkpt>
      <trkpt lat="45.76535" lon="2.9788">
        <ele>930</ele>
        <time>2024-09-15T08:43:12.000Z</time>
      </trkpt>
      <trkpt lat="45.76532" lon="2.97878">
        <ele>930</ele>
        <time>2024-09-15T08:43:13.000Z</time>
      </trkpt>
      <trkpt lat="45.76529" lon="2.97876">
        <ele>929.79998779297</ele>
        <time>2024-09-15T08:43:14.000Z</time>
      </trkpt>
      <trkpt lat="45.76526" lon="2.97874">
        <ele>929.79998779297</ele>
        <time>2024-09-15T08:43:15.000Z</time>
      </trkpt>
      <trkpt lat="45.76523" lon="2.97872">
        <ele>929.79998779297</ele>
        <time>2024-09-15T08:43:16.000Z</time>
      </trkpt>
      <trkpt lat="45.76521" lon="2.9787">
        <ele>929.59997558594</ele>
        <time>2024-09-15T08:43:17.000Z</time>
      </trkpt>
      <trkpt lat="45.76517" lon="2.97867">
        <ele>929.59997558594</ele>
        <time>2024-09-15T08:43:18.000Z</time>
      </trkpt>
      <trkpt lat="45.76515" lon="2.97865">
        <ele>929.59997558594</ele>
        <time>2024-09-15T08:43:19.000Z</time>
      </trkpt>
      <trkpt lat="45.76512" lon="2.97862">
        <ele>929.59997558594</ele>
        <time>2024-09-15T08:43:20.000Z</time>
      </trkpt>
      <trkpt lat="45.76509" lon="2.9786">
        <ele>929.59997558594</ele>
        <time>2024-09-15T08:43:21.000Z</time>
      </trkpt>
      <trkpt lat="45.76507" lon="2.97857">
        <ele>929.40002441406</ele>
        <time>2024-09-15T08:43:22.000Z</time>
      </trkpt>
      <trkpt lat="45.76504" lon="2.97855">
        <ele>929.40002441406</ele>
        <time>2024-09-15T08:43:23.000Z</time>
      </trkpt>
      <trkpt lat="45.76501" lon="2.97852">
        <ele>929.40002441406</ele>
        <time>2024-09-15T08:43:24.000Z</time>
      </trkpt>
      <trkpt lat="45.76498" lon="2.9785">
        <ele>929.20001220703</ele>
        <time>2024-09-15T08:43:25.000Z</time>
      </trkpt>
      <trkpt lat="45.76496" lon="2.97848">
        <ele>929.20001220703</ele>
        <time>2024-09-15T08:43:26.000Z</time>
      </trkpt>
      <trkpt lat="45.76493" lon="2.97846">
        <ele>929.20001220703</ele>
        <time>2024-09-15T08:43:27.000Z</time>
      </trkpt>
      <trkpt lat="45.7649" lon="2.97844">
        <ele>929.20001220703</ele>
        <time>2024-09-15T08:43:28.000Z</time>
      </trkpt>
      <trkpt lat="45.76487" lon="2.97842">
        <ele>929.20001220703</ele>
        <time>2024-09-15T08:43:29.000Z</time>
      </trkpt>
      <trkpt lat="45.76485" lon="2.9784">
        <ele>929.20001220703</ele>
        <time>2024-09-15T08:43:30.000Z</time>
      </trkpt>
      <trkpt lat="45.76482" lon="2.97838">
        <ele>929.20001220703</ele>
        <time>2024-09-15T08:43:31.000Z</time>
      </trkpt>
      <trkpt lat="45.76479" lon="2.97836">
        <ele>929.20001220703</ele>
        <time>2024-09-15T08:43:32.000Z</time>
      </trkpt>
      <trkpt lat="45.76476" lon="2.97835">
        <ele>929.20001220703</ele>
        <time>2024-09-15T08:43:33.000Z</time>
      </trkpt>
      <trkpt lat="45.76473" lon="2.97833">
        <ele>929.20001220703</ele>
        <time>2024-09-15T08:43:34.000Z</time>
      </trkpt>
      <trkpt lat="45.76471" lon="2.97832">
        <ele>929</ele>
        <time>2024-09-15T08:43:35.000Z</time>
      </trkpt>
      <trkpt lat="45.76467" lon="2.9783">
        <ele>929.20001220703</ele>
        <time>2024-09-15T08:43:36.000Z</time>
      </trkpt>
      <trkpt lat="45.76464" lon="2.97828">
        <ele>929</ele>
        <time>2024-09-15T08:43:37.000Z</time>
      </trkpt>
      <trkpt lat="45.76461" lon="2.97826">
        <ele>928.79998779297</ele>
        <time>2024-09-15T08:43:38.000Z</time>
      </trkpt>
      <trkpt lat="45.76458" lon="2.97824">
        <ele>928.79998779297</ele>
        <time>2024-09-15T08:43:39.000Z</time>
      </trkpt>
      <trkpt lat="45.76455" lon="2.97823">
        <ele>928.79998779297</ele>
        <time>2024-09-15T08:43:40.000Z</time>
      </trkpt>
      <trkpt lat="45.76452" lon="2.97821">
        <ele>928.79998779297</ele>
        <time>2024-09-15T08:43:41.000Z</time>
      </trkpt>
      <trkpt lat="45.76449" lon="2.9782">
        <ele>928.79998779297</ele>
        <time>2024-09-15T08:43:42.000Z</time>
      </trkpt>
      <trkpt lat="45.76446" lon="2.97818">
        <ele>928.79998779297</ele>
        <time>2024-09-15T08:43:43.000Z</time>
      </trkpt>
      <trkpt lat="45.76443" lon="2.97816">
        <ele>928.40002441406</ele>
        <time>2024-09-15T08:43:44.000Z</time>
      </trkpt>
      <trkpt lat="45.7644" lon="2.97814">
        <ele>928.40002441406</ele>
        <time>2024-09-15T08:43:45.000Z</time>
      </trkpt>
      <trkpt lat="45.76437" lon="2.97812">
        <ele>928.40002441406</ele>
        <time>2024-09-15T08:43:46.000Z</time>
      </trkpt>
      <trkpt lat="45.76434" lon="2.97809">
        <ele>928.40002441406</ele>
        <time>2024-09-15T08:43:47.000Z</time>
      </trkpt>
      <trkpt lat="45.76431" lon="2.97807">
        <ele>928.20001220703</ele>
        <time>2024-09-15T08:43:48.000Z</time>
      </trkpt>
      <trkpt lat="45.76429" lon="2.97805">
        <ele>928.20001220703</ele>
        <time>2024-09-15T08:43:49.000Z</time>
      </trkpt>
      <trkpt lat="45.76426" lon="2.97802">
        <ele>928.20001220703</ele>
        <time>2024-09-15T08:43:50.000Z</time>
      </trkpt>
      <trkpt lat="45.76423" lon="2.97799">
        <ele>928.20001220703</ele>
        <time>2024-09-15T08:43:51.000Z</time>
      </trkpt>
      <trkpt lat="45.76421" lon="2.97796">
        <ele>928.20001220703</ele>
        <time>2024-09-15T08:43:52.000Z</time>
      </trkpt>
      <trkpt lat="45.76419" lon="2.97794">
        <ele>928.20001220703</ele>
        <time>2024-09-15T08:43:53.000Z</time>
      </trkpt>
      <trkpt lat="45.76417" lon="2.97791">
        <ele>928.20001220703</ele>
        <time>2024-09-15T08:43:54.000Z</time>
      </trkpt>
      <trkpt lat="45.76415" lon="2.97788">
        <ele>928.20001220703</ele>
        <time>2024-09-15T08:43:55.000Z</time>
      </trkpt>
      <trkpt lat="45.76413" lon="2.97784">
        <ele>928.20001220703</ele>
        <time>2024-09-15T08:43:56.000Z</time>
      </trkpt>
      <trkpt lat="45.7641" lon="2.97781">
        <ele>928.20001220703</ele>
        <time>2024-09-15T08:43:57.000Z</time>
      </trkpt>
      <trkpt lat="45.76408" lon="2.97778">
        <ele>928.20001220703</ele>
        <time>2024-09-15T08:43:58.000Z</time>
      </trkpt>
      <trkpt lat="45.76406" lon="2.97775">
        <ele>928</ele>
        <time>2024-09-15T08:43:59.000Z</time>
      </trkpt>
      <trkpt lat="45.76403" lon="2.97772">
        <ele>928.20001220703</ele>
        <time>2024-09-15T08:44:00.000Z</time>
      </trkpt>
      <trkpt lat="45.76401" lon="2.97769">
        <ele>928.20001220703</ele>
        <time>2024-09-15T08:44:01.000Z</time>
      </trkpt>
      <trkpt lat="45.76398" lon="2.97766">
        <ele>928.20001220703</ele>
        <time>2024-09-15T08:44:02.000Z</time>
      </trkpt>
      <trkpt lat="45.76396" lon="2.97763">
        <ele>928</ele>
        <time>2024-09-15T08:44:03.000Z</time>
      </trkpt>
      <trkpt lat="45.76394" lon="2.9776">
        <ele>928.20001220703</ele>
        <time>2024-09-15T08:44:04.000Z</time>
      </trkpt>
      <trkpt lat="45.76391" lon="2.97757">
        <ele>928.40002441406</ele>
        <time>2024-09-15T08:44:05.000Z</time>
      </trkpt>
      <trkpt lat="45.76389" lon="2.97754">
        <ele>928.20001220703</ele>
        <time>2024-09-15T08:44:06.000Z</time>
      </trkpt>
      <trkpt lat="45.76387" lon="2.97751">
        <ele>928.20001220703</ele>
        <time>2024-09-15T08:44:07.000Z</time>
      </trkpt>
      <trkpt lat="45.76384" lon="2.97748">
        <ele>928.20001220703</ele>
        <time>2024-09-15T08:44:08.000Z</time>
      </trkpt>
      <trkpt lat="45.76382" lon="2.97746">
        <ele>928.20001220703</ele>
        <time>2024-09-15T08:44:09.000Z</time>
      </trkpt>
      <trkpt lat="45.76379" lon="2.97743">
        <ele>928.20001220703</ele>
        <time>2024-09-15T08:44:10.000Z</time>
      </trkpt>
      <trkpt lat="45.76377" lon="2.97741">
        <ele>928</ele>
        <time>2024-09-15T08:44:11.000Z</time>
      </trkpt>
      <trkpt lat="45.76374" lon="2.97739">
        <ele>928.20001220703</ele>
        <time>2024-09-15T08:44:12.000Z</time>
      </trkpt>
      <trkpt lat="45.76372" lon="2.97736">
        <ele>928</ele>
        <time>2024-09-15T08:44:13.000Z</time>
      </trkpt>
      <trkpt lat="45.76369" lon="2.97734">
        <ele>928.20001220703</ele>
        <time>2024-09-15T08:44:14.000Z</time>
      </trkpt>
      <trkpt lat="45.76366" lon="2.97731">
        <ele>928.20001220703</ele>
        <time>2024-09-15T08:44:15.000Z</time>
      </trkpt>
      <trkpt lat="45.76363" lon="2.97728">
        <ele>928</ele>
        <time>2024-09-15T08:44:16.000Z</time>
      </trkpt>
      <trkpt lat="45.7636" lon="2.97726">
        <ele>928.20001220703</ele>
        <time>2024-09-15T08:44:17.000Z</time>
      </trkpt>
      <trkpt lat="45.76357" lon="2.97723">
        <ele>928</ele>
        <time>2024-09-15T08:44:18.000Z</time>
      </trkpt>
      <trkpt lat="45.76354" lon="2.97721">
        <ele>928</ele>
        <time>2024-09-15T08:44:19.000Z</time>
      </trkpt>
      <trkpt lat="45.76351" lon="2.97718">
        <ele>928</ele>
        <time>2024-09-15T08:44:20.000Z</time>
      </trkpt>
      <trkpt lat="45.76348" lon="2.97717">
        <ele>928</ele>
        <time>2024-09-15T08:44:21.000Z</time>
      </trkpt>
      <trkpt lat="45.76345" lon="2.97715">
        <ele>928</ele>
        <time>2024-09-15T08:44:22.000Z</time>
      </trkpt>
      <trkpt lat="45.76343" lon="2.97713">
        <ele>928</ele>
        <time>2024-09-15T08:44:23.000Z</time>
      </trkpt>
      <trkpt lat="45.7634" lon="2.97711">
        <ele>928</ele>
        <time>2024-09-15T08:44:24.000Z</time>
      </trkpt>
      <trkpt lat="45.76337" lon="2.97708">
        <ele>928</ele>
        <time>2024-09-15T08:44:25.000Z</time>
      </trkpt>
      <trkpt lat="45.76335" lon="2.97706">
        <ele>928</ele>
        <time>2024-09-15T08:44:26.000Z</time>
      </trkpt>
      <trkpt lat="45.76332" lon="2.97705">
        <ele>928</ele>
        <time>2024-09-15T08:44:27.000Z</time>
      </trkpt>
      <trkpt lat="45.7633" lon="2.97703">
        <ele>928</ele>
        <time>2024-09-15T08:44:28.000Z</time>
      </trkpt>
      <trkpt lat="45.76327" lon="2.97701">
        <ele>928</ele>
        <time>2024-09-15T08:44:29.000Z</time>
      </trkpt>
      <trkpt lat="45.76324" lon="2.97699">
        <ele>928</ele>
        <time>2024-09-15T08:44:30.000Z</time>
      </trkpt>
      <trkpt lat="45.76321" lon="2.97696">
        <ele>928.20001220703</ele>
        <time>2024-09-15T08:44:31.000Z</time>
      </trkpt>
      <trkpt lat="45.76318" lon="2.97694">
        <ele>928.20001220703</ele>
        <time>2024-09-15T08:44:32.000Z</time>
      </trkpt>
      <trkpt lat="45.76315" lon="2.97692">
        <ele>928.40002441406</ele>
        <time>2024-09-15T08:44:33.000Z</time>
      </trkpt>
      <trkpt lat="45.76313" lon="2.9769">
        <ele>928.40002441406</ele>
        <time>2024-09-15T08:44:34.000Z</time>
      </trkpt>
      <trkpt lat="45.7631" lon="2.97687">
        <ele>928.40002441406</ele>
        <time>2024-09-15T08:44:35.000Z</time>
      </trkpt>
      <trkpt lat="45.76307" lon="2.97685">
        <ele>928.40002441406</ele>
        <time>2024-09-15T08:44:36.000Z</time>
      </trkpt>
      <trkpt lat="45.76305" lon="2.97682">
        <ele>928.59997558594</ele>
        <time>2024-09-15T08:44:37.000Z</time>
      </trkpt>
      <trkpt lat="45.76302" lon="2.9768">
        <ele>928.79998779297</ele>
        <time>2024-09-15T08:44:38.000Z</time>
      </trkpt>
      <trkpt lat="45.76299" lon="2.97677">
        <ele>928.79998779297</ele>
        <time>2024-09-15T08:44:39.000Z</time>
      </trkpt>
      <trkpt lat="45.76296" lon="2.97675">
        <ele>928.79998779297</ele>
        <time>2024-09-15T08:44:40.000Z</time>
      </trkpt>
      <trkpt lat="45.76294" lon="2.97673">
        <ele>929</ele>
        <time>2024-09-15T08:44:41.000Z</time>
      </trkpt>
      <trkpt lat="45.76291" lon="2.9767">
        <ele>929</ele>
        <time>2024-09-15T08:44:42.000Z</time>
      </trkpt>
      <trkpt lat="45.76289" lon="2.97667">
        <ele>929</ele>
        <time>2024-09-15T08:44:43.000Z</time>
      </trkpt>
      <trkpt lat="45.76286" lon="2.97665">
        <ele>928.79998779297</ele>
        <time>2024-09-15T08:44:44.000Z</time>
      </trkpt>
      <trkpt lat="45.76284" lon="2.97662">
        <ele>928.79998779297</ele>
        <time>2024-09-15T08:44:45.000Z</time>
      </trkpt>
      <trkpt lat="45.76281" lon="2.9766">
        <ele>928.79998779297</ele>
        <time>2024-09-15T08:44:46.000Z</time>
      </trkpt>
      <trkpt lat="45.76278" lon="2.97658">
        <ele>929</ele>
        <time>2024-09-15T08:44:47.000Z</time>
      </trkpt>
      <trkpt lat="45.76275" lon="2.97656">
        <ele>928.79998779297</ele>
        <time>2024-09-15T08:44:48.000Z</time>
      </trkpt>
      <trkpt lat="45.76272" lon="2.97654">
        <ele>928.79998779297</ele>
        <time>2024-09-15T08:44:49.000Z</time>
      </trkpt>
      <trkpt lat="45.76269" lon="2.97653">
        <ele>929</ele>
        <time>2024-09-15T08:44:50.000Z</time>
      </trkpt>
      <trkpt lat="45.76267" lon="2.97651">
        <ele>929</ele>
        <time>2024-09-15T08:44:51.000Z</time>
      </trkpt>
      <trkpt lat="45.76264" lon="2.97649">
        <ele>929</ele>
        <time>2024-09-15T08:44:52.000Z</time>
      </trkpt>
      <trkpt lat="45.76261" lon="2.97646">
        <ele>929.20001220703</ele>
        <time>2024-09-15T08:44:53.000Z</time>
      </trkpt>
      <trkpt lat="45.76258" lon="2.97643">
        <ele>929.20001220703</ele>
        <time>2024-09-15T08:44:54.000Z</time>
      </trkpt>
      <trkpt lat="45.76255" lon="2.97642">
        <ele>929.20001220703</ele>
        <time>2024-09-15T08:44:55.000Z</time>
      </trkpt>
      <trkpt lat="45.76252" lon="2.9764">
        <ele>929.40002441406</ele>
        <time>2024-09-15T08:44:56.000Z</time>
      </trkpt>
      <trkpt lat="45.76249" lon="2.97639">
        <ele>929.40002441406</ele>
        <time>2024-09-15T08:44:57.000Z</time>
      </trkpt>
      <trkpt lat="45.76246" lon="2.97637">
        <ele>929.40002441406</ele>
        <time>2024-09-15T08:44:58.000Z</time>
      </trkpt>
      <trkpt lat="45.76243" lon="2.97636">
        <ele>929.40002441406</ele>
        <time>2024-09-15T08:44:59.000Z</time>
      </trkpt>
      <trkpt lat="45.76241" lon="2.97634">
        <ele>929.40002441406</ele>
        <time>2024-09-15T08:45:00.000Z</time>
      </trkpt>
      <trkpt lat="45.76238" lon="2.97631">
        <ele>929.20001220703</ele>
        <time>2024-09-15T08:45:01.000Z</time>
      </trkpt>
      <trkpt lat="45.76236" lon="2.97629">
        <ele>929.20001220703</ele>
        <time>2024-09-15T08:45:02.000Z</time>
      </trkpt>
      <trkpt lat="45.76232" lon="2.97628">
        <ele>929.20001220703</ele>
        <time>2024-09-15T08:45:03.000Z</time>
      </trkpt>
      <trkpt lat="45.76229" lon="2.97626">
        <ele>929.20001220703</ele>
        <time>2024-09-15T08:45:04.000Z</time>
      </trkpt>
      <trkpt lat="45.76227" lon="2.97624">
        <ele>929.40002441406</ele>
        <time>2024-09-15T08:45:05.000Z</time>
      </trkpt>
      <trkpt lat="45.76224" lon="2.97623">
        <ele>929.40002441406</ele>
        <time>2024-09-15T08:45:06.000Z</time>
      </trkpt>
      <trkpt lat="45.76221" lon="2.97621">
        <ele>929.40002441406</ele>
        <time>2024-09-15T08:45:07.000Z</time>
      </trkpt>
      <trkpt lat="45.76218" lon="2.9762">
        <ele>929.59997558594</ele>
        <time>2024-09-15T08:45:08.000Z</time>
      </trkpt>
      <trkpt lat="45.76215" lon="2.97619">
        <ele>929.59997558594</ele>
        <time>2024-09-15T08:45:09.000Z</time>
      </trkpt>
      <trkpt lat="45.76212" lon="2.97619">
        <ele>929.79998779297</ele>
        <time>2024-09-15T08:45:10.000Z</time>
      </trkpt>
      <trkpt lat="45.76209" lon="2.97617">
        <ele>929.79998779297</ele>
        <time>2024-09-15T08:45:11.000Z</time>
      </trkpt>
      <trkpt lat="45.76206" lon="2.97615">
        <ele>929.79998779297</ele>
        <time>2024-09-15T08:45:12.000Z</time>
      </trkpt>
      <trkpt lat="45.76204" lon="2.97613">
        <ele>929.79998779297</ele>
        <time>2024-09-15T08:45:13.000Z</time>
      </trkpt>
      <trkpt lat="45.76201" lon="2.97612">
        <ele>929.79998779297</ele>
        <time>2024-09-15T08:45:14.000Z</time>
      </trkpt>
      <trkpt lat="45.76198" lon="2.9761">
        <ele>930</ele>
        <time>2024-09-15T08:45:15.000Z</time>
      </trkpt>
      <trkpt lat="45.76196" lon="2.97608">
        <ele>930.20001220703</ele>
        <time>2024-09-15T08:45:16.000Z</time>
      </trkpt>
      <trkpt lat="45.76193" lon="2.97606">
        <ele>930.20001220703</ele>
        <time>2024-09-15T08:45:17.000Z</time>
      </trkpt>
      <trkpt lat="45.7619" lon="2.97604">
        <ele>930.20001220703</ele>
        <time>2024-09-15T08:45:18.000Z</time>
      </trkpt>
      <trkpt lat="45.76187" lon="2.97602">
        <ele>930.40002441406</ele>
        <time>2024-09-15T08:45:19.000Z</time>
      </trkpt>
      <trkpt lat="45.76185" lon="2.97601">
        <ele>930.59997558594</ele>
        <time>2024-09-15T08:45:20.000Z</time>
      </trkpt>
      <trkpt lat="45.76182" lon="2.97599">
        <ele>930.59997558594</ele>
        <time>2024-09-15T08:45:21.000Z</time>
      </trkpt>
      <trkpt lat="45.76179" lon="2.97597">
        <ele>930.59997558594</ele>
        <time>2024-09-15T08:45:22.000Z</time>
      </trkpt>
      <trkpt lat="45.76177" lon="2.97596">
        <ele>930.59997558594</ele>
        <time>2024-09-15T08:45:23.000Z</time>
      </trkpt>
      <trkpt lat="45.76174" lon="2.97595">
        <ele>930.79998779297</ele>
        <time>2024-09-15T08:45:24.000Z</time>
      </trkpt>
      <trkpt lat="45.76171" lon="2.97594">
        <ele>931</ele>
        <time>2024-09-15T08:45:25.000Z</time>
      </trkpt>
      <trkpt lat="45.76169" lon="2.97592">
        <ele>931.20001220703</ele>
        <time>2024-09-15T08:45:26.000Z</time>
      </trkpt>
      <trkpt lat="45.76166" lon="2.97591">
        <ele>931.20001220703</ele>
        <time>2024-09-15T08:45:27.000Z</time>
      </trkpt>
      <trkpt lat="45.76163" lon="2.9759">
        <ele>931.40002441406</ele>
        <time>2024-09-15T08:45:28.000Z</time>
      </trkpt>
      <trkpt lat="45.7616" lon="2.97588">
        <ele>931.40002441406</ele>
        <time>2024-09-15T08:45:29.000Z</time>
      </trkpt>
      <trkpt lat="45.76158" lon="2.97586">
        <ele>931.40002441406</ele>
        <time>2024-09-15T08:45:30.000Z</time>
      </trkpt>
      <trkpt lat="45.76155" lon="2.97584">
        <ele>931.40002441406</ele>
        <time>2024-09-15T08:45:31.000Z</time>
      </trkpt>
      <trkpt lat="45.76152" lon="2.97582">
        <ele>931.40002441406</ele>
        <time>2024-09-15T08:45:32.000Z</time>
      </trkpt>
      <trkpt lat="45.7615" lon="2.9758">
        <ele>931.40002441406</ele>
        <time>2024-09-15T08:45:33.000Z</time>
      </trkpt>
      <trkpt lat="45.76147" lon="2.97578">
        <ele>931.40002441406</ele>
        <time>2024-09-15T08:45:34.000Z</time>
      </trkpt>
      <trkpt lat="45.76145" lon="2.97576">
        <ele>931.59997558594</ele>
        <time>2024-09-15T08:45:35.000Z</time>
      </trkpt>
      <trkpt lat="45.76142" lon="2.97574">
        <ele>931.59997558594</ele>
        <time>2024-09-15T08:45:36.000Z</time>
      </trkpt>
      <trkpt lat="45.7614" lon="2.97571">
        <ele>931.79998779297</ele>
        <time>2024-09-15T08:45:37.000Z</time>
      </trkpt>
      <trkpt lat="45.76138" lon="2.97569">
        <ele>931.79998779297</ele>
        <time>2024-09-15T08:45:38.000Z</time>
      </trkpt>
      <trkpt lat="45.76135" lon="2.97566">
        <ele>931.79998779297</ele>
        <time>2024-09-15T08:45:39.000Z</time>
      </trkpt>
      <trkpt lat="45.76132" lon="2.97564">
        <ele>932</ele>
        <time>2024-09-15T08:45:40.000Z</time>
      </trkpt>
      <trkpt lat="45.7613" lon="2.97562">
        <ele>932</ele>
        <time>2024-09-15T08:45:41.000Z</time>
      </trkpt>
      <trkpt lat="45.76128" lon="2.9756">
        <ele>932</ele>
        <time>2024-09-15T08:45:42.000Z</time>
      </trkpt>
      <trkpt lat="45.76126" lon="2.97558">
        <ele>932</ele>
        <time>2024-09-15T08:45:43.000Z</time>
      </trkpt>
      <trkpt lat="45.76124" lon="2.97556">
        <ele>932</ele>
        <time>2024-09-15T08:45:44.000Z</time>
      </trkpt>
      <trkpt lat="45.76121" lon="2.97554">
        <ele>932</ele>
        <time>2024-09-15T08:45:45.000Z</time>
      </trkpt>
      <trkpt lat="45.76119" lon="2.97551">
        <ele>932.20001220703</ele>
        <time>2024-09-15T08:45:46.000Z</time>
      </trkpt>
      <trkpt lat="45.76117" lon="2.97549">
        <ele>932.20001220703</ele>
        <time>2024-09-15T08:45:47.000Z</time>
      </trkpt>
      <trkpt lat="45.76114" lon="2.97546">
        <ele>932.20001220703</ele>
        <time>2024-09-15T08:45:48.000Z</time>
      </trkpt>
      <trkpt lat="45.76112" lon="2.97544">
        <ele>932.40002441406</ele>
        <time>2024-09-15T08:45:49.000Z</time>
      </trkpt>
      <trkpt lat="45.76109" lon="2.97542">
        <ele>932.40002441406</ele>
        <time>2024-09-15T08:45:50.000Z</time>
      </trkpt>
      <trkpt lat="45.76107" lon="2.97539">
        <ele>932.40002441406</ele>
        <time>2024-09-15T08:45:51.000Z</time>
      </trkpt>
      <trkpt lat="45.76105" lon="2.97537">
        <ele>932.79998779297</ele>
        <time>2024-09-15T08:45:52.000Z</time>
      </trkpt>
      <trkpt lat="45.76102" lon="2.97534">
        <ele>933</ele>
        <time>2024-09-15T08:45:53.000Z</time>
      </trkpt>
      <trkpt lat="45.76099" lon="2.97532">
        <ele>933</ele>
        <time>2024-09-15T08:45:54.000Z</time>
      </trkpt>
      <trkpt lat="45.76097" lon="2.9753">
        <ele>933</ele>
        <time>2024-09-15T08:45:55.000Z</time>
      </trkpt>
      <trkpt lat="45.76094" lon="2.97528">
        <ele>933.20001220703</ele>
        <time>2024-09-15T08:45:56.000Z</time>
      </trkpt>
      <trkpt lat="45.76092" lon="2.97526">
        <ele>933.20001220703</ele>
        <time>2024-09-15T08:45:57.000Z</time>
      </trkpt>
      <trkpt lat="45.76089" lon="2.97524">
        <ele>933.20001220703</ele>
        <time>2024-09-15T08:45:58.000Z</time>
      </trkpt>
      <trkpt lat="45.76087" lon="2.97522">
        <ele>933.40002441406</ele>
        <time>2024-09-15T08:45:59.000Z</time>
      </trkpt>
      <trkpt lat="45.76084" lon="2.9752">
        <ele>933.40002441406</ele>
        <time>2024-09-15T08:46:00.000Z</time>
      </trkpt>
      <trkpt lat="45.76082" lon="2.97518">
        <ele>933.59997558594</ele>
        <time>2024-09-15T08:46:01.000Z</time>
      </trkpt>
      <trkpt lat="45.76079" lon="2.97516">
        <ele>933.59997558594</ele>
        <time>2024-09-15T08:46:02.000Z</time>
      </trkpt>
      <trkpt lat="45.76077" lon="2.97513">
        <ele>933.59997558594</ele>
        <time>2024-09-15T08:46:03.000Z</time>
      </trkpt>
      <trkpt lat="45.76075" lon="2.97511">
        <ele>933.79998779297</ele>
        <time>2024-09-15T08:46:04.000Z</time>
      </trkpt>
      <trkpt lat="45.76072" lon="2.97508">
        <ele>933.79998779297</ele>
        <time>2024-09-15T08:46:05.000Z</time>
      </trkpt>
      <trkpt lat="45.7607" lon="2.97506">
        <ele>934</ele>
        <time>2024-09-15T08:46:06.000Z</time>
      </trkpt>
      <trkpt lat="45.76067" lon="2.97504">
        <ele>934</ele>
        <time>2024-09-15T08:46:07.000Z</time>
      </trkpt>
      <trkpt lat="45.76065" lon="2.97502">
        <ele>934.20001220703</ele>
        <time>2024-09-15T08:46:08.000Z</time>
      </trkpt>
      <trkpt lat="45.76063" lon="2.97499">
        <ele>934.40002441406</ele>
        <time>2024-09-15T08:46:09.000Z</time>
      </trkpt>
      <trkpt lat="45.7606" lon="2.97496">
        <ele>934.40002441406</ele>
        <time>2024-09-15T08:46:10.000Z</time>
      </trkpt>
      <trkpt lat="45.76058" lon="2.97495">
        <ele>934.59997558594</ele>
        <time>2024-09-15T08:46:11.000Z</time>
      </trkpt>
      <trkpt lat="45.76055" lon="2.97494">
        <ele>934.59997558594</ele>
        <time>2024-09-15T08:46:12.000Z</time>
      </trkpt>
      <trkpt lat="45.76053" lon="2.97492">
        <ele>934.59997558594</ele>
        <time>2024-09-15T08:46:13.000Z</time>
      </trkpt>
      <trkpt lat="45.7605" lon="2.9749">
        <ele>934.79998779297</ele>
        <time>2024-09-15T08:46:14.000Z</time>
      </trkpt>
      <trkpt lat="45.76048" lon="2.97488">
        <ele>934.79998779297</ele>
        <time>2024-09-15T08:46:15.000Z</time>
      </trkpt>
      <trkpt lat="45.76046" lon="2.97487">
        <ele>935</ele>
        <time>2024-09-15T08:46:16.000Z</time>
      </trkpt>
      <trkpt lat="45.76044" lon="2.97485">
        <ele>935.20001220703</ele>
        <time>2024-09-15T08:46:17.000Z</time>
      </trkpt>
      <trkpt lat="45.76041" lon="2.97484">
        <ele>935.40002441406</ele>
        <time>2024-09-15T08:46:18.000Z</time>
      </trkpt>
      <trkpt lat="45.76039" lon="2.97482">
        <ele>935.79998779297</ele>
        <time>2024-09-15T08:46:19.000Z</time>
      </trkpt>
      <trkpt lat="45.76036" lon="2.97479">
        <ele>935.79998779297</ele>
        <time>2024-09-15T08:46:20.000Z</time>
      </trkpt>
      <trkpt lat="45.76034" lon="2.97477">
        <ele>936</ele>
        <time>2024-09-15T08:46:21.000Z</time>
      </trkpt>
      <trkpt lat="45.76032" lon="2.97475">
        <ele>936.20001220703</ele>
        <time>2024-09-15T08:46:22.000Z</time>
      </trkpt>
      <trkpt lat="45.76029" lon="2.97473">
        <ele>936.40002441406</ele>
        <time>2024-09-15T08:46:23.000Z</time>
      </trkpt>
      <trkpt lat="45.76027" lon="2.97471">
        <ele>936.40002441406</ele>
        <time>2024-09-15T08:46:24.000Z</time>
      </trkpt>
      <trkpt lat="45.76025" lon="2.97469">
        <ele>936.40002441406</ele>
        <time>2024-09-15T08:46:25.000Z</time>
      </trkpt>
      <trkpt lat="45.76022" lon="2.97466">
        <ele>936.40002441406</ele>
        <time>2024-09-15T08:46:26.000Z</time>
      </trkpt>
      <trkpt lat="45.7602" lon="2.97464">
        <ele>936.59997558594</ele>
        <time>2024-09-15T08:46:27.000Z</time>
      </trkpt>
      <trkpt lat="45.76018" lon="2.97461">
        <ele>936.79998779297</ele>
        <time>2024-09-15T08:46:28.000Z</time>
      </trkpt>
      <trkpt lat="45.76016" lon="2.97459">
        <ele>937.20001220703</ele>
        <time>2024-09-15T08:46:29.000Z</time>
      </trkpt>
      <trkpt lat="45.76014" lon="2.97455">
        <ele>937.59997558594</ele>
        <time>2024-09-15T08:46:30.000Z</time>
      </trkpt>
      <trkpt lat="45.76012" lon="2.97453">
        <ele>937.79998779297</ele>
        <time>2024-09-15T08:46:31.000Z</time>
      </trkpt>
      <trkpt lat="45.7601" lon="2.97451">
        <ele>937.79998779297</ele>
        <time>2024-09-15T08:46:32.000Z</time>
      </trkpt>
      <trkpt lat="45.76008" lon="2.97448">
        <ele>938</ele>
        <time>2024-09-15T08:46:33.000Z</time>
      </trkpt>
      <trkpt lat="45.76007" lon="2.97445">
        <ele>938</ele>
        <time>2024-09-15T08:46:34.000Z</time>
      </trkpt>
      <trkpt lat="45.76005" lon="2.97442">
        <ele>938.20001220703</ele>
        <time>2024-09-15T08:46:35.000Z</time>
      </trkpt>
      <trkpt lat="45.76003" lon="2.9744">
        <ele>938.59997558594</ele>
        <time>2024-09-15T08:46:36.000Z</time>
      </trkpt>
      <trkpt lat="45.76001" lon="2.97437">
        <ele>938.79998779297</ele>
        <time>2024-09-15T08:46:37.000Z</time>
      </trkpt>
      <trkpt lat="45.75999" lon="2.97435">
        <ele>939</ele>
        <time>2024-09-15T08:46:38.000Z</time>
      </trkpt>
      <trkpt lat="45.75997" lon="2.97434">
        <ele>939.20001220703</ele>
        <time>2024-09-15T08:46:39.000Z</time>
      </trkpt>
      <trkpt lat="45.75994" lon="2.97432">
        <ele>939.40002441406</ele>
        <time>2024-09-15T08:46:40.000Z</time>
      </trkpt>
      <trkpt lat="45.75992" lon="2.9743">
        <ele>939.79998779297</ele>
        <time>2024-09-15T08:46:41.000Z</time>
      </trkpt>
      <trkpt lat="45.75989" lon="2.97429">
        <ele>939.79998779297</ele>
        <time>2024-09-15T08:46:42.000Z</time>
      </trkpt>
      <trkpt lat="45.75987" lon="2.97428">
        <ele>940.20001220703</ele>
        <time>2024-09-15T08:46:43.000Z</time>
      </trkpt>
      <trkpt lat="45.75984" lon="2.97426">
        <ele>940.40002441406</ele>
        <time>2024-09-15T08:46:44.000Z</time>
      </trkpt>
      <trkpt lat="45.75982" lon="2.97424">
        <ele>940.59997558594</ele>
        <time>2024-09-15T08:46:45.000Z</time>
      </trkpt>
      <trkpt lat="45.75979" lon="2.97423">
        <ele>940.79998779297</ele>
        <time>2024-09-15T08:46:46.000Z</time>
      </trkpt>
      <trkpt lat="45.75977" lon="2.97422">
        <ele>941</ele>
        <time>2024-09-15T08:46:47.000Z</time>
      </trkpt>
      <trkpt lat="45.75974" lon="2.9742">
        <ele>941</ele>
        <time>2024-09-15T08:46:48.000Z</time>
      </trkpt>
      <trkpt lat="45.75972" lon="2.97419">
        <ele>941</ele>
        <time>2024-09-15T08:46:49.000Z</time>
      </trkpt>
      <trkpt lat="45.75969" lon="2.97418">
        <ele>941</ele>
        <time>2024-09-15T08:46:50.000Z</time>
      </trkpt>
      <trkpt lat="45.75966" lon="2.97416">
        <ele>941.20001220703</ele>
        <time>2024-09-15T08:46:51.000Z</time>
      </trkpt>
      <trkpt lat="45.75963" lon="2.97415">
        <ele>941.20001220703</ele>
        <time>2024-09-15T08:46:52.000Z</time>
      </trkpt>
      <trkpt lat="45.7596" lon="2.97413">
        <ele>941.20001220703</ele>
        <time>2024-09-15T08:46:53.000Z</time>
      </trkpt>
      <trkpt lat="45.75957" lon="2.97412">
        <ele>941.20001220703</ele>
        <time>2024-09-15T08:46:54.000Z</time>
      </trkpt>
      <trkpt lat="45.75955" lon="2.97411">
        <ele>941.20001220703</ele>
        <time>2024-09-15T08:46:55.000Z</time>
      </trkpt>
      <trkpt lat="45.75952" lon="2.9741">
        <ele>941.20001220703</ele>
        <time>2024-09-15T08:46:56.000Z</time>
      </trkpt>
      <trkpt lat="45.75949" lon="2.97409">
        <ele>941.20001220703</ele>
        <time>2024-09-15T08:46:57.000Z</time>
      </trkpt>
      <trkpt lat="45.75947" lon="2.97407">
        <ele>941.20001220703</ele>
        <time>2024-09-15T08:46:58.000Z</time>
      </trkpt>
      <trkpt lat="45.75943" lon="2.97405">
        <ele>941.20001220703</ele>
        <time>2024-09-15T08:46:59.000Z</time>
      </trkpt>
      <trkpt lat="45.75941" lon="2.97404">
        <ele>941.20001220703</ele>
        <time>2024-09-15T08:47:00.000Z</time>
      </trkpt>
      <trkpt lat="45.75938" lon="2.97402">
        <ele>941.20001220703</ele>
        <time>2024-09-15T08:47:01.000Z</time>
      </trkpt>
      <trkpt lat="45.75935" lon="2.97401">
        <ele>941.20001220703</ele>
        <time>2024-09-15T08:47:02.000Z</time>
      </trkpt>
      <trkpt lat="45.75932" lon="2.974">
        <ele>941.40002441406</ele>
        <time>2024-09-15T08:47:03.000Z</time>
      </trkpt>
      <trkpt lat="45.7593" lon="2.97398">
        <ele>941.40002441406</ele>
        <time>2024-09-15T08:47:04.000Z</time>
      </trkpt>
      <trkpt lat="45.75927" lon="2.97396">
        <ele>941.40002441406</ele>
        <time>2024-09-15T08:47:05.000Z</time>
      </trkpt>
      <trkpt lat="45.75924" lon="2.97395">
        <ele>941.59997558594</ele>
        <time>2024-09-15T08:47:06.000Z</time>
      </trkpt>
      <trkpt lat="45.75921" lon="2.97394">
        <ele>941.59997558594</ele>
        <time>2024-09-15T08:47:07.000Z</time>
      </trkpt>
      <trkpt lat="45.75918" lon="2.97393">
        <ele>941.59997558594</ele>
        <time>2024-09-15T08:47:08.000Z</time>
      </trkpt>
      <trkpt lat="45.75915" lon="2.97392">
        <ele>941.79998779297</ele>
        <time>2024-09-15T08:47:09.000Z</time>
      </trkpt>
      <trkpt lat="45.75912" lon="2.97392">
        <ele>941.79998779297</ele>
        <time>2024-09-15T08:47:10.000Z</time>
      </trkpt>
      <trkpt lat="45.75909" lon="2.97391">
        <ele>942</ele>
        <time>2024-09-15T08:47:11.000Z</time>
      </trkpt>
      <trkpt lat="45.75906" lon="2.97392">
        <ele>942.20001220703</ele>
        <time>2024-09-15T08:47:12.000Z</time>
      </trkpt>
      <trkpt lat="45.75903" lon="2.97392">
        <ele>942.40002441406</ele>
        <time>2024-09-15T08:47:13.000Z</time>
      </trkpt>
      <trkpt lat="45.759" lon="2.97393">
        <ele>942.40002441406</ele>
        <time>2024-09-15T08:47:14.000Z</time>
      </trkpt>
      <trkpt lat="45.75897" lon="2.97394">
        <ele>942.59997558594</ele>
        <time>2024-09-15T08:47:15.000Z</time>
      </trkpt>
      <trkpt lat="45.75894" lon="2.97394">
        <ele>942.79998779297</ele>
        <time>2024-09-15T08:47:16.000Z</time>
      </trkpt>
      <trkpt lat="45.75891" lon="2.97394">
        <ele>943</ele>
        <time>2024-09-15T08:47:17.000Z</time>
      </trkpt>
      <trkpt lat="45.75888" lon="2.97394">
        <ele>943.20001220703</ele>
        <time>2024-09-15T08:47:18.000Z</time>
      </trkpt>
      <trkpt lat="45.75885" lon="2.97395">
        <ele>943.40002441406</ele>
        <time>2024-09-15T08:47:19.000Z</time>
      </trkpt>
      <trkpt lat="45.75883" lon="2.97396">
        <ele>943.59997558594</ele>
        <time>2024-09-15T08:47:20.000Z</time>
      </trkpt>
      <trkpt lat="45.7588" lon="2.97396">
        <ele>943.59997558594</ele>
        <time>2024-09-15T08:47:21.000Z</time>
      </trkpt>
      <trkpt lat="45.75877" lon="2.97396">
        <ele>943.59997558594</ele>
        <time>2024-09-15T08:47:22.000Z</time>
      </trkpt>
      <trkpt lat="45.75875" lon="2.97396">
        <ele>943.59997558594</ele>
        <time>2024-09-15T08:47:23.000Z</time>
      </trkpt>
      <trkpt lat="45.75871" lon="2.97396">
        <ele>943.59997558594</ele>
        <time>2024-09-15T08:47:24.000Z</time>
      </trkpt>
      <trkpt lat="45.75869" lon="2.97397">
        <ele>943.79998779297</ele>
        <time>2024-09-15T08:47:25.000Z</time>
      </trkpt>
      <trkpt lat="45.75866" lon="2.97397">
        <ele>943.79998779297</ele>
        <time>2024-09-15T08:47:26.000Z</time>
      </trkpt>
      <trkpt lat="45.75863" lon="2.97397">
        <ele>944</ele>
        <time>2024-09-15T08:47:27.000Z</time>
      </trkpt>
      <trkpt lat="45.7586" lon="2.97396">
        <ele>944.20001220703</ele>
        <time>2024-09-15T08:47:28.000Z</time>
      </trkpt>
      <trkpt lat="45.75857" lon="2.97397">
        <ele>944.20001220703</ele>
        <time>2024-09-15T08:47:29.000Z</time>
      </trkpt>
      <trkpt lat="45.75855" lon="2.97398">
        <ele>944.40002441406</ele>
        <time>2024-09-15T08:47:30.000Z</time>
      </trkpt>
      <trkpt lat="45.75852" lon="2.97398">
        <ele>944.59997558594</ele>
        <time>2024-09-15T08:47:31.000Z</time>
      </trkpt>
      <trkpt lat="45.75849" lon="2.97398">
        <ele>945</ele>
        <time>2024-09-15T08:47:32.000Z</time>
      </trkpt>
      <trkpt lat="45.75846" lon="2.97397">
        <ele>945</ele>
        <time>2024-09-15T08:47:33.000Z</time>
      </trkpt>
      <trkpt lat="45.75843" lon="2.97397">
        <ele>945.20001220703</ele>
        <time>2024-09-15T08:47:34.000Z</time>
      </trkpt>
      <trkpt lat="45.75841" lon="2.97398">
        <ele>945.40002441406</ele>
        <time>2024-09-15T08:47:35.000Z</time>
      </trkpt>
      <trkpt lat="45.75838" lon="2.97398">
        <ele>945.40002441406</ele>
        <time>2024-09-15T08:47:36.000Z</time>
      </trkpt>
      <trkpt lat="45.75835" lon="2.97398">
        <ele>945.59997558594</ele>
        <time>2024-09-15T08:47:37.000Z</time>
      </trkpt>
      <trkpt lat="45.75833" lon="2.97399">
        <ele>945.79998779297</ele>
        <time>2024-09-15T08:47:38.000Z</time>
      </trkpt>
      <trkpt lat="45.7583" lon="2.97399">
        <ele>945.79998779297</ele>
        <time>2024-09-15T08:47:39.000Z</time>
      </trkpt>
      <trkpt lat="45.75827" lon="2.97399">
        <ele>946.20001220703</ele>
        <time>2024-09-15T08:47:40.000Z</time>
      </trkpt>
      <trkpt lat="45.75825" lon="2.97398">
        <ele>946.40002441406</ele>
        <time>2024-09-15T08:47:41.000Z</time>
      </trkpt>
      <trkpt lat="45.75822" lon="2.97399">
        <ele>946.59997558594</ele>
        <time>2024-09-15T08:47:42.000Z</time>
      </trkpt>
      <trkpt lat="45.7582" lon="2.97399">
        <ele>946.79998779297</ele>
        <time>2024-09-15T08:47:43.000Z</time>
      </trkpt>
      <trkpt lat="45.75817" lon="2.974">
        <ele>946.79998779297</ele>
        <time>2024-09-15T08:47:44.000Z</time>
      </trkpt>
      <trkpt lat="45.75814" lon="2.974">
        <ele>947</ele>
        <time>2024-09-15T08:47:45.000Z</time>
      </trkpt>
      <trkpt lat="45.75812" lon="2.974">
        <ele>947.20001220703</ele>
        <time>2024-09-15T08:47:46.000Z</time>
      </trkpt>
      <trkpt lat="45.75809" lon="2.974">
        <ele>947.20001220703</ele>
        <time>2024-09-15T08:47:47.000Z</time>
      </trkpt>
      <trkpt lat="45.75807" lon="2.97399">
        <ele>947.20001220703</ele>
        <time>2024-09-15T08:47:48.000Z</time>
      </trkpt>
      <trkpt lat="45.75804" lon="2.974">
        <ele>947.40002441406</ele>
        <time>2024-09-15T08:47:49.000Z</time>
      </trkpt>
      <trkpt lat="45.75801" lon="2.974">
        <ele>947.59997558594</ele>
        <time>2024-09-15T08:47:50.000Z</time>
      </trkpt>
      <trkpt lat="45.75798" lon="2.974">
        <ele>947.79998779297</ele>
        <time>2024-09-15T08:47:51.000Z</time>
      </trkpt>
      <trkpt lat="45.75796" lon="2.974">
        <ele>948</ele>
        <time>2024-09-15T08:47:52.000Z</time>
      </trkpt>
      <trkpt lat="45.75793" lon="2.97401">
        <ele>948</ele>
        <time>2024-09-15T08:47:53.000Z</time>
      </trkpt>
      <trkpt lat="45.75791" lon="2.97401">
        <ele>948</ele>
        <time>2024-09-15T08:47:54.000Z</time>
      </trkpt>
      <trkpt lat="45.75788" lon="2.97402">
        <ele>948.20001220703</ele>
        <time>2024-09-15T08:47:55.000Z</time>
      </trkpt>
      <trkpt lat="45.75786" lon="2.97402">
        <ele>948.40002441406</ele>
        <time>2024-09-15T08:47:56.000Z</time>
      </trkpt>
      <trkpt lat="45.75783" lon="2.97403">
        <ele>948.79998779297</ele>
        <time>2024-09-15T08:47:57.000Z</time>
      </trkpt>
      <trkpt lat="45.75781" lon="2.97403">
        <ele>949.20001220703</ele>
        <time>2024-09-15T08:47:58.000Z</time>
      </trkpt>
      <trkpt lat="45.75778" lon="2.97403">
        <ele>949.20001220703</ele>
        <time>2024-09-15T08:47:59.000Z</time>
      </trkpt>
      <trkpt lat="45.75776" lon="2.97402">
        <ele>949.40002441406</ele>
        <time>2024-09-15T08:48:00.000Z</time>
      </trkpt>
      <trkpt lat="45.75773" lon="2.97402">
        <ele>949.40002441406</ele>
        <time>2024-09-15T08:48:01.000Z</time>
      </trkpt>
      <trkpt lat="45.75771" lon="2.97403">
        <ele>949.59997558594</ele>
        <time>2024-09-15T08:48:02.000Z</time>
      </trkpt>
      <trkpt lat="45.75768" lon="2.97403">
        <ele>949.79998779297</ele>
        <time>2024-09-15T08:48:03.000Z</time>
      </trkpt>
      <trkpt lat="45.75766" lon="2.97403">
        <ele>950</ele>
        <time>2024-09-15T08:48:04.000Z</time>
      </trkpt>
      <trkpt lat="45.75763" lon="2.97403">
        <ele>950.20001220703</ele>
        <time>2024-09-15T08:48:05.000Z</time>
      </trkpt>
      <trkpt lat="45.7576" lon="2.97403">
        <ele>950.40002441406</ele>
        <time>2024-09-15T08:48:06.000Z</time>
      </trkpt>
      <trkpt lat="45.75758" lon="2.97403">
        <ele>950.59997558594</ele>
        <time>2024-09-15T08:48:07.000Z</time>
      </trkpt>
      <trkpt lat="45.75756" lon="2.97402">
        <ele>950.79998779297</ele>
        <time>2024-09-15T08:48:08.000Z</time>
      </trkpt>
      <trkpt lat="45.75753" lon="2.97402">
        <ele>950.79998779297</ele>
        <time>2024-09-15T08:48:09.000Z</time>
      </trkpt>
      <trkpt lat="45.75751" lon="2.97403">
        <ele>950.79998779297</ele>
        <time>2024-09-15T08:48:10.000Z</time>
      </trkpt>
      <trkpt lat="45.75748" lon="2.97402">
        <ele>951</ele>
        <time>2024-09-15T08:48:11.000Z</time>
      </trkpt>
      <trkpt lat="45.75746" lon="2.97402">
        <ele>951</ele>
        <time>2024-09-15T08:48:12.000Z</time>
      </trkpt>
      <trkpt lat="45.75743" lon="2.97402">
        <ele>951</ele>
        <time>2024-09-15T08:48:13.000Z</time>
      </trkpt>
      <trkpt lat="45.7574" lon="2.97402">
        <ele>951.20001220703</ele>
        <time>2024-09-15T08:48:14.000Z</time>
      </trkpt>
      <trkpt lat="45.75737" lon="2.97402">
        <ele>951.40002441406</ele>
        <time>2024-09-15T08:48:15.000Z</time>
      </trkpt>
      <trkpt lat="45.75734" lon="2.97402">
        <ele>951.40002441406</ele>
        <time>2024-09-15T08:48:16.000Z</time>
      </trkpt>
      <trkpt lat="45.75731" lon="2.97401">
        <ele>951.59997558594</ele>
        <time>2024-09-15T08:48:17.000Z</time>
      </trkpt>
      <trkpt lat="45.75729" lon="2.974">
        <ele>951.59997558594</ele>
        <time>2024-09-15T08:48:18.000Z</time>
      </trkpt>
      <trkpt lat="45.75726" lon="2.97399">
        <ele>951.59997558594</ele>
        <time>2024-09-15T08:48:19.000Z</time>
      </trkpt>
      <trkpt lat="45.75724" lon="2.97398">
        <ele>951.59997558594</ele>
        <time>2024-09-15T08:48:20.000Z</time>
      </trkpt>
      <trkpt lat="45.75721" lon="2.97398">
        <ele>951.59997558594</ele>
        <time>2024-09-15T08:48:21.000Z</time>
      </trkpt>
      <trkpt lat="45.75719" lon="2.97397">
        <ele>951.79998779297</ele>
        <time>2024-09-15T08:48:22.000Z</time>
      </trkpt>
      <trkpt lat="45.75716" lon="2.97397">
        <ele>951.79998779297</ele>
        <time>2024-09-15T08:48:23.000Z</time>
      </trkpt>
      <trkpt lat="45.75714" lon="2.97396">
        <ele>952</ele>
        <time>2024-09-15T08:48:24.000Z</time>
      </trkpt>
      <trkpt lat="45.75712" lon="2.97396">
        <ele>952</ele>
        <time>2024-09-15T08:48:25.000Z</time>
      </trkpt>
      <trkpt lat="45.75709" lon="2.97395">
        <ele>952.20001220703</ele>
        <time>2024-09-15T08:48:26.000Z</time>
      </trkpt>
      <trkpt lat="45.75707" lon="2.97395">
        <ele>952.20001220703</ele>
        <time>2024-09-15T08:48:27.000Z</time>
      </trkpt>
      <trkpt lat="45.75705" lon="2.97395">
        <ele>952.59997558594</ele>
        <time>2024-09-15T08:48:28.000Z</time>
      </trkpt>
      <trkpt lat="45.75703" lon="2.97395">
        <ele>952.59997558594</ele>
        <time>2024-09-15T08:48:29.000Z</time>
      </trkpt>
      <trkpt lat="45.75701" lon="2.97395">
        <ele>952.59997558594</ele>
        <time>2024-09-15T08:48:30.000Z</time>
      </trkpt>
      <trkpt lat="45.75698" lon="2.97395">
        <ele>952.79998779297</ele>
        <time>2024-09-15T08:48:31.000Z</time>
      </trkpt>
      <trkpt lat="45.75696" lon="2.97394">
        <ele>952.79998779297</ele>
        <time>2024-09-15T08:48:32.000Z</time>
      </trkpt>
      <trkpt lat="45.75694" lon="2.97393">
        <ele>952.79998779297</ele>
        <time>2024-09-15T08:48:33.000Z</time>
      </trkpt>
      <trkpt lat="45.75691" lon="2.97392">
        <ele>953</ele>
        <time>2024-09-15T08:48:34.000Z</time>
      </trkpt>
      <trkpt lat="45.75689" lon="2.97392">
        <ele>953</ele>
        <time>2024-09-15T08:48:35.000Z</time>
      </trkpt>
      <trkpt lat="45.75686" lon="2.97391">
        <ele>953.40002441406</ele>
        <time>2024-09-15T08:48:36.000Z</time>
      </trkpt>
      <trkpt lat="45.75684" lon="2.9739">
        <ele>953.59997558594</ele>
        <time>2024-09-15T08:48:37.000Z</time>
      </trkpt>
      <trkpt lat="45.75682" lon="2.9739">
        <ele>953.59997558594</ele>
        <time>2024-09-15T08:48:38.000Z</time>
      </trkpt>
      <trkpt lat="45.75679" lon="2.97389">
        <ele>953.59997558594</ele>
        <time>2024-09-15T08:48:39.000Z</time>
      </trkpt>
      <trkpt lat="45.75677" lon="2.97389">
        <ele>953.79998779297</ele>
        <time>2024-09-15T08:48:40.000Z</time>
      </trkpt>
      <trkpt lat="45.75675" lon="2.97388">
        <ele>954</ele>
        <time>2024-09-15T08:48:41.000Z</time>
      </trkpt>
      <trkpt lat="45.75672" lon="2.97388">
        <ele>954.20001220703</ele>
        <time>2024-09-15T08:48:42.000Z</time>
      </trkpt>
      <trkpt lat="45.75669" lon="2.97388">
        <ele>954.59997558594</ele>
        <time>2024-09-15T08:48:43.000Z</time>
      </trkpt>
      <trkpt lat="45.75667" lon="2.97388">
        <ele>955</ele>
        <time>2024-09-15T08:48:44.000Z</time>
      </trkpt>
      <trkpt lat="45.75664" lon="2.97387">
        <ele>955</ele>
        <time>2024-09-15T08:48:45.000Z</time>
      </trkpt>
      <trkpt lat="45.75662" lon="2.97387">
        <ele>955.20001220703</ele>
        <time>2024-09-15T08:48:46.000Z</time>
      </trkpt>
      <trkpt lat="45.75659" lon="2.97386">
        <ele>955.59997558594</ele>
        <time>2024-09-15T08:48:47.000Z</time>
      </trkpt>
      <trkpt lat="45.75657" lon="2.97384">
        <ele>956</ele>
        <time>2024-09-15T08:48:48.000Z</time>
      </trkpt>
      <trkpt lat="45.75654" lon="2.97381">
        <ele>956.40002441406</ele>
        <time>2024-09-15T08:48:49.000Z</time>
      </trkpt>
      <trkpt lat="45.75653" lon="2.97378">
        <ele>956.59997558594</ele>
        <time>2024-09-15T08:48:50.000Z</time>
      </trkpt>
      <trkpt lat="45.75652" lon="2.97374">
        <ele>956.79998779297</ele>
        <time>2024-09-15T08:48:51.000Z</time>
      </trkpt>
      <trkpt lat="45.75652" lon="2.9737">
        <ele>957</ele>
        <time>2024-09-15T08:48:52.000Z</time>
      </trkpt>
      <trkpt lat="45.75653" lon="2.97366">
        <ele>957</ele>
        <time>2024-09-15T08:48:53.000Z</time>
      </trkpt>
      <trkpt lat="45.75654" lon="2.97362">
        <ele>957.20001220703</ele>
        <time>2024-09-15T08:48:54.000Z</time>
      </trkpt>
      <trkpt lat="45.75655" lon="2.97358">
        <ele>957</ele>
        <time>2024-09-15T08:48:55.000Z</time>
      </trkpt>
      <trkpt lat="45.75656" lon="2.97355">
        <ele>957</ele>
        <time>2024-09-15T08:48:56.000Z</time>
      </trkpt>
      <trkpt lat="45.75657" lon="2.9735">
        <ele>957.20001220703</ele>
        <time>2024-09-15T08:48:57.000Z</time>
      </trkpt>
      <trkpt lat="45.75659" lon="2.97346">
        <ele>957.20001220703</ele>
        <time>2024-09-15T08:48:58.000Z</time>
      </trkpt>
      <trkpt lat="45.7566" lon="2.97342">
        <ele>957.40002441406</ele>
        <time>2024-09-15T08:48:59.000Z</time>
      </trkpt>
      <trkpt lat="45.7566" lon="2.97338">
        <ele>957.20001220703</ele>
        <time>2024-09-15T08:49:00.000Z</time>
      </trkpt>
      <trkpt lat="45.7566" lon="2.97334">
        <ele>957.20001220703</ele>
        <time>2024-09-15T08:49:01.000Z</time>
      </trkpt>
      <trkpt lat="45.75661" lon="2.97331">
        <ele>957.40002441406</ele>
        <time>2024-09-15T08:49:02.000Z</time>
      </trkpt>
      <trkpt lat="45.75662" lon="2.97327">
        <ele>957.59997558594</ele>
        <time>2024-09-15T08:49:03.000Z</time>
      </trkpt>
      <trkpt lat="45.75663" lon="2.97323">
        <ele>957.59997558594</ele>
        <time>2024-09-15T08:49:04.000Z</time>
      </trkpt>
      <trkpt lat="45.75663" lon="2.9732">
        <ele>957.79998779297</ele>
        <time>2024-09-15T08:49:05.000Z</time>
      </trkpt>
      <trkpt lat="45.75664" lon="2.97317">
        <ele>957.79998779297</ele>
        <time>2024-09-15T08:49:06.000Z</time>
      </trkpt>
      <trkpt lat="45.75664" lon="2.97313">
        <ele>957.79998779297</ele>
        <time>2024-09-15T08:49:07.000Z</time>
      </trkpt>
      <trkpt lat="45.75665" lon="2.97309">
        <ele>958</ele>
        <time>2024-09-15T08:49:08.000Z</time>
      </trkpt>
      <trkpt lat="45.75666" lon="2.97306">
        <ele>958</ele>
        <time>2024-09-15T08:49:09.000Z</time>
      </trkpt>
      <trkpt lat="45.75667" lon="2.97302">
        <ele>958</ele>
        <time>2024-09-15T08:49:10.000Z</time>
      </trkpt>
      <trkpt lat="45.75668" lon="2.97299">
        <ele>958.20001220703</ele>
        <time>2024-09-15T08:49:11.000Z</time>
      </trkpt>
      <trkpt lat="45.75668" lon="2.97296">
        <ele>958.20001220703</ele>
        <time>2024-09-15T08:49:12.000Z</time>
      </trkpt>
      <trkpt lat="45.7567" lon="2.97292">
        <ele>958.40002441406</ele>
        <time>2024-09-15T08:49:13.000Z</time>
      </trkpt>
      <trkpt lat="45.7567" lon="2.97288">
        <ele>958.59997558594</ele>
        <time>2024-09-15T08:49:14.000Z</time>
      </trkpt>
      <trkpt lat="45.75671" lon="2.97284">
        <ele>958.59997558594</ele>
        <time>2024-09-15T08:49:15.000Z</time>
      </trkpt>
      <trkpt lat="45.75672" lon="2.9728">
        <ele>958.79998779297</ele>
        <time>2024-09-15T08:49:16.000Z</time>
      </trkpt>
      <trkpt lat="45.75673" lon="2.97276">
        <ele>958.79998779297</ele>
        <time>2024-09-15T08:49:17.000Z</time>
      </trkpt>
      <trkpt lat="45.75674" lon="2.97274">
        <ele>959</ele>
        <time>2024-09-15T08:49:18.000Z</time>
      </trkpt>
      <trkpt lat="45.75675" lon="2.9727">
        <ele>959</ele>
        <time>2024-09-15T08:49:19.000Z</time>
      </trkpt>
      <trkpt lat="45.75675" lon="2.97267">
        <ele>959.20001220703</ele>
        <time>2024-09-15T08:49:20.000Z</time>
      </trkpt>
      <trkpt lat="45.75676" lon="2.97263">
        <ele>959.20001220703</ele>
        <time>2024-09-15T08:49:21.000Z</time>
      </trkpt>
      <trkpt lat="45.75677" lon="2.9726">
        <ele>959.20001220703</ele>
        <time>2024-09-15T08:49:22.000Z</time>
      </trkpt>
      <trkpt lat="45.75678" lon="2.97257">
        <ele>959.40002441406</ele>
        <time>2024-09-15T08:49:23.000Z</time>
      </trkpt>
      <trkpt lat="45.75679" lon="2.97253">
        <ele>959.79998779297</ele>
        <time>2024-09-15T08:49:24.000Z</time>
      </trkpt>
      <trkpt lat="45.75679" lon="2.9725">
        <ele>960</ele>
        <time>2024-09-15T08:49:25.000Z</time>
      </trkpt>
      <trkpt lat="45.75681" lon="2.97246">
        <ele>960.20001220703</ele>
        <time>2024-09-15T08:49:26.000Z</time>
      </trkpt>
      <trkpt lat="45.75681" lon="2.97242">
        <ele>960.40002441406</ele>
        <time>2024-09-15T08:49:27.000Z</time>
      </trkpt>
      <trkpt lat="45.75682" lon="2.97239">
        <ele>960.40002441406</ele>
        <time>2024-09-15T08:49:28.000Z</time>
      </trkpt>
      <trkpt lat="45.75682" lon="2.97236">
        <ele>960.59997558594</ele>
        <time>2024-09-15T08:49:29.000Z</time>
      </trkpt>
      <trkpt lat="45.75683" lon="2.97232">
        <ele>960.79998779297</ele>
        <time>2024-09-15T08:49:30.000Z</time>
      </trkpt>
      <trkpt lat="45.75683" lon="2.97229">
        <ele>960.79998779297</ele>
        <time>2024-09-15T08:49:31.000Z</time>
      </trkpt>
      <trkpt lat="45.75683" lon="2.97225">
        <ele>961</ele>
        <time>2024-09-15T08:49:32.000Z</time>
      </trkpt>
      <trkpt lat="45.75684" lon="2.97221">
        <ele>961</ele>
        <time>2024-09-15T08:49:33.000Z</time>
      </trkpt>
      <trkpt lat="45.75685" lon="2.97216">
        <ele>961.40002441406</ele>
        <time>2024-09-15T08:49:34.000Z</time>
      </trkpt>
      <trkpt lat="45.75686" lon="2.97211">
        <ele>961.40002441406</ele>
        <time>2024-09-15T08:49:35.000Z</time>
      </trkpt>
      <trkpt lat="45.75687" lon="2.97208">
        <ele>961.59997558594</ele>
        <time>2024-09-15T08:49:36.000Z</time>
      </trkpt>
      <trkpt lat="45.75688" lon="2.97203">
        <ele>961.79998779297</ele>
        <time>2024-09-15T08:49:37.000Z</time>
      </trkpt>
      <trkpt lat="45.75689" lon="2.97199">
        <ele>961.79998779297</ele>
        <time>2024-09-15T08:49:38.000Z</time>
      </trkpt>
      <trkpt lat="45.7569" lon="2.97195">
        <ele>961.79998779297</ele>
        <time>2024-09-15T08:49:39.000Z</time>
      </trkpt>
      <trkpt lat="45.75691" lon="2.97191">
        <ele>962</ele>
        <time>2024-09-15T08:49:40.000Z</time>
      </trkpt>
      <trkpt lat="45.75692" lon="2.97187">
        <ele>962</ele>
        <time>2024-09-15T08:49:41.000Z</time>
      </trkpt>
      <trkpt lat="45.75694" lon="2.97183">
        <ele>962</ele>
        <time>2024-09-15T08:49:42.000Z</time>
      </trkpt>
      <trkpt lat="45.75695" lon="2.9718">
        <ele>962.20001220703</ele>
        <time>2024-09-15T08:49:43.000Z</time>
      </trkpt>
      <trkpt lat="45.75696" lon="2.97176">
        <ele>962.20001220703</ele>
        <time>2024-09-15T08:49:44.000Z</time>
      </trkpt>
      <trkpt lat="45.75697" lon="2.97171">
        <ele>962.20001220703</ele>
        <time>2024-09-15T08:49:45.000Z</time>
      </trkpt>
      <trkpt lat="45.75698" lon="2.97167">
        <ele>962.20001220703</ele>
        <time>2024-09-15T08:49:46.000Z</time>
      </trkpt>
      <trkpt lat="45.75699" lon="2.97163">
        <ele>962.20001220703</ele>
        <time>2024-09-15T08:49:47.000Z</time>
      </trkpt>
      <trkpt lat="45.75699" lon="2.9716">
        <ele>962.20001220703</ele>
        <time>2024-09-15T08:49:48.000Z</time>
      </trkpt>
      <trkpt lat="45.757" lon="2.97155">
        <ele>962.40002441406</ele>
        <time>2024-09-15T08:49:49.000Z</time>
      </trkpt>
      <trkpt lat="45.75702" lon="2.97151">
        <ele>962.40002441406</ele>
        <time>2024-09-15T08:49:50.000Z</time>
      </trkpt>
      <trkpt lat="45.75702" lon="2.97147">
        <ele>962.40002441406</ele>
        <time>2024-09-15T08:49:51.000Z</time>
      </trkpt>
      <trkpt lat="45.75704" lon="2.97143">
        <ele>962.20001220703</ele>
        <time>2024-09-15T08:49:52.000Z</time>
      </trkpt>
      <trkpt lat="45.75705" lon="2.97139">
        <ele>962.20001220703</ele>
        <time>2024-09-15T08:49:53.000Z</time>
      </trkpt>
      <trkpt lat="45.75706" lon="2.97136">
        <ele>962.20001220703</ele>
        <time>2024-09-15T08:49:54.000Z</time>
      </trkpt>
      <trkpt lat="45.75707" lon="2.97132">
        <ele>962.20001220703</ele>
        <time>2024-09-15T08:49:55.000Z</time>
      </trkpt>
      <trkpt lat="45.75708" lon="2.97128">
        <ele>962.20001220703</ele>
        <time>2024-09-15T08:49:56.000Z</time>
      </trkpt>
      <trkpt lat="45.75708" lon="2.97124">
        <ele>962.20001220703</ele>
        <time>2024-09-15T08:49:57.000Z</time>
      </trkpt>
      <trkpt lat="45.75709" lon="2.9712">
        <ele>962.20001220703</ele>
        <time>2024-09-15T08:49:58.000Z</time>
      </trkpt>
      <trkpt lat="45.7571" lon="2.97115">
        <ele>962.20001220703</ele>
        <time>2024-09-15T08:49:59.000Z</time>
      </trkpt>
      <trkpt lat="45.75711" lon="2.9711">
        <ele>962.20001220703</ele>
        <time>2024-09-15T08:50:00.000Z</time>
      </trkpt>
      <trkpt lat="45.75712" lon="2.97106">
        <ele>962.20001220703</ele>
        <time>2024-09-15T08:50:01.000Z</time>
      </trkpt>
      <trkpt lat="45.75713" lon="2.97101">
        <ele>962.20001220703</ele>
        <time>2024-09-15T08:50:02.000Z</time>
      </trkpt>
      <trkpt lat="45.75714" lon="2.97097">
        <ele>962.20001220703</ele>
        <time>2024-09-15T08:50:03.000Z</time>
      </trkpt>
      <trkpt lat="45.75714" lon="2.97092">
        <ele>962</ele>
        <time>2024-09-15T08:50:04.000Z</time>
      </trkpt>
      <trkpt lat="45.75715" lon="2.97088">
        <ele>962</ele>
        <time>2024-09-15T08:50:05.000Z</time>
      </trkpt>
      <trkpt lat="45.75716" lon="2.97084">
        <ele>962</ele>
        <time>2024-09-15T08:50:06.000Z</time>
      </trkpt>
      <trkpt lat="45.75717" lon="2.97079">
        <ele>962</ele>
        <time>2024-09-15T08:50:07.000Z</time>
      </trkpt>
      <trkpt lat="45.75719" lon="2.97075">
        <ele>962</ele>
        <time>2024-09-15T08:50:08.000Z</time>
      </trkpt>
      <trkpt lat="45.75719" lon="2.9707">
        <ele>961.79998779297</ele>
        <time>2024-09-15T08:50:09.000Z</time>
      </trkpt>
      <trkpt lat="45.75721" lon="2.97066">
        <ele>961.59997558594</ele>
        <time>2024-09-15T08:50:10.000Z</time>
      </trkpt>
      <trkpt lat="45.75721" lon="2.97061">
        <ele>961.59997558594</ele>
        <time>2024-09-15T08:50:11.000Z</time>
      </trkpt>
      <trkpt lat="45.75722" lon="2.97057">
        <ele>961.59997558594</ele>
        <time>2024-09-15T08:50:12.000Z</time>
      </trkpt>
      <trkpt lat="45.75723" lon="2.97053">
        <ele>961.59997558594</ele>
        <time>2024-09-15T08:50:13.000Z</time>
      </trkpt>
      <trkpt lat="45.75724" lon="2.97049">
        <ele>961.40002441406</ele>
        <time>2024-09-15T08:50:14.000Z</time>
      </trkpt>
      <trkpt lat="45.75725" lon="2.97044">
        <ele>961.40002441406</ele>
        <time>2024-09-15T08:50:15.000Z</time>
      </trkpt>
      <trkpt lat="45.75726" lon="2.9704">
        <ele>961.20001220703</ele>
        <time>2024-09-15T08:50:16.000Z</time>
      </trkpt>
      <trkpt lat="45.75727" lon="2.97036">
        <ele>961.20001220703</ele>
        <time>2024-09-15T08:50:17.000Z</time>
      </trkpt>
      <trkpt lat="45.75728" lon="2.97031">
        <ele>961.20001220703</ele>
        <time>2024-09-15T08:50:18.000Z</time>
      </trkpt>
      <trkpt lat="45.75729" lon="2.97027">
        <ele>961.20001220703</ele>
        <time>2024-09-15T08:50:19.000Z</time>
      </trkpt>
      <trkpt lat="45.75729" lon="2.97022">
        <ele>961.20001220703</ele>
        <time>2024-09-15T08:50:20.000Z</time>
      </trkpt>
      <trkpt lat="45.7573" lon="2.97018">
        <ele>961</ele>
        <time>2024-09-15T08:50:21.000Z</time>
      </trkpt>
      <trkpt lat="45.7573" lon="2.97013">
        <ele>961</ele>
        <time>2024-09-15T08:50:22.000Z</time>
      </trkpt>
      <trkpt lat="45.7573" lon="2.97009">
        <ele>961</ele>
        <time>2024-09-15T08:50:23.000Z</time>
      </trkpt>
      <trkpt lat="45.75731" lon="2.97005">
        <ele>961</ele>
        <time>2024-09-15T08:50:24.000Z</time>
      </trkpt>
      <trkpt lat="45.75731" lon="2.97">
        <ele>961</ele>
        <time>2024-09-15T08:50:25.000Z</time>
      </trkpt>
      <trkpt lat="45.75732" lon="2.96997">
        <ele>961</ele>
        <time>2024-09-15T08:50:26.000Z</time>
      </trkpt>
      <trkpt lat="45.75733" lon="2.96993">
        <ele>961</ele>
        <time>2024-09-15T08:50:27.000Z</time>
      </trkpt>
      <trkpt lat="45.75734" lon="2.96989">
        <ele>961</ele>
        <time>2024-09-15T08:50:28.000Z</time>
      </trkpt>
      <trkpt lat="45.75735" lon="2.96984">
        <ele>961</ele>
        <time>2024-09-15T08:50:29.000Z</time>
      </trkpt>
      <trkpt lat="45.75735" lon="2.9698">
        <ele>960.79998779297</ele>
        <time>2024-09-15T08:50:30.000Z</time>
      </trkpt>
      <trkpt lat="45.75737" lon="2.96976">
        <ele>960.79998779297</ele>
        <time>2024-09-15T08:50:31.000Z</time>
      </trkpt>
      <trkpt lat="45.75738" lon="2.96972">
        <ele>960.79998779297</ele>
        <time>2024-09-15T08:50:32.000Z</time>
      </trkpt>
      <trkpt lat="45.7574" lon="2.96969">
        <ele>960.79998779297</ele>
        <time>2024-09-15T08:50:33.000Z</time>
      </trkpt>
      <trkpt lat="45.75742" lon="2.96967">
        <ele>960.79998779297</ele>
        <time>2024-09-15T08:50:34.000Z</time>
      </trkpt>
      <trkpt lat="45.75743" lon="2.96963">
        <ele>960.79998779297</ele>
        <time>2024-09-15T08:50:35.000Z</time>
      </trkpt>
      <trkpt lat="45.75744" lon="2.96959">
        <ele>960.79998779297</ele>
        <time>2024-09-15T08:50:36.000Z</time>
      </trkpt>
      <trkpt lat="45.75746" lon="2.96956">
        <ele>960.79998779297</ele>
        <time>2024-09-15T08:50:37.000Z</time>
      </trkpt>
      <trkpt lat="45.75747" lon="2.96952">
        <ele>960.79998779297</ele>
        <time>2024-09-15T08:50:38.000Z</time>
      </trkpt>
      <trkpt lat="45.75747" lon="2.96948">
        <ele>960.79998779297</ele>
        <time>2024-09-15T08:50:39.000Z</time>
      </trkpt>
      <trkpt lat="45.75748" lon="2.96944">
        <ele>960.79998779297</ele>
        <time>2024-09-15T08:50:40.000Z</time>
      </trkpt>
      <trkpt lat="45.75749" lon="2.96941">
        <ele>960.79998779297</ele>
        <time>2024-09-15T08:50:41.000Z</time>
      </trkpt>
      <trkpt lat="45.7575" lon="2.96936">
        <ele>960.79998779297</ele>
        <time>2024-09-15T08:50:42.000Z</time>
      </trkpt>
      <trkpt lat="45.75751" lon="2.96932">
        <ele>960.79998779297</ele>
        <time>2024-09-15T08:50:43.000Z</time>
      </trkpt>
      <trkpt lat="45.75751" lon="2.96928">
        <ele>960.79998779297</ele>
        <time>2024-09-15T08:50:44.000Z</time>
      </trkpt>
      <trkpt lat="45.75752" lon="2.96924">
        <ele>961</ele>
        <time>2024-09-15T08:50:45.000Z</time>
      </trkpt>
      <trkpt lat="45.75753" lon="2.96919">
        <ele>961</ele>
        <time>2024-09-15T08:50:46.000Z</time>
      </trkpt>
      <trkpt lat="45.75754" lon="2.96915">
        <ele>961</ele>
        <time>2024-09-15T08:50:47.000Z</time>
      </trkpt>
      <trkpt lat="45.75755" lon="2.96911">
        <ele>961</ele>
        <time>2024-09-15T08:50:48.000Z</time>
      </trkpt>
      <trkpt lat="45.75755" lon="2.96907">
        <ele>961</ele>
        <time>2024-09-15T08:50:49.000Z</time>
      </trkpt>
      <trkpt lat="45.75756" lon="2.96903">
        <ele>961</ele>
        <time>2024-09-15T08:50:50.000Z</time>
      </trkpt>
      <trkpt lat="45.75757" lon="2.969">
        <ele>961.20001220703</ele>
        <time>2024-09-15T08:50:51.000Z</time>
      </trkpt>
      <trkpt lat="45.75758" lon="2.96897">
        <ele>961.20001220703</ele>
        <time>2024-09-15T08:50:52.000Z</time>
      </trkpt>
      <trkpt lat="45.75759" lon="2.96893">
        <ele>961.40002441406</ele>
        <time>2024-09-15T08:50:53.000Z</time>
      </trkpt>
      <trkpt lat="45.7576" lon="2.9689">
        <ele>961.40002441406</ele>
        <time>2024-09-15T08:50:54.000Z</time>
      </trkpt>
      <trkpt lat="45.75761" lon="2.96886">
        <ele>961.59997558594</ele>
        <time>2024-09-15T08:50:55.000Z</time>
      </trkpt>
      <trkpt lat="45.75762" lon="2.96882">
        <ele>961.79998779297</ele>
        <time>2024-09-15T08:50:56.000Z</time>
      </trkpt>
      <trkpt lat="45.75763" lon="2.96878">
        <ele>962.20001220703</ele>
        <time>2024-09-15T08:50:57.000Z</time>
      </trkpt>
      <trkpt lat="45.75764" lon="2.96874">
        <ele>962.40002441406</ele>
        <time>2024-09-15T08:50:58.000Z</time>
      </trkpt>
      <trkpt lat="45.75765" lon="2.96871">
        <ele>962.40002441406</ele>
        <time>2024-09-15T08:50:59.000Z</time>
      </trkpt>
      <trkpt lat="45.75766" lon="2.96867">
        <ele>962.40002441406</ele>
        <time>2024-09-15T08:51:00.000Z</time>
      </trkpt>
      <trkpt lat="45.75767" lon="2.96863">
        <ele>962.59997558594</ele>
        <time>2024-09-15T08:51:01.000Z</time>
      </trkpt>
      <trkpt lat="45.75768" lon="2.9686">
        <ele>962.79998779297</ele>
        <time>2024-09-15T08:51:02.000Z</time>
      </trkpt>
      <trkpt lat="45.75769" lon="2.96856">
        <ele>963</ele>
        <time>2024-09-15T08:51:03.000Z</time>
      </trkpt>
      <trkpt lat="45.7577" lon="2.96852">
        <ele>963</ele>
        <time>2024-09-15T08:51:04.000Z</time>
      </trkpt>
      <trkpt lat="45.75771" lon="2.96848">
        <ele>963.20001220703</ele>
        <time>2024-09-15T08:51:05.000Z</time>
      </trkpt>
      <trkpt lat="45.75772" lon="2.96844">
        <ele>963.20001220703</ele>
        <time>2024-09-15T08:51:06.000Z</time>
      </trkpt>
      <trkpt lat="45.75773" lon="2.9684">
        <ele>963.40002441406</ele>
        <time>2024-09-15T08:51:07.000Z</time>
      </trkpt>
      <trkpt lat="45.75774" lon="2.96836">
        <ele>963.79998779297</ele>
        <time>2024-09-15T08:51:08.000Z</time>
      </trkpt>
      <trkpt lat="45.75775" lon="2.96832">
        <ele>963.79998779297</ele>
        <time>2024-09-15T08:51:09.000Z</time>
      </trkpt>
      <trkpt lat="45.75775" lon="2.96828">
        <ele>964</ele>
        <time>2024-09-15T08:51:10.000Z</time>
      </trkpt>
      <trkpt lat="45.75776" lon="2.96824">
        <ele>964.20001220703</ele>
        <time>2024-09-15T08:51:11.000Z</time>
      </trkpt>
      <trkpt lat="45.75777" lon="2.96821">
        <ele>964.20001220703</ele>
        <time>2024-09-15T08:51:12.000Z</time>
      </trkpt>
      <trkpt lat="45.75778" lon="2.96816">
        <ele>964.59997558594</ele>
        <time>2024-09-15T08:51:13.000Z</time>
      </trkpt>
      <trkpt lat="45.75779" lon="2.96813">
        <ele>964.79998779297</ele>
        <time>2024-09-15T08:51:14.000Z</time>
      </trkpt>
      <trkpt lat="45.7578" lon="2.96809">
        <ele>965</ele>
        <time>2024-09-15T08:51:15.000Z</time>
      </trkpt>
      <trkpt lat="45.75781" lon="2.96805">
        <ele>965.20001220703</ele>
        <time>2024-09-15T08:51:16.000Z</time>
      </trkpt>
      <trkpt lat="45.75781" lon="2.96802">
        <ele>965.20001220703</ele>
        <time>2024-09-15T08:51:17.000Z</time>
      </trkpt>
      <trkpt lat="45.75782" lon="2.96798">
        <ele>965.40002441406</ele>
        <time>2024-09-15T08:51:18.000Z</time>
      </trkpt>
      <trkpt lat="45.75783" lon="2.96795">
        <ele>965.40002441406</ele>
        <time>2024-09-15T08:51:19.000Z</time>
      </trkpt>
      <trkpt lat="45.75783" lon="2.96791">
        <ele>965.79998779297</ele>
        <time>2024-09-15T08:51:20.000Z</time>
      </trkpt>
      <trkpt lat="45.75784" lon="2.96788">
        <ele>966</ele>
        <time>2024-09-15T08:51:21.000Z</time>
      </trkpt>
      <trkpt lat="45.75784" lon="2.96784">
        <ele>966</ele>
        <time>2024-09-15T08:51:22.000Z</time>
      </trkpt>
      <trkpt lat="45.75785" lon="2.9678">
        <ele>966.20001220703</ele>
        <time>2024-09-15T08:51:23.000Z</time>
      </trkpt>
      <trkpt lat="45.75786" lon="2.96776">
        <ele>966.20001220703</ele>
        <time>2024-09-15T08:51:24.000Z</time>
      </trkpt>
      <trkpt lat="45.75788" lon="2.96772">
        <ele>966.59997558594</ele>
        <time>2024-09-15T08:51:25.000Z</time>
      </trkpt>
      <trkpt lat="45.75788" lon="2.96768">
        <ele>966.59997558594</ele>
        <time>2024-09-15T08:51:26.000Z</time>
      </trkpt>
      <trkpt lat="45.75789" lon="2.96764">
        <ele>966.59997558594</ele>
        <time>2024-09-15T08:51:27.000Z</time>
      </trkpt>
      <trkpt lat="45.7579" lon="2.9676">
        <ele>966.79998779297</ele>
        <time>2024-09-15T08:51:28.000Z</time>
      </trkpt>
      <trkpt lat="45.7579" lon="2.96756">
        <ele>966.79998779297</ele>
        <time>2024-09-15T08:51:29.000Z</time>
      </trkpt>
      <trkpt lat="45.75791" lon="2.96752">
        <ele>966.79998779297</ele>
        <time>2024-09-15T08:51:30.000Z</time>
      </trkpt>
      <trkpt lat="45.75792" lon="2.96748">
        <ele>966.79998779297</ele>
        <time>2024-09-15T08:51:31.000Z</time>
      </trkpt>
      <trkpt lat="45.75793" lon="2.96744">
        <ele>966.79998779297</ele>
        <time>2024-09-15T08:51:32.000Z</time>
      </trkpt>
      <trkpt lat="45.75794" lon="2.9674">
        <ele>967</ele>
        <time>2024-09-15T08:51:33.000Z</time>
      </trkpt>
      <trkpt lat="45.75795" lon="2.96736">
        <ele>967.20001220703</ele>
        <time>2024-09-15T08:51:34.000Z</time>
      </trkpt>
      <trkpt lat="45.75795" lon="2.96732">
        <ele>967.20001220703</ele>
        <time>2024-09-15T08:51:35.000Z</time>
      </trkpt>
      <trkpt lat="45.75796" lon="2.96728">
        <ele>967.40002441406</ele>
        <time>2024-09-15T08:51:36.000Z</time>
      </trkpt>
      <trkpt lat="45.75797" lon="2.96724">
        <ele>967.40002441406</ele>
        <time>2024-09-15T08:51:37.000Z</time>
      </trkpt>
      <trkpt lat="45.75798" lon="2.9672">
        <ele>967.40002441406</ele>
        <time>2024-09-15T08:51:38.000Z</time>
      </trkpt>
      <trkpt lat="45.75799" lon="2.96717">
        <ele>967.59997558594</ele>
        <time>2024-09-15T08:51:39.000Z</time>
      </trkpt>
      <trkpt lat="45.758" lon="2.96713">
        <ele>967.79998779297</ele>
        <time>2024-09-15T08:51:40.000Z</time>
      </trkpt>
      <trkpt lat="45.75801" lon="2.96709">
        <ele>968</ele>
        <time>2024-09-15T08:51:41.000Z</time>
      </trkpt>
      <trkpt lat="45.75801" lon="2.96706">
        <ele>968</ele>
        <time>2024-09-15T08:51:42.000Z</time>
      </trkpt>
      <trkpt lat="45.75803" lon="2.96702">
        <ele>968</ele>
        <time>2024-09-15T08:51:43.000Z</time>
      </trkpt>
      <trkpt lat="45.75804" lon="2.96698">
        <ele>968.20001220703</ele>
        <time>2024-09-15T08:51:44.000Z</time>
      </trkpt>
      <trkpt lat="45.75805" lon="2.96695">
        <ele>968.20001220703</ele>
        <time>2024-09-15T08:51:45.000Z</time>
      </trkpt>
      <trkpt lat="45.75806" lon="2.96691">
        <ele>968.40002441406</ele>
        <time>2024-09-15T08:51:46.000Z</time>
      </trkpt>
      <trkpt lat="45.75807" lon="2.96688">
        <ele>968.40002441406</ele>
        <time>2024-09-15T08:51:47.000Z</time>
      </trkpt>
      <trkpt lat="45.75808" lon="2.96684">
        <ele>968.40002441406</ele>
        <time>2024-09-15T08:51:48.000Z</time>
      </trkpt>
      <trkpt lat="45.75808" lon="2.9668">
        <ele>968.59997558594</ele>
        <time>2024-09-15T08:51:49.000Z</time>
      </trkpt>
      <trkpt lat="45.75809" lon="2.96676">
        <ele>968.59997558594</ele>
        <time>2024-09-15T08:51:50.000Z</time>
      </trkpt>
      <trkpt lat="45.7581" lon="2.96672">
        <ele>968.79998779297</ele>
        <time>2024-09-15T08:51:51.000Z</time>
      </trkpt>
      <trkpt lat="45.75811" lon="2.96668">
        <ele>969</ele>
        <time>2024-09-15T08:51:52.000Z</time>
      </trkpt>
      <trkpt lat="45.75811" lon="2.96663">
        <ele>969</ele>
        <time>2024-09-15T08:51:53.000Z</time>
      </trkpt>
      <trkpt lat="45.75812" lon="2.9666">
        <ele>969.20001220703</ele>
        <time>2024-09-15T08:51:54.000Z</time>
      </trkpt>
      <trkpt lat="45.75814" lon="2.96656">
        <ele>969.20001220703</ele>
        <time>2024-09-15T08:51:55.000Z</time>
      </trkpt>
      <trkpt lat="45.75815" lon="2.96652">
        <ele>969.40002441406</ele>
        <time>2024-09-15T08:51:56.000Z</time>
      </trkpt>
      <trkpt lat="45.75816" lon="2.96648">
        <ele>969.40002441406</ele>
        <time>2024-09-15T08:51:57.000Z</time>
      </trkpt>
      <trkpt lat="45.75818" lon="2.96644">
        <ele>969.59997558594</ele>
        <time>2024-09-15T08:51:58.000Z</time>
      </trkpt>
      <trkpt lat="45.75818" lon="2.9664">
        <ele>969.59997558594</ele>
        <time>2024-09-15T08:51:59.000Z</time>
      </trkpt>
      <trkpt lat="45.75819" lon="2.96636">
        <ele>969.79998779297</ele>
        <time>2024-09-15T08:52:00.000Z</time>
      </trkpt>
      <trkpt lat="45.7582" lon="2.96633">
        <ele>969.79998779297</ele>
        <time>2024-09-15T08:52:01.000Z</time>
      </trkpt>
      <trkpt lat="45.75821" lon="2.96629">
        <ele>970</ele>
        <time>2024-09-15T08:52:02.000Z</time>
      </trkpt>
      <trkpt lat="45.75822" lon="2.96626">
        <ele>970</ele>
        <time>2024-09-15T08:52:03.000Z</time>
      </trkpt>
      <trkpt lat="45.75824" lon="2.96622">
        <ele>970</ele>
        <time>2024-09-15T08:52:04.000Z</time>
      </trkpt>
      <trkpt lat="45.75825" lon="2.96618">
        <ele>970</ele>
        <time>2024-09-15T08:52:05.000Z</time>
      </trkpt>
      <trkpt lat="45.75827" lon="2.96615">
        <ele>970</ele>
        <time>2024-09-15T08:52:06.000Z</time>
      </trkpt>
      <trkpt lat="45.75828" lon="2.96611">
        <ele>970.20001220703</ele>
        <time>2024-09-15T08:52:07.000Z</time>
      </trkpt>
      <trkpt lat="45.7583" lon="2.96607">
        <ele>970.20001220703</ele>
        <time>2024-09-15T08:52:08.000Z</time>
      </trkpt>
      <trkpt lat="45.75831" lon="2.96604">
        <ele>970.20001220703</ele>
        <time>2024-09-15T08:52:09.000Z</time>
      </trkpt>
      <trkpt lat="45.75831" lon="2.96601">
        <ele>970.20001220703</ele>
        <time>2024-09-15T08:52:10.000Z</time>
      </trkpt>
      <trkpt lat="45.75831" lon="2.96597">
        <ele>970.20001220703</ele>
        <time>2024-09-15T08:52:11.000Z</time>
      </trkpt>
      <trkpt lat="45.7583" lon="2.96592">
        <ele>970.20001220703</ele>
        <time>2024-09-15T08:52:12.000Z</time>
      </trkpt>
      <trkpt lat="45.7583" lon="2.96587">
        <ele>970.20001220703</ele>
        <time>2024-09-15T08:52:13.000Z</time>
      </trkpt>
      <trkpt lat="45.7583" lon="2.96582">
        <ele>970.20001220703</ele>
        <time>2024-09-15T08:52:14.000Z</time>
      </trkpt>
      <trkpt lat="45.75831" lon="2.96577">
        <ele>970.20001220703</ele>
        <time>2024-09-15T08:52:15.000Z</time>
      </trkpt>
      <trkpt lat="45.75833" lon="2.96574">
        <ele>970.20001220703</ele>
        <time>2024-09-15T08:52:16.000Z</time>
      </trkpt>
      <trkpt lat="45.75834" lon="2.96571">
        <ele>970.20001220703</ele>
        <time>2024-09-15T08:52:17.000Z</time>
      </trkpt>
      <trkpt lat="45.75836" lon="2.96568">
        <ele>970.20001220703</ele>
        <time>2024-09-15T08:52:18.000Z</time>
      </trkpt>
      <trkpt lat="45.75838" lon="2.96565">
        <ele>970.40002441406</ele>
        <time>2024-09-15T08:52:19.000Z</time>
      </trkpt>
      <trkpt lat="45.7584" lon="2.96561">
        <ele>970.40002441406</ele>
        <time>2024-09-15T08:52:20.000Z</time>
      </trkpt>
      <trkpt lat="45.75841" lon="2.96557">
        <ele>970.40002441406</ele>
        <time>2024-09-15T08:52:21.000Z</time>
      </trkpt>
      <trkpt lat="45.75843" lon="2.96553">
        <ele>970.40002441406</ele>
        <time>2024-09-15T08:52:22.000Z</time>
      </trkpt>
      <trkpt lat="45.75844" lon="2.96549">
        <ele>970.20001220703</ele>
        <time>2024-09-15T08:52:23.000Z</time>
      </trkpt>
      <trkpt lat="45.75845" lon="2.96545">
        <ele>970.20001220703</ele>
        <time>2024-09-15T08:52:24.000Z</time>
      </trkpt>
      <trkpt lat="45.75846" lon="2.96541">
        <ele>970.20001220703</ele>
        <time>2024-09-15T08:52:25.000Z</time>
      </trkpt>
      <trkpt lat="45.75847" lon="2.96537">
        <ele>970</ele>
        <time>2024-09-15T08:52:26.000Z</time>
      </trkpt>
      <trkpt lat="45.75848" lon="2.96532">
        <ele>970</ele>
        <time>2024-09-15T08:52:27.000Z</time>
      </trkpt>
      <trkpt lat="45.75848" lon="2.96528">
        <ele>970</ele>
        <time>2024-09-15T08:52:28.000Z</time>
      </trkpt>
      <trkpt lat="45.75847" lon="2.96524">
        <ele>970</ele>
        <time>2024-09-15T08:52:29.000Z</time>
      </trkpt>
      <trkpt lat="45.75848" lon="2.96519">
        <ele>970</ele>
        <time>2024-09-15T08:52:30.000Z</time>
      </trkpt>
      <trkpt lat="45.7585" lon="2.96515">
        <ele>970.20001220703</ele>
        <time>2024-09-15T08:52:31.000Z</time>
      </trkpt>
      <trkpt lat="45.75852" lon="2.96513">
        <ele>970.20001220703</ele>
        <time>2024-09-15T08:52:32.000Z</time>
      </trkpt>
      <trkpt lat="45.75855" lon="2.96512">
        <ele>970.20001220703</ele>
        <time>2024-09-15T08:52:33.000Z</time>
      </trkpt>
      <trkpt lat="45.75859" lon="2.96511">
        <ele>970.40002441406</ele>
        <time>2024-09-15T08:52:34.000Z</time>
      </trkpt>
      <trkpt lat="45.75862" lon="2.9651">
        <ele>970.40002441406</ele>
        <time>2024-09-15T08:52:35.000Z</time>
      </trkpt>
      <trkpt lat="45.75864" lon="2.96509">
        <ele>970.40002441406</ele>
        <time>2024-09-15T08:52:36.000Z</time>
      </trkpt>
      <trkpt lat="45.75867" lon="2.96508">
        <ele>970.40002441406</ele>
        <time>2024-09-15T08:52:37.000Z</time>
      </trkpt>
      <trkpt lat="45.7587" lon="2.96507">
        <ele>970.59997558594</ele>
        <time>2024-09-15T08:52:38.000Z</time>
      </trkpt>
      <trkpt lat="45.75873" lon="2.96506">
        <ele>970.59997558594</ele>
        <time>2024-09-15T08:52:39.000Z</time>
      </trkpt>
      <trkpt lat="45.75876" lon="2.96505">
        <ele>970.59997558594</ele>
        <time>2024-09-15T08:52:40.000Z</time>
      </trkpt>
      <trkpt lat="45.75879" lon="2.96505">
        <ele>970.79998779297</ele>
        <time>2024-09-15T08:52:41.000Z</time>
      </trkpt>
      <trkpt lat="45.75882" lon="2.96504">
        <ele>970.79998779297</ele>
        <time>2024-09-15T08:52:42.000Z</time>
      </trkpt>
      <trkpt lat="45.75885" lon="2.96504">
        <ele>970.79998779297</ele>
        <time>2024-09-15T08:52:43.000Z</time>
      </trkpt>
      <trkpt lat="45.75888" lon="2.96505">
        <ele>971</ele>
        <time>2024-09-15T08:52:44.000Z</time>
      </trkpt>
      <trkpt lat="45.75891" lon="2.96505">
        <ele>971</ele>
        <time>2024-09-15T08:52:45.000Z</time>
      </trkpt>
      <trkpt lat="45.75894" lon="2.96506">
        <ele>971.20001220703</ele>
        <time>2024-09-15T08:52:46.000Z</time>
      </trkpt>
      <trkpt lat="45.75898" lon="2.96505">
        <ele>971.20001220703</ele>
        <time>2024-09-15T08:52:47.000Z</time>
      </trkpt>
      <trkpt lat="45.75901" lon="2.96505">
        <ele>971.40002441406</ele>
        <time>2024-09-15T08:52:48.000Z</time>
      </trkpt>
      <trkpt lat="45.75903" lon="2.96505">
        <ele>971.40002441406</ele>
        <time>2024-09-15T08:52:49.000Z</time>
      </trkpt>
      <trkpt lat="45.75906" lon="2.96504">
        <ele>971.40002441406</ele>
        <time>2024-09-15T08:52:50.000Z</time>
      </trkpt>
      <trkpt lat="45.75909" lon="2.96504">
        <ele>971.40002441406</ele>
        <time>2024-09-15T08:52:51.000Z</time>
      </trkpt>
      <trkpt lat="45.75912" lon="2.96503">
        <ele>971.59997558594</ele>
        <time>2024-09-15T08:52:52.000Z</time>
      </trkpt>
      <trkpt lat="45.75914" lon="2.96502">
        <ele>971.59997558594</ele>
        <time>2024-09-15T08:52:53.000Z</time>
      </trkpt>
      <trkpt lat="45.75917" lon="2.965">
        <ele>971.79998779297</ele>
        <time>2024-09-15T08:52:54.000Z</time>
      </trkpt>
      <trkpt lat="45.7592" lon="2.96498">
        <ele>971.79998779297</ele>
        <time>2024-09-15T08:52:55.000Z</time>
      </trkpt>
      <trkpt lat="45.75922" lon="2.96496">
        <ele>971.79998779297</ele>
        <time>2024-09-15T08:52:56.000Z</time>
      </trkpt>
      <trkpt lat="45.75925" lon="2.96494">
        <ele>972</ele>
        <time>2024-09-15T08:52:57.000Z</time>
      </trkpt>
      <trkpt lat="45.75927" lon="2.96492">
        <ele>972.20001220703</ele>
        <time>2024-09-15T08:52:58.000Z</time>
      </trkpt>
      <trkpt lat="45.7593" lon="2.9649">
        <ele>972.20001220703</ele>
        <time>2024-09-15T08:52:59.000Z</time>
      </trkpt>
      <trkpt lat="45.75932" lon="2.96488">
        <ele>972.40002441406</ele>
        <time>2024-09-15T08:53:00.000Z</time>
      </trkpt>
      <trkpt lat="45.75935" lon="2.96486">
        <ele>972.59997558594</ele>
        <time>2024-09-15T08:53:01.000Z</time>
      </trkpt>
      <trkpt lat="45.75938" lon="2.96485">
        <ele>972.59997558594</ele>
        <time>2024-09-15T08:53:02.000Z</time>
      </trkpt>
      <trkpt lat="45.75941" lon="2.96483">
        <ele>972.59997558594</ele>
        <time>2024-09-15T08:53:03.000Z</time>
      </trkpt>
      <trkpt lat="45.75943" lon="2.96482">
        <ele>972.79998779297</ele>
        <time>2024-09-15T08:53:04.000Z</time>
      </trkpt>
      <trkpt lat="45.75946" lon="2.96481">
        <ele>973</ele>
        <time>2024-09-15T08:53:05.000Z</time>
      </trkpt>
      <trkpt lat="45.75949" lon="2.9648">
        <ele>973</ele>
        <time>2024-09-15T08:53:06.000Z</time>
      </trkpt>
      <trkpt lat="45.75951" lon="2.96479">
        <ele>973.20001220703</ele>
        <time>2024-09-15T08:53:07.000Z</time>
      </trkpt>
      <trkpt lat="45.75954" lon="2.96478">
        <ele>973.40002441406</ele>
        <time>2024-09-15T08:53:08.000Z</time>
      </trkpt>
      <trkpt lat="45.75957" lon="2.96477">
        <ele>973.59997558594</ele>
        <time>2024-09-15T08:53:09.000Z</time>
      </trkpt>
      <trkpt lat="45.7596" lon="2.96476">
        <ele>973.59997558594</ele>
        <time>2024-09-15T08:53:10.000Z</time>
      </trkpt>
      <trkpt lat="45.75963" lon="2.96475">
        <ele>973.79998779297</ele>
        <time>2024-09-15T08:53:11.000Z</time>
      </trkpt>
      <trkpt lat="45.75966" lon="2.96474">
        <ele>973.79998779297</ele>
        <time>2024-09-15T08:53:12.000Z</time>
      </trkpt>
      <trkpt lat="45.75969" lon="2.96473">
        <ele>974</ele>
        <time>2024-09-15T08:53:13.000Z</time>
      </trkpt>
      <trkpt lat="45.75972" lon="2.96471">
        <ele>974</ele>
        <time>2024-09-15T08:53:14.000Z</time>
      </trkpt>
      <trkpt lat="45.75974" lon="2.96468">
        <ele>974.20001220703</ele>
        <time>2024-09-15T08:53:15.000Z</time>
      </trkpt>
      <trkpt lat="45.75975" lon="2.96466">
        <ele>974.20001220703</ele>
        <time>2024-09-15T08:53:16.000Z</time>
      </trkpt>
      <trkpt lat="45.75977" lon="2.96463">
        <ele>974.40002441406</ele>
        <time>2024-09-15T08:53:17.000Z</time>
      </trkpt>
      <trkpt lat="45.75978" lon="2.9646">
        <ele>974.79998779297</ele>
        <time>2024-09-15T08:53:18.000Z</time>
      </trkpt>
      <trkpt lat="45.7598" lon="2.96457">
        <ele>974.79998779297</ele>
        <time>2024-09-15T08:53:19.000Z</time>
      </trkpt>
      <trkpt lat="45.75981" lon="2.96453">
        <ele>975</ele>
        <time>2024-09-15T08:53:20.000Z</time>
      </trkpt>
      <trkpt lat="45.75982" lon="2.96449">
        <ele>975.20001220703</ele>
        <time>2024-09-15T08:53:21.000Z</time>
      </trkpt>
      <trkpt lat="45.75983" lon="2.96446">
        <ele>975.40002441406</ele>
        <time>2024-09-15T08:53:22.000Z</time>
      </trkpt>
      <trkpt lat="45.75984" lon="2.96442">
        <ele>975.59997558594</ele>
        <time>2024-09-15T08:53:23.000Z</time>
      </trkpt>
      <trkpt lat="45.75985" lon="2.96439">
        <ele>975.79998779297</ele>
        <time>2024-09-15T08:53:24.000Z</time>
      </trkpt>
      <trkpt lat="45.75987" lon="2.96436">
        <ele>975.79998779297</ele>
        <time>2024-09-15T08:53:25.000Z</time>
      </trkpt>
      <trkpt lat="45.75988" lon="2.96432">
        <ele>976</ele>
        <time>2024-09-15T08:53:26.000Z</time>
      </trkpt>
      <trkpt lat="45.75989" lon="2.96429">
        <ele>976.20001220703</ele>
        <time>2024-09-15T08:53:27.000Z</time>
      </trkpt>
      <trkpt lat="45.75989" lon="2.96425">
        <ele>976.40002441406</ele>
        <time>2024-09-15T08:53:28.000Z</time>
      </trkpt>
      <trkpt lat="45.75991" lon="2.96422">
        <ele>976.59997558594</ele>
        <time>2024-09-15T08:53:29.000Z</time>
      </trkpt>
      <trkpt lat="45.75992" lon="2.96419">
        <ele>976.59997558594</ele>
        <time>2024-09-15T08:53:30.000Z</time>
      </trkpt>
      <trkpt lat="45.75993" lon="2.96417">
        <ele>976.79998779297</ele>
        <time>2024-09-15T08:53:31.000Z</time>
      </trkpt>
      <trkpt lat="45.75994" lon="2.96414">
        <ele>977</ele>
        <time>2024-09-15T08:53:32.000Z</time>
      </trkpt>
      <trkpt lat="45.75996" lon="2.96412">
        <ele>977.20001220703</ele>
        <time>2024-09-15T08:53:33.000Z</time>
      </trkpt>
      <trkpt lat="45.75997" lon="2.96409">
        <ele>977.20001220703</ele>
        <time>2024-09-15T08:53:34.000Z</time>
      </trkpt>
      <trkpt lat="45.75998" lon="2.96406">
        <ele>977.40002441406</ele>
        <time>2024-09-15T08:53:35.000Z</time>
      </trkpt>
      <trkpt lat="45.76" lon="2.96403">
        <ele>977.79998779297</ele>
        <time>2024-09-15T08:53:36.000Z</time>
      </trkpt>
      <trkpt lat="45.76001" lon="2.964">
        <ele>978.20001220703</ele>
        <time>2024-09-15T08:53:37.000Z</time>
      </trkpt>
      <trkpt lat="45.76002" lon="2.96398">
        <ele>978.40002441406</ele>
        <time>2024-09-15T08:53:38.000Z</time>
      </trkpt>
      <trkpt lat="45.76004" lon="2.96395">
        <ele>978.59997558594</ele>
        <time>2024-09-15T08:53:39.000Z</time>
      </trkpt>
      <trkpt lat="45.76006" lon="2.96393">
        <ele>978.59997558594</ele>
        <time>2024-09-15T08:53:40.000Z</time>
      </trkpt>
      <trkpt lat="45.76007" lon="2.9639">
        <ele>978.79998779297</ele>
        <time>2024-09-15T08:53:41.000Z</time>
      </trkpt>
      <trkpt lat="45.76008" lon="2.96386">
        <ele>978.79998779297</ele>
        <time>2024-09-15T08:53:42.000Z</time>
      </trkpt>
      <trkpt lat="45.76008" lon="2.96383">
        <ele>979</ele>
        <time>2024-09-15T08:53:43.000Z</time>
      </trkpt>
      <trkpt lat="45.76009" lon="2.96379">
        <ele>979.40002441406</ele>
        <time>2024-09-15T08:53:44.000Z</time>
      </trkpt>
      <trkpt lat="45.7601" lon="2.96375">
        <ele>979.79998779297</ele>
        <time>2024-09-15T08:53:45.000Z</time>
      </trkpt>
      <trkpt lat="45.76011" lon="2.96372">
        <ele>980</ele>
        <time>2024-09-15T08:53:46.000Z</time>
      </trkpt>
      <trkpt lat="45.76012" lon="2.96368">
        <ele>980.20001220703</ele>
        <time>2024-09-15T08:53:47.000Z</time>
      </trkpt>
      <trkpt lat="45.76013" lon="2.96365">
        <ele>980.79998779297</ele>
        <time>2024-09-15T08:53:48.000Z</time>
      </trkpt>
      <trkpt lat="45.76014" lon="2.96362">
        <ele>981</ele>
        <time>2024-09-15T08:53:49.000Z</time>
      </trkpt>
      <trkpt lat="45.76015" lon="2.96359">
        <ele>981.20001220703</ele>
        <time>2024-09-15T08:53:50.000Z</time>
      </trkpt>
      <trkpt lat="45.76016" lon="2.96356">
        <ele>981.40002441406</ele>
        <time>2024-09-15T08:53:51.000Z</time>
      </trkpt>
      <trkpt lat="45.76017" lon="2.96353">
        <ele>981.59997558594</ele>
        <time>2024-09-15T08:53:52.000Z</time>
      </trkpt>
      <trkpt lat="45.76017" lon="2.9635">
        <ele>982</ele>
        <time>2024-09-15T08:53:53.000Z</time>
      </trkpt>
      <trkpt lat="45.76017" lon="2.96347">
        <ele>982.40002441406</ele>
        <time>2024-09-15T08:53:54.000Z</time>
      </trkpt>
      <trkpt lat="45.76017" lon="2.96343">
        <ele>982.59997558594</ele>
        <time>2024-09-15T08:53:55.000Z</time>
      </trkpt>
      <trkpt lat="45.76016" lon="2.96341">
        <ele>982.59997558594</ele>
        <time>2024-09-15T08:53:56.000Z</time>
      </trkpt>
      <trkpt lat="45.76015" lon="2.96338">
        <ele>982.79998779297</ele>
        <time>2024-09-15T08:53:57.000Z</time>
      </trkpt>
      <trkpt lat="45.76014" lon="2.96335">
        <ele>983</ele>
        <time>2024-09-15T08:53:58.000Z</time>
      </trkpt>
      <trkpt lat="45.76013" lon="2.96332">
        <ele>983.20001220703</ele>
        <time>2024-09-15T08:53:59.000Z</time>
      </trkpt>
      <trkpt lat="45.76012" lon="2.96328">
        <ele>983.40002441406</ele>
        <time>2024-09-15T08:54:00.000Z</time>
      </trkpt>
      <trkpt lat="45.76011" lon="2.96325">
        <ele>983.59997558594</ele>
        <time>2024-09-15T08:54:01.000Z</time>
      </trkpt>
      <trkpt lat="45.7601" lon="2.96322">
        <ele>983.79998779297</ele>
        <time>2024-09-15T08:54:02.000Z</time>
      </trkpt>
      <trkpt lat="45.76009" lon="2.96318">
        <ele>984</ele>
        <time>2024-09-15T08:54:03.000Z</time>
      </trkpt>
      <trkpt lat="45.76008" lon="2.96315">
        <ele>984.20001220703</ele>
        <time>2024-09-15T08:54:04.000Z</time>
      </trkpt>
      <trkpt lat="45.76007" lon="2.96312">
        <ele>984.40002441406</ele>
        <time>2024-09-15T08:54:05.000Z</time>
      </trkpt>
      <trkpt lat="45.76007" lon="2.9631">
        <ele>984.59997558594</ele>
        <time>2024-09-15T08:54:06.000Z</time>
      </trkpt>
      <trkpt lat="45.76006" lon="2.96306">
        <ele>984.79998779297</ele>
        <time>2024-09-15T08:54:07.000Z</time>
      </trkpt>
      <trkpt lat="45.76006" lon="2.96302">
        <ele>985</ele>
        <time>2024-09-15T08:54:08.000Z</time>
      </trkpt>
      <trkpt lat="45.76005" lon="2.96299">
        <ele>985.20001220703</ele>
        <time>2024-09-15T08:54:09.000Z</time>
      </trkpt>
      <trkpt lat="45.76004" lon="2.96295">
        <ele>985.20001220703</ele>
        <time>2024-09-15T08:54:10.000Z</time>
      </trkpt>
      <trkpt lat="45.76003" lon="2.96291">
        <ele>985.79998779297</ele>
        <time>2024-09-15T08:54:11.000Z</time>
      </trkpt>
      <trkpt lat="45.76003" lon="2.96288">
        <ele>986</ele>
        <time>2024-09-15T08:54:12.000Z</time>
      </trkpt>
      <trkpt lat="45.76002" lon="2.96284">
        <ele>986.20001220703</ele>
        <time>2024-09-15T08:54:13.000Z</time>
      </trkpt>
      <trkpt lat="45.76001" lon="2.9628">
        <ele>986.40002441406</ele>
        <time>2024-09-15T08:54:14.000Z</time>
      </trkpt>
      <trkpt lat="45.76" lon="2.96277">
        <ele>986.59997558594</ele>
        <time>2024-09-15T08:54:15.000Z</time>
      </trkpt>
      <trkpt lat="45.76" lon="2.96274">
        <ele>986.79998779297</ele>
        <time>2024-09-15T08:54:16.000Z</time>
      </trkpt>
      <trkpt lat="45.75999" lon="2.96271">
        <ele>987</ele>
        <time>2024-09-15T08:54:17.000Z</time>
      </trkpt>
      <trkpt lat="45.75998" lon="2.96268">
        <ele>987.20001220703</ele>
        <time>2024-09-15T08:54:18.000Z</time>
      </trkpt>
      <trkpt lat="45.75998" lon="2.96265">
        <ele>987.40002441406</ele>
        <time>2024-09-15T08:54:19.000Z</time>
      </trkpt>
      <trkpt lat="45.75997" lon="2.96261">
        <ele>987.79998779297</ele>
        <time>2024-09-15T08:54:20.000Z</time>
      </trkpt>
      <trkpt lat="45.75996" lon="2.96259">
        <ele>987.79998779297</ele>
        <time>2024-09-15T08:54:21.000Z</time>
      </trkpt>
      <trkpt lat="45.75996" lon="2.96256">
        <ele>988.20001220703</ele>
        <time>2024-09-15T08:54:22.000Z</time>
      </trkpt>
      <trkpt lat="45.75995" lon="2.96253">
        <ele>988.40002441406</ele>
        <time>2024-09-15T08:54:23.000Z</time>
      </trkpt>
      <trkpt lat="45.75995" lon="2.9625">
        <ele>988.59997558594</ele>
        <time>2024-09-15T08:54:24.000Z</time>
      </trkpt>
      <trkpt lat="45.75994" lon="2.96247">
        <ele>989</ele>
        <time>2024-09-15T08:54:25.000Z</time>
      </trkpt>
      <trkpt lat="45.75993" lon="2.96244">
        <ele>989.20001220703</ele>
        <time>2024-09-15T08:54:26.000Z</time>
      </trkpt>
      <trkpt lat="45.75992" lon="2.9624">
        <ele>989.40002441406</ele>
        <time>2024-09-15T08:54:27.000Z</time>
      </trkpt>
      <trkpt lat="45.75991" lon="2.96237">
        <ele>989.59997558594</ele>
        <time>2024-09-15T08:54:28.000Z</time>
      </trkpt>
      <trkpt lat="45.7599" lon="2.96234">
        <ele>989.59997558594</ele>
        <time>2024-09-15T08:54:29.000Z</time>
      </trkpt>
      <trkpt lat="45.75988" lon="2.96231">
        <ele>989.59997558594</ele>
        <time>2024-09-15T08:54:30.000Z</time>
      </trkpt>
      <trkpt lat="45.75987" lon="2.96227">
        <ele>989.79998779297</ele>
        <time>2024-09-15T08:54:31.000Z</time>
      </trkpt>
      <trkpt lat="45.75985" lon="2.96224">
        <ele>989.79998779297</ele>
        <time>2024-09-15T08:54:32.000Z</time>
      </trkpt>
      <trkpt lat="45.75984" lon="2.96221">
        <ele>990</ele>
        <time>2024-09-15T08:54:33.000Z</time>
      </trkpt>
      <trkpt lat="45.75982" lon="2.96218">
        <ele>990.20001220703</ele>
        <time>2024-09-15T08:54:34.000Z</time>
      </trkpt>
      <trkpt lat="45.75981" lon="2.96215">
        <ele>990.20001220703</ele>
        <time>2024-09-15T08:54:35.000Z</time>
      </trkpt>
      <trkpt lat="45.75979" lon="2.96212">
        <ele>990.40002441406</ele>
        <time>2024-09-15T08:54:36.000Z</time>
      </trkpt>
      <trkpt lat="45.75977" lon="2.96209">
        <ele>990.40002441406</ele>
        <time>2024-09-15T08:54:37.000Z</time>
      </trkpt>
      <trkpt lat="45.75976" lon="2.96206">
        <ele>990.40002441406</ele>
        <time>2024-09-15T08:54:38.000Z</time>
      </trkpt>
      <trkpt lat="45.75974" lon="2.96203">
        <ele>990.59997558594</ele>
        <time>2024-09-15T08:54:39.000Z</time>
      </trkpt>
      <trkpt lat="45.75972" lon="2.962">
        <ele>990.59997558594</ele>
        <time>2024-09-15T08:54:40.000Z</time>
      </trkpt>
      <trkpt lat="45.7597" lon="2.96197">
        <ele>990.79998779297</ele>
        <time>2024-09-15T08:54:41.000Z</time>
      </trkpt>
      <trkpt lat="45.75969" lon="2.96194">
        <ele>990.79998779297</ele>
        <time>2024-09-15T08:54:42.000Z</time>
      </trkpt>
      <trkpt lat="45.75967" lon="2.9619">
        <ele>990.79998779297</ele>
        <time>2024-09-15T08:54:43.000Z</time>
      </trkpt>
      <trkpt lat="45.75965" lon="2.96187">
        <ele>990.79998779297</ele>
        <time>2024-09-15T08:54:44.000Z</time>
      </trkpt>
      <trkpt lat="45.75963" lon="2.96184">
        <ele>991.20001220703</ele>
        <time>2024-09-15T08:54:45.000Z</time>
      </trkpt>
      <trkpt lat="45.75961" lon="2.96182">
        <ele>991.20001220703</ele>
        <time>2024-09-15T08:54:46.000Z</time>
      </trkpt>
      <trkpt lat="45.7596" lon="2.96179">
        <ele>991.20001220703</ele>
        <time>2024-09-15T08:54:47.000Z</time>
      </trkpt>
      <trkpt lat="45.75958" lon="2.96176">
        <ele>991.20001220703</ele>
        <time>2024-09-15T08:54:48.000Z</time>
      </trkpt>
      <trkpt lat="45.75956" lon="2.96173">
        <ele>991.20001220703</ele>
        <time>2024-09-15T08:54:49.000Z</time>
      </trkpt>
      <trkpt lat="45.75954" lon="2.9617">
        <ele>991.40002441406</ele>
        <time>2024-09-15T08:54:50.000Z</time>
      </trkpt>
      <trkpt lat="45.75952" lon="2.96167">
        <ele>991.40002441406</ele>
        <time>2024-09-15T08:54:51.000Z</time>
      </trkpt>
      <trkpt lat="45.7595" lon="2.96164">
        <ele>991.40002441406</ele>
        <time>2024-09-15T08:54:52.000Z</time>
      </trkpt>
      <trkpt lat="45.75948" lon="2.96162">
        <ele>991.40002441406</ele>
        <time>2024-09-15T08:54:53.000Z</time>
      </trkpt>
      <trkpt lat="45.75945" lon="2.96159">
        <ele>991.79998779297</ele>
        <time>2024-09-15T08:54:54.000Z</time>
      </trkpt>
      <trkpt lat="45.75943" lon="2.96157">
        <ele>992</ele>
        <time>2024-09-15T08:54:55.000Z</time>
      </trkpt>
      <trkpt lat="45.75941" lon="2.96154">
        <ele>992.20001220703</ele>
        <time>2024-09-15T08:54:56.000Z</time>
      </trkpt>
      <trkpt lat="45.75939" lon="2.96151">
        <ele>992.40002441406</ele>
        <time>2024-09-15T08:54:57.000Z</time>
      </trkpt>
      <trkpt lat="45.75937" lon="2.9615">
        <ele>992.59997558594</ele>
        <time>2024-09-15T08:54:58.000Z</time>
      </trkpt>
      <trkpt lat="45.75935" lon="2.96148">
        <ele>992.79998779297</ele>
        <time>2024-09-15T08:54:59.000Z</time>
      </trkpt>
      <trkpt lat="45.75932" lon="2.96147">
        <ele>992.79998779297</ele>
        <time>2024-09-15T08:55:00.000Z</time>
      </trkpt>
      <trkpt lat="45.7593" lon="2.96146">
        <ele>992.79998779297</ele>
        <time>2024-09-15T08:55:01.000Z</time>
      </trkpt>
      <trkpt lat="45.75927" lon="2.96145">
        <ele>993</ele>
        <time>2024-09-15T08:55:02.000Z</time>
      </trkpt>
      <trkpt lat="45.75925" lon="2.96144">
        <ele>993.20001220703</ele>
        <time>2024-09-15T08:55:03.000Z</time>
      </trkpt>
      <trkpt lat="45.75922" lon="2.96144">
        <ele>993</ele>
        <time>2024-09-15T08:55:04.000Z</time>
      </trkpt>
      <trkpt lat="45.7592" lon="2.96143">
        <ele>993</ele>
        <time>2024-09-15T08:55:05.000Z</time>
      </trkpt>
      <trkpt lat="45.75918" lon="2.96143">
        <ele>993.20001220703</ele>
        <time>2024-09-15T08:55:06.000Z</time>
      </trkpt>
      <trkpt lat="45.75915" lon="2.96143">
        <ele>993.40002441406</ele>
        <time>2024-09-15T08:55:07.000Z</time>
      </trkpt>
      <trkpt lat="45.75913" lon="2.96142">
        <ele>993.79998779297</ele>
        <time>2024-09-15T08:55:08.000Z</time>
      </trkpt>
      <trkpt lat="45.7591" lon="2.96143">
        <ele>994.59997558594</ele>
        <time>2024-09-15T08:55:09.000Z</time>
      </trkpt>
      <trkpt lat="45.75908" lon="2.96144">
        <ele>995</ele>
        <time>2024-09-15T08:55:10.000Z</time>
      </trkpt>
      <trkpt lat="45.75907" lon="2.96146">
        <ele>995.20001220703</ele>
        <time>2024-09-15T08:55:11.000Z</time>
      </trkpt>
      <trkpt lat="45.75905" lon="2.9615">
        <ele>995.40002441406</ele>
        <time>2024-09-15T08:55:12.000Z</time>
      </trkpt>
      <trkpt lat="45.75903" lon="2.96151">
        <ele>995.40002441406</ele>
        <time>2024-09-15T08:55:13.000Z</time>
      </trkpt>
      <trkpt lat="45.759" lon="2.96151">
        <ele>995.40002441406</ele>
        <time>2024-09-15T08:55:14.000Z</time>
      </trkpt>
      <trkpt lat="45.75898" lon="2.96149">
        <ele>995.20001220703</ele>
        <time>2024-09-15T08:55:15.000Z</time>
      </trkpt>
      <trkpt lat="45.75897" lon="2.96145">
        <ele>995.40002441406</ele>
        <time>2024-09-15T08:55:16.000Z</time>
      </trkpt>
      <trkpt lat="45.75897" lon="2.96141">
        <ele>995.20001220703</ele>
        <time>2024-09-15T08:55:17.000Z</time>
      </trkpt>
      <trkpt lat="45.75897" lon="2.96138">
        <ele>995.20001220703</ele>
        <time>2024-09-15T08:55:18.000Z</time>
      </trkpt>
      <trkpt lat="45.75895" lon="2.96135">
        <ele>995.40002441406</ele>
        <time>2024-09-15T08:55:19.000Z</time>
      </trkpt>
      <trkpt lat="45.75893" lon="2.96134">
        <ele>995.40002441406</ele>
        <time>2024-09-15T08:55:20.000Z</time>
      </trkpt>
      <trkpt lat="45.75891" lon="2.96132">
        <ele>995.59997558594</ele>
        <time>2024-09-15T08:55:21.000Z</time>
      </trkpt>
      <trkpt lat="45.75889" lon="2.9613">
        <ele>995.59997558594</ele>
        <time>2024-09-15T08:55:22.000Z</time>
      </trkpt>
      <trkpt lat="45.75887" lon="2.96129">
        <ele>995.79998779297</ele>
        <time>2024-09-15T08:55:23.000Z</time>
      </trkpt>
      <trkpt lat="45.75884" lon="2.96127">
        <ele>995.79998779297</ele>
        <time>2024-09-15T08:55:24.000Z</time>
      </trkpt>
      <trkpt lat="45.75882" lon="2.96125">
        <ele>995.79998779297</ele>
        <time>2024-09-15T08:55:25.000Z</time>
      </trkpt>
      <trkpt lat="45.7588" lon="2.96123">
        <ele>996</ele>
        <time>2024-09-15T08:55:26.000Z</time>
      </trkpt>
      <trkpt lat="45.75877" lon="2.96122">
        <ele>996</ele>
        <time>2024-09-15T08:55:27.000Z</time>
      </trkpt>
      <trkpt lat="45.75875" lon="2.96121">
        <ele>996</ele>
        <time>2024-09-15T08:55:28.000Z</time>
      </trkpt>
      <trkpt lat="45.75872" lon="2.96119">
        <ele>996</ele>
        <time>2024-09-15T08:55:29.000Z</time>
      </trkpt>
      <trkpt lat="45.7587" lon="2.96119">
        <ele>996.20001220703</ele>
        <time>2024-09-15T08:55:30.000Z</time>
      </trkpt>
      <trkpt lat="45.75868" lon="2.96117">
        <ele>996.20001220703</ele>
        <time>2024-09-15T08:55:31.000Z</time>
      </trkpt>
      <trkpt lat="45.75865" lon="2.96116">
        <ele>996.40002441406</ele>
        <time>2024-09-15T08:55:32.000Z</time>
      </trkpt>
      <trkpt lat="45.75863" lon="2.96115">
        <ele>996.40002441406</ele>
        <time>2024-09-15T08:55:33.000Z</time>
      </trkpt>
      <trkpt lat="45.75861" lon="2.96114">
        <ele>996.59997558594</ele>
        <time>2024-09-15T08:55:34.000Z</time>
      </trkpt>
      <trkpt lat="45.75859" lon="2.96112">
        <ele>996.79998779297</ele>
        <time>2024-09-15T08:55:35.000Z</time>
      </trkpt>
      <trkpt lat="45.75856" lon="2.96111">
        <ele>997</ele>
        <time>2024-09-15T08:55:36.000Z</time>
      </trkpt>
      <trkpt lat="45.75853" lon="2.9611">
        <ele>997.20001220703</ele>
        <time>2024-09-15T08:55:37.000Z</time>
      </trkpt>
      <trkpt lat="45.75851" lon="2.96109">
        <ele>997.40002441406</ele>
        <time>2024-09-15T08:55:38.000Z</time>
      </trkpt>
      <trkpt lat="45.75849" lon="2.96107">
        <ele>997.40002441406</ele>
        <time>2024-09-15T08:55:39.000Z</time>
      </trkpt>
      <trkpt lat="45.75846" lon="2.96106">
        <ele>997.59997558594</ele>
        <time>2024-09-15T08:55:40.000Z</time>
      </trkpt>
      <trkpt lat="45.75844" lon="2.96105">
        <ele>997.59997558594</ele>
        <time>2024-09-15T08:55:41.000Z</time>
      </trkpt>
      <trkpt lat="45.75842" lon="2.96102">
        <ele>997.79998779297</ele>
        <time>2024-09-15T08:55:42.000Z</time>
      </trkpt>
      <trkpt lat="45.75839" lon="2.96101">
        <ele>998</ele>
        <time>2024-09-15T08:55:43.000Z</time>
      </trkpt>
      <trkpt lat="45.75837" lon="2.96099">
        <ele>998</ele>
        <time>2024-09-15T08:55:44.000Z</time>
      </trkpt>
      <trkpt lat="45.75835" lon="2.96097">
        <ele>998</ele>
        <time>2024-09-15T08:55:45.000Z</time>
      </trkpt>
      <trkpt lat="45.75833" lon="2.96095">
        <ele>998.20001220703</ele>
        <time>2024-09-15T08:55:46.000Z</time>
      </trkpt>
      <trkpt lat="45.75831" lon="2.96093">
        <ele>998.40002441406</ele>
        <time>2024-09-15T08:55:47.000Z</time>
      </trkpt>
      <trkpt lat="45.75829" lon="2.96091">
        <ele>998.59997558594</ele>
        <time>2024-09-15T08:55:48.000Z</time>
      </trkpt>
      <trkpt lat="45.75827" lon="2.96089">
        <ele>998.59997558594</ele>
        <time>2024-09-15T08:55:49.000Z</time>
      </trkpt>
      <trkpt lat="45.75825" lon="2.96087">
        <ele>998.79998779297</ele>
        <time>2024-09-15T08:55:50.000Z</time>
      </trkpt>
      <trkpt lat="45.75823" lon="2.96086">
        <ele>998.79998779297</ele>
        <time>2024-09-15T08:55:51.000Z</time>
      </trkpt>
      <trkpt lat="45.75821" lon="2.96084">
        <ele>999.20001220703</ele>
        <time>2024-09-15T08:55:52.000Z</time>
      </trkpt>
      <trkpt lat="45.75819" lon="2.96082">
        <ele>999.20001220703</ele>
        <time>2024-09-15T08:55:53.000Z</time>
      </trkpt>
      <trkpt lat="45.75817" lon="2.9608">
        <ele>999.59997558594</ele>
        <time>2024-09-15T08:55:54.000Z</time>
      </trkpt>
      <trkpt lat="45.75815" lon="2.96078">
        <ele>999.59997558594</ele>
        <time>2024-09-15T08:55:55.000Z</time>
      </trkpt>
      <trkpt lat="45.75813" lon="2.96077">
        <ele>999.79998779297</ele>
        <time>2024-09-15T08:55:56.000Z</time>
      </trkpt>
      <trkpt lat="45.75811" lon="2.96075">
        <ele>1000</ele>
        <time>2024-09-15T08:55:57.000Z</time>
      </trkpt>
      <trkpt lat="45.7581" lon="2.96073">
        <ele>1000</ele>
        <time>2024-09-15T08:55:58.000Z</time>
      </trkpt>
      <trkpt lat="45.75808" lon="2.96071">
        <ele>1000.200012207</ele>
        <time>2024-09-15T08:55:59.000Z</time>
      </trkpt>
      <trkpt lat="45.75806" lon="2.96068">
        <ele>1000.4000244141</ele>
        <time>2024-09-15T08:56:00.000Z</time>
      </trkpt>
      <trkpt lat="45.75804" lon="2.96066">
        <ele>1000.5999755859</ele>
        <time>2024-09-15T08:56:01.000Z</time>
      </trkpt>
      <trkpt lat="45.75802" lon="2.96064">
        <ele>1000.5999755859</ele>
        <time>2024-09-15T08:56:02.000Z</time>
      </trkpt>
      <trkpt lat="45.758" lon="2.96062">
        <ele>1000.799987793</ele>
        <time>2024-09-15T08:56:03.000Z</time>
      </trkpt>
      <trkpt lat="45.75798" lon="2.9606">
        <ele>1000.799987793</ele>
        <time>2024-09-15T08:56:04.000Z</time>
      </trkpt>
      <trkpt lat="45.75796" lon="2.96058">
        <ele>1001</ele>
        <time>2024-09-15T08:56:05.000Z</time>
      </trkpt>
      <trkpt lat="45.75794" lon="2.96056">
        <ele>1001.200012207</ele>
        <time>2024-09-15T08:56:06.000Z</time>
      </trkpt>
      <trkpt lat="45.75792" lon="2.96053">
        <ele>1001.4000244141</ele>
        <time>2024-09-15T08:56:07.000Z</time>
      </trkpt>
      <trkpt lat="45.7579" lon="2.96051">
        <ele>1001.5999755859</ele>
        <time>2024-09-15T08:56:08.000Z</time>
      </trkpt>
      <trkpt lat="45.75788" lon="2.96049">
        <ele>1001.5999755859</ele>
        <time>2024-09-15T08:56:09.000Z</time>
      </trkpt>
      <trkpt lat="45.75786" lon="2.96047">
        <ele>1001.5999755859</ele>
        <time>2024-09-15T08:56:10.000Z</time>
      </trkpt>
      <trkpt lat="45.75783" lon="2.96045">
        <ele>1001.799987793</ele>
        <time>2024-09-15T08:56:11.000Z</time>
      </trkpt>
      <trkpt lat="45.75781" lon="2.96042">
        <ele>1002</ele>
        <time>2024-09-15T08:56:12.000Z</time>
      </trkpt>
      <trkpt lat="45.75779" lon="2.9604">
        <ele>1002</ele>
        <time>2024-09-15T08:56:13.000Z</time>
      </trkpt>
      <trkpt lat="45.75777" lon="2.96038">
        <ele>1002.200012207</ele>
        <time>2024-09-15T08:56:14.000Z</time>
      </trkpt>
      <trkpt lat="45.75775" lon="2.96035">
        <ele>1002.200012207</ele>
        <time>2024-09-15T08:56:15.000Z</time>
      </trkpt>
      <trkpt lat="45.75773" lon="2.96033">
        <ele>1002.4000244141</ele>
        <time>2024-09-15T08:56:16.000Z</time>
      </trkpt>
      <trkpt lat="45.75772" lon="2.96031">
        <ele>1002.5999755859</ele>
        <time>2024-09-15T08:56:17.000Z</time>
      </trkpt>
      <trkpt lat="45.7577" lon="2.96028">
        <ele>1002.5999755859</ele>
        <time>2024-09-15T08:56:18.000Z</time>
      </trkpt>
      <trkpt lat="45.75768" lon="2.96026">
        <ele>1003</ele>
        <time>2024-09-15T08:56:19.000Z</time>
      </trkpt>
      <trkpt lat="45.75766" lon="2.96023">
        <ele>1003</ele>
        <time>2024-09-15T08:56:20.000Z</time>
      </trkpt>
      <trkpt lat="45.75765" lon="2.96021">
        <ele>1003.200012207</ele>
        <time>2024-09-15T08:56:21.000Z</time>
      </trkpt>
      <trkpt lat="45.75763" lon="2.96018">
        <ele>1003.4000244141</ele>
        <time>2024-09-15T08:56:22.000Z</time>
      </trkpt>
      <trkpt lat="45.75761" lon="2.96016">
        <ele>1003.4000244141</ele>
        <time>2024-09-15T08:56:23.000Z</time>
      </trkpt>
      <trkpt lat="45.75759" lon="2.96013">
        <ele>1003.4000244141</ele>
        <time>2024-09-15T08:56:24.000Z</time>
      </trkpt>
      <trkpt lat="45.75757" lon="2.9601">
        <ele>1003.5999755859</ele>
        <time>2024-09-15T08:56:25.000Z</time>
      </trkpt>
      <trkpt lat="45.75756" lon="2.96007">
        <ele>1003.5999755859</ele>
        <time>2024-09-15T08:56:26.000Z</time>
      </trkpt>
      <trkpt lat="45.75754" lon="2.96005">
        <ele>1003.799987793</ele>
        <time>2024-09-15T08:56:27.000Z</time>
      </trkpt>
      <trkpt lat="45.75752" lon="2.96001">
        <ele>1003.799987793</ele>
        <time>2024-09-15T08:56:28.000Z</time>
      </trkpt>
      <trkpt lat="45.75751" lon="2.95999">
        <ele>1004</ele>
        <time>2024-09-15T08:56:29.000Z</time>
      </trkpt>
      <trkpt lat="45.75749" lon="2.95995">
        <ele>1004.200012207</ele>
        <time>2024-09-15T08:56:30.000Z</time>
      </trkpt>
      <trkpt lat="45.75748" lon="2.95992">
        <ele>1004.200012207</ele>
        <time>2024-09-15T08:56:31.000Z</time>
      </trkpt>
      <trkpt lat="45.75747" lon="2.95989">
        <ele>1004.4000244141</ele>
        <time>2024-09-15T08:56:32.000Z</time>
      </trkpt>
      <trkpt lat="45.75745" lon="2.95985">
        <ele>1004.799987793</ele>
        <time>2024-09-15T08:56:33.000Z</time>
      </trkpt>
      <trkpt lat="45.75743" lon="2.95983">
        <ele>1005</ele>
        <time>2024-09-15T08:56:34.000Z</time>
      </trkpt>
      <trkpt lat="45.75741" lon="2.9598">
        <ele>1005</ele>
        <time>2024-09-15T08:56:35.000Z</time>
      </trkpt>
      <trkpt lat="45.75739" lon="2.95977">
        <ele>1005.200012207</ele>
        <time>2024-09-15T08:56:36.000Z</time>
      </trkpt>
      <trkpt lat="45.75737" lon="2.95974">
        <ele>1005.200012207</ele>
        <time>2024-09-15T08:56:37.000Z</time>
      </trkpt>
      <trkpt lat="45.75735" lon="2.95971">
        <ele>1005.200012207</ele>
        <time>2024-09-15T08:56:38.000Z</time>
      </trkpt>
      <trkpt lat="45.75733" lon="2.95969">
        <ele>1005.200012207</ele>
        <time>2024-09-15T08:56:39.000Z</time>
      </trkpt>
      <trkpt lat="45.75731" lon="2.95966">
        <ele>1005.200012207</ele>
        <time>2024-09-15T08:56:40.000Z</time>
      </trkpt>
      <trkpt lat="45.7573" lon="2.95963">
        <ele>1005.4000244141</ele>
        <time>2024-09-15T08:56:41.000Z</time>
      </trkpt>
      <trkpt lat="45.75728" lon="2.95961">
        <ele>1005.5999755859</ele>
        <time>2024-09-15T08:56:42.000Z</time>
      </trkpt>
      <trkpt lat="45.75725" lon="2.95959">
        <ele>1005.5999755859</ele>
        <time>2024-09-15T08:56:43.000Z</time>
      </trkpt>
      <trkpt lat="45.75724" lon="2.95957">
        <ele>1005.799987793</ele>
        <time>2024-09-15T08:56:44.000Z</time>
      </trkpt>
      <trkpt lat="45.75722" lon="2.95954">
        <ele>1005.799987793</ele>
        <time>2024-09-15T08:56:45.000Z</time>
      </trkpt>
      <trkpt lat="45.7572" lon="2.95951">
        <ele>1005.799987793</ele>
        <time>2024-09-15T08:56:46.000Z</time>
      </trkpt>
      <trkpt lat="45.75718" lon="2.95949">
        <ele>1006</ele>
        <time>2024-09-15T08:56:47.000Z</time>
      </trkpt>
      <trkpt lat="45.75716" lon="2.95946">
        <ele>1006</ele>
        <time>2024-09-15T08:56:48.000Z</time>
      </trkpt>
      <trkpt lat="45.75714" lon="2.95944">
        <ele>1006</ele>
        <time>2024-09-15T08:56:49.000Z</time>
      </trkpt>
      <trkpt lat="45.75712" lon="2.95941">
        <ele>1006</ele>
        <time>2024-09-15T08:56:50.000Z</time>
      </trkpt>
      <trkpt lat="45.7571" lon="2.95938">
        <ele>1006.200012207</ele>
        <time>2024-09-15T08:56:51.000Z</time>
      </trkpt>
      <trkpt lat="45.75708" lon="2.95936">
        <ele>1006.200012207</ele>
        <time>2024-09-15T08:56:52.000Z</time>
      </trkpt>
      <trkpt lat="45.75706" lon="2.95934">
        <ele>1006.4000244141</ele>
        <time>2024-09-15T08:56:53.000Z</time>
      </trkpt>
      <trkpt lat="45.75704" lon="2.95932">
        <ele>1006.5999755859</ele>
        <time>2024-09-15T08:56:54.000Z</time>
      </trkpt>
      <trkpt lat="45.75702" lon="2.9593">
        <ele>1006.5999755859</ele>
        <time>2024-09-15T08:56:55.000Z</time>
      </trkpt>
      <trkpt lat="45.75699" lon="2.95928">
        <ele>1006.799987793</ele>
        <time>2024-09-15T08:56:56.000Z</time>
      </trkpt>
      <trkpt lat="45.75697" lon="2.95927">
        <ele>1006.799987793</ele>
        <time>2024-09-15T08:56:57.000Z</time>
      </trkpt>
      <trkpt lat="45.75695" lon="2.95924">
        <ele>1007</ele>
        <time>2024-09-15T08:56:58.000Z</time>
      </trkpt>
      <trkpt lat="45.75693" lon="2.95922">
        <ele>1007</ele>
        <time>2024-09-15T08:56:59.000Z</time>
      </trkpt>
      <trkpt lat="45.7569" lon="2.9592">
        <ele>1007.200012207</ele>
        <time>2024-09-15T08:57:00.000Z</time>
      </trkpt>
      <trkpt lat="45.75688" lon="2.95918">
        <ele>1007.200012207</ele>
        <time>2024-09-15T08:57:01.000Z</time>
      </trkpt>
      <trkpt lat="45.75685" lon="2.95917">
        <ele>1007.200012207</ele>
        <time>2024-09-15T08:57:02.000Z</time>
      </trkpt>
      <trkpt lat="45.75683" lon="2.95915">
        <ele>1007.4000244141</ele>
        <time>2024-09-15T08:57:03.000Z</time>
      </trkpt>
      <trkpt lat="45.75681" lon="2.95913">
        <ele>1007.4000244141</ele>
        <time>2024-09-15T08:57:04.000Z</time>
      </trkpt>
      <trkpt lat="45.75679" lon="2.95911">
        <ele>1007.5999755859</ele>
        <time>2024-09-15T08:57:05.000Z</time>
      </trkpt>
      <trkpt lat="45.75676" lon="2.95908">
        <ele>1007.5999755859</ele>
        <time>2024-09-15T08:57:06.000Z</time>
      </trkpt>
      <trkpt lat="45.75674" lon="2.95905">
        <ele>1007.5999755859</ele>
        <time>2024-09-15T08:57:07.000Z</time>
      </trkpt>
      <trkpt lat="45.75672" lon="2.95903">
        <ele>1007.5999755859</ele>
        <time>2024-09-15T08:57:08.000Z</time>
      </trkpt>
      <trkpt lat="45.75669" lon="2.95901">
        <ele>1007.5999755859</ele>
        <time>2024-09-15T08:57:09.000Z</time>
      </trkpt>
      <trkpt lat="45.75667" lon="2.95899">
        <ele>1007.5999755859</ele>
        <time>2024-09-15T08:57:10.000Z</time>
      </trkpt>
      <trkpt lat="45.75665" lon="2.95897">
        <ele>1007.5999755859</ele>
        <time>2024-09-15T08:57:11.000Z</time>
      </trkpt>
      <trkpt lat="45.75663" lon="2.95895">
        <ele>1008</ele>
        <time>2024-09-15T08:57:12.000Z</time>
      </trkpt>
      <trkpt lat="45.7566" lon="2.95893">
        <ele>1008.200012207</ele>
        <time>2024-09-15T08:57:13.000Z</time>
      </trkpt>
      <trkpt lat="45.75658" lon="2.95889">
        <ele>1008.4000244141</ele>
        <time>2024-09-15T08:57:14.000Z</time>
      </trkpt>
      <trkpt lat="45.75655" lon="2.95887">
        <ele>1008.5999755859</ele>
        <time>2024-09-15T08:57:15.000Z</time>
      </trkpt>
      <trkpt lat="45.75652" lon="2.95884">
        <ele>1008.799987793</ele>
        <time>2024-09-15T08:57:16.000Z</time>
      </trkpt>
      <trkpt lat="45.7565" lon="2.95881">
        <ele>1008.799987793</ele>
        <time>2024-09-15T08:57:17.000Z</time>
      </trkpt>
      <trkpt lat="45.75648" lon="2.95878">
        <ele>1008.799987793</ele>
        <time>2024-09-15T08:57:18.000Z</time>
      </trkpt>
      <trkpt lat="45.75646" lon="2.95875">
        <ele>1009</ele>
        <time>2024-09-15T08:57:19.000Z</time>
      </trkpt>
      <trkpt lat="45.75644" lon="2.95872">
        <ele>1009</ele>
        <time>2024-09-15T08:57:20.000Z</time>
      </trkpt>
      <trkpt lat="45.75642" lon="2.9587">
        <ele>1009.200012207</ele>
        <time>2024-09-15T08:57:21.000Z</time>
      </trkpt>
      <trkpt lat="45.7564" lon="2.95867">
        <ele>1009.200012207</ele>
        <time>2024-09-15T08:57:22.000Z</time>
      </trkpt>
      <trkpt lat="45.75637" lon="2.95866">
        <ele>1009.200012207</ele>
        <time>2024-09-15T08:57:23.000Z</time>
      </trkpt>
      <trkpt lat="45.75635" lon="2.95863">
        <ele>1009.4000244141</ele>
        <time>2024-09-15T08:57:24.000Z</time>
      </trkpt>
      <trkpt lat="45.75633" lon="2.95861">
        <ele>1009.4000244141</ele>
        <time>2024-09-15T08:57:25.000Z</time>
      </trkpt>
      <trkpt lat="45.75631" lon="2.95857">
        <ele>1009.5999755859</ele>
        <time>2024-09-15T08:57:26.000Z</time>
      </trkpt>
      <trkpt lat="45.7563" lon="2.95853">
        <ele>1009.5999755859</ele>
        <time>2024-09-15T08:57:27.000Z</time>
      </trkpt>
      <trkpt lat="45.75629" lon="2.95849">
        <ele>1009.799987793</ele>
        <time>2024-09-15T08:57:28.000Z</time>
      </trkpt>
      <trkpt lat="45.7563" lon="2.95845">
        <ele>1010.200012207</ele>
        <time>2024-09-15T08:57:29.000Z</time>
      </trkpt>
      <trkpt lat="45.7563" lon="2.95842">
        <ele>1010.5999755859</ele>
        <time>2024-09-15T08:57:30.000Z</time>
      </trkpt>
      <trkpt lat="45.75632" lon="2.95839">
        <ele>1011</ele>
        <time>2024-09-15T08:57:31.000Z</time>
      </trkpt>
      <trkpt lat="45.75633" lon="2.95836">
        <ele>1011.799987793</ele>
        <time>2024-09-15T08:57:32.000Z</time>
      </trkpt>
      <trkpt lat="45.75634" lon="2.95833">
        <ele>1012.200012207</ele>
        <time>2024-09-15T08:57:33.000Z</time>
      </trkpt>
      <trkpt lat="45.75636" lon="2.9583">
        <ele>1012.799987793</ele>
        <time>2024-09-15T08:57:34.000Z</time>
      </trkpt>
      <trkpt lat="45.75637" lon="2.95827">
        <ele>1013</ele>
        <time>2024-09-15T08:57:35.000Z</time>
      </trkpt>
      <trkpt lat="45.75639" lon="2.95825">
        <ele>1013.5999755859</ele>
        <time>2024-09-15T08:57:36.000Z</time>
      </trkpt>
      <trkpt lat="45.7564" lon="2.95823">
        <ele>1013.799987793</ele>
        <time>2024-09-15T08:57:37.000Z</time>
      </trkpt>
      <trkpt lat="45.75642" lon="2.95821">
        <ele>1014</ele>
        <time>2024-09-15T08:57:38.000Z</time>
      </trkpt>
      <trkpt lat="45.75644" lon="2.9582">
        <ele>1014.5999755859</ele>
        <time>2024-09-15T08:57:39.000Z</time>
      </trkpt>
      <trkpt lat="45.75645" lon="2.95818">
        <ele>1014.799987793</ele>
        <time>2024-09-15T08:57:40.000Z</time>
      </trkpt>
      <trkpt lat="45.75647" lon="2.95817">
        <ele>1015.200012207</ele>
        <time>2024-09-15T08:57:41.000Z</time>
      </trkpt>
      <trkpt lat="45.75649" lon="2.95816">
        <ele>1015.5999755859</ele>
        <time>2024-09-15T08:57:42.000Z</time>
      </trkpt>
      <trkpt lat="45.7565" lon="2.95814">
        <ele>1015.5999755859</ele>
        <time>2024-09-15T08:57:43.000Z</time>
      </trkpt>
      <trkpt lat="45.75651" lon="2.95812">
        <ele>1016</ele>
        <time>2024-09-15T08:57:44.000Z</time>
      </trkpt>
      <trkpt lat="45.75653" lon="2.9581">
        <ele>1016.4000244141</ele>
        <time>2024-09-15T08:57:45.000Z</time>
      </trkpt>
      <trkpt lat="45.75654" lon="2.95808">
        <ele>1016.5999755859</ele>
        <time>2024-09-15T08:57:46.000Z</time>
      </trkpt>
      <trkpt lat="45.75655" lon="2.95805">
        <ele>1017</ele>
        <time>2024-09-15T08:57:47.000Z</time>
      </trkpt>
      <trkpt lat="45.75655" lon="2.95804">
        <ele>1017.5999755859</ele>
        <time>2024-09-15T08:57:48.000Z</time>
      </trkpt>
      <trkpt lat="45.75656" lon="2.95802">
        <ele>1018.200012207</ele>
        <time>2024-09-15T08:57:49.000Z</time>
      </trkpt>
      <trkpt lat="45.75657" lon="2.958">
        <ele>1019.200012207</ele>
        <time>2024-09-15T08:57:50.000Z</time>
      </trkpt>
      <trkpt lat="45.75657" lon="2.95799">
        <ele>1019.4000244141</ele>
        <time>2024-09-15T08:57:51.000Z</time>
      </trkpt>
      <trkpt lat="45.75658" lon="2.95797">
        <ele>1019.5999755859</ele>
        <time>2024-09-15T08:57:52.000Z</time>
      </trkpt>
      <trkpt lat="45.75659" lon="2.95796">
        <ele>1019.799987793</ele>
        <time>2024-09-15T08:57:53.000Z</time>
      </trkpt>
      <trkpt lat="45.7566" lon="2.95794">
        <ele>1020</ele>
        <time>2024-09-15T08:57:54.000Z</time>
      </trkpt>
      <trkpt lat="45.7566" lon="2.95792">
        <ele>1020.4000244141</ele>
        <time>2024-09-15T08:57:55.000Z</time>
      </trkpt>
      <trkpt lat="45.75661" lon="2.95791">
        <ele>1020.799987793</ele>
        <time>2024-09-15T08:57:56.000Z</time>
      </trkpt>
      <trkpt lat="45.75662" lon="2.95789">
        <ele>1021.200012207</ele>
        <time>2024-09-15T08:57:57.000Z</time>
      </trkpt>
      <trkpt lat="45.75663" lon="2.95788">
        <ele>1021.799987793</ele>
        <time>2024-09-15T08:57:58.000Z</time>
      </trkpt>
      <trkpt lat="45.75663" lon="2.95786">
        <ele>1022.4000244141</ele>
        <time>2024-09-15T08:57:59.000Z</time>
      </trkpt>
      <trkpt lat="45.75664" lon="2.95785">
        <ele>1022.799987793</ele>
        <time>2024-09-15T08:58:00.000Z</time>
      </trkpt>
      <trkpt lat="45.75664" lon="2.95783">
        <ele>1023</ele>
        <time>2024-09-15T08:58:01.000Z</time>
      </trkpt>
      <trkpt lat="45.75665" lon="2.95782">
        <ele>1023.4000244141</ele>
        <time>2024-09-15T08:58:02.000Z</time>
      </trkpt>
      <trkpt lat="45.75665" lon="2.9578">
        <ele>1023.799987793</ele>
        <time>2024-09-15T08:58:03.000Z</time>
      </trkpt>
      <trkpt lat="45.75665" lon="2.95779">
        <ele>1024</ele>
        <time>2024-09-15T08:58:04.000Z</time>
      </trkpt>
      <trkpt lat="45.75665" lon="2.95777">
        <ele>1024.5999755859</ele>
        <time>2024-09-15T08:58:05.000Z</time>
      </trkpt>
      <trkpt lat="45.75666" lon="2.95775">
        <ele>1024.8000488281</ele>
        <time>2024-09-15T08:58:06.000Z</time>
      </trkpt>
      <trkpt lat="45.75666" lon="2.95773">
        <ele>1025.1999511719</ele>
        <time>2024-09-15T08:58:07.000Z</time>
      </trkpt>
      <trkpt lat="45.75666" lon="2.95771">
        <ele>1025.4000244141</ele>
        <time>2024-09-15T08:58:08.000Z</time>
      </trkpt>
      <trkpt lat="45.75666" lon="2.95769">
        <ele>1025.5999755859</ele>
        <time>2024-09-15T08:58:09.000Z</time>
      </trkpt>
      <trkpt lat="45.75666" lon="2.95767">
        <ele>1026</ele>
        <time>2024-09-15T08:58:10.000Z</time>
      </trkpt>
      <trkpt lat="45.75666" lon="2.95766">
        <ele>1026.8000488281</ele>
        <time>2024-09-15T08:58:11.000Z</time>
      </trkpt>
      <trkpt lat="45.75666" lon="2.95764">
        <ele>1027.1999511719</ele>
        <time>2024-09-15T08:58:12.000Z</time>
      </trkpt>
      <trkpt lat="45.75666" lon="2.95762">
        <ele>1027.4000244141</ele>
        <time>2024-09-15T08:58:13.000Z</time>
      </trkpt>
      <trkpt lat="45.75666" lon="2.95761">
        <ele>1027.8000488281</ele>
        <time>2024-09-15T08:58:14.000Z</time>
      </trkpt>
      <trkpt lat="45.75666" lon="2.95759">
        <ele>1028.1999511719</ele>
        <time>2024-09-15T08:58:15.000Z</time>
      </trkpt>
      <trkpt lat="45.75666" lon="2.95757">
        <ele>1028.5999755859</ele>
        <time>2024-09-15T08:58:16.000Z</time>
      </trkpt>
      <trkpt lat="45.75666" lon="2.95756">
        <ele>1029</ele>
        <time>2024-09-15T08:58:17.000Z</time>
      </trkpt>
      <trkpt lat="45.75667" lon="2.95754">
        <ele>1029.4000244141</ele>
        <time>2024-09-15T08:58:18.000Z</time>
      </trkpt>
      <trkpt lat="45.75667" lon="2.95753">
        <ele>1029.5999755859</ele>
        <time>2024-09-15T08:58:19.000Z</time>
      </trkpt>
      <trkpt lat="45.75666" lon="2.95752">
        <ele>1030</ele>
        <time>2024-09-15T08:58:20.000Z</time>
      </trkpt>
      <trkpt lat="45.75666" lon="2.95749">
        <ele>1030.4000244141</ele>
        <time>2024-09-15T08:58:21.000Z</time>
      </trkpt>
      <trkpt lat="45.75667" lon="2.95747">
        <ele>1030.8000488281</ele>
        <time>2024-09-15T08:58:22.000Z</time>
      </trkpt>
      <trkpt lat="45.75667" lon="2.95745">
        <ele>1031.5999755859</ele>
        <time>2024-09-15T08:58:23.000Z</time>
      </trkpt>
      <trkpt lat="45.75667" lon="2.95744">
        <ele>1032</ele>
        <time>2024-09-15T08:58:24.000Z</time>
      </trkpt>
      <trkpt lat="45.75667" lon="2.95742">
        <ele>1032.4000244141</ele>
        <time>2024-09-15T08:58:25.000Z</time>
      </trkpt>
      <trkpt lat="45.75667" lon="2.95741">
        <ele>1032.8000488281</ele>
        <time>2024-09-15T08:58:26.000Z</time>
      </trkpt>
      <trkpt lat="45.75667" lon="2.95738">
        <ele>1033</ele>
        <time>2024-09-15T08:58:27.000Z</time>
      </trkpt>
      <trkpt lat="45.75667" lon="2.95736">
        <ele>1033.4000244141</ele>
        <time>2024-09-15T08:58:28.000Z</time>
      </trkpt>
      <trkpt lat="45.75667" lon="2.95733">
        <ele>1033.5999755859</ele>
        <time>2024-09-15T08:58:29.000Z</time>
      </trkpt>
      <trkpt lat="45.75667" lon="2.95731">
        <ele>1033.8000488281</ele>
        <time>2024-09-15T08:58:30.000Z</time>
      </trkpt>
      <trkpt lat="45.75667" lon="2.95729">
        <ele>1034</ele>
        <time>2024-09-15T08:58:31.000Z</time>
      </trkpt>
      <trkpt lat="45.75666" lon="2.95728">
        <ele>1034.4000244141</ele>
        <time>2024-09-15T08:58:32.000Z</time>
      </trkpt>
      <trkpt lat="45.75666" lon="2.95725">
        <ele>1034.5999755859</ele>
        <time>2024-09-15T08:58:33.000Z</time>
      </trkpt>
      <trkpt lat="45.75665" lon="2.95723">
        <ele>1035</ele>
        <time>2024-09-15T08:58:34.000Z</time>
      </trkpt>
      <trkpt lat="45.75665" lon="2.9572">
        <ele>1035.5999755859</ele>
        <time>2024-09-15T08:58:35.000Z</time>
      </trkpt>
      <trkpt lat="45.75664" lon="2.95717">
        <ele>1036</ele>
        <time>2024-09-15T08:58:36.000Z</time>
      </trkpt>
      <trkpt lat="45.75664" lon="2.95714">
        <ele>1036.4000244141</ele>
        <time>2024-09-15T08:58:37.000Z</time>
      </trkpt>
      <trkpt lat="45.75663" lon="2.95711">
        <ele>1036.5999755859</ele>
        <time>2024-09-15T08:58:38.000Z</time>
      </trkpt>
      <trkpt lat="45.75662" lon="2.95708">
        <ele>1037.1999511719</ele>
        <time>2024-09-15T08:58:39.000Z</time>
      </trkpt>
      <trkpt lat="45.75661" lon="2.95705">
        <ele>1037.8000488281</ele>
        <time>2024-09-15T08:58:40.000Z</time>
      </trkpt>
      <trkpt lat="45.7566" lon="2.95702">
        <ele>1038.1999511719</ele>
        <time>2024-09-15T08:58:41.000Z</time>
      </trkpt>
      <trkpt lat="45.7566" lon="2.95699">
        <ele>1038.4000244141</ele>
        <time>2024-09-15T08:58:42.000Z</time>
      </trkpt>
      <trkpt lat="45.75659" lon="2.95696">
        <ele>1038.5999755859</ele>
        <time>2024-09-15T08:58:43.000Z</time>
      </trkpt>
      <trkpt lat="45.75659" lon="2.95694">
        <ele>1038.8000488281</ele>
        <time>2024-09-15T08:58:44.000Z</time>
      </trkpt>
      <trkpt lat="45.75658" lon="2.95691">
        <ele>1039.4000244141</ele>
        <time>2024-09-15T08:58:45.000Z</time>
      </trkpt>
      <trkpt lat="45.75658" lon="2.95688">
        <ele>1039.8000488281</ele>
        <time>2024-09-15T08:58:46.000Z</time>
      </trkpt>
      <trkpt lat="45.75656" lon="2.95686">
        <ele>1040</ele>
        <time>2024-09-15T08:58:47.000Z</time>
      </trkpt>
      <trkpt lat="45.75655" lon="2.95683">
        <ele>1040.1999511719</ele>
        <time>2024-09-15T08:58:48.000Z</time>
      </trkpt>
      <trkpt lat="45.75654" lon="2.95681">
        <ele>1040.4000244141</ele>
        <time>2024-09-15T08:58:49.000Z</time>
      </trkpt>
      <trkpt lat="45.75653" lon="2.95679">
        <ele>1040.4000244141</ele>
        <time>2024-09-15T08:58:50.000Z</time>
      </trkpt>
      <trkpt lat="45.75652" lon="2.95677">
        <ele>1040.8000488281</ele>
        <time>2024-09-15T08:58:51.000Z</time>
      </trkpt>
      <trkpt lat="45.7565" lon="2.95674">
        <ele>1041</ele>
        <time>2024-09-15T08:58:52.000Z</time>
      </trkpt>
      <trkpt lat="45.75649" lon="2.95673">
        <ele>1041.1999511719</ele>
        <time>2024-09-15T08:58:53.000Z</time>
      </trkpt>
      <trkpt lat="45.75648" lon="2.9567">
        <ele>1041.5999755859</ele>
        <time>2024-09-15T08:58:54.000Z</time>
      </trkpt>
      <trkpt lat="45.75646" lon="2.95669">
        <ele>1041.8000488281</ele>
        <time>2024-09-15T08:58:55.000Z</time>
      </trkpt>
      <trkpt lat="45.75644" lon="2.95667">
        <ele>1042</ele>
        <time>2024-09-15T08:58:56.000Z</time>
      </trkpt>
      <trkpt lat="45.75642" lon="2.95665">
        <ele>1042.4000244141</ele>
        <time>2024-09-15T08:58:57.000Z</time>
      </trkpt>
      <trkpt lat="45.75641" lon="2.95662">
        <ele>1042.5999755859</ele>
        <time>2024-09-15T08:58:58.000Z</time>
      </trkpt>
      <trkpt lat="45.75639" lon="2.9566">
        <ele>1042.5999755859</ele>
        <time>2024-09-15T08:58:59.000Z</time>
      </trkpt>
      <trkpt lat="45.75638" lon="2.95658">
        <ele>1043</ele>
        <time>2024-09-15T08:59:00.000Z</time>
      </trkpt>
      <trkpt lat="45.75637" lon="2.95655">
        <ele>1043.4000244141</ele>
        <time>2024-09-15T08:59:01.000Z</time>
      </trkpt>
      <trkpt lat="45.75636" lon="2.95653">
        <ele>1043.8000488281</ele>
        <time>2024-09-15T08:59:02.000Z</time>
      </trkpt>
      <trkpt lat="45.75634" lon="2.95651">
        <ele>1044</ele>
        <time>2024-09-15T08:59:03.000Z</time>
      </trkpt>
      <trkpt lat="45.75633" lon="2.95648">
        <ele>1044.1999511719</ele>
        <time>2024-09-15T08:59:04.000Z</time>
      </trkpt>
      <trkpt lat="45.75631" lon="2.95646">
        <ele>1044.1999511719</ele>
        <time>2024-09-15T08:59:05.000Z</time>
      </trkpt>
      <trkpt lat="45.7563" lon="2.95644">
        <ele>1044.1999511719</ele>
        <time>2024-09-15T08:59:06.000Z</time>
      </trkpt>
      <trkpt lat="45.75629" lon="2.95642">
        <ele>1044.4000244141</ele>
        <time>2024-09-15T08:59:07.000Z</time>
      </trkpt>
      <trkpt lat="45.75627" lon="2.9564">
        <ele>1044.4000244141</ele>
        <time>2024-09-15T08:59:08.000Z</time>
      </trkpt>
      <trkpt lat="45.75626" lon="2.95638">
        <ele>1044.8000488281</ele>
        <time>2024-09-15T08:59:09.000Z</time>
      </trkpt>
      <trkpt lat="45.75625" lon="2.95637">
        <ele>1044.8000488281</ele>
        <time>2024-09-15T08:59:10.000Z</time>
      </trkpt>
      <trkpt lat="45.75625" lon="2.95636">
        <ele>1045</ele>
        <time>2024-09-15T08:59:11.000Z</time>
      </trkpt>
      <trkpt lat="45.75624" lon="2.95635">
        <ele>1045.4000244141</ele>
        <time>2024-09-15T08:59:12.000Z</time>
      </trkpt>
      <trkpt lat="45.75623" lon="2.95634">
        <ele>1045.5999755859</ele>
        <time>2024-09-15T08:59:13.000Z</time>
      </trkpt>
      <trkpt lat="45.75623" lon="2.95633">
        <ele>1045.8000488281</ele>
        <time>2024-09-15T08:59:14.000Z</time>
      </trkpt>
      <trkpt lat="45.75622" lon="2.95632">
        <ele>1046</ele>
        <time>2024-09-15T08:59:15.000Z</time>
      </trkpt>
      <trkpt lat="45.75621" lon="2.95631">
        <ele>1046.1999511719</ele>
        <time>2024-09-15T08:59:16.000Z</time>
      </trkpt>
      <trkpt lat="45.7562" lon="2.95629">
        <ele>1046.4000244141</ele>
        <time>2024-09-15T08:59:17.000Z</time>
      </trkpt>
      <trkpt lat="45.7562" lon="2.95628">
        <ele>1047</ele>
        <time>2024-09-15T08:59:18.000Z</time>
      </trkpt>
      <trkpt lat="45.75619" lon="2.95627">
        <ele>1047.1999511719</ele>
        <time>2024-09-15T08:59:19.000Z</time>
      </trkpt>
      <trkpt lat="45.75618" lon="2.95626">
        <ele>1047.4000244141</ele>
        <time>2024-09-15T08:59:20.000Z</time>
      </trkpt>
      <trkpt lat="45.75617" lon="2.95625">
        <ele>1048</ele>
        <time>2024-09-15T08:59:21.000Z</time>
      </trkpt>
      <trkpt lat="45.75616" lon="2.95625">
        <ele>1048.1999511719</ele>
        <time>2024-09-15T08:59:22.000Z</time>
      </trkpt>
      <trkpt lat="45.75615" lon="2.95623">
        <ele>1048.4000244141</ele>
        <time>2024-09-15T08:59:23.000Z</time>
      </trkpt>
      <trkpt lat="45.75614" lon="2.95622">
        <ele>1048.5999755859</ele>
        <time>2024-09-15T08:59:24.000Z</time>
      </trkpt>
      <trkpt lat="45.75613" lon="2.95621">
        <ele>1048.8000488281</ele>
        <time>2024-09-15T08:59:25.000Z</time>
      </trkpt>
      <trkpt lat="45.75612" lon="2.95621">
        <ele>1049</ele>
        <time>2024-09-15T08:59:26.000Z</time>
      </trkpt>
      <trkpt lat="45.75611" lon="2.9562">
        <ele>1049.4000244141</ele>
        <time>2024-09-15T08:59:27.000Z</time>
      </trkpt>
      <trkpt lat="45.75611" lon="2.95619">
        <ele>1049.5999755859</ele>
        <time>2024-09-15T08:59:28.000Z</time>
      </trkpt>
      <trkpt lat="45.7561" lon="2.95618">
        <ele>1049.8000488281</ele>
        <time>2024-09-15T08:59:29.000Z</time>
      </trkpt>
      <trkpt lat="45.75608" lon="2.95618">
        <ele>1050.1999511719</ele>
        <time>2024-09-15T08:59:30.000Z</time>
      </trkpt>
      <trkpt lat="45.75608" lon="2.95618">
        <ele>1050.4000244141</ele>
        <time>2024-09-15T08:59:31.000Z</time>
      </trkpt>
      <trkpt lat="45.75606" lon="2.95617">
        <ele>1050.5999755859</ele>
        <time>2024-09-15T08:59:32.000Z</time>
      </trkpt>
      <trkpt lat="45.75605" lon="2.95616">
        <ele>1050.8000488281</ele>
        <time>2024-09-15T08:59:33.000Z</time>
      </trkpt>
      <trkpt lat="45.75604" lon="2.95615">
        <ele>1051.1999511719</ele>
        <time>2024-09-15T08:59:34.000Z</time>
      </trkpt>
      <trkpt lat="45.75603" lon="2.95614">
        <ele>1051.1999511719</ele>
        <time>2024-09-15T08:59:35.000Z</time>
      </trkpt>
      <trkpt lat="45.75602" lon="2.95613">
        <ele>1051.5999755859</ele>
        <time>2024-09-15T08:59:36.000Z</time>
      </trkpt>
      <trkpt lat="45.75601" lon="2.95612">
        <ele>1052</ele>
        <time>2024-09-15T08:59:37.000Z</time>
      </trkpt>
      <trkpt lat="45.75599" lon="2.9561">
        <ele>1052.1999511719</ele>
        <time>2024-09-15T08:59:38.000Z</time>
      </trkpt>
      <trkpt lat="45.75597" lon="2.95608">
        <ele>1052.4000244141</ele>
        <time>2024-09-15T08:59:39.000Z</time>
      </trkpt>
      <trkpt lat="45.75596" lon="2.95606">
        <ele>1052.5999755859</ele>
        <time>2024-09-15T08:59:40.000Z</time>
      </trkpt>
      <trkpt lat="45.75594" lon="2.95604">
        <ele>1053</ele>
        <time>2024-09-15T08:59:41.000Z</time>
      </trkpt>
      <trkpt lat="45.75593" lon="2.95602">
        <ele>1053.1999511719</ele>
        <time>2024-09-15T08:59:42.000Z</time>
      </trkpt>
      <trkpt lat="45.75591" lon="2.956">
        <ele>1053.1999511719</ele>
        <time>2024-09-15T08:59:43.000Z</time>
      </trkpt>
      <trkpt lat="45.75589" lon="2.95597">
        <ele>1053.4000244141</ele>
        <time>2024-09-15T08:59:44.000Z</time>
      </trkpt>
      <trkpt lat="45.75587" lon="2.95594">
        <ele>1053.5999755859</ele>
        <time>2024-09-15T08:59:45.000Z</time>
      </trkpt>
      <trkpt lat="45.75586" lon="2.95592">
        <ele>1053.8000488281</ele>
        <time>2024-09-15T08:59:46.000Z</time>
      </trkpt>
      <trkpt lat="45.75584" lon="2.9559">
        <ele>1054</ele>
        <time>2024-09-15T08:59:47.000Z</time>
      </trkpt>
      <trkpt lat="45.75582" lon="2.95588">
        <ele>1054</ele>
        <time>2024-09-15T08:59:48.000Z</time>
      </trkpt>
      <trkpt lat="45.7558" lon="2.95586">
        <ele>1054.1999511719</ele>
        <time>2024-09-15T08:59:49.000Z</time>
      </trkpt>
      <trkpt lat="45.75578" lon="2.95584">
        <ele>1054.4000244141</ele>
        <time>2024-09-15T08:59:50.000Z</time>
      </trkpt>
      <trkpt lat="45.75576" lon="2.95582">
        <ele>1054.5999755859</ele>
        <time>2024-09-15T08:59:51.000Z</time>
      </trkpt>
      <trkpt lat="45.75574" lon="2.95581">
        <ele>1055.1999511719</ele>
        <time>2024-09-15T08:59:52.000Z</time>
      </trkpt>
      <trkpt lat="45.75573" lon="2.95578">
        <ele>1055.8000488281</ele>
        <time>2024-09-15T08:59:53.000Z</time>
      </trkpt>
      <trkpt lat="45.75571" lon="2.95576">
        <ele>1056</ele>
        <time>2024-09-15T08:59:54.000Z</time>
      </trkpt>
      <trkpt lat="45.7557" lon="2.95573">
        <ele>1056.1999511719</ele>
        <time>2024-09-15T08:59:55.000Z</time>
      </trkpt>
      <trkpt lat="45.75568" lon="2.95571">
        <ele>1056.4000244141</ele>
        <time>2024-09-15T08:59:56.000Z</time>
      </trkpt>
      <trkpt lat="45.75567" lon="2.95568">
        <ele>1056.8000488281</ele>
        <time>2024-09-15T08:59:57.000Z</time>
      </trkpt>
      <trkpt lat="45.75565" lon="2.95566">
        <ele>1057.1999511719</ele>
        <time>2024-09-15T08:59:58.000Z</time>
      </trkpt>
      <trkpt lat="45.75564" lon="2.95563">
        <ele>1057.4000244141</ele>
        <time>2024-09-15T08:59:59.000Z</time>
      </trkpt>
      <trkpt lat="45.75563" lon="2.95561">
        <ele>1057.5999755859</ele>
        <time>2024-09-15T09:00:00.000Z</time>
      </trkpt>
      <trkpt lat="45.75562" lon="2.95559">
        <ele>1057.8000488281</ele>
        <time>2024-09-15T09:00:01.000Z</time>
      </trkpt>
      <trkpt lat="45.75561" lon="2.95556">
        <ele>1058.1999511719</ele>
        <time>2024-09-15T09:00:02.000Z</time>
      </trkpt>
      <trkpt lat="45.7556" lon="2.95554">
        <ele>1058.4000244141</ele>
        <time>2024-09-15T09:00:03.000Z</time>
      </trkpt>
      <trkpt lat="45.75558" lon="2.95551">
        <ele>1058.5999755859</ele>
        <time>2024-09-15T09:00:04.000Z</time>
      </trkpt>
      <trkpt lat="45.75557" lon="2.95548">
        <ele>1058.8000488281</ele>
        <time>2024-09-15T09:00:05.000Z</time>
      </trkpt>
      <trkpt lat="45.75556" lon="2.95546">
        <ele>1059</ele>
        <time>2024-09-15T09:00:06.000Z</time>
      </trkpt>
      <trkpt lat="45.75555" lon="2.95543">
        <ele>1059.1999511719</ele>
        <time>2024-09-15T09:00:07.000Z</time>
      </trkpt>
      <trkpt lat="45.75555" lon="2.95541">
        <ele>1059.4000244141</ele>
        <time>2024-09-15T09:00:08.000Z</time>
      </trkpt>
      <trkpt lat="45.75554" lon="2.95539">
        <ele>1060</ele>
        <time>2024-09-15T09:00:09.000Z</time>
      </trkpt>
      <trkpt lat="45.75553" lon="2.95536">
        <ele>1060.1999511719</ele>
        <time>2024-09-15T09:00:10.000Z</time>
      </trkpt>
      <trkpt lat="45.75553" lon="2.95535">
        <ele>1060.4000244141</ele>
        <time>2024-09-15T09:00:11.000Z</time>
      </trkpt>
      <trkpt lat="45.75552" lon="2.95533">
        <ele>1060.8000488281</ele>
        <time>2024-09-15T09:00:12.000Z</time>
      </trkpt>
      <trkpt lat="45.7555" lon="2.95531">
        <ele>1061.1999511719</ele>
        <time>2024-09-15T09:00:13.000Z</time>
      </trkpt>
      <trkpt lat="45.75549" lon="2.95528">
        <ele>1061.5999755859</ele>
        <time>2024-09-15T09:00:14.000Z</time>
      </trkpt>
      <trkpt lat="45.75548" lon="2.95526">
        <ele>1062.1999511719</ele>
        <time>2024-09-15T09:00:15.000Z</time>
      </trkpt>
      <trkpt lat="45.75547" lon="2.95523">
        <ele>1062.4000244141</ele>
        <time>2024-09-15T09:00:16.000Z</time>
      </trkpt>
      <trkpt lat="45.75546" lon="2.9552">
        <ele>1062.5999755859</ele>
        <time>2024-09-15T09:00:17.000Z</time>
      </trkpt>
      <trkpt lat="45.75545" lon="2.95518">
        <ele>1063</ele>
        <time>2024-09-15T09:00:18.000Z</time>
      </trkpt>
      <trkpt lat="45.75544" lon="2.95515">
        <ele>1063.1999511719</ele>
        <time>2024-09-15T09:00:19.000Z</time>
      </trkpt>
      <trkpt lat="45.75543" lon="2.95512">
        <ele>1063.1999511719</ele>
        <time>2024-09-15T09:00:20.000Z</time>
      </trkpt>
      <trkpt lat="45.75542" lon="2.95509">
        <ele>1063.4000244141</ele>
        <time>2024-09-15T09:00:21.000Z</time>
      </trkpt>
      <trkpt lat="45.75541" lon="2.95506">
        <ele>1063.5999755859</ele>
        <time>2024-09-15T09:00:22.000Z</time>
      </trkpt>
      <trkpt lat="45.7554" lon="2.95503">
        <ele>1063.5999755859</ele>
        <time>2024-09-15T09:00:23.000Z</time>
      </trkpt>
      <trkpt lat="45.75539" lon="2.955">
        <ele>1063.8000488281</ele>
        <time>2024-09-15T09:00:24.000Z</time>
      </trkpt>
      <trkpt lat="45.75538" lon="2.95497">
        <ele>1063.8000488281</ele>
        <time>2024-09-15T09:00:25.000Z</time>
      </trkpt>
      <trkpt lat="45.75537" lon="2.95494">
        <ele>1064</ele>
        <time>2024-09-15T09:00:26.000Z</time>
      </trkpt>
      <trkpt lat="45.75537" lon="2.9549">
        <ele>1064</ele>
        <time>2024-09-15T09:00:27.000Z</time>
      </trkpt>
      <trkpt lat="45.75536" lon="2.95487">
        <ele>1064</ele>
        <time>2024-09-15T09:00:28.000Z</time>
      </trkpt>
      <trkpt lat="45.75535" lon="2.95484">
        <ele>1064.1999511719</ele>
        <time>2024-09-15T09:00:29.000Z</time>
      </trkpt>
      <trkpt lat="45.75534" lon="2.9548">
        <ele>1064.1999511719</ele>
        <time>2024-09-15T09:00:30.000Z</time>
      </trkpt>
      <trkpt lat="45.75533" lon="2.95477">
        <ele>1064.1999511719</ele>
        <time>2024-09-15T09:00:31.000Z</time>
      </trkpt>
      <trkpt lat="45.75532" lon="2.95473">
        <ele>1064.4000244141</ele>
        <time>2024-09-15T09:00:32.000Z</time>
      </trkpt>
      <trkpt lat="45.75531" lon="2.9547">
        <ele>1064.4000244141</ele>
        <time>2024-09-15T09:00:33.000Z</time>
      </trkpt>
      <trkpt lat="45.75531" lon="2.95466">
        <ele>1064.5999755859</ele>
        <time>2024-09-15T09:00:34.000Z</time>
      </trkpt>
      <trkpt lat="45.7553" lon="2.95463">
        <ele>1064.5999755859</ele>
        <time>2024-09-15T09:00:35.000Z</time>
      </trkpt>
      <trkpt lat="45.75529" lon="2.9546">
        <ele>1064.8000488281</ele>
        <time>2024-09-15T09:00:36.000Z</time>
      </trkpt>
      <trkpt lat="45.75529" lon="2.95457">
        <ele>1064.8000488281</ele>
        <time>2024-09-15T09:00:37.000Z</time>
      </trkpt>
      <trkpt lat="45.75528" lon="2.95454">
        <ele>1065</ele>
        <time>2024-09-15T09:00:38.000Z</time>
      </trkpt>
      <trkpt lat="45.75527" lon="2.95451">
        <ele>1065</ele>
        <time>2024-09-15T09:00:39.000Z</time>
      </trkpt>
      <trkpt lat="45.75526" lon="2.95448">
        <ele>1065.1999511719</ele>
        <time>2024-09-15T09:00:40.000Z</time>
      </trkpt>
      <trkpt lat="45.75525" lon="2.95445">
        <ele>1065.4000244141</ele>
        <time>2024-09-15T09:00:41.000Z</time>
      </trkpt>
      <trkpt lat="45.75524" lon="2.95443">
        <ele>1065.5999755859</ele>
        <time>2024-09-15T09:00:42.000Z</time>
      </trkpt>
      <trkpt lat="45.75523" lon="2.95439">
        <ele>1065.8000488281</ele>
        <time>2024-09-15T09:00:43.000Z</time>
      </trkpt>
      <trkpt lat="45.75521" lon="2.95437">
        <ele>1066.4000244141</ele>
        <time>2024-09-15T09:00:44.000Z</time>
      </trkpt>
      <trkpt lat="45.7552" lon="2.95434">
        <ele>1066.5999755859</ele>
        <time>2024-09-15T09:00:45.000Z</time>
      </trkpt>
      <trkpt lat="45.75518" lon="2.9543">
        <ele>1066.5999755859</ele>
        <time>2024-09-15T09:00:46.000Z</time>
      </trkpt>
      <trkpt lat="45.75517" lon="2.95428">
        <ele>1066.8000488281</ele>
        <time>2024-09-15T09:00:47.000Z</time>
      </trkpt>
      <trkpt lat="45.75516" lon="2.95425">
        <ele>1067.1999511719</ele>
        <time>2024-09-15T09:00:48.000Z</time>
      </trkpt>
      <trkpt lat="45.75515" lon="2.95422">
        <ele>1067.1999511719</ele>
        <time>2024-09-15T09:00:49.000Z</time>
      </trkpt>
      <trkpt lat="45.75514" lon="2.9542">
        <ele>1067.4000244141</ele>
        <time>2024-09-15T09:00:50.000Z</time>
      </trkpt>
      <trkpt lat="45.75512" lon="2.95417">
        <ele>1067.4000244141</ele>
        <time>2024-09-15T09:00:51.000Z</time>
      </trkpt>
      <trkpt lat="45.75512" lon="2.95415">
        <ele>1067.8000488281</ele>
        <time>2024-09-15T09:00:52.000Z</time>
      </trkpt>
      <trkpt lat="45.75511" lon="2.95412">
        <ele>1067.8000488281</ele>
        <time>2024-09-15T09:00:53.000Z</time>
      </trkpt>
      <trkpt lat="45.7551" lon="2.9541">
        <ele>1068.1999511719</ele>
        <time>2024-09-15T09:00:54.000Z</time>
      </trkpt>
      <trkpt lat="45.7551" lon="2.95408">
        <ele>1068.4000244141</ele>
        <time>2024-09-15T09:00:55.000Z</time>
      </trkpt>
      <trkpt lat="45.7551" lon="2.95405">
        <ele>1068.4000244141</ele>
        <time>2024-09-15T09:00:56.000Z</time>
      </trkpt>
      <trkpt lat="45.75509" lon="2.95402">
        <ele>1068.5999755859</ele>
        <time>2024-09-15T09:00:57.000Z</time>
      </trkpt>
      <trkpt lat="45.75508" lon="2.954">
        <ele>1068.8000488281</ele>
        <time>2024-09-15T09:00:58.000Z</time>
      </trkpt>
      <trkpt lat="45.75507" lon="2.95397">
        <ele>1069</ele>
        <time>2024-09-15T09:00:59.000Z</time>
      </trkpt>
      <trkpt lat="45.75507" lon="2.95394">
        <ele>1069.4000244141</ele>
        <time>2024-09-15T09:01:00.000Z</time>
      </trkpt>
      <trkpt lat="45.75506" lon="2.95391">
        <ele>1069.8000488281</ele>
        <time>2024-09-15T09:01:01.000Z</time>
      </trkpt>
      <trkpt lat="45.75505" lon="2.95388">
        <ele>1070.1999511719</ele>
        <time>2024-09-15T09:01:02.000Z</time>
      </trkpt>
      <trkpt lat="45.75505" lon="2.95385">
        <ele>1070.8000488281</ele>
        <time>2024-09-15T09:01:03.000Z</time>
      </trkpt>
      <trkpt lat="45.75504" lon="2.95382">
        <ele>1070.8000488281</ele>
        <time>2024-09-15T09:01:04.000Z</time>
      </trkpt>
      <trkpt lat="45.75503" lon="2.9538">
        <ele>1071</ele>
        <time>2024-09-15T09:01:05.000Z</time>
      </trkpt>
      <trkpt lat="45.75502" lon="2.95377">
        <ele>1071</ele>
        <time>2024-09-15T09:01:06.000Z</time>
      </trkpt>
      <trkpt lat="45.75501" lon="2.95374">
        <ele>1071.4000244141</ele>
        <time>2024-09-15T09:01:07.000Z</time>
      </trkpt>
      <trkpt lat="45.755" lon="2.95373">
        <ele>1071.4000244141</ele>
        <time>2024-09-15T09:01:08.000Z</time>
      </trkpt>
      <trkpt lat="45.755" lon="2.9537">
        <ele>1071.5999755859</ele>
        <time>2024-09-15T09:01:09.000Z</time>
      </trkpt>
      <trkpt lat="45.75499" lon="2.95367">
        <ele>1071.5999755859</ele>
        <time>2024-09-15T09:01:10.000Z</time>
      </trkpt>
      <trkpt lat="45.75498" lon="2.95365">
        <ele>1072</ele>
        <time>2024-09-15T09:01:11.000Z</time>
      </trkpt>
      <trkpt lat="45.75497" lon="2.95362">
        <ele>1072.1999511719</ele>
        <time>2024-09-15T09:01:12.000Z</time>
      </trkpt>
      <trkpt lat="45.75497" lon="2.9536">
        <ele>1072.4000244141</ele>
        <time>2024-09-15T09:01:13.000Z</time>
      </trkpt>
      <trkpt lat="45.75496" lon="2.95357">
        <ele>1072.8000488281</ele>
        <time>2024-09-15T09:01:14.000Z</time>
      </trkpt>
      <trkpt lat="45.75495" lon="2.95354">
        <ele>1072.8000488281</ele>
        <time>2024-09-15T09:01:15.000Z</time>
      </trkpt>
      <trkpt lat="45.75495" lon="2.95352">
        <ele>1073</ele>
        <time>2024-09-15T09:01:16.000Z</time>
      </trkpt>
      <trkpt lat="45.75494" lon="2.95349">
        <ele>1073.1999511719</ele>
        <time>2024-09-15T09:01:17.000Z</time>
      </trkpt>
      <trkpt lat="45.75495" lon="2.95347">
        <ele>1073.4000244141</ele>
        <time>2024-09-15T09:01:18.000Z</time>
      </trkpt>
      <trkpt lat="45.75495" lon="2.95345">
        <ele>1073.5999755859</ele>
        <time>2024-09-15T09:01:19.000Z</time>
      </trkpt>
      <trkpt lat="45.75495" lon="2.95343">
        <ele>1073.8000488281</ele>
        <time>2024-09-15T09:01:20.000Z</time>
      </trkpt>
      <trkpt lat="45.75495" lon="2.9534">
        <ele>1074.5999755859</ele>
        <time>2024-09-15T09:01:21.000Z</time>
      </trkpt>
      <trkpt lat="45.75494" lon="2.95338">
        <ele>1074.8000488281</ele>
        <time>2024-09-15T09:01:22.000Z</time>
      </trkpt>
      <trkpt lat="45.75494" lon="2.95335">
        <ele>1075</ele>
        <time>2024-09-15T09:01:23.000Z</time>
      </trkpt>
      <trkpt lat="45.75493" lon="2.95333">
        <ele>1075.4000244141</ele>
        <time>2024-09-15T09:01:24.000Z</time>
      </trkpt>
      <trkpt lat="45.75493" lon="2.95331">
        <ele>1075.5999755859</ele>
        <time>2024-09-15T09:01:25.000Z</time>
      </trkpt>
      <trkpt lat="45.75493" lon="2.95329">
        <ele>1076</ele>
        <time>2024-09-15T09:01:26.000Z</time>
      </trkpt>
      <trkpt lat="45.75493" lon="2.95327">
        <ele>1076.5999755859</ele>
        <time>2024-09-15T09:01:27.000Z</time>
      </trkpt>
      <trkpt lat="45.75493" lon="2.95324">
        <ele>1076.8000488281</ele>
        <time>2024-09-15T09:01:28.000Z</time>
      </trkpt>
      <trkpt lat="45.75493" lon="2.95322">
        <ele>1077.1999511719</ele>
        <time>2024-09-15T09:01:29.000Z</time>
      </trkpt>
      <trkpt lat="45.75493" lon="2.95321">
        <ele>1077.1999511719</ele>
        <time>2024-09-15T09:01:30.000Z</time>
      </trkpt>
      <trkpt lat="45.75493" lon="2.95318">
        <ele>1077.4000244141</ele>
        <time>2024-09-15T09:01:31.000Z</time>
      </trkpt>
      <trkpt lat="45.75493" lon="2.95316">
        <ele>1077.5999755859</ele>
        <time>2024-09-15T09:01:32.000Z</time>
      </trkpt>
      <trkpt lat="45.75493" lon="2.95314">
        <ele>1077.8000488281</ele>
        <time>2024-09-15T09:01:33.000Z</time>
      </trkpt>
      <trkpt lat="45.75493" lon="2.95312">
        <ele>1078</ele>
        <time>2024-09-15T09:01:34.000Z</time>
      </trkpt>
      <trkpt lat="45.75492" lon="2.95309">
        <ele>1078.1999511719</ele>
        <time>2024-09-15T09:01:35.000Z</time>
      </trkpt>
      <trkpt lat="45.75492" lon="2.95307">
        <ele>1078.5999755859</ele>
        <time>2024-09-15T09:01:36.000Z</time>
      </trkpt>
      <trkpt lat="45.75491" lon="2.95305">
        <ele>1078.8000488281</ele>
        <time>2024-09-15T09:01:37.000Z</time>
      </trkpt>
      <trkpt lat="45.75491" lon="2.95303">
        <ele>1079.4000244141</ele>
        <time>2024-09-15T09:01:38.000Z</time>
      </trkpt>
      <trkpt lat="45.75491" lon="2.953">
        <ele>1079.8000488281</ele>
        <time>2024-09-15T09:01:39.000Z</time>
      </trkpt>
      <trkpt lat="45.7549" lon="2.95297">
        <ele>1080</ele>
        <time>2024-09-15T09:01:40.000Z</time>
      </trkpt>
      <trkpt lat="45.7549" lon="2.95294">
        <ele>1080.1999511719</ele>
        <time>2024-09-15T09:01:41.000Z</time>
      </trkpt>
      <trkpt lat="45.75489" lon="2.95291">
        <ele>1080.1999511719</ele>
        <time>2024-09-15T09:01:42.000Z</time>
      </trkpt>
      <trkpt lat="45.75489" lon="2.95288">
        <ele>1080.4000244141</ele>
        <time>2024-09-15T09:01:43.000Z</time>
      </trkpt>
      <trkpt lat="45.75489" lon="2.95285">
        <ele>1080.4000244141</ele>
        <time>2024-09-15T09:01:44.000Z</time>
      </trkpt>
      <trkpt lat="45.75488" lon="2.95282">
        <ele>1080.5999755859</ele>
        <time>2024-09-15T09:01:45.000Z</time>
      </trkpt>
      <trkpt lat="45.75487" lon="2.95279">
        <ele>1080.8000488281</ele>
        <time>2024-09-15T09:01:46.000Z</time>
      </trkpt>
      <trkpt lat="45.75487" lon="2.95276">
        <ele>1081</ele>
        <time>2024-09-15T09:01:47.000Z</time>
      </trkpt>
      <trkpt lat="45.75487" lon="2.95273">
        <ele>1081</ele>
        <time>2024-09-15T09:01:48.000Z</time>
      </trkpt>
      <trkpt lat="45.75486" lon="2.9527">
        <ele>1081.1999511719</ele>
        <time>2024-09-15T09:01:49.000Z</time>
      </trkpt>
      <trkpt lat="45.75486" lon="2.95268">
        <ele>1081.5999755859</ele>
        <time>2024-09-15T09:01:50.000Z</time>
      </trkpt>
      <trkpt lat="45.75486" lon="2.95265">
        <ele>1081.5999755859</ele>
        <time>2024-09-15T09:01:51.000Z</time>
      </trkpt>
      <trkpt lat="45.75485" lon="2.95262">
        <ele>1081.8000488281</ele>
        <time>2024-09-15T09:01:52.000Z</time>
      </trkpt>
      <trkpt lat="45.75485" lon="2.9526">
        <ele>1082</ele>
        <time>2024-09-15T09:01:53.000Z</time>
      </trkpt>
      <trkpt lat="45.75484" lon="2.95257">
        <ele>1082.4000244141</ele>
        <time>2024-09-15T09:01:54.000Z</time>
      </trkpt>
      <trkpt lat="45.75484" lon="2.95254">
        <ele>1082.8000488281</ele>
        <time>2024-09-15T09:01:55.000Z</time>
      </trkpt>
      <trkpt lat="45.75484" lon="2.95251">
        <ele>1083.1999511719</ele>
        <time>2024-09-15T09:01:56.000Z</time>
      </trkpt>
      <trkpt lat="45.75483" lon="2.95248">
        <ele>1083.4000244141</ele>
        <time>2024-09-15T09:01:57.000Z</time>
      </trkpt>
      <trkpt lat="45.75483" lon="2.95245">
        <ele>1083.5999755859</ele>
        <time>2024-09-15T09:01:58.000Z</time>
      </trkpt>
      <trkpt lat="45.75483" lon="2.95241">
        <ele>1083.8000488281</ele>
        <time>2024-09-15T09:01:59.000Z</time>
      </trkpt>
      <trkpt lat="45.75483" lon="2.95239">
        <ele>1084</ele>
        <time>2024-09-15T09:02:00.000Z</time>
      </trkpt>
      <trkpt lat="45.75483" lon="2.95236">
        <ele>1084.4000244141</ele>
        <time>2024-09-15T09:02:01.000Z</time>
      </trkpt>
      <trkpt lat="45.75483" lon="2.95234">
        <ele>1084.4000244141</ele>
        <time>2024-09-15T09:02:02.000Z</time>
      </trkpt>
      <trkpt lat="45.75483" lon="2.95232">
        <ele>1084.5999755859</ele>
        <time>2024-09-15T09:02:03.000Z</time>
      </trkpt>
      <trkpt lat="45.75483" lon="2.95229">
        <ele>1084.8000488281</ele>
        <time>2024-09-15T09:02:04.000Z</time>
      </trkpt>
      <trkpt lat="45.75483" lon="2.95226">
        <ele>1085.4000244141</ele>
        <time>2024-09-15T09:02:05.000Z</time>
      </trkpt>
      <trkpt lat="45.75484" lon="2.95224">
        <ele>1085.5999755859</ele>
        <time>2024-09-15T09:02:06.000Z</time>
      </trkpt>
      <trkpt lat="45.75484" lon="2.95221">
        <ele>1085.8000488281</ele>
        <time>2024-09-15T09:02:07.000Z</time>
      </trkpt>
      <trkpt lat="45.75485" lon="2.95219">
        <ele>1086.1999511719</ele>
        <time>2024-09-15T09:02:08.000Z</time>
      </trkpt>
      <trkpt lat="45.75485" lon="2.95217">
        <ele>1086.4000244141</ele>
        <time>2024-09-15T09:02:09.000Z</time>
      </trkpt>
      <trkpt lat="45.75485" lon="2.95215">
        <ele>1087</ele>
        <time>2024-09-15T09:02:10.000Z</time>
      </trkpt>
      <trkpt lat="45.75486" lon="2.95213">
        <ele>1087.1999511719</ele>
        <time>2024-09-15T09:02:11.000Z</time>
      </trkpt>
      <trkpt lat="45.75487" lon="2.9521">
        <ele>1087.4000244141</ele>
        <time>2024-09-15T09:02:12.000Z</time>
      </trkpt>
      <trkpt lat="45.75487" lon="2.95208">
        <ele>1088.1999511719</ele>
        <time>2024-09-15T09:02:13.000Z</time>
      </trkpt>
      <trkpt lat="45.75487" lon="2.95205">
        <ele>1088.4000244141</ele>
        <time>2024-09-15T09:02:14.000Z</time>
      </trkpt>
      <trkpt lat="45.75488" lon="2.95202">
        <ele>1088.4000244141</ele>
        <time>2024-09-15T09:02:15.000Z</time>
      </trkpt>
      <trkpt lat="45.75488" lon="2.952">
        <ele>1088.5999755859</ele>
        <time>2024-09-15T09:02:16.000Z</time>
      </trkpt>
      <trkpt lat="45.75489" lon="2.95198">
        <ele>1088.8000488281</ele>
        <time>2024-09-15T09:02:17.000Z</time>
      </trkpt>
      <trkpt lat="45.75489" lon="2.95195">
        <ele>1089.1999511719</ele>
        <time>2024-09-15T09:02:18.000Z</time>
      </trkpt>
      <trkpt lat="45.7549" lon="2.95192">
        <ele>1089.5999755859</ele>
        <time>2024-09-15T09:02:19.000Z</time>
      </trkpt>
      <trkpt lat="45.7549" lon="2.95189">
        <ele>1089.8000488281</ele>
        <time>2024-09-15T09:02:20.000Z</time>
      </trkpt>
      <trkpt lat="45.7549" lon="2.95186">
        <ele>1090</ele>
        <time>2024-09-15T09:02:21.000Z</time>
      </trkpt>
      <trkpt lat="45.7549" lon="2.95182">
        <ele>1090.1999511719</ele>
        <time>2024-09-15T09:02:22.000Z</time>
      </trkpt>
      <trkpt lat="45.75491" lon="2.95179">
        <ele>1090.4000244141</ele>
        <time>2024-09-15T09:02:23.000Z</time>
      </trkpt>
      <trkpt lat="45.75491" lon="2.95176">
        <ele>1090.5999755859</ele>
        <time>2024-09-15T09:02:24.000Z</time>
      </trkpt>
      <trkpt lat="45.75492" lon="2.95173">
        <ele>1090.5999755859</ele>
        <time>2024-09-15T09:02:25.000Z</time>
      </trkpt>
      <trkpt lat="45.75492" lon="2.9517">
        <ele>1090.8000488281</ele>
        <time>2024-09-15T09:02:26.000Z</time>
      </trkpt>
      <trkpt lat="45.75493" lon="2.95167">
        <ele>1091</ele>
        <time>2024-09-15T09:02:27.000Z</time>
      </trkpt>
      <trkpt lat="45.75493" lon="2.95163">
        <ele>1091.4000244141</ele>
        <time>2024-09-15T09:02:28.000Z</time>
      </trkpt>
      <trkpt lat="45.75494" lon="2.9516">
        <ele>1091.5999755859</ele>
        <time>2024-09-15T09:02:29.000Z</time>
      </trkpt>
      <trkpt lat="45.75494" lon="2.95156">
        <ele>1091.8000488281</ele>
        <time>2024-09-15T09:02:30.000Z</time>
      </trkpt>
      <trkpt lat="45.75495" lon="2.95153">
        <ele>1091.8000488281</ele>
        <time>2024-09-15T09:02:31.000Z</time>
      </trkpt>
      <trkpt lat="45.75495" lon="2.95149">
        <ele>1092</ele>
        <time>2024-09-15T09:02:32.000Z</time>
      </trkpt>
      <trkpt lat="45.75495" lon="2.95146">
        <ele>1092.1999511719</ele>
        <time>2024-09-15T09:02:33.000Z</time>
      </trkpt>
      <trkpt lat="45.75495" lon="2.95142">
        <ele>1092.1999511719</ele>
        <time>2024-09-15T09:02:34.000Z</time>
      </trkpt>
      <trkpt lat="45.75496" lon="2.95139">
        <ele>1092.4000244141</ele>
        <time>2024-09-15T09:02:35.000Z</time>
      </trkpt>
      <trkpt lat="45.75496" lon="2.95135">
        <ele>1092.5999755859</ele>
        <time>2024-09-15T09:02:36.000Z</time>
      </trkpt>
      <trkpt lat="45.75497" lon="2.95131">
        <ele>1092.5999755859</ele>
        <time>2024-09-15T09:02:37.000Z</time>
      </trkpt>
      <trkpt lat="45.75497" lon="2.95127">
        <ele>1092.8000488281</ele>
        <time>2024-09-15T09:02:38.000Z</time>
      </trkpt>
      <trkpt lat="45.75499" lon="2.95123">
        <ele>1093</ele>
        <time>2024-09-15T09:02:39.000Z</time>
      </trkpt>
      <trkpt lat="45.755" lon="2.95121">
        <ele>1093</ele>
        <time>2024-09-15T09:02:40.000Z</time>
      </trkpt>
      <trkpt lat="45.75501" lon="2.95117">
        <ele>1093</ele>
        <time>2024-09-15T09:02:41.000Z</time>
      </trkpt>
      <trkpt lat="45.75502" lon="2.95115">
        <ele>1093.1999511719</ele>
        <time>2024-09-15T09:02:42.000Z</time>
      </trkpt>
      <trkpt lat="45.75504" lon="2.95112">
        <ele>1093.1999511719</ele>
        <time>2024-09-15T09:02:43.000Z</time>
      </trkpt>
      <trkpt lat="45.75504" lon="2.95109">
        <ele>1093</ele>
        <time>2024-09-15T09:02:44.000Z</time>
      </trkpt>
      <trkpt lat="45.75505" lon="2.95105">
        <ele>1093</ele>
        <time>2024-09-15T09:02:45.000Z</time>
      </trkpt>
      <trkpt lat="45.75507" lon="2.95102">
        <ele>1092.8000488281</ele>
        <time>2024-09-15T09:02:46.000Z</time>
      </trkpt>
      <trkpt lat="45.75507" lon="2.95098">
        <ele>1092.8000488281</ele>
        <time>2024-09-15T09:02:47.000Z</time>
      </trkpt>
      <trkpt lat="45.75508" lon="2.95094">
        <ele>1092.5999755859</ele>
        <time>2024-09-15T09:02:48.000Z</time>
      </trkpt>
      <trkpt lat="45.75509" lon="2.95089">
        <ele>1092.5999755859</ele>
        <time>2024-09-15T09:02:49.000Z</time>
      </trkpt>
      <trkpt lat="45.75509" lon="2.95085">
        <ele>1092.4000244141</ele>
        <time>2024-09-15T09:02:50.000Z</time>
      </trkpt>
      <trkpt lat="45.75509" lon="2.95081">
        <ele>1092.1999511719</ele>
        <time>2024-09-15T09:02:51.000Z</time>
      </trkpt>
      <trkpt lat="45.7551" lon="2.95078">
        <ele>1091.5999755859</ele>
        <time>2024-09-15T09:02:52.000Z</time>
      </trkpt>
      <trkpt lat="45.7551" lon="2.95075">
        <ele>1091.4000244141</ele>
        <time>2024-09-15T09:02:53.000Z</time>
      </trkpt>
      <trkpt lat="45.7551" lon="2.95071">
        <ele>1090.8000488281</ele>
        <time>2024-09-15T09:02:54.000Z</time>
      </trkpt>
      <trkpt lat="45.7551" lon="2.95069">
        <ele>1090.4000244141</ele>
        <time>2024-09-15T09:02:55.000Z</time>
      </trkpt>
      <trkpt lat="45.75512" lon="2.95067">
        <ele>1089.8000488281</ele>
        <time>2024-09-15T09:02:56.000Z</time>
      </trkpt>
      <trkpt lat="45.75515" lon="2.95065">
        <ele>1089.8000488281</ele>
        <time>2024-09-15T09:02:57.000Z</time>
      </trkpt>
      <trkpt lat="45.75516" lon="2.95064">
        <ele>1089.8000488281</ele>
        <time>2024-09-15T09:02:58.000Z</time>
      </trkpt>
      <trkpt lat="45.75518" lon="2.95062">
        <ele>1089.8000488281</ele>
        <time>2024-09-15T09:02:59.000Z</time>
      </trkpt>
      <trkpt lat="45.7552" lon="2.95061">
        <ele>1090</ele>
        <time>2024-09-15T09:03:00.000Z</time>
      </trkpt>
      <trkpt lat="45.75522" lon="2.9506">
        <ele>1090</ele>
        <time>2024-09-15T09:03:01.000Z</time>
      </trkpt>
      <trkpt lat="45.75524" lon="2.95059">
        <ele>1090.4000244141</ele>
        <time>2024-09-15T09:03:02.000Z</time>
      </trkpt>
      <trkpt lat="45.75525" lon="2.95058">
        <ele>1090.5999755859</ele>
        <time>2024-09-15T09:03:03.000Z</time>
      </trkpt>
      <trkpt lat="45.75528" lon="2.95057">
        <ele>1090.8000488281</ele>
        <time>2024-09-15T09:03:04.000Z</time>
      </trkpt>
      <trkpt lat="45.7553" lon="2.95055">
        <ele>1090.8000488281</ele>
        <time>2024-09-15T09:03:05.000Z</time>
      </trkpt>
      <trkpt lat="45.75533" lon="2.95054">
        <ele>1091</ele>
        <time>2024-09-15T09:03:06.000Z</time>
      </trkpt>
      <trkpt lat="45.75535" lon="2.95052">
        <ele>1091.1999511719</ele>
        <time>2024-09-15T09:03:07.000Z</time>
      </trkpt>
      <trkpt lat="45.75538" lon="2.9505">
        <ele>1091.4000244141</ele>
        <time>2024-09-15T09:03:08.000Z</time>
      </trkpt>
      <trkpt lat="45.7554" lon="2.95049">
        <ele>1091.5999755859</ele>
        <time>2024-09-15T09:03:09.000Z</time>
      </trkpt>
      <trkpt lat="45.75542" lon="2.95047">
        <ele>1091.5999755859</ele>
        <time>2024-09-15T09:03:10.000Z</time>
      </trkpt>
      <trkpt lat="45.75545" lon="2.95045">
        <ele>1091.8000488281</ele>
        <time>2024-09-15T09:03:11.000Z</time>
      </trkpt>
      <trkpt lat="45.75547" lon="2.95043">
        <ele>1092</ele>
        <time>2024-09-15T09:03:12.000Z</time>
      </trkpt>
      <trkpt lat="45.7555" lon="2.9504">
        <ele>1092.1999511719</ele>
        <time>2024-09-15T09:03:13.000Z</time>
      </trkpt>
      <trkpt lat="45.75552" lon="2.95038">
        <ele>1092.1999511719</ele>
        <time>2024-09-15T09:03:14.000Z</time>
      </trkpt>
      <trkpt lat="45.75555" lon="2.95036">
        <ele>1092.4000244141</ele>
        <time>2024-09-15T09:03:15.000Z</time>
      </trkpt>
      <trkpt lat="45.75557" lon="2.95035">
        <ele>1092.5999755859</ele>
        <time>2024-09-15T09:03:16.000Z</time>
      </trkpt>
      <trkpt lat="45.7556" lon="2.95033">
        <ele>1092.5999755859</ele>
        <time>2024-09-15T09:03:17.000Z</time>
      </trkpt>
      <trkpt lat="45.75562" lon="2.9503">
        <ele>1092.8000488281</ele>
        <time>2024-09-15T09:03:18.000Z</time>
      </trkpt>
      <trkpt lat="45.75564" lon="2.95028">
        <ele>1092.8000488281</ele>
        <time>2024-09-15T09:03:19.000Z</time>
      </trkpt>
      <trkpt lat="45.75567" lon="2.95025">
        <ele>1093</ele>
        <time>2024-09-15T09:03:20.000Z</time>
      </trkpt>
      <trkpt lat="45.7557" lon="2.95024">
        <ele>1093.1999511719</ele>
        <time>2024-09-15T09:03:21.000Z</time>
      </trkpt>
      <trkpt lat="45.75573" lon="2.95022">
        <ele>1093.1999511719</ele>
        <time>2024-09-15T09:03:22.000Z</time>
      </trkpt>
      <trkpt lat="45.75576" lon="2.95021">
        <ele>1093.4000244141</ele>
        <time>2024-09-15T09:03:23.000Z</time>
      </trkpt>
      <trkpt lat="45.75578" lon="2.9502">
        <ele>1093.5999755859</ele>
        <time>2024-09-15T09:03:24.000Z</time>
      </trkpt>
      <trkpt lat="45.7558" lon="2.95019">
        <ele>1093.5999755859</ele>
        <time>2024-09-15T09:03:25.000Z</time>
      </trkpt>
      <trkpt lat="45.75582" lon="2.95018">
        <ele>1093.8000488281</ele>
        <time>2024-09-15T09:03:26.000Z</time>
      </trkpt>
      <trkpt lat="45.75585" lon="2.95017">
        <ele>1093.8000488281</ele>
        <time>2024-09-15T09:03:27.000Z</time>
      </trkpt>
      <trkpt lat="45.75586" lon="2.95015">
        <ele>1094</ele>
        <time>2024-09-15T09:03:28.000Z</time>
      </trkpt>
      <trkpt lat="45.75588" lon="2.95014">
        <ele>1094</ele>
        <time>2024-09-15T09:03:29.000Z</time>
      </trkpt>
      <trkpt lat="45.7559" lon="2.95014">
        <ele>1094.1999511719</ele>
        <time>2024-09-15T09:03:30.000Z</time>
      </trkpt>
      <trkpt lat="45.75593" lon="2.95014">
        <ele>1094.1999511719</ele>
        <time>2024-09-15T09:03:31.000Z</time>
      </trkpt>
      <trkpt lat="45.75595" lon="2.95014">
        <ele>1094.1999511719</ele>
        <time>2024-09-15T09:03:32.000Z</time>
      </trkpt>
      <trkpt lat="45.75598" lon="2.95013">
        <ele>1094.1999511719</ele>
        <time>2024-09-15T09:03:33.000Z</time>
      </trkpt>
      <trkpt lat="45.756" lon="2.95013">
        <ele>1094.1999511719</ele>
        <time>2024-09-15T09:03:34.000Z</time>
      </trkpt>
      <trkpt lat="45.75603" lon="2.95012">
        <ele>1094.1999511719</ele>
        <time>2024-09-15T09:03:35.000Z</time>
      </trkpt>
      <trkpt lat="45.75605" lon="2.95011">
        <ele>1094.1999511719</ele>
        <time>2024-09-15T09:03:36.000Z</time>
      </trkpt>
      <trkpt lat="45.75608" lon="2.9501">
        <ele>1094.4000244141</ele>
        <time>2024-09-15T09:03:37.000Z</time>
      </trkpt>
      <trkpt lat="45.7561" lon="2.95008">
        <ele>1094.4000244141</ele>
        <time>2024-09-15T09:03:38.000Z</time>
      </trkpt>
      <trkpt lat="45.75612" lon="2.95006">
        <ele>1094.5999755859</ele>
        <time>2024-09-15T09:03:39.000Z</time>
      </trkpt>
      <trkpt lat="45.75614" lon="2.95004">
        <ele>1094.8000488281</ele>
        <time>2024-09-15T09:03:40.000Z</time>
      </trkpt>
      <trkpt lat="45.75615" lon="2.95001">
        <ele>1094.8000488281</ele>
        <time>2024-09-15T09:03:41.000Z</time>
      </trkpt>
      <trkpt lat="45.75616" lon="2.94999">
        <ele>1095</ele>
        <time>2024-09-15T09:03:42.000Z</time>
      </trkpt>
      <trkpt lat="45.75618" lon="2.94996">
        <ele>1095</ele>
        <time>2024-09-15T09:03:43.000Z</time>
      </trkpt>
      <trkpt lat="45.75619" lon="2.94993">
        <ele>1095</ele>
        <time>2024-09-15T09:03:44.000Z</time>
      </trkpt>
      <trkpt lat="45.75621" lon="2.9499">
        <ele>1095.1999511719</ele>
        <time>2024-09-15T09:03:45.000Z</time>
      </trkpt>
      <trkpt lat="45.75623" lon="2.94988">
        <ele>1095.1999511719</ele>
        <time>2024-09-15T09:03:46.000Z</time>
      </trkpt>
      <trkpt lat="45.75625" lon="2.94986">
        <ele>1095.4000244141</ele>
        <time>2024-09-15T09:03:47.000Z</time>
      </trkpt>
      <trkpt lat="45.75627" lon="2.94984">
        <ele>1095.4000244141</ele>
        <time>2024-09-15T09:03:48.000Z</time>
      </trkpt>
      <trkpt lat="45.75629" lon="2.94982">
        <ele>1095.4000244141</ele>
        <time>2024-09-15T09:03:49.000Z</time>
      </trkpt>
      <trkpt lat="45.75632" lon="2.9498">
        <ele>1095.5999755859</ele>
        <time>2024-09-15T09:03:50.000Z</time>
      </trkpt>
      <trkpt lat="45.75634" lon="2.94978">
        <ele>1095.5999755859</ele>
        <time>2024-09-15T09:03:51.000Z</time>
      </trkpt>
      <trkpt lat="45.75637" lon="2.94977">
        <ele>1095.5999755859</ele>
        <time>2024-09-15T09:03:52.000Z</time>
      </trkpt>
      <trkpt lat="45.7564" lon="2.94975">
        <ele>1095.8000488281</ele>
        <time>2024-09-15T09:03:53.000Z</time>
      </trkpt>
      <trkpt lat="45.75642" lon="2.94975">
        <ele>1095.8000488281</ele>
        <time>2024-09-15T09:03:54.000Z</time>
      </trkpt>
      <trkpt lat="45.75645" lon="2.94974">
        <ele>1095.8000488281</ele>
        <time>2024-09-15T09:03:55.000Z</time>
      </trkpt>
      <trkpt lat="45.75648" lon="2.94972">
        <ele>1095.8000488281</ele>
        <time>2024-09-15T09:03:56.000Z</time>
      </trkpt>
      <trkpt lat="45.75651" lon="2.9497">
        <ele>1095.8000488281</ele>
        <time>2024-09-15T09:03:57.000Z</time>
      </trkpt>
      <trkpt lat="45.75655" lon="2.94969">
        <ele>1095.5999755859</ele>
        <time>2024-09-15T09:03:58.000Z</time>
      </trkpt>
      <trkpt lat="45.75658" lon="2.94966">
        <ele>1095.5999755859</ele>
        <time>2024-09-15T09:03:59.000Z</time>
      </trkpt>
      <trkpt lat="45.75662" lon="2.94963">
        <ele>1095</ele>
        <time>2024-09-15T09:04:00.000Z</time>
      </trkpt>
      <trkpt lat="45.75664" lon="2.9496">
        <ele>1094.5999755859</ele>
        <time>2024-09-15T09:04:01.000Z</time>
      </trkpt>
      <trkpt lat="45.75667" lon="2.94957">
        <ele>1093.8000488281</ele>
        <time>2024-09-15T09:04:02.000Z</time>
      </trkpt>
      <trkpt lat="45.75669" lon="2.94954">
        <ele>1093.4000244141</ele>
        <time>2024-09-15T09:04:03.000Z</time>
      </trkpt>
      <trkpt lat="45.75671" lon="2.94951">
        <ele>1092.8000488281</ele>
        <time>2024-09-15T09:04:04.000Z</time>
      </trkpt>
      <trkpt lat="45.75674" lon="2.94948">
        <ele>1092.4000244141</ele>
        <time>2024-09-15T09:04:05.000Z</time>
      </trkpt>
      <trkpt lat="45.75677" lon="2.94945">
        <ele>1091.8000488281</ele>
        <time>2024-09-15T09:04:06.000Z</time>
      </trkpt>
      <trkpt lat="45.75679" lon="2.94942">
        <ele>1091.4000244141</ele>
        <time>2024-09-15T09:04:07.000Z</time>
      </trkpt>
      <trkpt lat="45.75681" lon="2.94939">
        <ele>1091.1999511719</ele>
        <time>2024-09-15T09:04:08.000Z</time>
      </trkpt>
      <trkpt lat="45.75682" lon="2.94936">
        <ele>1089.8000488281</ele>
        <time>2024-09-15T09:04:09.000Z</time>
      </trkpt>
      <trkpt lat="45.75683" lon="2.94932">
        <ele>1089</ele>
        <time>2024-09-15T09:04:10.000Z</time>
      </trkpt>
      <trkpt lat="45.75683" lon="2.94928">
        <ele>1088</ele>
        <time>2024-09-15T09:04:11.000Z</time>
      </trkpt>
      <trkpt lat="45.75683" lon="2.94923">
        <ele>1087.1999511719</ele>
        <time>2024-09-15T09:04:12.000Z</time>
      </trkpt>
      <trkpt lat="45.75684" lon="2.94918">
        <ele>1086.5999755859</ele>
        <time>2024-09-15T09:04:13.000Z</time>
      </trkpt>
      <trkpt lat="45.75685" lon="2.94913">
        <ele>1086</ele>
        <time>2024-09-15T09:04:14.000Z</time>
      </trkpt>
      <trkpt lat="45.75687" lon="2.94908">
        <ele>1085.1999511719</ele>
        <time>2024-09-15T09:04:15.000Z</time>
      </trkpt>
      <trkpt lat="45.75688" lon="2.94904">
        <ele>1083.8000488281</ele>
        <time>2024-09-15T09:04:16.000Z</time>
      </trkpt>
      <trkpt lat="45.7569" lon="2.94902">
        <ele>1082.8000488281</ele>
        <time>2024-09-15T09:04:17.000Z</time>
      </trkpt>
      <trkpt lat="45.75693" lon="2.949">
        <ele>1081.8000488281</ele>
        <time>2024-09-15T09:04:18.000Z</time>
      </trkpt>
      <trkpt lat="45.75695" lon="2.94898">
        <ele>1081.4000244141</ele>
        <time>2024-09-15T09:04:19.000Z</time>
      </trkpt>
      <trkpt lat="45.75698" lon="2.94895">
        <ele>1080.5999755859</ele>
        <time>2024-09-15T09:04:20.000Z</time>
      </trkpt>
      <trkpt lat="45.757" lon="2.94893">
        <ele>1079.4000244141</ele>
        <time>2024-09-15T09:04:21.000Z</time>
      </trkpt>
      <trkpt lat="45.75703" lon="2.94891">
        <ele>1078.8000488281</ele>
        <time>2024-09-15T09:04:22.000Z</time>
      </trkpt>
      <trkpt lat="45.75706" lon="2.94888">
        <ele>1077.5999755859</ele>
        <time>2024-09-15T09:04:23.000Z</time>
      </trkpt>
      <trkpt lat="45.75709" lon="2.94886">
        <ele>1077</ele>
        <time>2024-09-15T09:04:24.000Z</time>
      </trkpt>
      <trkpt lat="45.75712" lon="2.94883">
        <ele>1076.1999511719</ele>
        <time>2024-09-15T09:04:25.000Z</time>
      </trkpt>
      <trkpt lat="45.75715" lon="2.9488">
        <ele>1075.1999511719</ele>
        <time>2024-09-15T09:04:26.000Z</time>
      </trkpt>
      <trkpt lat="45.75718" lon="2.94878">
        <ele>1074.5999755859</ele>
        <time>2024-09-15T09:04:27.000Z</time>
      </trkpt>
      <trkpt lat="45.75721" lon="2.94875">
        <ele>1073.8000488281</ele>
        <time>2024-09-15T09:04:28.000Z</time>
      </trkpt>
      <trkpt lat="45.75723" lon="2.94873">
        <ele>1073.1999511719</ele>
        <time>2024-09-15T09:04:29.000Z</time>
      </trkpt>
      <trkpt lat="45.75725" lon="2.94871">
        <ele>1073.1999511719</ele>
        <time>2024-09-15T09:04:30.000Z</time>
      </trkpt>
      <trkpt lat="45.75728" lon="2.94868">
        <ele>1072.1999511719</ele>
        <time>2024-09-15T09:04:31.000Z</time>
      </trkpt>
      <trkpt lat="45.7573" lon="2.94866">
        <ele>1071.1999511719</ele>
        <time>2024-09-15T09:04:32.000Z</time>
      </trkpt>
      <trkpt lat="45.75732" lon="2.94863">
        <ele>1070.4000244141</ele>
        <time>2024-09-15T09:04:33.000Z</time>
      </trkpt>
      <trkpt lat="45.75734" lon="2.9486">
        <ele>1070</ele>
        <time>2024-09-15T09:04:34.000Z</time>
      </trkpt>
      <trkpt lat="45.75737" lon="2.94859">
        <ele>1069.4000244141</ele>
        <time>2024-09-15T09:04:35.000Z</time>
      </trkpt>
      <trkpt lat="45.75741" lon="2.94857">
        <ele>1068.8000488281</ele>
        <time>2024-09-15T09:04:36.000Z</time>
      </trkpt>
      <trkpt lat="45.75743" lon="2.94855">
        <ele>1068.1999511719</ele>
        <time>2024-09-15T09:04:37.000Z</time>
      </trkpt>
      <trkpt lat="45.75746" lon="2.94853">
        <ele>1067</ele>
        <time>2024-09-15T09:04:38.000Z</time>
      </trkpt>
      <trkpt lat="45.75749" lon="2.94852">
        <ele>1066.4000244141</ele>
        <time>2024-09-15T09:04:39.000Z</time>
      </trkpt>
      <trkpt lat="45.75752" lon="2.9485">
        <ele>1065.8000488281</ele>
        <time>2024-09-15T09:04:40.000Z</time>
      </trkpt>
      <trkpt lat="45.75755" lon="2.94851">
        <ele>1065.1999511719</ele>
        <time>2024-09-15T09:04:41.000Z</time>
      </trkpt>
      <trkpt lat="45.75757" lon="2.94851">
        <ele>1064.4000244141</ele>
        <time>2024-09-15T09:04:42.000Z</time>
      </trkpt>
      <trkpt lat="45.7576" lon="2.9485">
        <ele>1063.5999755859</ele>
        <time>2024-09-15T09:04:43.000Z</time>
      </trkpt>
      <trkpt lat="45.75762" lon="2.9485">
        <ele>1062</ele>
        <time>2024-09-15T09:04:44.000Z</time>
      </trkpt>
      <trkpt lat="45.75766" lon="2.9485">
        <ele>1061</ele>
        <time>2024-09-15T09:04:45.000Z</time>
      </trkpt>
      <trkpt lat="45.75769" lon="2.94852">
        <ele>1060</ele>
        <time>2024-09-15T09:04:46.000Z</time>
      </trkpt>
      <trkpt lat="45.75771" lon="2.94854">
        <ele>1059.8000488281</ele>
        <time>2024-09-15T09:04:47.000Z</time>
      </trkpt>
      <trkpt lat="45.75772" lon="2.94857">
        <ele>1059.4000244141</ele>
        <time>2024-09-15T09:04:48.000Z</time>
      </trkpt>
      <trkpt lat="45.75774" lon="2.9486">
        <ele>1058.4000244141</ele>
        <time>2024-09-15T09:04:49.000Z</time>
      </trkpt>
      <trkpt lat="45.75775" lon="2.94862">
        <ele>1057.8000488281</ele>
        <time>2024-09-15T09:04:50.000Z</time>
      </trkpt>
      <trkpt lat="45.75777" lon="2.94864">
        <ele>1057</ele>
        <time>2024-09-15T09:04:51.000Z</time>
      </trkpt>
      <trkpt lat="45.75779" lon="2.94866">
        <ele>1056.5999755859</ele>
        <time>2024-09-15T09:04:52.000Z</time>
      </trkpt>
      <trkpt lat="45.75781" lon="2.94867">
        <ele>1056.1999511719</ele>
        <time>2024-09-15T09:04:53.000Z</time>
      </trkpt>
      <trkpt lat="45.75783" lon="2.94868">
        <ele>1055.4000244141</ele>
        <time>2024-09-15T09:04:54.000Z</time>
      </trkpt>
      <trkpt lat="45.75786" lon="2.94869">
        <ele>1054.1999511719</ele>
        <time>2024-09-15T09:04:55.000Z</time>
      </trkpt>
      <trkpt lat="45.7579" lon="2.94871">
        <ele>1053.5999755859</ele>
        <time>2024-09-15T09:04:56.000Z</time>
      </trkpt>
      <trkpt lat="45.75793" lon="2.94873">
        <ele>1053</ele>
        <time>2024-09-15T09:04:57.000Z</time>
      </trkpt>
      <trkpt lat="45.75796" lon="2.94877">
        <ele>1052.1999511719</ele>
        <time>2024-09-15T09:04:58.000Z</time>
      </trkpt>
      <trkpt lat="45.75798" lon="2.9488">
        <ele>1051.5999755859</ele>
        <time>2024-09-15T09:04:59.000Z</time>
      </trkpt>
      <trkpt lat="45.75801" lon="2.94883">
        <ele>1051</ele>
        <time>2024-09-15T09:05:00.000Z</time>
      </trkpt>
      <trkpt lat="45.75804" lon="2.94887">
        <ele>1049.8000488281</ele>
        <time>2024-09-15T09:05:01.000Z</time>
      </trkpt>
      <trkpt lat="45.75807" lon="2.9489">
        <ele>1049.1999511719</ele>
        <time>2024-09-15T09:05:02.000Z</time>
      </trkpt>
      <trkpt lat="45.75809" lon="2.94892">
        <ele>1048.5999755859</ele>
        <time>2024-09-15T09:05:03.000Z</time>
      </trkpt>
      <trkpt lat="45.75811" lon="2.94895">
        <ele>1048</ele>
        <time>2024-09-15T09:05:04.000Z</time>
      </trkpt>
      <trkpt lat="45.75813" lon="2.94897">
        <ele>1048</ele>
        <time>2024-09-15T09:05:05.000Z</time>
      </trkpt>
      <trkpt lat="45.75816" lon="2.949">
        <ele>1047.8000488281</ele>
        <time>2024-09-15T09:05:06.000Z</time>
      </trkpt>
      <trkpt lat="45.75818" lon="2.94903">
        <ele>1047.5999755859</ele>
        <time>2024-09-15T09:05:07.000Z</time>
      </trkpt>
      <trkpt lat="45.7582" lon="2.94906">
        <ele>1047.4000244141</ele>
        <time>2024-09-15T09:05:08.000Z</time>
      </trkpt>
      <trkpt lat="45.75822" lon="2.94909">
        <ele>1047.4000244141</ele>
        <time>2024-09-15T09:05:09.000Z</time>
      </trkpt>
      <trkpt lat="45.75824" lon="2.94911">
        <ele>1047.1999511719</ele>
        <time>2024-09-15T09:05:10.000Z</time>
      </trkpt>
      <trkpt lat="45.75827" lon="2.94913">
        <ele>1047.1999511719</ele>
        <time>2024-09-15T09:05:11.000Z</time>
      </trkpt>
      <trkpt lat="45.75829" lon="2.94914">
        <ele>1047</ele>
        <time>2024-09-15T09:05:12.000Z</time>
      </trkpt>
      <trkpt lat="45.75832" lon="2.94915">
        <ele>1046.5999755859</ele>
        <time>2024-09-15T09:05:13.000Z</time>
      </trkpt>
      <trkpt lat="45.75835" lon="2.94916">
        <ele>1046.5999755859</ele>
        <time>2024-09-15T09:05:14.000Z</time>
      </trkpt>
      <trkpt lat="45.75837" lon="2.94917">
        <ele>1046.4000244141</ele>
        <time>2024-09-15T09:05:15.000Z</time>
      </trkpt>
      <trkpt lat="45.75841" lon="2.94918">
        <ele>1046.1999511719</ele>
        <time>2024-09-15T09:05:16.000Z</time>
      </trkpt>
      <trkpt lat="45.75844" lon="2.94919">
        <ele>1046</ele>
        <time>2024-09-15T09:05:17.000Z</time>
      </trkpt>
      <trkpt lat="45.75848" lon="2.9492">
        <ele>1046</ele>
        <time>2024-09-15T09:05:18.000Z</time>
      </trkpt>
      <trkpt lat="45.75852" lon="2.9492">
        <ele>1045.8000488281</ele>
        <time>2024-09-15T09:05:19.000Z</time>
      </trkpt>
      <trkpt lat="45.75856" lon="2.9492">
        <ele>1045.5999755859</ele>
        <time>2024-09-15T09:05:20.000Z</time>
      </trkpt>
      <trkpt lat="45.75859" lon="2.9492">
        <ele>1045.4000244141</ele>
        <time>2024-09-15T09:05:21.000Z</time>
      </trkpt>
      <trkpt lat="45.75863" lon="2.9492">
        <ele>1045.1999511719</ele>
        <time>2024-09-15T09:05:22.000Z</time>
      </trkpt>
      <trkpt lat="45.75866" lon="2.94919">
        <ele>1044.8000488281</ele>
        <time>2024-09-15T09:05:23.000Z</time>
      </trkpt>
      <trkpt lat="45.75869" lon="2.94918">
        <ele>1044.4000244141</ele>
        <time>2024-09-15T09:05:24.000Z</time>
      </trkpt>
      <trkpt lat="45.75872" lon="2.94918">
        <ele>1044.1999511719</ele>
        <time>2024-09-15T09:05:25.000Z</time>
      </trkpt>
      <trkpt lat="45.75875" lon="2.94917">
        <ele>1044.1999511719</ele>
        <time>2024-09-15T09:05:26.000Z</time>
      </trkpt>
      <trkpt lat="45.75878" lon="2.94916">
        <ele>1044.1999511719</ele>
        <time>2024-09-15T09:05:27.000Z</time>
      </trkpt>
      <trkpt lat="45.7588" lon="2.94915">
        <ele>1044.1999511719</ele>
        <time>2024-09-15T09:05:28.000Z</time>
      </trkpt>
      <trkpt lat="45.75883" lon="2.94913">
        <ele>1044.1999511719</ele>
        <time>2024-09-15T09:05:29.000Z</time>
      </trkpt>
      <trkpt lat="45.75885" lon="2.94911">
        <ele>1044.4000244141</ele>
        <time>2024-09-15T09:05:30.000Z</time>
      </trkpt>
      <trkpt lat="45.75888" lon="2.94909">
        <ele>1044.4000244141</ele>
        <time>2024-09-15T09:05:31.000Z</time>
      </trkpt>
      <trkpt lat="45.7589" lon="2.94907">
        <ele>1044.5999755859</ele>
        <time>2024-09-15T09:05:32.000Z</time>
      </trkpt>
      <trkpt lat="45.75893" lon="2.94904">
        <ele>1044.5999755859</ele>
        <time>2024-09-15T09:05:33.000Z</time>
      </trkpt>
      <trkpt lat="45.75895" lon="2.94901">
        <ele>1044.8000488281</ele>
        <time>2024-09-15T09:05:34.000Z</time>
      </trkpt>
      <trkpt lat="45.75898" lon="2.94898">
        <ele>1044.5999755859</ele>
        <time>2024-09-15T09:05:35.000Z</time>
      </trkpt>
      <trkpt lat="45.75899" lon="2.94895">
        <ele>1044.5999755859</ele>
        <time>2024-09-15T09:05:36.000Z</time>
      </trkpt>
      <trkpt lat="45.75902" lon="2.94892">
        <ele>1044.5999755859</ele>
        <time>2024-09-15T09:05:37.000Z</time>
      </trkpt>
      <trkpt lat="45.75904" lon="2.94891">
        <ele>1044.5999755859</ele>
        <time>2024-09-15T09:05:38.000Z</time>
      </trkpt>
      <trkpt lat="45.75907" lon="2.94889">
        <ele>1044.4000244141</ele>
        <time>2024-09-15T09:05:39.000Z</time>
      </trkpt>
      <trkpt lat="45.7591" lon="2.94889">
        <ele>1044.4000244141</ele>
        <time>2024-09-15T09:05:40.000Z</time>
      </trkpt>
      <trkpt lat="45.75913" lon="2.94888">
        <ele>1044.4000244141</ele>
        <time>2024-09-15T09:05:41.000Z</time>
      </trkpt>
      <trkpt lat="45.75916" lon="2.94888">
        <ele>1044.4000244141</ele>
        <time>2024-09-15T09:05:42.000Z</time>
      </trkpt>
      <trkpt lat="45.75919" lon="2.94889">
        <ele>1044.5999755859</ele>
        <time>2024-09-15T09:05:43.000Z</time>
      </trkpt>
      <trkpt lat="45.75922" lon="2.9489">
        <ele>1044.5999755859</ele>
        <time>2024-09-15T09:05:44.000Z</time>
      </trkpt>
      <trkpt lat="45.75925" lon="2.94892">
        <ele>1044.8000488281</ele>
        <time>2024-09-15T09:05:45.000Z</time>
      </trkpt>
      <trkpt lat="45.75927" lon="2.94894">
        <ele>1044.8000488281</ele>
        <time>2024-09-15T09:05:46.000Z</time>
      </trkpt>
      <trkpt lat="45.7593" lon="2.94897">
        <ele>1045</ele>
        <time>2024-09-15T09:05:47.000Z</time>
      </trkpt>
      <trkpt lat="45.75932" lon="2.94899">
        <ele>1045.1999511719</ele>
        <time>2024-09-15T09:05:48.000Z</time>
      </trkpt>
      <trkpt lat="45.75935" lon="2.94902">
        <ele>1045.1999511719</ele>
        <time>2024-09-15T09:05:49.000Z</time>
      </trkpt>
      <trkpt lat="45.75937" lon="2.94904">
        <ele>1045.1999511719</ele>
        <time>2024-09-15T09:05:50.000Z</time>
      </trkpt>
      <trkpt lat="45.7594" lon="2.94907">
        <ele>1045.4000244141</ele>
        <time>2024-09-15T09:05:51.000Z</time>
      </trkpt>
      <trkpt lat="45.75942" lon="2.94909">
        <ele>1045.4000244141</ele>
        <time>2024-09-15T09:05:52.000Z</time>
      </trkpt>
      <trkpt lat="45.75945" lon="2.94912">
        <ele>1045.4000244141</ele>
        <time>2024-09-15T09:05:53.000Z</time>
      </trkpt>
      <trkpt lat="45.75947" lon="2.94914">
        <ele>1045.4000244141</ele>
        <time>2024-09-15T09:05:54.000Z</time>
      </trkpt>
      <trkpt lat="45.75949" lon="2.94917">
        <ele>1045.5999755859</ele>
        <time>2024-09-15T09:05:55.000Z</time>
      </trkpt>
      <trkpt lat="45.75951" lon="2.9492">
        <ele>1045.5999755859</ele>
        <time>2024-09-15T09:05:56.000Z</time>
      </trkpt>
      <trkpt lat="45.75953" lon="2.94922">
        <ele>1045.5999755859</ele>
        <time>2024-09-15T09:05:57.000Z</time>
      </trkpt>
      <trkpt lat="45.75956" lon="2.94925">
        <ele>1045.8000488281</ele>
        <time>2024-09-15T09:05:58.000Z</time>
      </trkpt>
      <trkpt lat="45.75958" lon="2.94928">
        <ele>1045.8000488281</ele>
        <time>2024-09-15T09:05:59.000Z</time>
      </trkpt>
      <trkpt lat="45.75961" lon="2.9493">
        <ele>1046</ele>
        <time>2024-09-15T09:06:00.000Z</time>
      </trkpt>
      <trkpt lat="45.75963" lon="2.94933">
        <ele>1046</ele>
        <time>2024-09-15T09:06:01.000Z</time>
      </trkpt>
      <trkpt lat="45.75965" lon="2.94935">
        <ele>1046.1999511719</ele>
        <time>2024-09-15T09:06:02.000Z</time>
      </trkpt>
      <trkpt lat="45.75967" lon="2.94937">
        <ele>1046.4000244141</ele>
        <time>2024-09-15T09:06:03.000Z</time>
      </trkpt>
      <trkpt lat="45.7597" lon="2.94939">
        <ele>1046.5999755859</ele>
        <time>2024-09-15T09:06:04.000Z</time>
      </trkpt>
      <trkpt lat="45.75972" lon="2.94941">
        <ele>1046.5999755859</ele>
        <time>2024-09-15T09:06:05.000Z</time>
      </trkpt>
      <trkpt lat="45.75974" lon="2.94943">
        <ele>1046.8000488281</ele>
        <time>2024-09-15T09:06:06.000Z</time>
      </trkpt>
      <trkpt lat="45.75976" lon="2.94945">
        <ele>1046.8000488281</ele>
        <time>2024-09-15T09:06:07.000Z</time>
      </trkpt>
      <trkpt lat="45.75979" lon="2.94946">
        <ele>1046.8000488281</ele>
        <time>2024-09-15T09:06:08.000Z</time>
      </trkpt>
      <trkpt lat="45.75981" lon="2.94947">
        <ele>1047</ele>
        <time>2024-09-15T09:06:09.000Z</time>
      </trkpt>
      <trkpt lat="45.75983" lon="2.94949">
        <ele>1047.1999511719</ele>
        <time>2024-09-15T09:06:10.000Z</time>
      </trkpt>
      <trkpt lat="45.75986" lon="2.9495">
        <ele>1047.4000244141</ele>
        <time>2024-09-15T09:06:11.000Z</time>
      </trkpt>
      <trkpt lat="45.75988" lon="2.94952">
        <ele>1047.4000244141</ele>
        <time>2024-09-15T09:06:12.000Z</time>
      </trkpt>
      <trkpt lat="45.75991" lon="2.94955">
        <ele>1048</ele>
        <time>2024-09-15T09:06:13.000Z</time>
      </trkpt>
      <trkpt lat="45.75993" lon="2.94957">
        <ele>1048</ele>
        <time>2024-09-15T09:06:14.000Z</time>
      </trkpt>
      <trkpt lat="45.75994" lon="2.94959">
        <ele>1048.1999511719</ele>
        <time>2024-09-15T09:06:15.000Z</time>
      </trkpt>
      <trkpt lat="45.75996" lon="2.94961">
        <ele>1048.4000244141</ele>
        <time>2024-09-15T09:06:16.000Z</time>
      </trkpt>
      <trkpt lat="45.75998" lon="2.94963">
        <ele>1048.5999755859</ele>
        <time>2024-09-15T09:06:17.000Z</time>
      </trkpt>
      <trkpt lat="45.76001" lon="2.94964">
        <ele>1048.8000488281</ele>
        <time>2024-09-15T09:06:18.000Z</time>
      </trkpt>
      <trkpt lat="45.76003" lon="2.94966">
        <ele>1049.1999511719</ele>
        <time>2024-09-15T09:06:19.000Z</time>
      </trkpt>
      <trkpt lat="45.76006" lon="2.94968">
        <ele>1049.4000244141</ele>
        <time>2024-09-15T09:06:20.000Z</time>
      </trkpt>
      <trkpt lat="45.76008" lon="2.94969">
        <ele>1049.4000244141</ele>
        <time>2024-09-15T09:06:21.000Z</time>
      </trkpt>
      <trkpt lat="45.76011" lon="2.9497">
        <ele>1049.5999755859</ele>
        <time>2024-09-15T09:06:22.000Z</time>
      </trkpt>
      <trkpt lat="45.76013" lon="2.94971">
        <ele>1049.5999755859</ele>
        <time>2024-09-15T09:06:23.000Z</time>
      </trkpt>
      <trkpt lat="45.76016" lon="2.94972">
        <ele>1049.5999755859</ele>
        <time>2024-09-15T09:06:24.000Z</time>
      </trkpt>
      <trkpt lat="45.76018" lon="2.94973">
        <ele>1050</ele>
        <time>2024-09-15T09:06:25.000Z</time>
      </trkpt>
      <trkpt lat="45.7602" lon="2.94974">
        <ele>1050.1999511719</ele>
        <time>2024-09-15T09:06:26.000Z</time>
      </trkpt>
      <trkpt lat="45.76023" lon="2.94975">
        <ele>1050.4000244141</ele>
        <time>2024-09-15T09:06:27.000Z</time>
      </trkpt>
      <trkpt lat="45.76025" lon="2.94975">
        <ele>1050.5999755859</ele>
        <time>2024-09-15T09:06:28.000Z</time>
      </trkpt>
      <trkpt lat="45.76028" lon="2.94976">
        <ele>1050.5999755859</ele>
        <time>2024-09-15T09:06:29.000Z</time>
      </trkpt>
      <trkpt lat="45.76031" lon="2.94977">
        <ele>1050.8000488281</ele>
        <time>2024-09-15T09:06:30.000Z</time>
      </trkpt>
      <trkpt lat="45.76034" lon="2.94978">
        <ele>1051</ele>
        <time>2024-09-15T09:06:31.000Z</time>
      </trkpt>
      <trkpt lat="45.76036" lon="2.94979">
        <ele>1051.1999511719</ele>
        <time>2024-09-15T09:06:32.000Z</time>
      </trkpt>
      <trkpt lat="45.76039" lon="2.9498">
        <ele>1051.4000244141</ele>
        <time>2024-09-15T09:06:33.000Z</time>
      </trkpt>
      <trkpt lat="45.76041" lon="2.94981">
        <ele>1051.8000488281</ele>
        <time>2024-09-15T09:06:34.000Z</time>
      </trkpt>
      <trkpt lat="45.76044" lon="2.94982">
        <ele>1051.8000488281</ele>
        <time>2024-09-15T09:06:35.000Z</time>
      </trkpt>
      <trkpt lat="45.76046" lon="2.94984">
        <ele>1052</ele>
        <time>2024-09-15T09:06:36.000Z</time>
      </trkpt>
      <trkpt lat="45.76048" lon="2.94985">
        <ele>1052</ele>
        <time>2024-09-15T09:06:37.000Z</time>
      </trkpt>
      <trkpt lat="45.7605" lon="2.94987">
        <ele>1052</ele>
        <time>2024-09-15T09:06:38.000Z</time>
      </trkpt>
      <trkpt lat="45.76053" lon="2.94988">
        <ele>1052.1999511719</ele>
        <time>2024-09-15T09:06:39.000Z</time>
      </trkpt>
      <trkpt lat="45.76055" lon="2.9499">
        <ele>1052.1999511719</ele>
        <time>2024-09-15T09:06:40.000Z</time>
      </trkpt>
      <trkpt lat="45.76057" lon="2.94992">
        <ele>1052.1999511719</ele>
        <time>2024-09-15T09:06:41.000Z</time>
      </trkpt>
      <trkpt lat="45.7606" lon="2.94994">
        <ele>1052.1999511719</ele>
        <time>2024-09-15T09:06:42.000Z</time>
      </trkpt>
      <trkpt lat="45.76062" lon="2.94995">
        <ele>1052.4000244141</ele>
        <time>2024-09-15T09:06:43.000Z</time>
      </trkpt>
      <trkpt lat="45.76064" lon="2.94997">
        <ele>1052.4000244141</ele>
        <time>2024-09-15T09:06:44.000Z</time>
      </trkpt>
      <trkpt lat="45.76066" lon="2.94999">
        <ele>1052.5999755859</ele>
        <time>2024-09-15T09:06:45.000Z</time>
      </trkpt>
      <trkpt lat="45.76068" lon="2.95001">
        <ele>1052.8000488281</ele>
        <time>2024-09-15T09:06:46.000Z</time>
      </trkpt>
      <trkpt lat="45.76071" lon="2.95002">
        <ele>1052.8000488281</ele>
        <time>2024-09-15T09:06:47.000Z</time>
      </trkpt>
      <trkpt lat="45.76073" lon="2.95004">
        <ele>1053</ele>
        <time>2024-09-15T09:06:48.000Z</time>
      </trkpt>
      <trkpt lat="45.76075" lon="2.95007">
        <ele>1053.1999511719</ele>
        <time>2024-09-15T09:06:49.000Z</time>
      </trkpt>
      <trkpt lat="45.76077" lon="2.95009">
        <ele>1053.1999511719</ele>
        <time>2024-09-15T09:06:50.000Z</time>
      </trkpt>
      <trkpt lat="45.7608" lon="2.95011">
        <ele>1053.5999755859</ele>
        <time>2024-09-15T09:06:51.000Z</time>
      </trkpt>
      <trkpt lat="45.76082" lon="2.95013">
        <ele>1053.8000488281</ele>
        <time>2024-09-15T09:06:52.000Z</time>
      </trkpt>
      <trkpt lat="45.76084" lon="2.95016">
        <ele>1053.8000488281</ele>
        <time>2024-09-15T09:06:53.000Z</time>
      </trkpt>
      <trkpt lat="45.76086" lon="2.95018">
        <ele>1054</ele>
        <time>2024-09-15T09:06:54.000Z</time>
      </trkpt>
      <trkpt lat="45.76088" lon="2.95021">
        <ele>1054.1999511719</ele>
        <time>2024-09-15T09:06:55.000Z</time>
      </trkpt>
      <trkpt lat="45.76089" lon="2.95024">
        <ele>1054.1999511719</ele>
        <time>2024-09-15T09:06:56.000Z</time>
      </trkpt>
      <trkpt lat="45.76091" lon="2.95027">
        <ele>1054.1999511719</ele>
        <time>2024-09-15T09:06:57.000Z</time>
      </trkpt>
      <trkpt lat="45.76092" lon="2.9503">
        <ele>1054.1999511719</ele>
        <time>2024-09-15T09:06:58.000Z</time>
      </trkpt>
      <trkpt lat="45.76094" lon="2.95033">
        <ele>1054.1999511719</ele>
        <time>2024-09-15T09:06:59.000Z</time>
      </trkpt>
      <trkpt lat="45.76096" lon="2.95036">
        <ele>1054.1999511719</ele>
        <time>2024-09-15T09:07:00.000Z</time>
      </trkpt>
      <trkpt lat="45.76098" lon="2.95038">
        <ele>1054.1999511719</ele>
        <time>2024-09-15T09:07:01.000Z</time>
      </trkpt>
      <trkpt lat="45.761" lon="2.95042">
        <ele>1054.1999511719</ele>
        <time>2024-09-15T09:07:02.000Z</time>
      </trkpt>
      <trkpt lat="45.76102" lon="2.95044">
        <ele>1054.1999511719</ele>
        <time>2024-09-15T09:07:03.000Z</time>
      </trkpt>
      <trkpt lat="45.76104" lon="2.95046">
        <ele>1054.1999511719</ele>
        <time>2024-09-15T09:07:04.000Z</time>
      </trkpt>
      <trkpt lat="45.76106" lon="2.95049">
        <ele>1054.4000244141</ele>
        <time>2024-09-15T09:07:05.000Z</time>
      </trkpt>
      <trkpt lat="45.76108" lon="2.95052">
        <ele>1054.4000244141</ele>
        <time>2024-09-15T09:07:06.000Z</time>
      </trkpt>
      <trkpt lat="45.7611" lon="2.95055">
        <ele>1054.5999755859</ele>
        <time>2024-09-15T09:07:07.000Z</time>
      </trkpt>
      <trkpt lat="45.76112" lon="2.95058">
        <ele>1054.5999755859</ele>
        <time>2024-09-15T09:07:08.000Z</time>
      </trkpt>
      <trkpt lat="45.76114" lon="2.95061">
        <ele>1054.8000488281</ele>
        <time>2024-09-15T09:07:09.000Z</time>
      </trkpt>
      <trkpt lat="45.76115" lon="2.95064">
        <ele>1054.8000488281</ele>
        <time>2024-09-15T09:07:10.000Z</time>
      </trkpt>
      <trkpt lat="45.76118" lon="2.95066">
        <ele>1054.8000488281</ele>
        <time>2024-09-15T09:07:11.000Z</time>
      </trkpt>
      <trkpt lat="45.7612" lon="2.95068">
        <ele>1054.8000488281</ele>
        <time>2024-09-15T09:07:12.000Z</time>
      </trkpt>
      <trkpt lat="45.76122" lon="2.95071">
        <ele>1055</ele>
        <time>2024-09-15T09:07:13.000Z</time>
      </trkpt>
      <trkpt lat="45.76124" lon="2.95073">
        <ele>1055</ele>
        <time>2024-09-15T09:07:14.000Z</time>
      </trkpt>
      <trkpt lat="45.76126" lon="2.95075">
        <ele>1055.1999511719</ele>
        <time>2024-09-15T09:07:15.000Z</time>
      </trkpt>
      <trkpt lat="45.76128" lon="2.95078">
        <ele>1055.4000244141</ele>
        <time>2024-09-15T09:07:16.000Z</time>
      </trkpt>
      <trkpt lat="45.7613" lon="2.9508">
        <ele>1055.8000488281</ele>
        <time>2024-09-15T09:07:17.000Z</time>
      </trkpt>
      <trkpt lat="45.76133" lon="2.95082">
        <ele>1056</ele>
        <time>2024-09-15T09:07:18.000Z</time>
      </trkpt>
      <trkpt lat="45.76135" lon="2.95084">
        <ele>1056</ele>
        <time>2024-09-15T09:07:19.000Z</time>
      </trkpt>
      <trkpt lat="45.76138" lon="2.95085">
        <ele>1056.1999511719</ele>
        <time>2024-09-15T09:07:20.000Z</time>
      </trkpt>
      <trkpt lat="45.76141" lon="2.95087">
        <ele>1056.1999511719</ele>
        <time>2024-09-15T09:07:21.000Z</time>
      </trkpt>
      <trkpt lat="45.76144" lon="2.95089">
        <ele>1056.1999511719</ele>
        <time>2024-09-15T09:07:22.000Z</time>
      </trkpt>
      <trkpt lat="45.76147" lon="2.95092">
        <ele>1056.1999511719</ele>
        <time>2024-09-15T09:07:23.000Z</time>
      </trkpt>
      <trkpt lat="45.7615" lon="2.95094">
        <ele>1056</ele>
        <time>2024-09-15T09:07:24.000Z</time>
      </trkpt>
      <trkpt lat="45.76153" lon="2.95095">
        <ele>1055.1999511719</ele>
        <time>2024-09-15T09:07:25.000Z</time>
      </trkpt>
      <trkpt lat="45.76155" lon="2.95097">
        <ele>1054.8000488281</ele>
        <time>2024-09-15T09:07:26.000Z</time>
      </trkpt>
      <trkpt lat="45.76158" lon="2.95099">
        <ele>1054.5999755859</ele>
        <time>2024-09-15T09:07:27.000Z</time>
      </trkpt>
      <trkpt lat="45.76162" lon="2.95102">
        <ele>1054.1999511719</ele>
        <time>2024-09-15T09:07:28.000Z</time>
      </trkpt>
      <trkpt lat="45.76165" lon="2.95104">
        <ele>1053.8000488281</ele>
        <time>2024-09-15T09:07:29.000Z</time>
      </trkpt>
      <trkpt lat="45.76168" lon="2.95106">
        <ele>1053.5999755859</ele>
        <time>2024-09-15T09:07:30.000Z</time>
      </trkpt>
      <trkpt lat="45.76171" lon="2.95108">
        <ele>1053.1999511719</ele>
        <time>2024-09-15T09:07:31.000Z</time>
      </trkpt>
      <trkpt lat="45.76174" lon="2.9511">
        <ele>1052.8000488281</ele>
        <time>2024-09-15T09:07:32.000Z</time>
      </trkpt>
      <trkpt lat="45.76178" lon="2.95112">
        <ele>1052.4000244141</ele>
        <time>2024-09-15T09:07:33.000Z</time>
      </trkpt>
      <trkpt lat="45.7618" lon="2.95114">
        <ele>1052.1999511719</ele>
        <time>2024-09-15T09:07:34.000Z</time>
      </trkpt>
      <trkpt lat="45.76183" lon="2.95116">
        <ele>1051.1999511719</ele>
        <time>2024-09-15T09:07:35.000Z</time>
      </trkpt>
      <trkpt lat="45.76185" lon="2.95117">
        <ele>1050.5999755859</ele>
        <time>2024-09-15T09:07:36.000Z</time>
      </trkpt>
      <trkpt lat="45.76188" lon="2.95119">
        <ele>1050.4000244141</ele>
        <time>2024-09-15T09:07:37.000Z</time>
      </trkpt>
      <trkpt lat="45.76191" lon="2.9512">
        <ele>1049.4000244141</ele>
        <time>2024-09-15T09:07:38.000Z</time>
      </trkpt>
      <trkpt lat="45.76194" lon="2.95123">
        <ele>1049.1999511719</ele>
        <time>2024-09-15T09:07:39.000Z</time>
      </trkpt>
      <trkpt lat="45.76196" lon="2.95125">
        <ele>1049</ele>
        <time>2024-09-15T09:07:40.000Z</time>
      </trkpt>
      <trkpt lat="45.76199" lon="2.95126">
        <ele>1048.5999755859</ele>
        <time>2024-09-15T09:07:41.000Z</time>
      </trkpt>
      <trkpt lat="45.76202" lon="2.95128">
        <ele>1048.4000244141</ele>
        <time>2024-09-15T09:07:42.000Z</time>
      </trkpt>
      <trkpt lat="45.76205" lon="2.95129">
        <ele>1048.1999511719</ele>
        <time>2024-09-15T09:07:43.000Z</time>
      </trkpt>
      <trkpt lat="45.76209" lon="2.9513">
        <ele>1048</ele>
        <time>2024-09-15T09:07:44.000Z</time>
      </trkpt>
      <trkpt lat="45.76212" lon="2.95133">
        <ele>1047.5999755859</ele>
        <time>2024-09-15T09:07:45.000Z</time>
      </trkpt>
      <trkpt lat="45.76216" lon="2.95135">
        <ele>1047.1999511719</ele>
        <time>2024-09-15T09:07:46.000Z</time>
      </trkpt>
      <trkpt lat="45.7622" lon="2.95139">
        <ele>1046.4000244141</ele>
        <time>2024-09-15T09:07:47.000Z</time>
      </trkpt>
      <trkpt lat="45.76223" lon="2.95142">
        <ele>1045.8000488281</ele>
        <time>2024-09-15T09:07:48.000Z</time>
      </trkpt>
      <trkpt lat="45.76227" lon="2.95144">
        <ele>1045.4000244141</ele>
        <time>2024-09-15T09:07:49.000Z</time>
      </trkpt>
      <trkpt lat="45.7623" lon="2.95147">
        <ele>1044.8000488281</ele>
        <time>2024-09-15T09:07:50.000Z</time>
      </trkpt>
      <trkpt lat="45.76233" lon="2.95149">
        <ele>1044.4000244141</ele>
        <time>2024-09-15T09:07:51.000Z</time>
      </trkpt>
      <trkpt lat="45.76237" lon="2.95151">
        <ele>1044</ele>
        <time>2024-09-15T09:07:52.000Z</time>
      </trkpt>
      <trkpt lat="45.7624" lon="2.95152">
        <ele>1043.5999755859</ele>
        <time>2024-09-15T09:07:53.000Z</time>
      </trkpt>
      <trkpt lat="45.76244" lon="2.95154">
        <ele>1043.4000244141</ele>
        <time>2024-09-15T09:07:54.000Z</time>
      </trkpt>
      <trkpt lat="45.76247" lon="2.95156">
        <ele>1043</ele>
        <time>2024-09-15T09:07:55.000Z</time>
      </trkpt>
      <trkpt lat="45.76249" lon="2.95159">
        <ele>1042.8000488281</ele>
        <time>2024-09-15T09:07:56.000Z</time>
      </trkpt>
      <trkpt lat="45.76252" lon="2.95161">
        <ele>1042.5999755859</ele>
        <time>2024-09-15T09:07:57.000Z</time>
      </trkpt>
      <trkpt lat="45.76255" lon="2.95164">
        <ele>1042.4000244141</ele>
        <time>2024-09-15T09:07:58.000Z</time>
      </trkpt>
      <trkpt lat="45.76257" lon="2.95165">
        <ele>1042.1999511719</ele>
        <time>2024-09-15T09:07:59.000Z</time>
      </trkpt>
      <trkpt lat="45.76261" lon="2.95166">
        <ele>1042</ele>
        <time>2024-09-15T09:08:00.000Z</time>
      </trkpt>
      <trkpt lat="45.76264" lon="2.95166">
        <ele>1041.8000488281</ele>
        <time>2024-09-15T09:08:01.000Z</time>
      </trkpt>
      <trkpt lat="45.76267" lon="2.95164">
        <ele>1041.5999755859</ele>
        <time>2024-09-15T09:08:02.000Z</time>
      </trkpt>
      <trkpt lat="45.7627" lon="2.95163">
        <ele>1041</ele>
        <time>2024-09-15T09:08:03.000Z</time>
      </trkpt>
      <trkpt lat="45.76274" lon="2.95162">
        <ele>1040.8000488281</ele>
        <time>2024-09-15T09:08:04.000Z</time>
      </trkpt>
      <trkpt lat="45.76277" lon="2.95162">
        <ele>1040.4000244141</ele>
        <time>2024-09-15T09:08:05.000Z</time>
      </trkpt>
      <trkpt lat="45.76281" lon="2.95162">
        <ele>1039.5999755859</ele>
        <time>2024-09-15T09:08:06.000Z</time>
      </trkpt>
      <trkpt lat="45.76285" lon="2.95162">
        <ele>1039.4000244141</ele>
        <time>2024-09-15T09:08:07.000Z</time>
      </trkpt>
      <trkpt lat="45.76288" lon="2.95161">
        <ele>1039.1999511719</ele>
        <time>2024-09-15T09:08:08.000Z</time>
      </trkpt>
      <trkpt lat="45.76292" lon="2.95161">
        <ele>1038.5999755859</ele>
        <time>2024-09-15T09:08:09.000Z</time>
      </trkpt>
      <trkpt lat="45.76295" lon="2.9516">
        <ele>1038.5999755859</ele>
        <time>2024-09-15T09:08:10.000Z</time>
      </trkpt>
      <trkpt lat="45.76299" lon="2.9516">
        <ele>1038.4000244141</ele>
        <time>2024-09-15T09:08:11.000Z</time>
      </trkpt>
      <trkpt lat="45.76303" lon="2.95159">
        <ele>1038.1999511719</ele>
        <time>2024-09-15T09:08:12.000Z</time>
      </trkpt>
      <trkpt lat="45.76306" lon="2.95159">
        <ele>1038</ele>
        <time>2024-09-15T09:08:13.000Z</time>
      </trkpt>
      <trkpt lat="45.76309" lon="2.95159">
        <ele>1037.5999755859</ele>
        <time>2024-09-15T09:08:14.000Z</time>
      </trkpt>
      <trkpt lat="45.76313" lon="2.95158">
        <ele>1037.1999511719</ele>
        <time>2024-09-15T09:08:15.000Z</time>
      </trkpt>
      <trkpt lat="45.76317" lon="2.95155">
        <ele>1037</ele>
        <time>2024-09-15T09:08:16.000Z</time>
      </trkpt>
      <trkpt lat="45.7632" lon="2.95153">
        <ele>1037</ele>
        <time>2024-09-15T09:08:17.000Z</time>
      </trkpt>
      <trkpt lat="45.76322" lon="2.9515">
        <ele>1036.8000488281</ele>
        <time>2024-09-15T09:08:18.000Z</time>
      </trkpt>
      <trkpt lat="45.76325" lon="2.95147">
        <ele>1036.5999755859</ele>
        <time>2024-09-15T09:08:19.000Z</time>
      </trkpt>
      <trkpt lat="45.76328" lon="2.95144">
        <ele>1036.4000244141</ele>
        <time>2024-09-15T09:08:20.000Z</time>
      </trkpt>
      <trkpt lat="45.76331" lon="2.95141">
        <ele>1036.4000244141</ele>
        <time>2024-09-15T09:08:21.000Z</time>
      </trkpt>
      <trkpt lat="45.76334" lon="2.95138">
        <ele>1036.1999511719</ele>
        <time>2024-09-15T09:08:22.000Z</time>
      </trkpt>
      <trkpt lat="45.76337" lon="2.95135">
        <ele>1036.1999511719</ele>
        <time>2024-09-15T09:08:23.000Z</time>
      </trkpt>
      <trkpt lat="45.7634" lon="2.95132">
        <ele>1035.5999755859</ele>
        <time>2024-09-15T09:08:24.000Z</time>
      </trkpt>
      <trkpt lat="45.76343" lon="2.95128">
        <ele>1034.8000488281</ele>
        <time>2024-09-15T09:08:25.000Z</time>
      </trkpt>
      <trkpt lat="45.76346" lon="2.95124">
        <ele>1034.5999755859</ele>
        <time>2024-09-15T09:08:26.000Z</time>
      </trkpt>
      <trkpt lat="45.76348" lon="2.9512">
        <ele>1034.4000244141</ele>
        <time>2024-09-15T09:08:27.000Z</time>
      </trkpt>
      <trkpt lat="45.76351" lon="2.95116">
        <ele>1034.1999511719</ele>
        <time>2024-09-15T09:08:28.000Z</time>
      </trkpt>
      <trkpt lat="45.76354" lon="2.95115">
        <ele>1034</ele>
        <time>2024-09-15T09:08:29.000Z</time>
      </trkpt>
      <trkpt lat="45.76357" lon="2.95116">
        <ele>1033.5999755859</ele>
        <time>2024-09-15T09:08:30.000Z</time>
      </trkpt>
      <trkpt lat="45.76359" lon="2.9512">
        <ele>1033.5999755859</ele>
        <time>2024-09-15T09:08:31.000Z</time>
      </trkpt>
      <trkpt lat="45.76361" lon="2.95123">
        <ele>1033.5999755859</ele>
        <time>2024-09-15T09:08:32.000Z</time>
      </trkpt>
      <trkpt lat="45.76363" lon="2.95126">
        <ele>1033.5999755859</ele>
        <time>2024-09-15T09:08:33.000Z</time>
      </trkpt>
      <trkpt lat="45.76364" lon="2.9513">
        <ele>1033.8000488281</ele>
        <time>2024-09-15T09:08:34.000Z</time>
      </trkpt>
      <trkpt lat="45.76365" lon="2.95133">
        <ele>1034.4000244141</ele>
        <time>2024-09-15T09:08:35.000Z</time>
      </trkpt>
      <trkpt lat="45.76366" lon="2.95137">
        <ele>1034.4000244141</ele>
        <time>2024-09-15T09:08:36.000Z</time>
      </trkpt>
      <trkpt lat="45.76367" lon="2.9514">
        <ele>1034.5999755859</ele>
        <time>2024-09-15T09:08:37.000Z</time>
      </trkpt>
      <trkpt lat="45.76368" lon="2.95143">
        <ele>1034.5999755859</ele>
        <time>2024-09-15T09:08:38.000Z</time>
      </trkpt>
      <trkpt lat="45.7637" lon="2.95146">
        <ele>1035</ele>
        <time>2024-09-15T09:08:39.000Z</time>
      </trkpt>
      <trkpt lat="45.76371" lon="2.9515">
        <ele>1035.1999511719</ele>
        <time>2024-09-15T09:08:40.000Z</time>
      </trkpt>
      <trkpt lat="45.76372" lon="2.95153">
        <ele>1035.5999755859</ele>
        <time>2024-09-15T09:08:41.000Z</time>
      </trkpt>
      <trkpt lat="45.76373" lon="2.95156">
        <ele>1036.1999511719</ele>
        <time>2024-09-15T09:08:42.000Z</time>
      </trkpt>
      <trkpt lat="45.76374" lon="2.95159">
        <ele>1036.4000244141</ele>
        <time>2024-09-15T09:08:43.000Z</time>
      </trkpt>
      <trkpt lat="45.76375" lon="2.95163">
        <ele>1036.4000244141</ele>
        <time>2024-09-15T09:08:44.000Z</time>
      </trkpt>
      <trkpt lat="45.76376" lon="2.95166">
        <ele>1036.5999755859</ele>
        <time>2024-09-15T09:08:45.000Z</time>
      </trkpt>
      <trkpt lat="45.76376" lon="2.95169">
        <ele>1037.1999511719</ele>
        <time>2024-09-15T09:08:46.000Z</time>
      </trkpt>
      <trkpt lat="45.76377" lon="2.95173">
        <ele>1037.5999755859</ele>
        <time>2024-09-15T09:08:47.000Z</time>
      </trkpt>
      <trkpt lat="45.76378" lon="2.95176">
        <ele>1037.8000488281</ele>
        <time>2024-09-15T09:08:48.000Z</time>
      </trkpt>
      <trkpt lat="45.7638" lon="2.95179">
        <ele>1037.8000488281</ele>
        <time>2024-09-15T09:08:49.000Z</time>
      </trkpt>
      <trkpt lat="45.76382" lon="2.95181">
        <ele>1038.1999511719</ele>
        <time>2024-09-15T09:08:50.000Z</time>
      </trkpt>
      <trkpt lat="45.76384" lon="2.95184">
        <ele>1038.5999755859</ele>
        <time>2024-09-15T09:08:51.000Z</time>
      </trkpt>
      <trkpt lat="45.76385" lon="2.95186">
        <ele>1038.8000488281</ele>
        <time>2024-09-15T09:08:52.000Z</time>
      </trkpt>
      <trkpt lat="45.76387" lon="2.95188">
        <ele>1039.1999511719</ele>
        <time>2024-09-15T09:08:53.000Z</time>
      </trkpt>
      <trkpt lat="45.76388" lon="2.9519">
        <ele>1039.5999755859</ele>
        <time>2024-09-15T09:08:54.000Z</time>
      </trkpt>
      <trkpt lat="45.7639" lon="2.95192">
        <ele>1039.8000488281</ele>
        <time>2024-09-15T09:08:55.000Z</time>
      </trkpt>
      <trkpt lat="45.76392" lon="2.95195">
        <ele>1039.8000488281</ele>
        <time>2024-09-15T09:08:56.000Z</time>
      </trkpt>
      <trkpt lat="45.76393" lon="2.95198">
        <ele>1040.4000244141</ele>
        <time>2024-09-15T09:08:57.000Z</time>
      </trkpt>
      <trkpt lat="45.76395" lon="2.95199">
        <ele>1040.5999755859</ele>
        <time>2024-09-15T09:08:58.000Z</time>
      </trkpt>
      <trkpt lat="45.76397" lon="2.95201">
        <ele>1040.5999755859</ele>
        <time>2024-09-15T09:08:59.000Z</time>
      </trkpt>
      <trkpt lat="45.76398" lon="2.95203">
        <ele>1040.8000488281</ele>
        <time>2024-09-15T09:09:00.000Z</time>
      </trkpt>
      <trkpt lat="45.764" lon="2.95204">
        <ele>1040.8000488281</ele>
        <time>2024-09-15T09:09:01.000Z</time>
      </trkpt>
      <trkpt lat="45.76402" lon="2.95206">
        <ele>1041</ele>
        <time>2024-09-15T09:09:02.000Z</time>
      </trkpt>
      <trkpt lat="45.76403" lon="2.95208">
        <ele>1041.1999511719</ele>
        <time>2024-09-15T09:09:03.000Z</time>
      </trkpt>
      <trkpt lat="45.76405" lon="2.95211">
        <ele>1041.4000244141</ele>
        <time>2024-09-15T09:09:04.000Z</time>
      </trkpt>
      <trkpt lat="45.76407" lon="2.95213">
        <ele>1041.5999755859</ele>
        <time>2024-09-15T09:09:05.000Z</time>
      </trkpt>
      <trkpt lat="45.76408" lon="2.95215">
        <ele>1041.5999755859</ele>
        <time>2024-09-15T09:09:06.000Z</time>
      </trkpt>
      <trkpt lat="45.7641" lon="2.95217">
        <ele>1042.1999511719</ele>
        <time>2024-09-15T09:09:07.000Z</time>
      </trkpt>
      <trkpt lat="45.76412" lon="2.95219">
        <ele>1042.4000244141</ele>
        <time>2024-09-15T09:09:08.000Z</time>
      </trkpt>
      <trkpt lat="45.76414" lon="2.95221">
        <ele>1043</ele>
        <time>2024-09-15T09:09:09.000Z</time>
      </trkpt>
      <trkpt lat="45.76416" lon="2.95224">
        <ele>1043.1999511719</ele>
        <time>2024-09-15T09:09:10.000Z</time>
      </trkpt>
      <trkpt lat="45.76418" lon="2.95226">
        <ele>1043.4000244141</ele>
        <time>2024-09-15T09:09:11.000Z</time>
      </trkpt>
      <trkpt lat="45.7642" lon="2.95229">
        <ele>1043.8000488281</ele>
        <time>2024-09-15T09:09:12.000Z</time>
      </trkpt>
      <trkpt lat="45.76422" lon="2.95232">
        <ele>1044.4000244141</ele>
        <time>2024-09-15T09:09:13.000Z</time>
      </trkpt>
      <trkpt lat="45.76423" lon="2.95234">
        <ele>1045</ele>
        <time>2024-09-15T09:09:14.000Z</time>
      </trkpt>
      <trkpt lat="45.76425" lon="2.95237">
        <ele>1045.1999511719</ele>
        <time>2024-09-15T09:09:15.000Z</time>
      </trkpt>
      <trkpt lat="45.76426" lon="2.9524">
        <ele>1045.4000244141</ele>
        <time>2024-09-15T09:09:16.000Z</time>
      </trkpt>
      <trkpt lat="45.76427" lon="2.95242">
        <ele>1045.5999755859</ele>
        <time>2024-09-15T09:09:17.000Z</time>
      </trkpt>
      <trkpt lat="45.76428" lon="2.95245">
        <ele>1045.5999755859</ele>
        <time>2024-09-15T09:09:18.000Z</time>
      </trkpt>
      <trkpt lat="45.76429" lon="2.95248">
        <ele>1045.8000488281</ele>
        <time>2024-09-15T09:09:19.000Z</time>
      </trkpt>
      <trkpt lat="45.76431" lon="2.95251">
        <ele>1046</ele>
        <time>2024-09-15T09:09:20.000Z</time>
      </trkpt>
      <trkpt lat="45.76432" lon="2.95253">
        <ele>1046.1999511719</ele>
        <time>2024-09-15T09:09:21.000Z</time>
      </trkpt>
      <trkpt lat="45.76432" lon="2.95256">
        <ele>1046.4000244141</ele>
        <time>2024-09-15T09:09:22.000Z</time>
      </trkpt>
      <trkpt lat="45.76433" lon="2.95259">
        <ele>1046.5999755859</ele>
        <time>2024-09-15T09:09:23.000Z</time>
      </trkpt>
      <trkpt lat="45.76434" lon="2.95262">
        <ele>1046.8000488281</ele>
        <time>2024-09-15T09:09:24.000Z</time>
      </trkpt>
      <trkpt lat="45.76435" lon="2.95264">
        <ele>1047</ele>
        <time>2024-09-15T09:09:25.000Z</time>
      </trkpt>
      <trkpt lat="45.76436" lon="2.95267">
        <ele>1047.4000244141</ele>
        <time>2024-09-15T09:09:26.000Z</time>
      </trkpt>
      <trkpt lat="45.76436" lon="2.95271">
        <ele>1047.5999755859</ele>
        <time>2024-09-15T09:09:27.000Z</time>
      </trkpt>
      <trkpt lat="45.76436" lon="2.95274">
        <ele>1047.8000488281</ele>
        <time>2024-09-15T09:09:28.000Z</time>
      </trkpt>
      <trkpt lat="45.76436" lon="2.95277">
        <ele>1048.5999755859</ele>
        <time>2024-09-15T09:09:29.000Z</time>
      </trkpt>
      <trkpt lat="45.76436" lon="2.9528">
        <ele>1048.8000488281</ele>
        <time>2024-09-15T09:09:30.000Z</time>
      </trkpt>
      <trkpt lat="45.76437" lon="2.95283">
        <ele>1049</ele>
        <time>2024-09-15T09:09:31.000Z</time>
      </trkpt>
      <trkpt lat="45.76437" lon="2.95286">
        <ele>1049.1999511719</ele>
        <time>2024-09-15T09:09:32.000Z</time>
      </trkpt>
      <trkpt lat="45.76438" lon="2.95288">
        <ele>1049.5999755859</ele>
        <time>2024-09-15T09:09:33.000Z</time>
      </trkpt>
      <trkpt lat="45.76439" lon="2.9529">
        <ele>1050.1999511719</ele>
        <time>2024-09-15T09:09:34.000Z</time>
      </trkpt>
      <trkpt lat="45.76441" lon="2.95293">
        <ele>1050.4000244141</ele>
        <time>2024-09-15T09:09:35.000Z</time>
      </trkpt>
      <trkpt lat="45.76442" lon="2.95295">
        <ele>1050.4000244141</ele>
        <time>2024-09-15T09:09:36.000Z</time>
      </trkpt>
      <trkpt lat="45.76442" lon="2.95299">
        <ele>1050.8000488281</ele>
        <time>2024-09-15T09:09:37.000Z</time>
      </trkpt>
      <trkpt lat="45.76443" lon="2.95301">
        <ele>1051.4000244141</ele>
        <time>2024-09-15T09:09:38.000Z</time>
      </trkpt>
      <trkpt lat="45.76444" lon="2.95304">
        <ele>1052</ele>
        <time>2024-09-15T09:09:39.000Z</time>
      </trkpt>
      <trkpt lat="45.76445" lon="2.95307">
        <ele>1052.4000244141</ele>
        <time>2024-09-15T09:09:40.000Z</time>
      </trkpt>
      <trkpt lat="45.76446" lon="2.95309">
        <ele>1052.5999755859</ele>
        <time>2024-09-15T09:09:41.000Z</time>
      </trkpt>
      <trkpt lat="45.76447" lon="2.95312">
        <ele>1052.8000488281</ele>
        <time>2024-09-15T09:09:42.000Z</time>
      </trkpt>
      <trkpt lat="45.76448" lon="2.95315">
        <ele>1053.4000244141</ele>
        <time>2024-09-15T09:09:43.000Z</time>
      </trkpt>
      <trkpt lat="45.76449" lon="2.95318">
        <ele>1053.5999755859</ele>
        <time>2024-09-15T09:09:44.000Z</time>
      </trkpt>
      <trkpt lat="45.76449" lon="2.95321">
        <ele>1054.4000244141</ele>
        <time>2024-09-15T09:09:45.000Z</time>
      </trkpt>
      <trkpt lat="45.76451" lon="2.95324">
        <ele>1054.5999755859</ele>
        <time>2024-09-15T09:09:46.000Z</time>
      </trkpt>
      <trkpt lat="45.76451" lon="2.95328">
        <ele>1055</ele>
        <time>2024-09-15T09:09:47.000Z</time>
      </trkpt>
      <trkpt lat="45.76452" lon="2.9533">
        <ele>1055.1999511719</ele>
        <time>2024-09-15T09:09:48.000Z</time>
      </trkpt>
      <trkpt lat="45.76453" lon="2.95332">
        <ele>1055.8000488281</ele>
        <time>2024-09-15T09:09:49.000Z</time>
      </trkpt>
      <trkpt lat="45.76454" lon="2.95333">
        <ele>1056.1999511719</ele>
        <time>2024-09-15T09:09:50.000Z</time>
      </trkpt>
      <trkpt lat="45.76454" lon="2.95335">
        <ele>1056.4000244141</ele>
        <time>2024-09-15T09:09:51.000Z</time>
      </trkpt>
      <trkpt lat="45.76455" lon="2.95337">
        <ele>1057</ele>
        <time>2024-09-15T09:09:52.000Z</time>
      </trkpt>
      <trkpt lat="45.76455" lon="2.95339">
        <ele>1057</ele>
        <time>2024-09-15T09:09:53.000Z</time>
      </trkpt>
      <trkpt lat="45.76455" lon="2.95342">
        <ele>1057.1999511719</ele>
        <time>2024-09-15T09:09:54.000Z</time>
      </trkpt>
      <trkpt lat="45.76455" lon="2.95344">
        <ele>1057.5999755859</ele>
        <time>2024-09-15T09:09:55.000Z</time>
      </trkpt>
      <trkpt lat="45.76455" lon="2.95346">
        <ele>1057.8000488281</ele>
        <time>2024-09-15T09:09:56.000Z</time>
      </trkpt>
      <trkpt lat="45.76455" lon="2.95348">
        <ele>1058.1999511719</ele>
        <time>2024-09-15T09:09:57.000Z</time>
      </trkpt>
      <trkpt lat="45.76455" lon="2.95349">
        <ele>1058.1999511719</ele>
        <time>2024-09-15T09:09:58.000Z</time>
      </trkpt>
      <trkpt lat="45.76455" lon="2.95352">
        <ele>1058.4000244141</ele>
        <time>2024-09-15T09:09:59.000Z</time>
      </trkpt>
      <trkpt lat="45.76455" lon="2.95354">
        <ele>1058.4000244141</ele>
        <time>2024-09-15T09:10:00.000Z</time>
      </trkpt>
      <trkpt lat="45.76455" lon="2.95356">
        <ele>1058.8000488281</ele>
        <time>2024-09-15T09:10:01.000Z</time>
      </trkpt>
      <trkpt lat="45.76455" lon="2.95358">
        <ele>1059</ele>
        <time>2024-09-15T09:10:02.000Z</time>
      </trkpt>
      <trkpt lat="45.76456" lon="2.9536">
        <ele>1059.4000244141</ele>
        <time>2024-09-15T09:10:03.000Z</time>
      </trkpt>
      <trkpt lat="45.76456" lon="2.95361">
        <ele>1059.5999755859</ele>
        <time>2024-09-15T09:10:04.000Z</time>
      </trkpt>
      <trkpt lat="45.76456" lon="2.95363">
        <ele>1060</ele>
        <time>2024-09-15T09:10:05.000Z</time>
      </trkpt>
      <trkpt lat="45.76456" lon="2.95365">
        <ele>1060.4000244141</ele>
        <time>2024-09-15T09:10:06.000Z</time>
      </trkpt>
      <trkpt lat="45.76456" lon="2.95367">
        <ele>1060.4000244141</ele>
        <time>2024-09-15T09:10:07.000Z</time>
      </trkpt>
      <trkpt lat="45.76456" lon="2.95369">
        <ele>1061</ele>
        <time>2024-09-15T09:10:08.000Z</time>
      </trkpt>
      <trkpt lat="45.76456" lon="2.9537">
        <ele>1061.1999511719</ele>
        <time>2024-09-15T09:10:09.000Z</time>
      </trkpt>
      <trkpt lat="45.76456" lon="2.95372">
        <ele>1061.4000244141</ele>
        <time>2024-09-15T09:10:10.000Z</time>
      </trkpt>
      <trkpt lat="45.76455" lon="2.95374">
        <ele>1061.5999755859</ele>
        <time>2024-09-15T09:10:11.000Z</time>
      </trkpt>
      <trkpt lat="45.76455" lon="2.95376">
        <ele>1061.8000488281</ele>
        <time>2024-09-15T09:10:12.000Z</time>
      </trkpt>
      <trkpt lat="45.76455" lon="2.95379">
        <ele>1062.1999511719</ele>
        <time>2024-09-15T09:10:13.000Z</time>
      </trkpt>
      <trkpt lat="45.76455" lon="2.95382">
        <ele>1062.4000244141</ele>
        <time>2024-09-15T09:10:14.000Z</time>
      </trkpt>
      <trkpt lat="45.76456" lon="2.95385">
        <ele>1062.8000488281</ele>
        <time>2024-09-15T09:10:15.000Z</time>
      </trkpt>
      <trkpt lat="45.76456" lon="2.95388">
        <ele>1063.1999511719</ele>
        <time>2024-09-15T09:10:16.000Z</time>
      </trkpt>
      <trkpt lat="45.76456" lon="2.95391">
        <ele>1063.5999755859</ele>
        <time>2024-09-15T09:10:17.000Z</time>
      </trkpt>
      <trkpt lat="45.76457" lon="2.95394">
        <ele>1064.1999511719</ele>
        <time>2024-09-15T09:10:18.000Z</time>
      </trkpt>
      <trkpt lat="45.76458" lon="2.95396">
        <ele>1064.4000244141</ele>
        <time>2024-09-15T09:10:19.000Z</time>
      </trkpt>
      <trkpt lat="45.76459" lon="2.95398">
        <ele>1064.5999755859</ele>
        <time>2024-09-15T09:10:20.000Z</time>
      </trkpt>
      <trkpt lat="45.7646" lon="2.95401">
        <ele>1064.8000488281</ele>
        <time>2024-09-15T09:10:21.000Z</time>
      </trkpt>
      <trkpt lat="45.76461" lon="2.95403">
        <ele>1065.1999511719</ele>
        <time>2024-09-15T09:10:22.000Z</time>
      </trkpt>
      <trkpt lat="45.76462" lon="2.95405">
        <ele>1065.4000244141</ele>
        <time>2024-09-15T09:10:23.000Z</time>
      </trkpt>
      <trkpt lat="45.76463" lon="2.95407">
        <ele>1065.8000488281</ele>
        <time>2024-09-15T09:10:24.000Z</time>
      </trkpt>
      <trkpt lat="45.76464" lon="2.95409">
        <ele>1066.1999511719</ele>
        <time>2024-09-15T09:10:25.000Z</time>
      </trkpt>
      <trkpt lat="45.76464" lon="2.95411">
        <ele>1066.5999755859</ele>
        <time>2024-09-15T09:10:26.000Z</time>
      </trkpt>
      <trkpt lat="45.76465" lon="2.95412">
        <ele>1066.8000488281</ele>
        <time>2024-09-15T09:10:27.000Z</time>
      </trkpt>
      <trkpt lat="45.76466" lon="2.95413">
        <ele>1067</ele>
        <time>2024-09-15T09:10:28.000Z</time>
      </trkpt>
      <trkpt lat="45.76467" lon="2.95415">
        <ele>1067.1999511719</ele>
        <time>2024-09-15T09:10:29.000Z</time>
      </trkpt>
      <trkpt lat="45.76467" lon="2.95416">
        <ele>1067.4000244141</ele>
        <time>2024-09-15T09:10:30.000Z</time>
      </trkpt>
      <trkpt lat="45.76468" lon="2.95417">
        <ele>1067.5999755859</ele>
        <time>2024-09-15T09:10:31.000Z</time>
      </trkpt>
      <trkpt lat="45.76468" lon="2.95418">
        <ele>1067.5999755859</ele>
        <time>2024-09-15T09:10:32.000Z</time>
      </trkpt>
      <trkpt lat="45.76469" lon="2.9542">
        <ele>1067.8000488281</ele>
        <time>2024-09-15T09:10:33.000Z</time>
      </trkpt>
      <trkpt lat="45.7647" lon="2.95422">
        <ele>1068</ele>
        <time>2024-09-15T09:10:34.000Z</time>
      </trkpt>
      <trkpt lat="45.7647" lon="2.95424">
        <ele>1068.1999511719</ele>
        <time>2024-09-15T09:10:35.000Z</time>
      </trkpt>
      <trkpt lat="45.7647" lon="2.95426">
        <ele>1068.5999755859</ele>
        <time>2024-09-15T09:10:36.000Z</time>
      </trkpt>
      <trkpt lat="45.7647" lon="2.95428">
        <ele>1068.8000488281</ele>
        <time>2024-09-15T09:10:37.000Z</time>
      </trkpt>
      <trkpt lat="45.76469" lon="2.9543">
        <ele>1069</ele>
        <time>2024-09-15T09:10:38.000Z</time>
      </trkpt>
      <trkpt lat="45.76468" lon="2.95432">
        <ele>1069.4000244141</ele>
        <time>2024-09-15T09:10:39.000Z</time>
      </trkpt>
      <trkpt lat="45.76467" lon="2.95434">
        <ele>1069.8000488281</ele>
        <time>2024-09-15T09:10:40.000Z</time>
      </trkpt>
      <trkpt lat="45.76467" lon="2.95435">
        <ele>1069.8000488281</ele>
        <time>2024-09-15T09:10:41.000Z</time>
      </trkpt>
      <trkpt lat="45.76466" lon="2.95437">
        <ele>1070.4000244141</ele>
        <time>2024-09-15T09:10:42.000Z</time>
      </trkpt>
      <trkpt lat="45.76466" lon="2.95438">
        <ele>1070.8000488281</ele>
        <time>2024-09-15T09:10:43.000Z</time>
      </trkpt>
      <trkpt lat="45.76465" lon="2.9544">
        <ele>1071.1999511719</ele>
        <time>2024-09-15T09:10:44.000Z</time>
      </trkpt>
      <trkpt lat="45.76465" lon="2.95442">
        <ele>1071.4000244141</ele>
        <time>2024-09-15T09:10:45.000Z</time>
      </trkpt>
      <trkpt lat="45.76465" lon="2.95443">
        <ele>1071.5999755859</ele>
        <time>2024-09-15T09:10:46.000Z</time>
      </trkpt>
      <trkpt lat="45.76466" lon="2.95446">
        <ele>1071.5999755859</ele>
        <time>2024-09-15T09:10:47.000Z</time>
      </trkpt>
      <trkpt lat="45.76465" lon="2.95448">
        <ele>1072</ele>
        <time>2024-09-15T09:10:48.000Z</time>
      </trkpt>
      <trkpt lat="45.76465" lon="2.9545">
        <ele>1072.4000244141</ele>
        <time>2024-09-15T09:10:49.000Z</time>
      </trkpt>
      <trkpt lat="45.76465" lon="2.95451">
        <ele>1072.5999755859</ele>
        <time>2024-09-15T09:10:50.000Z</time>
      </trkpt>
      <trkpt lat="45.76465" lon="2.95453">
        <ele>1072.8000488281</ele>
        <time>2024-09-15T09:10:51.000Z</time>
      </trkpt>
      <trkpt lat="45.76464" lon="2.95454">
        <ele>1073.1999511719</ele>
        <time>2024-09-15T09:10:52.000Z</time>
      </trkpt>
      <trkpt lat="45.76464" lon="2.95456">
        <ele>1073.4000244141</ele>
        <time>2024-09-15T09:10:53.000Z</time>
      </trkpt>
      <trkpt lat="45.76465" lon="2.95457">
        <ele>1073.5999755859</ele>
        <time>2024-09-15T09:10:54.000Z</time>
      </trkpt>
      <trkpt lat="45.76465" lon="2.95458">
        <ele>1073.8000488281</ele>
        <time>2024-09-15T09:10:55.000Z</time>
      </trkpt>
      <trkpt lat="45.76464" lon="2.9546">
        <ele>1074.1999511719</ele>
        <time>2024-09-15T09:10:56.000Z</time>
      </trkpt>
      <trkpt lat="45.76464" lon="2.95462">
        <ele>1074.5999755859</ele>
        <time>2024-09-15T09:10:57.000Z</time>
      </trkpt>
      <trkpt lat="45.76464" lon="2.95463">
        <ele>1075</ele>
        <time>2024-09-15T09:10:58.000Z</time>
      </trkpt>
      <trkpt lat="45.76464" lon="2.95465">
        <ele>1075.4000244141</ele>
        <time>2024-09-15T09:10:59.000Z</time>
      </trkpt>
      <trkpt lat="45.76464" lon="2.95465">
        <ele>1076</ele>
        <time>2024-09-15T09:11:00.000Z</time>
      </trkpt>
      <trkpt lat="45.76463" lon="2.95467">
        <ele>1076.4000244141</ele>
        <time>2024-09-15T09:11:01.000Z</time>
      </trkpt>
      <trkpt lat="45.76463" lon="2.95469">
        <ele>1076.4000244141</ele>
        <time>2024-09-15T09:11:02.000Z</time>
      </trkpt>
      <trkpt lat="45.76462" lon="2.9547">
        <ele>1076.8000488281</ele>
        <time>2024-09-15T09:11:03.000Z</time>
      </trkpt>
      <trkpt lat="45.76461" lon="2.95472">
        <ele>1077</ele>
        <time>2024-09-15T09:11:04.000Z</time>
      </trkpt>
      <trkpt lat="45.76461" lon="2.95473">
        <ele>1077.5999755859</ele>
        <time>2024-09-15T09:11:05.000Z</time>
      </trkpt>
      <trkpt lat="45.76461" lon="2.95474">
        <ele>1078</ele>
        <time>2024-09-15T09:11:06.000Z</time>
      </trkpt>
      <trkpt lat="45.7646" lon="2.95474">
        <ele>1078.4000244141</ele>
        <time>2024-09-15T09:11:07.000Z</time>
      </trkpt>
      <trkpt lat="45.7646" lon="2.95475">
        <ele>1078.4000244141</ele>
        <time>2024-09-15T09:11:08.000Z</time>
      </trkpt>
      <trkpt lat="45.7646" lon="2.95477">
        <ele>1078.8000488281</ele>
        <time>2024-09-15T09:11:09.000Z</time>
      </trkpt>
      <trkpt lat="45.76459" lon="2.95478">
        <ele>1079</ele>
        <time>2024-09-15T09:11:10.000Z</time>
      </trkpt>
      <trkpt lat="45.76458" lon="2.95478">
        <ele>1079.4000244141</ele>
        <time>2024-09-15T09:11:11.000Z</time>
      </trkpt>
      <trkpt lat="45.76457" lon="2.9548">
        <ele>1079.8000488281</ele>
        <time>2024-09-15T09:11:12.000Z</time>
      </trkpt>
      <trkpt lat="45.76457" lon="2.95481">
        <ele>1080</ele>
        <time>2024-09-15T09:11:13.000Z</time>
      </trkpt>
      <trkpt lat="45.76456" lon="2.95483">
        <ele>1080.1999511719</ele>
        <time>2024-09-15T09:11:14.000Z</time>
      </trkpt>
      <trkpt lat="45.76456" lon="2.95484">
        <ele>1080.4000244141</ele>
        <time>2024-09-15T09:11:15.000Z</time>
      </trkpt>
      <trkpt lat="45.76455" lon="2.95486">
        <ele>1080.8000488281</ele>
        <time>2024-09-15T09:11:16.000Z</time>
      </trkpt>
      <trkpt lat="45.76455" lon="2.95487">
        <ele>1081.4000244141</ele>
        <time>2024-09-15T09:11:17.000Z</time>
      </trkpt>
      <trkpt lat="45.76455" lon="2.95489">
        <ele>1082</ele>
        <time>2024-09-15T09:11:18.000Z</time>
      </trkpt>
      <trkpt lat="45.76455" lon="2.9549">
        <ele>1082.4000244141</ele>
        <time>2024-09-15T09:11:19.000Z</time>
      </trkpt>
      <trkpt lat="45.76455" lon="2.95491">
        <ele>1083</ele>
        <time>2024-09-15T09:11:20.000Z</time>
      </trkpt>
      <trkpt lat="45.76455" lon="2.95492">
        <ele>1083.5999755859</ele>
        <time>2024-09-15T09:11:21.000Z</time>
      </trkpt>
      <trkpt lat="45.76455" lon="2.95493">
        <ele>1083.8000488281</ele>
        <time>2024-09-15T09:11:22.000Z</time>
      </trkpt>
      <trkpt lat="45.76455" lon="2.95494">
        <ele>1084.1999511719</ele>
        <time>2024-09-15T09:11:23.000Z</time>
      </trkpt>
      <trkpt lat="45.76455" lon="2.95496">
        <ele>1084.5999755859</ele>
        <time>2024-09-15T09:11:24.000Z</time>
      </trkpt>
      <trkpt lat="45.76455" lon="2.95498">
        <ele>1085</ele>
        <time>2024-09-15T09:11:25.000Z</time>
      </trkpt>
      <trkpt lat="45.76455" lon="2.955">
        <ele>1085.1999511719</ele>
        <time>2024-09-15T09:11:26.000Z</time>
      </trkpt>
      <trkpt lat="45.76454" lon="2.95502">
        <ele>1085.4000244141</ele>
        <time>2024-09-15T09:11:27.000Z</time>
      </trkpt>
      <trkpt lat="45.76454" lon="2.95503">
        <ele>1085.5999755859</ele>
        <time>2024-09-15T09:11:28.000Z</time>
      </trkpt>
      <trkpt lat="45.76454" lon="2.95505">
        <ele>1086.1999511719</ele>
        <time>2024-09-15T09:11:29.000Z</time>
      </trkpt>
      <trkpt lat="45.76454" lon="2.95507">
        <ele>1086.4000244141</ele>
        <time>2024-09-15T09:11:30.000Z</time>
      </trkpt>
      <trkpt lat="45.76455" lon="2.95508">
        <ele>1086.5999755859</ele>
        <time>2024-09-15T09:11:31.000Z</time>
      </trkpt>
      <trkpt lat="45.76455" lon="2.9551">
        <ele>1086.8000488281</ele>
        <time>2024-09-15T09:11:32.000Z</time>
      </trkpt>
      <trkpt lat="45.76455" lon="2.95511">
        <ele>1087.1999511719</ele>
        <time>2024-09-15T09:11:33.000Z</time>
      </trkpt>
      <trkpt lat="45.76455" lon="2.95511">
        <ele>1087.5999755859</ele>
        <time>2024-09-15T09:11:34.000Z</time>
      </trkpt>
      <trkpt lat="45.76454" lon="2.95513">
        <ele>1087.8000488281</ele>
        <time>2024-09-15T09:11:35.000Z</time>
      </trkpt>
      <trkpt lat="45.76454" lon="2.95514">
        <ele>1088.4000244141</ele>
        <time>2024-09-15T09:11:36.000Z</time>
      </trkpt>
      <trkpt lat="45.76455" lon="2.95516">
        <ele>1089</ele>
        <time>2024-09-15T09:11:37.000Z</time>
      </trkpt>
      <trkpt lat="45.76455" lon="2.95516">
        <ele>1089.1999511719</ele>
        <time>2024-09-15T09:11:38.000Z</time>
      </trkpt>
      <trkpt lat="45.76456" lon="2.95518">
        <ele>1089.4000244141</ele>
        <time>2024-09-15T09:11:39.000Z</time>
      </trkpt>
      <trkpt lat="45.76456" lon="2.9552">
        <ele>1089.5999755859</ele>
        <time>2024-09-15T09:11:40.000Z</time>
      </trkpt>
      <trkpt lat="45.76457" lon="2.95521">
        <ele>1089.8000488281</ele>
        <time>2024-09-15T09:11:41.000Z</time>
      </trkpt>
      <trkpt lat="45.76458" lon="2.95523">
        <ele>1090.5999755859</ele>
        <time>2024-09-15T09:11:42.000Z</time>
      </trkpt>
      <trkpt lat="45.76458" lon="2.95525">
        <ele>1090.8000488281</ele>
        <time>2024-09-15T09:11:43.000Z</time>
      </trkpt>
      <trkpt lat="45.76459" lon="2.95526">
        <ele>1091</ele>
        <time>2024-09-15T09:11:44.000Z</time>
      </trkpt>
      <trkpt lat="45.7646" lon="2.95527">
        <ele>1091.4000244141</ele>
        <time>2024-09-15T09:11:45.000Z</time>
      </trkpt>
      <trkpt lat="45.76463" lon="2.95527">
        <ele>1091.8000488281</ele>
        <time>2024-09-15T09:11:46.000Z</time>
      </trkpt>
      <trkpt lat="45.76465" lon="2.95527">
        <ele>1092</ele>
        <time>2024-09-15T09:11:47.000Z</time>
      </trkpt>
      <trkpt lat="45.76468" lon="2.95526">
        <ele>1092</ele>
        <time>2024-09-15T09:11:48.000Z</time>
      </trkpt>
      <trkpt lat="45.7647" lon="2.95525">
        <ele>1092</ele>
        <time>2024-09-15T09:11:49.000Z</time>
      </trkpt>
      <trkpt lat="45.76472" lon="2.95524">
        <ele>1091.8000488281</ele>
        <time>2024-09-15T09:11:50.000Z</time>
      </trkpt>
      <trkpt lat="45.76475" lon="2.95523">
        <ele>1091.5999755859</ele>
        <time>2024-09-15T09:11:51.000Z</time>
      </trkpt>
      <trkpt lat="45.76478" lon="2.95522">
        <ele>1091.1999511719</ele>
        <time>2024-09-15T09:11:52.000Z</time>
      </trkpt>
      <trkpt lat="45.7648" lon="2.95522">
        <ele>1091.1999511719</ele>
        <time>2024-09-15T09:11:53.000Z</time>
      </trkpt>
      <trkpt lat="45.76483" lon="2.95521">
        <ele>1091.1999511719</ele>
        <time>2024-09-15T09:11:54.000Z</time>
      </trkpt>
      <trkpt lat="45.76486" lon="2.9552">
        <ele>1091</ele>
        <time>2024-09-15T09:11:55.000Z</time>
      </trkpt>
      <trkpt lat="45.76489" lon="2.95519">
        <ele>1091</ele>
        <time>2024-09-15T09:11:56.000Z</time>
      </trkpt>
      <trkpt lat="45.76492" lon="2.95518">
        <ele>1090.8000488281</ele>
        <time>2024-09-15T09:11:57.000Z</time>
      </trkpt>
      <trkpt lat="45.76495" lon="2.95517">
        <ele>1090.8000488281</ele>
        <time>2024-09-15T09:11:58.000Z</time>
      </trkpt>
      <trkpt lat="45.76498" lon="2.95515">
        <ele>1090.5999755859</ele>
        <time>2024-09-15T09:11:59.000Z</time>
      </trkpt>
      <trkpt lat="45.76501" lon="2.95514">
        <ele>1090.4000244141</ele>
        <time>2024-09-15T09:12:00.000Z</time>
      </trkpt>
      <trkpt lat="45.76503" lon="2.95513">
        <ele>1090.4000244141</ele>
        <time>2024-09-15T09:12:01.000Z</time>
      </trkpt>
      <trkpt lat="45.76506" lon="2.95511">
        <ele>1090.1999511719</ele>
        <time>2024-09-15T09:12:02.000Z</time>
      </trkpt>
      <trkpt lat="45.76509" lon="2.95509">
        <ele>1090</ele>
        <time>2024-09-15T09:12:03.000Z</time>
      </trkpt>
      <trkpt lat="45.76512" lon="2.95507">
        <ele>1089.8000488281</ele>
        <time>2024-09-15T09:12:04.000Z</time>
      </trkpt>
      <trkpt lat="45.76514" lon="2.95506">
        <ele>1089.5999755859</ele>
        <time>2024-09-15T09:12:05.000Z</time>
      </trkpt>
      <trkpt lat="45.76517" lon="2.95505">
        <ele>1089.5999755859</ele>
        <time>2024-09-15T09:12:06.000Z</time>
      </trkpt>
      <trkpt lat="45.7652" lon="2.95503">
        <ele>1089.4000244141</ele>
        <time>2024-09-15T09:12:07.000Z</time>
      </trkpt>
      <trkpt lat="45.76523" lon="2.95502">
        <ele>1089</ele>
        <time>2024-09-15T09:12:08.000Z</time>
      </trkpt>
      <trkpt lat="45.76525" lon="2.95501">
        <ele>1089</ele>
        <time>2024-09-15T09:12:09.000Z</time>
      </trkpt>
      <trkpt lat="45.76528" lon="2.955">
        <ele>1088.8000488281</ele>
        <time>2024-09-15T09:12:10.000Z</time>
      </trkpt>
      <trkpt lat="45.76531" lon="2.95499">
        <ele>1088.5999755859</ele>
        <time>2024-09-15T09:12:11.000Z</time>
      </trkpt>
      <trkpt lat="45.76533" lon="2.95498">
        <ele>1088.5999755859</ele>
        <time>2024-09-15T09:12:12.000Z</time>
      </trkpt>
      <trkpt lat="45.76536" lon="2.95496">
        <ele>1088.4000244141</ele>
        <time>2024-09-15T09:12:13.000Z</time>
      </trkpt>
      <trkpt lat="45.76539" lon="2.95496">
        <ele>1088.4000244141</ele>
        <time>2024-09-15T09:12:14.000Z</time>
      </trkpt>
      <trkpt lat="45.76541" lon="2.95495">
        <ele>1088.4000244141</ele>
        <time>2024-09-15T09:12:15.000Z</time>
      </trkpt>
      <trkpt lat="45.76544" lon="2.95493">
        <ele>1088.4000244141</ele>
        <time>2024-09-15T09:12:16.000Z</time>
      </trkpt>
      <trkpt lat="45.76546" lon="2.95492">
        <ele>1088.4000244141</ele>
        <time>2024-09-15T09:12:17.000Z</time>
      </trkpt>
      <trkpt lat="45.76549" lon="2.95492">
        <ele>1088.5999755859</ele>
        <time>2024-09-15T09:12:18.000Z</time>
      </trkpt>
      <trkpt lat="45.76551" lon="2.95492">
        <ele>1088.5999755859</ele>
        <time>2024-09-15T09:12:19.000Z</time>
      </trkpt>
      <trkpt lat="45.76554" lon="2.95493">
        <ele>1088.8000488281</ele>
        <time>2024-09-15T09:12:20.000Z</time>
      </trkpt>
      <trkpt lat="45.76556" lon="2.95493">
        <ele>1088.8000488281</ele>
        <time>2024-09-15T09:12:21.000Z</time>
      </trkpt>
      <trkpt lat="45.76559" lon="2.95491">
        <ele>1088.8000488281</ele>
        <time>2024-09-15T09:12:22.000Z</time>
      </trkpt>
      <trkpt lat="45.76561" lon="2.95489">
        <ele>1089</ele>
        <time>2024-09-15T09:12:23.000Z</time>
      </trkpt>
      <trkpt lat="45.76563" lon="2.95487">
        <ele>1089</ele>
        <time>2024-09-15T09:12:24.000Z</time>
      </trkpt>
      <trkpt lat="45.76565" lon="2.95486">
        <ele>1089.1999511719</ele>
        <time>2024-09-15T09:12:25.000Z</time>
      </trkpt>
      <trkpt lat="45.76568" lon="2.95485">
        <ele>1089.5999755859</ele>
        <time>2024-09-15T09:12:26.000Z</time>
      </trkpt>
      <trkpt lat="45.7657" lon="2.95484">
        <ele>1090.5999755859</ele>
        <time>2024-09-15T09:12:27.000Z</time>
      </trkpt>
      <trkpt lat="45.76573" lon="2.95483">
        <ele>1091.1999511719</ele>
        <time>2024-09-15T09:12:28.000Z</time>
      </trkpt>
      <trkpt lat="45.76575" lon="2.95482">
        <ele>1091.4000244141</ele>
        <time>2024-09-15T09:12:29.000Z</time>
      </trkpt>
      <trkpt lat="45.76577" lon="2.95482">
        <ele>1091.8000488281</ele>
        <time>2024-09-15T09:12:30.000Z</time>
      </trkpt>
      <trkpt lat="45.7658" lon="2.95481">
        <ele>1092.1999511719</ele>
        <time>2024-09-15T09:12:31.000Z</time>
      </trkpt>
      <trkpt lat="45.76582" lon="2.95481">
        <ele>1092.5999755859</ele>
        <time>2024-09-15T09:12:32.000Z</time>
      </trkpt>
      <trkpt lat="45.76584" lon="2.95481">
        <ele>1092.5999755859</ele>
        <time>2024-09-15T09:12:33.000Z</time>
      </trkpt>
      <trkpt lat="45.76586" lon="2.95479">
        <ele>1092.8000488281</ele>
        <time>2024-09-15T09:12:34.000Z</time>
      </trkpt>
      <trkpt lat="45.76588" lon="2.95478">
        <ele>1092.8000488281</ele>
        <time>2024-09-15T09:12:35.000Z</time>
      </trkpt>
      <trkpt lat="45.76591" lon="2.95477">
        <ele>1092.8000488281</ele>
        <time>2024-09-15T09:12:36.000Z</time>
      </trkpt>
      <trkpt lat="45.76593" lon="2.95476">
        <ele>1092.8000488281</ele>
        <time>2024-09-15T09:12:37.000Z</time>
      </trkpt>
      <trkpt lat="45.76595" lon="2.95475">
        <ele>1092.8000488281</ele>
        <time>2024-09-15T09:12:38.000Z</time>
      </trkpt>
      <trkpt lat="45.76597" lon="2.95473">
        <ele>1093</ele>
        <time>2024-09-15T09:12:39.000Z</time>
      </trkpt>
      <trkpt lat="45.76599" lon="2.95471">
        <ele>1093</ele>
        <time>2024-09-15T09:12:40.000Z</time>
      </trkpt>
      <trkpt lat="45.76601" lon="2.95469">
        <ele>1093.1999511719</ele>
        <time>2024-09-15T09:12:41.000Z</time>
      </trkpt>
      <trkpt lat="45.76603" lon="2.95465">
        <ele>1093.1999511719</ele>
        <time>2024-09-15T09:12:42.000Z</time>
      </trkpt>
      <trkpt lat="45.76606" lon="2.95462">
        <ele>1093.1999511719</ele>
        <time>2024-09-15T09:12:43.000Z</time>
      </trkpt>
      <trkpt lat="45.76608" lon="2.95458">
        <ele>1093.1999511719</ele>
        <time>2024-09-15T09:12:44.000Z</time>
      </trkpt>
      <trkpt lat="45.7661" lon="2.95455">
        <ele>1093</ele>
        <time>2024-09-15T09:12:45.000Z</time>
      </trkpt>
      <trkpt lat="45.76612" lon="2.95451">
        <ele>1092.5999755859</ele>
        <time>2024-09-15T09:12:46.000Z</time>
      </trkpt>
      <trkpt lat="45.76613" lon="2.95449">
        <ele>1092.4000244141</ele>
        <time>2024-09-15T09:12:47.000Z</time>
      </trkpt>
      <trkpt lat="45.76615" lon="2.95446">
        <ele>1092.1999511719</ele>
        <time>2024-09-15T09:12:48.000Z</time>
      </trkpt>
      <trkpt lat="45.76617" lon="2.95443">
        <ele>1091.8000488281</ele>
        <time>2024-09-15T09:12:49.000Z</time>
      </trkpt>
      <trkpt lat="45.76619" lon="2.95441">
        <ele>1091</ele>
        <time>2024-09-15T09:12:50.000Z</time>
      </trkpt>
      <trkpt lat="45.76622" lon="2.95439">
        <ele>1090</ele>
        <time>2024-09-15T09:12:51.000Z</time>
      </trkpt>
      <trkpt lat="45.76625" lon="2.95437">
        <ele>1089.5999755859</ele>
        <time>2024-09-15T09:12:52.000Z</time>
      </trkpt>
      <trkpt lat="45.76627" lon="2.95435">
        <ele>1089.1999511719</ele>
        <time>2024-09-15T09:12:53.000Z</time>
      </trkpt>
      <trkpt lat="45.7663" lon="2.95434">
        <ele>1089</ele>
        <time>2024-09-15T09:12:54.000Z</time>
      </trkpt>
      <trkpt lat="45.76633" lon="2.95431">
        <ele>1088.5999755859</ele>
        <time>2024-09-15T09:12:55.000Z</time>
      </trkpt>
      <trkpt lat="45.76636" lon="2.95428">
        <ele>1088.1999511719</ele>
        <time>2024-09-15T09:12:56.000Z</time>
      </trkpt>
      <trkpt lat="45.76639" lon="2.95426">
        <ele>1088</ele>
        <time>2024-09-15T09:12:57.000Z</time>
      </trkpt>
      <trkpt lat="45.76642" lon="2.95424">
        <ele>1087.5999755859</ele>
        <time>2024-09-15T09:12:58.000Z</time>
      </trkpt>
      <trkpt lat="45.76645" lon="2.95423">
        <ele>1087.4000244141</ele>
        <time>2024-09-15T09:12:59.000Z</time>
      </trkpt>
      <trkpt lat="45.76648" lon="2.95421">
        <ele>1087.1999511719</ele>
        <time>2024-09-15T09:13:00.000Z</time>
      </trkpt>
      <trkpt lat="45.76651" lon="2.95419">
        <ele>1087.1999511719</ele>
        <time>2024-09-15T09:13:01.000Z</time>
      </trkpt>
      <trkpt lat="45.76654" lon="2.95418">
        <ele>1087</ele>
        <time>2024-09-15T09:13:02.000Z</time>
      </trkpt>
      <trkpt lat="45.76658" lon="2.95417">
        <ele>1087</ele>
        <time>2024-09-15T09:13:03.000Z</time>
      </trkpt>
      <trkpt lat="45.76661" lon="2.95416">
        <ele>1087</ele>
        <time>2024-09-15T09:13:04.000Z</time>
      </trkpt>
      <trkpt lat="45.76664" lon="2.95415">
        <ele>1086.8000488281</ele>
        <time>2024-09-15T09:13:05.000Z</time>
      </trkpt>
      <trkpt lat="45.76667" lon="2.95414">
        <ele>1086.8000488281</ele>
        <time>2024-09-15T09:13:06.000Z</time>
      </trkpt>
      <trkpt lat="45.76671" lon="2.95413">
        <ele>1087</ele>
        <time>2024-09-15T09:13:07.000Z</time>
      </trkpt>
      <trkpt lat="45.76674" lon="2.95412">
        <ele>1087</ele>
        <time>2024-09-15T09:13:08.000Z</time>
      </trkpt>
      <trkpt lat="45.76678" lon="2.95411">
        <ele>1087</ele>
        <time>2024-09-15T09:13:09.000Z</time>
      </trkpt>
      <trkpt lat="45.76681" lon="2.9541">
        <ele>1087</ele>
        <time>2024-09-15T09:13:10.000Z</time>
      </trkpt>
      <trkpt lat="45.76683" lon="2.95409">
        <ele>1087.1999511719</ele>
        <time>2024-09-15T09:13:11.000Z</time>
      </trkpt>
      <trkpt lat="45.76686" lon="2.95409">
        <ele>1087.1999511719</ele>
        <time>2024-09-15T09:13:12.000Z</time>
      </trkpt>
      <trkpt lat="45.76689" lon="2.95409">
        <ele>1087.1999511719</ele>
        <time>2024-09-15T09:13:13.000Z</time>
      </trkpt>
      <trkpt lat="45.76691" lon="2.95408">
        <ele>1087.1999511719</ele>
        <time>2024-09-15T09:13:14.000Z</time>
      </trkpt>
      <trkpt lat="45.76694" lon="2.95408">
        <ele>1087.4000244141</ele>
        <time>2024-09-15T09:13:15.000Z</time>
      </trkpt>
      <trkpt lat="45.76697" lon="2.95408">
        <ele>1087.4000244141</ele>
        <time>2024-09-15T09:13:16.000Z</time>
      </trkpt>
      <trkpt lat="45.767" lon="2.95408">
        <ele>1087.5999755859</ele>
        <time>2024-09-15T09:13:17.000Z</time>
      </trkpt>
      <trkpt lat="45.76702" lon="2.95407">
        <ele>1087.8000488281</ele>
        <time>2024-09-15T09:13:18.000Z</time>
      </trkpt>
      <trkpt lat="45.76705" lon="2.95407">
        <ele>1087.8000488281</ele>
        <time>2024-09-15T09:13:19.000Z</time>
      </trkpt>
      <trkpt lat="45.76707" lon="2.95407">
        <ele>1088</ele>
        <time>2024-09-15T09:13:20.000Z</time>
      </trkpt>
      <trkpt lat="45.7671" lon="2.95406">
        <ele>1088.1999511719</ele>
        <time>2024-09-15T09:13:21.000Z</time>
      </trkpt>
      <trkpt lat="45.76713" lon="2.95406">
        <ele>1088.4000244141</ele>
        <time>2024-09-15T09:13:22.000Z</time>
      </trkpt>
      <trkpt lat="45.76715" lon="2.95405">
        <ele>1088.5999755859</ele>
        <time>2024-09-15T09:13:23.000Z</time>
      </trkpt>
      <trkpt lat="45.76719" lon="2.95404">
        <ele>1088.5999755859</ele>
        <time>2024-09-15T09:13:24.000Z</time>
      </trkpt>
      <trkpt lat="45.76722" lon="2.95404">
        <ele>1088.8000488281</ele>
        <time>2024-09-15T09:13:25.000Z</time>
      </trkpt>
      <trkpt lat="45.76724" lon="2.95403">
        <ele>1088.8000488281</ele>
        <time>2024-09-15T09:13:26.000Z</time>
      </trkpt>
      <trkpt lat="45.76727" lon="2.95402">
        <ele>1088.8000488281</ele>
        <time>2024-09-15T09:13:27.000Z</time>
      </trkpt>
      <trkpt lat="45.7673" lon="2.95402">
        <ele>1088.8000488281</ele>
        <time>2024-09-15T09:13:28.000Z</time>
      </trkpt>
      <trkpt lat="45.76733" lon="2.95401">
        <ele>1088.5999755859</ele>
        <time>2024-09-15T09:13:29.000Z</time>
      </trkpt>
      <trkpt lat="45.76736" lon="2.95402">
        <ele>1088.5999755859</ele>
        <time>2024-09-15T09:13:30.000Z</time>
      </trkpt>
      <trkpt lat="45.76739" lon="2.95401">
        <ele>1088.4000244141</ele>
        <time>2024-09-15T09:13:31.000Z</time>
      </trkpt>
      <trkpt lat="45.76742" lon="2.954">
        <ele>1088.4000244141</ele>
        <time>2024-09-15T09:13:32.000Z</time>
      </trkpt>
      <trkpt lat="45.76745" lon="2.95399">
        <ele>1088.1999511719</ele>
        <time>2024-09-15T09:13:33.000Z</time>
      </trkpt>
      <trkpt lat="45.76748" lon="2.95399">
        <ele>1088.1999511719</ele>
        <time>2024-09-15T09:13:34.000Z</time>
      </trkpt>
      <trkpt lat="45.76751" lon="2.95399">
        <ele>1088</ele>
        <time>2024-09-15T09:13:35.000Z</time>
      </trkpt>
      <trkpt lat="45.76754" lon="2.95399">
        <ele>1088</ele>
        <time>2024-09-15T09:13:36.000Z</time>
      </trkpt>
      <trkpt lat="45.76756" lon="2.954">
        <ele>1088</ele>
        <time>2024-09-15T09:13:37.000Z</time>
      </trkpt>
      <trkpt lat="45.76759" lon="2.954">
        <ele>1088</ele>
        <time>2024-09-15T09:13:38.000Z</time>
      </trkpt>
      <trkpt lat="45.76762" lon="2.95401">
        <ele>1088</ele>
        <time>2024-09-15T09:13:39.000Z</time>
      </trkpt>
      <trkpt lat="45.76765" lon="2.95401">
        <ele>1088</ele>
        <time>2024-09-15T09:13:40.000Z</time>
      </trkpt>
      <trkpt lat="45.76768" lon="2.95402">
        <ele>1088</ele>
        <time>2024-09-15T09:13:41.000Z</time>
      </trkpt>
      <trkpt lat="45.7677" lon="2.95403">
        <ele>1088.1999511719</ele>
        <time>2024-09-15T09:13:42.000Z</time>
      </trkpt>
      <trkpt lat="45.76773" lon="2.95404">
        <ele>1088.1999511719</ele>
        <time>2024-09-15T09:13:43.000Z</time>
      </trkpt>
      <trkpt lat="45.76776" lon="2.95405">
        <ele>1088.4000244141</ele>
        <time>2024-09-15T09:13:44.000Z</time>
      </trkpt>
      <trkpt lat="45.76778" lon="2.95406">
        <ele>1088.8000488281</ele>
        <time>2024-09-15T09:13:45.000Z</time>
      </trkpt>
      <trkpt lat="45.76781" lon="2.95407">
        <ele>1089</ele>
        <time>2024-09-15T09:13:46.000Z</time>
      </trkpt>
      <trkpt lat="45.76783" lon="2.95408">
        <ele>1089</ele>
        <time>2024-09-15T09:13:47.000Z</time>
      </trkpt>
      <trkpt lat="45.76785" lon="2.95409">
        <ele>1089.1999511719</ele>
        <time>2024-09-15T09:13:48.000Z</time>
      </trkpt>
      <trkpt lat="45.76788" lon="2.9541">
        <ele>1089.4000244141</ele>
        <time>2024-09-15T09:13:49.000Z</time>
      </trkpt>
      <trkpt lat="45.7679" lon="2.9541">
        <ele>1090</ele>
        <time>2024-09-15T09:13:50.000Z</time>
      </trkpt>
      <trkpt lat="45.76792" lon="2.95409">
        <ele>1090.5999755859</ele>
        <time>2024-09-15T09:13:51.000Z</time>
      </trkpt>
      <trkpt lat="45.76794" lon="2.95409">
        <ele>1091</ele>
        <time>2024-09-15T09:13:52.000Z</time>
      </trkpt>
      <trkpt lat="45.76797" lon="2.95408">
        <ele>1091.1999511719</ele>
        <time>2024-09-15T09:13:53.000Z</time>
      </trkpt>
      <trkpt lat="45.768" lon="2.95407">
        <ele>1091.5999755859</ele>
        <time>2024-09-15T09:13:54.000Z</time>
      </trkpt>
      <trkpt lat="45.76802" lon="2.95407">
        <ele>1091.8000488281</ele>
        <time>2024-09-15T09:13:55.000Z</time>
      </trkpt>
      <trkpt lat="45.76804" lon="2.95406">
        <ele>1091.8000488281</ele>
        <time>2024-09-15T09:13:56.000Z</time>
      </trkpt>
      <trkpt lat="45.76807" lon="2.95405">
        <ele>1091.8000488281</ele>
        <time>2024-09-15T09:13:57.000Z</time>
      </trkpt>
      <trkpt lat="45.76809" lon="2.95404">
        <ele>1092</ele>
        <time>2024-09-15T09:13:58.000Z</time>
      </trkpt>
      <trkpt lat="45.76812" lon="2.95402">
        <ele>1092</ele>
        <time>2024-09-15T09:13:59.000Z</time>
      </trkpt>
      <trkpt lat="45.76815" lon="2.95401">
        <ele>1092</ele>
        <time>2024-09-15T09:14:00.000Z</time>
      </trkpt>
      <trkpt lat="45.76818" lon="2.95399">
        <ele>1092</ele>
        <time>2024-09-15T09:14:01.000Z</time>
      </trkpt>
      <trkpt lat="45.7682" lon="2.95398">
        <ele>1092</ele>
        <time>2024-09-15T09:14:02.000Z</time>
      </trkpt>
      <trkpt lat="45.76823" lon="2.95397">
        <ele>1092</ele>
        <time>2024-09-15T09:14:03.000Z</time>
      </trkpt>
      <trkpt lat="45.76826" lon="2.95395">
        <ele>1092</ele>
        <time>2024-09-15T09:14:04.000Z</time>
      </trkpt>
      <trkpt lat="45.76829" lon="2.95394">
        <ele>1092</ele>
        <time>2024-09-15T09:14:05.000Z</time>
      </trkpt>
      <trkpt lat="45.76831" lon="2.95393">
        <ele>1092</ele>
        <time>2024-09-15T09:14:06.000Z</time>
      </trkpt>
      <trkpt lat="45.76834" lon="2.95391">
        <ele>1092</ele>
        <time>2024-09-15T09:14:07.000Z</time>
      </trkpt>
      <trkpt lat="45.76836" lon="2.95389">
        <ele>1092</ele>
        <time>2024-09-15T09:14:08.000Z</time>
      </trkpt>
      <trkpt lat="45.76839" lon="2.95387">
        <ele>1092</ele>
        <time>2024-09-15T09:14:09.000Z</time>
      </trkpt>
      <trkpt lat="45.76841" lon="2.95385">
        <ele>1092</ele>
        <time>2024-09-15T09:14:10.000Z</time>
      </trkpt>
      <trkpt lat="45.76844" lon="2.95384">
        <ele>1092.1999511719</ele>
        <time>2024-09-15T09:14:11.000Z</time>
      </trkpt>
      <trkpt lat="45.76846" lon="2.95382">
        <ele>1092.1999511719</ele>
        <time>2024-09-15T09:14:12.000Z</time>
      </trkpt>
      <trkpt lat="45.76849" lon="2.9538">
        <ele>1092.1999511719</ele>
        <time>2024-09-15T09:14:13.000Z</time>
      </trkpt>
      <trkpt lat="45.76851" lon="2.95378">
        <ele>1092.4000244141</ele>
        <time>2024-09-15T09:14:14.000Z</time>
      </trkpt>
      <trkpt lat="45.76854" lon="2.95377">
        <ele>1092.4000244141</ele>
        <time>2024-09-15T09:14:15.000Z</time>
      </trkpt>
      <trkpt lat="45.76857" lon="2.95375">
        <ele>1092.5999755859</ele>
        <time>2024-09-15T09:14:16.000Z</time>
      </trkpt>
      <trkpt lat="45.7686" lon="2.95374">
        <ele>1092.5999755859</ele>
        <time>2024-09-15T09:14:17.000Z</time>
      </trkpt>
      <trkpt lat="45.76862" lon="2.95373">
        <ele>1092.5999755859</ele>
        <time>2024-09-15T09:14:18.000Z</time>
      </trkpt>
      <trkpt lat="45.76866" lon="2.95372">
        <ele>1092.5999755859</ele>
        <time>2024-09-15T09:14:19.000Z</time>
      </trkpt>
      <trkpt lat="45.76869" lon="2.95371">
        <ele>1092.5999755859</ele>
        <time>2024-09-15T09:14:20.000Z</time>
      </trkpt>
      <trkpt lat="45.76872" lon="2.9537">
        <ele>1092.5999755859</ele>
        <time>2024-09-15T09:14:21.000Z</time>
      </trkpt>
      <trkpt lat="45.76875" lon="2.95369">
        <ele>1092.5999755859</ele>
        <time>2024-09-15T09:14:22.000Z</time>
      </trkpt>
      <trkpt lat="45.76878" lon="2.95368">
        <ele>1092.4000244141</ele>
        <time>2024-09-15T09:14:23.000Z</time>
      </trkpt>
      <trkpt lat="45.76881" lon="2.95367">
        <ele>1092.1999511719</ele>
        <time>2024-09-15T09:14:24.000Z</time>
      </trkpt>
      <trkpt lat="45.76884" lon="2.95366">
        <ele>1092.1999511719</ele>
        <time>2024-09-15T09:14:25.000Z</time>
      </trkpt>
      <trkpt lat="45.76887" lon="2.95366">
        <ele>1092</ele>
        <time>2024-09-15T09:14:26.000Z</time>
      </trkpt>
      <trkpt lat="45.7689" lon="2.95365">
        <ele>1092</ele>
        <time>2024-09-15T09:14:27.000Z</time>
      </trkpt>
      <trkpt lat="45.76893" lon="2.95363">
        <ele>1092</ele>
        <time>2024-09-15T09:14:28.000Z</time>
      </trkpt>
      <trkpt lat="45.76895" lon="2.95362">
        <ele>1092</ele>
        <time>2024-09-15T09:14:29.000Z</time>
      </trkpt>
      <trkpt lat="45.76898" lon="2.95361">
        <ele>1092</ele>
        <time>2024-09-15T09:14:30.000Z</time>
      </trkpt>
      <trkpt lat="45.769" lon="2.95359">
        <ele>1092</ele>
        <time>2024-09-15T09:14:31.000Z</time>
      </trkpt>
      <trkpt lat="45.76903" lon="2.95357">
        <ele>1092</ele>
        <time>2024-09-15T09:14:32.000Z</time>
      </trkpt>
      <trkpt lat="45.76905" lon="2.95356">
        <ele>1092.1999511719</ele>
        <time>2024-09-15T09:14:33.000Z</time>
      </trkpt>
      <trkpt lat="45.76908" lon="2.95354">
        <ele>1092.1999511719</ele>
        <time>2024-09-15T09:14:34.000Z</time>
      </trkpt>
      <trkpt lat="45.7691" lon="2.95353">
        <ele>1092.1999511719</ele>
        <time>2024-09-15T09:14:35.000Z</time>
      </trkpt>
      <trkpt lat="45.76913" lon="2.95351">
        <ele>1092.1999511719</ele>
        <time>2024-09-15T09:14:36.000Z</time>
      </trkpt>
      <trkpt lat="45.76915" lon="2.95349">
        <ele>1092.1999511719</ele>
        <time>2024-09-15T09:14:37.000Z</time>
      </trkpt>
      <trkpt lat="45.76917" lon="2.95347">
        <ele>1092.5999755859</ele>
        <time>2024-09-15T09:14:38.000Z</time>
      </trkpt>
      <trkpt lat="45.76919" lon="2.95345">
        <ele>1092.5999755859</ele>
        <time>2024-09-15T09:14:39.000Z</time>
      </trkpt>
      <trkpt lat="45.76921" lon="2.95344">
        <ele>1092.8000488281</ele>
        <time>2024-09-15T09:14:40.000Z</time>
      </trkpt>
      <trkpt lat="45.76924" lon="2.95342">
        <ele>1093</ele>
        <time>2024-09-15T09:14:41.000Z</time>
      </trkpt>
      <trkpt lat="45.76926" lon="2.95341">
        <ele>1093.4000244141</ele>
        <time>2024-09-15T09:14:42.000Z</time>
      </trkpt>
      <trkpt lat="45.76928" lon="2.95338">
        <ele>1093.4000244141</ele>
        <time>2024-09-15T09:14:43.000Z</time>
      </trkpt>
      <trkpt lat="45.7693" lon="2.95336">
        <ele>1093.4000244141</ele>
        <time>2024-09-15T09:14:44.000Z</time>
      </trkpt>
      <trkpt lat="45.76932" lon="2.95335">
        <ele>1093.5999755859</ele>
        <time>2024-09-15T09:14:45.000Z</time>
      </trkpt>
      <trkpt lat="45.76935" lon="2.95333">
        <ele>1093.5999755859</ele>
        <time>2024-09-15T09:14:46.000Z</time>
      </trkpt>
      <trkpt lat="45.76937" lon="2.95332">
        <ele>1093.5999755859</ele>
        <time>2024-09-15T09:14:47.000Z</time>
      </trkpt>
      <trkpt lat="45.76939" lon="2.9533">
        <ele>1093.8000488281</ele>
        <time>2024-09-15T09:14:48.000Z</time>
      </trkpt>
      <trkpt lat="45.76942" lon="2.9533">
        <ele>1093.8000488281</ele>
        <time>2024-09-15T09:14:49.000Z</time>
      </trkpt>
      <trkpt lat="45.76944" lon="2.95329">
        <ele>1094</ele>
        <time>2024-09-15T09:14:50.000Z</time>
      </trkpt>
      <trkpt lat="45.76947" lon="2.95328">
        <ele>1094.1999511719</ele>
        <time>2024-09-15T09:14:51.000Z</time>
      </trkpt>
      <trkpt lat="45.76949" lon="2.95327">
        <ele>1094.4000244141</ele>
        <time>2024-09-15T09:14:52.000Z</time>
      </trkpt>
      <trkpt lat="45.76952" lon="2.95327">
        <ele>1094.5999755859</ele>
        <time>2024-09-15T09:14:53.000Z</time>
      </trkpt>
      <trkpt lat="45.76954" lon="2.95326">
        <ele>1094.8000488281</ele>
        <time>2024-09-15T09:14:54.000Z</time>
      </trkpt>
      <trkpt lat="45.76956" lon="2.95325">
        <ele>1095</ele>
        <time>2024-09-15T09:14:55.000Z</time>
      </trkpt>
      <trkpt lat="45.76959" lon="2.95324">
        <ele>1095.1999511719</ele>
        <time>2024-09-15T09:14:56.000Z</time>
      </trkpt>
      <trkpt lat="45.76961" lon="2.95323">
        <ele>1095.4000244141</ele>
        <time>2024-09-15T09:14:57.000Z</time>
      </trkpt>
      <trkpt lat="45.76963" lon="2.95322">
        <ele>1095.8000488281</ele>
        <time>2024-09-15T09:14:58.000Z</time>
      </trkpt>
      <trkpt lat="45.76965" lon="2.95321">
        <ele>1096.1999511719</ele>
        <time>2024-09-15T09:14:59.000Z</time>
      </trkpt>
      <trkpt lat="45.76967" lon="2.9532">
        <ele>1096.4000244141</ele>
        <time>2024-09-15T09:15:00.000Z</time>
      </trkpt>
      <trkpt lat="45.7697" lon="2.95318">
        <ele>1096.5999755859</ele>
        <time>2024-09-15T09:15:01.000Z</time>
      </trkpt>
      <trkpt lat="45.76972" lon="2.95317">
        <ele>1096.8000488281</ele>
        <time>2024-09-15T09:15:02.000Z</time>
      </trkpt>
      <trkpt lat="45.76974" lon="2.95316">
        <ele>1097.1999511719</ele>
        <time>2024-09-15T09:15:03.000Z</time>
      </trkpt>
      <trkpt lat="45.76976" lon="2.95315">
        <ele>1097.4000244141</ele>
        <time>2024-09-15T09:15:04.000Z</time>
      </trkpt>
      <trkpt lat="45.76979" lon="2.95314">
        <ele>1097.5999755859</ele>
        <time>2024-09-15T09:15:05.000Z</time>
      </trkpt>
      <trkpt lat="45.76981" lon="2.95314">
        <ele>1097.8000488281</ele>
        <time>2024-09-15T09:15:06.000Z</time>
      </trkpt>
      <trkpt lat="45.76984" lon="2.95313">
        <ele>1098.1999511719</ele>
        <time>2024-09-15T09:15:07.000Z</time>
      </trkpt>
      <trkpt lat="45.76986" lon="2.95313">
        <ele>1098.4000244141</ele>
        <time>2024-09-15T09:15:08.000Z</time>
      </trkpt>
      <trkpt lat="45.76989" lon="2.95313">
        <ele>1098.5999755859</ele>
        <time>2024-09-15T09:15:09.000Z</time>
      </trkpt>
      <trkpt lat="45.76991" lon="2.95314">
        <ele>1098.8000488281</ele>
        <time>2024-09-15T09:15:10.000Z</time>
      </trkpt>
      <trkpt lat="45.76994" lon="2.95313">
        <ele>1099</ele>
        <time>2024-09-15T09:15:11.000Z</time>
      </trkpt>
      <trkpt lat="45.76996" lon="2.95313">
        <ele>1099.4000244141</ele>
        <time>2024-09-15T09:15:12.000Z</time>
      </trkpt>
      <trkpt lat="45.76999" lon="2.95313">
        <ele>1099.5999755859</ele>
        <time>2024-09-15T09:15:13.000Z</time>
      </trkpt>
      <trkpt lat="45.77001" lon="2.95314">
        <ele>1099.8000488281</ele>
        <time>2024-09-15T09:15:14.000Z</time>
      </trkpt>
      <trkpt lat="45.77004" lon="2.95313">
        <ele>1100</ele>
        <time>2024-09-15T09:15:15.000Z</time>
      </trkpt>
      <trkpt lat="45.77007" lon="2.95312">
        <ele>1100.1999511719</ele>
        <time>2024-09-15T09:15:16.000Z</time>
      </trkpt>
      <trkpt lat="45.77009" lon="2.95312">
        <ele>1100.1999511719</ele>
        <time>2024-09-15T09:15:17.000Z</time>
      </trkpt>
      <trkpt lat="45.77012" lon="2.9531">
        <ele>1100.4000244141</ele>
        <time>2024-09-15T09:15:18.000Z</time>
      </trkpt>
      <trkpt lat="45.77014" lon="2.95308">
        <ele>1100.4000244141</ele>
        <time>2024-09-15T09:15:19.000Z</time>
      </trkpt>
      <trkpt lat="45.77017" lon="2.95306">
        <ele>1100.4000244141</ele>
        <time>2024-09-15T09:15:20.000Z</time>
      </trkpt>
      <trkpt lat="45.77019" lon="2.95304">
        <ele>1100.4000244141</ele>
        <time>2024-09-15T09:15:21.000Z</time>
      </trkpt>
      <trkpt lat="45.77022" lon="2.95303">
        <ele>1100.1999511719</ele>
        <time>2024-09-15T09:15:22.000Z</time>
      </trkpt>
      <trkpt lat="45.77025" lon="2.95302">
        <ele>1100</ele>
        <time>2024-09-15T09:15:23.000Z</time>
      </trkpt>
      <trkpt lat="45.77027" lon="2.953">
        <ele>1099.5999755859</ele>
        <time>2024-09-15T09:15:24.000Z</time>
      </trkpt>
      <trkpt lat="45.7703" lon="2.95298">
        <ele>1099.4000244141</ele>
        <time>2024-09-15T09:15:25.000Z</time>
      </trkpt>
      <trkpt lat="45.77033" lon="2.95296">
        <ele>1099.1999511719</ele>
        <time>2024-09-15T09:15:26.000Z</time>
      </trkpt>
      <trkpt lat="45.77036" lon="2.95294">
        <ele>1099.1999511719</ele>
        <time>2024-09-15T09:15:27.000Z</time>
      </trkpt>
      <trkpt lat="45.77038" lon="2.95293">
        <ele>1099.1999511719</ele>
        <time>2024-09-15T09:15:28.000Z</time>
      </trkpt>
      <trkpt lat="45.77042" lon="2.95293">
        <ele>1099</ele>
        <time>2024-09-15T09:15:29.000Z</time>
      </trkpt>
      <trkpt lat="45.77045" lon="2.95292">
        <ele>1099</ele>
        <time>2024-09-15T09:15:30.000Z</time>
      </trkpt>
      <trkpt lat="45.77048" lon="2.95291">
        <ele>1099</ele>
        <time>2024-09-15T09:15:31.000Z</time>
      </trkpt>
      <trkpt lat="45.7705" lon="2.95291">
        <ele>1099</ele>
        <time>2024-09-15T09:15:32.000Z</time>
      </trkpt>
      <trkpt lat="45.77053" lon="2.9529">
        <ele>1099</ele>
        <time>2024-09-15T09:15:33.000Z</time>
      </trkpt>
      <trkpt lat="45.77056" lon="2.95288">
        <ele>1099</ele>
        <time>2024-09-15T09:15:34.000Z</time>
      </trkpt>
      <trkpt lat="45.77058" lon="2.95286">
        <ele>1099</ele>
        <time>2024-09-15T09:15:35.000Z</time>
      </trkpt>
      <trkpt lat="45.77061" lon="2.95283">
        <ele>1099</ele>
        <time>2024-09-15T09:15:36.000Z</time>
      </trkpt>
      <trkpt lat="45.77064" lon="2.95281">
        <ele>1099</ele>
        <time>2024-09-15T09:15:37.000Z</time>
      </trkpt>
      <trkpt lat="45.77067" lon="2.95279">
        <ele>1098.8000488281</ele>
        <time>2024-09-15T09:15:38.000Z</time>
      </trkpt>
      <trkpt lat="45.7707" lon="2.95277">
        <ele>1098.4000244141</ele>
        <time>2024-09-15T09:15:39.000Z</time>
      </trkpt>
      <trkpt lat="45.77073" lon="2.95275">
        <ele>1098.1999511719</ele>
        <time>2024-09-15T09:15:40.000Z</time>
      </trkpt>
      <trkpt lat="45.77076" lon="2.95273">
        <ele>1098</ele>
        <time>2024-09-15T09:15:41.000Z</time>
      </trkpt>
      <trkpt lat="45.77079" lon="2.95271">
        <ele>1097.8000488281</ele>
        <time>2024-09-15T09:15:42.000Z</time>
      </trkpt>
      <trkpt lat="45.77081" lon="2.95269">
        <ele>1097.1999511719</ele>
        <time>2024-09-15T09:15:43.000Z</time>
      </trkpt>
      <trkpt lat="45.77084" lon="2.95267">
        <ele>1097</ele>
        <time>2024-09-15T09:15:44.000Z</time>
      </trkpt>
      <trkpt lat="45.77087" lon="2.95266">
        <ele>1096.1999511719</ele>
        <time>2024-09-15T09:15:45.000Z</time>
      </trkpt>
      <trkpt lat="45.77089" lon="2.95263">
        <ele>1096</ele>
        <time>2024-09-15T09:15:46.000Z</time>
      </trkpt>
      <trkpt lat="45.77092" lon="2.95261">
        <ele>1095.4000244141</ele>
        <time>2024-09-15T09:15:47.000Z</time>
      </trkpt>
      <trkpt lat="45.77095" lon="2.95259">
        <ele>1095</ele>
        <time>2024-09-15T09:15:48.000Z</time>
      </trkpt>
      <trkpt lat="45.77098" lon="2.95256">
        <ele>1094.8000488281</ele>
        <time>2024-09-15T09:15:49.000Z</time>
      </trkpt>
      <trkpt lat="45.77101" lon="2.95254">
        <ele>1094.5999755859</ele>
        <time>2024-09-15T09:15:50.000Z</time>
      </trkpt>
      <trkpt lat="45.77104" lon="2.95251">
        <ele>1094.4000244141</ele>
        <time>2024-09-15T09:15:51.000Z</time>
      </trkpt>
      <trkpt lat="45.77107" lon="2.9525">
        <ele>1094.4000244141</ele>
        <time>2024-09-15T09:15:52.000Z</time>
      </trkpt>
      <trkpt lat="45.77109" lon="2.95248">
        <ele>1094.1999511719</ele>
        <time>2024-09-15T09:15:53.000Z</time>
      </trkpt>
      <trkpt lat="45.77113" lon="2.95246">
        <ele>1094.1999511719</ele>
        <time>2024-09-15T09:15:54.000Z</time>
      </trkpt>
      <trkpt lat="45.77116" lon="2.95244">
        <ele>1094.1999511719</ele>
        <time>2024-09-15T09:15:55.000Z</time>
      </trkpt>
      <trkpt lat="45.77119" lon="2.95242">
        <ele>1094.1999511719</ele>
        <time>2024-09-15T09:15:56.000Z</time>
      </trkpt>
      <trkpt lat="45.77121" lon="2.95241">
        <ele>1094.1999511719</ele>
        <time>2024-09-15T09:15:57.000Z</time>
      </trkpt>
      <trkpt lat="45.77124" lon="2.95239">
        <ele>1094</ele>
        <time>2024-09-15T09:15:58.000Z</time>
      </trkpt>
      <trkpt lat="45.77127" lon="2.95238">
        <ele>1093.5999755859</ele>
        <time>2024-09-15T09:15:59.000Z</time>
      </trkpt>
      <trkpt lat="45.7713" lon="2.95237">
        <ele>1093.4000244141</ele>
        <time>2024-09-15T09:16:00.000Z</time>
      </trkpt>
      <trkpt lat="45.77133" lon="2.95235">
        <ele>1093</ele>
        <time>2024-09-15T09:16:01.000Z</time>
      </trkpt>
      <trkpt lat="45.77136" lon="2.95234">
        <ele>1092.1999511719</ele>
        <time>2024-09-15T09:16:02.000Z</time>
      </trkpt>
      <trkpt lat="45.77139" lon="2.95232">
        <ele>1091.4000244141</ele>
        <time>2024-09-15T09:16:03.000Z</time>
      </trkpt>
      <trkpt lat="45.77142" lon="2.95229">
        <ele>1091.1999511719</ele>
        <time>2024-09-15T09:16:04.000Z</time>
      </trkpt>
      <trkpt lat="45.77145" lon="2.95228">
        <ele>1090.8000488281</ele>
        <time>2024-09-15T09:16:05.000Z</time>
      </trkpt>
      <trkpt lat="45.77149" lon="2.95228">
        <ele>1090.4000244141</ele>
        <time>2024-09-15T09:16:06.000Z</time>
      </trkpt>
      <trkpt lat="45.77152" lon="2.95226">
        <ele>1089.8000488281</ele>
        <time>2024-09-15T09:16:07.000Z</time>
      </trkpt>
      <trkpt lat="45.77155" lon="2.95225">
        <ele>1089.5999755859</ele>
        <time>2024-09-15T09:16:08.000Z</time>
      </trkpt>
      <trkpt lat="45.77158" lon="2.95225">
        <ele>1089</ele>
        <time>2024-09-15T09:16:09.000Z</time>
      </trkpt>
      <trkpt lat="45.77161" lon="2.95224">
        <ele>1088.8000488281</ele>
        <time>2024-09-15T09:16:10.000Z</time>
      </trkpt>
      <trkpt lat="45.77164" lon="2.95224">
        <ele>1088.5999755859</ele>
        <time>2024-09-15T09:16:11.000Z</time>
      </trkpt>
      <trkpt lat="45.77167" lon="2.95223">
        <ele>1088.4000244141</ele>
        <time>2024-09-15T09:16:12.000Z</time>
      </trkpt>
      <trkpt lat="45.77171" lon="2.95223">
        <ele>1088</ele>
        <time>2024-09-15T09:16:13.000Z</time>
      </trkpt>
      <trkpt lat="45.77174" lon="2.95222">
        <ele>1087.5999755859</ele>
        <time>2024-09-15T09:16:14.000Z</time>
      </trkpt>
      <trkpt lat="45.77177" lon="2.95221">
        <ele>1087.1999511719</ele>
        <time>2024-09-15T09:16:15.000Z</time>
      </trkpt>
      <trkpt lat="45.7718" lon="2.9522">
        <ele>1087</ele>
        <time>2024-09-15T09:16:16.000Z</time>
      </trkpt>
      <trkpt lat="45.77184" lon="2.9522">
        <ele>1086.8000488281</ele>
        <time>2024-09-15T09:16:17.000Z</time>
      </trkpt>
      <trkpt lat="45.77187" lon="2.9522">
        <ele>1086.4000244141</ele>
        <time>2024-09-15T09:16:18.000Z</time>
      </trkpt>
      <trkpt lat="45.77191" lon="2.95219">
        <ele>1086</ele>
        <time>2024-09-15T09:16:19.000Z</time>
      </trkpt>
      <trkpt lat="45.77194" lon="2.95218">
        <ele>1085.8000488281</ele>
        <time>2024-09-15T09:16:20.000Z</time>
      </trkpt>
      <trkpt lat="45.77198" lon="2.95217">
        <ele>1085.4000244141</ele>
        <time>2024-09-15T09:16:21.000Z</time>
      </trkpt>
      <trkpt lat="45.77202" lon="2.95217">
        <ele>1085.1999511719</ele>
        <time>2024-09-15T09:16:22.000Z</time>
      </trkpt>
      <trkpt lat="45.77205" lon="2.95216">
        <ele>1084.8000488281</ele>
        <time>2024-09-15T09:16:23.000Z</time>
      </trkpt>
      <trkpt lat="45.77208" lon="2.95215">
        <ele>1084.8000488281</ele>
        <time>2024-09-15T09:16:24.000Z</time>
      </trkpt>
      <trkpt lat="45.77212" lon="2.95215">
        <ele>1084.1999511719</ele>
        <time>2024-09-15T09:16:25.000Z</time>
      </trkpt>
      <trkpt lat="45.77214" lon="2.95213">
        <ele>1084.1999511719</ele>
        <time>2024-09-15T09:16:26.000Z</time>
      </trkpt>
      <trkpt lat="45.77217" lon="2.95212">
        <ele>1084</ele>
        <time>2024-09-15T09:16:27.000Z</time>
      </trkpt>
      <trkpt lat="45.7722" lon="2.9521">
        <ele>1083.8000488281</ele>
        <time>2024-09-15T09:16:28.000Z</time>
      </trkpt>
      <trkpt lat="45.77223" lon="2.95208">
        <ele>1083.5999755859</ele>
        <time>2024-09-15T09:16:29.000Z</time>
      </trkpt>
      <trkpt lat="45.77226" lon="2.95207">
        <ele>1083.5999755859</ele>
        <time>2024-09-15T09:16:30.000Z</time>
      </trkpt>
      <trkpt lat="45.77229" lon="2.95205">
        <ele>1083.5999755859</ele>
        <time>2024-09-15T09:16:31.000Z</time>
      </trkpt>
      <trkpt lat="45.77232" lon="2.95203">
        <ele>1083.4000244141</ele>
        <time>2024-09-15T09:16:32.000Z</time>
      </trkpt>
      <trkpt lat="45.77235" lon="2.95201">
        <ele>1083.4000244141</ele>
        <time>2024-09-15T09:16:33.000Z</time>
      </trkpt>
      <trkpt lat="45.77238" lon="2.952">
        <ele>1083</ele>
        <time>2024-09-15T09:16:34.000Z</time>
      </trkpt>
      <trkpt lat="45.77241" lon="2.952">
        <ele>1083</ele>
        <time>2024-09-15T09:16:35.000Z</time>
      </trkpt>
      <trkpt lat="45.77245" lon="2.95199">
        <ele>1082.8000488281</ele>
        <time>2024-09-15T09:16:36.000Z</time>
      </trkpt>
      <trkpt lat="45.77248" lon="2.95198">
        <ele>1082.4000244141</ele>
        <time>2024-09-15T09:16:37.000Z</time>
      </trkpt>
      <trkpt lat="45.77252" lon="2.95197">
        <ele>1082</ele>
        <time>2024-09-15T09:16:38.000Z</time>
      </trkpt>
      <trkpt lat="45.77255" lon="2.95197">
        <ele>1081.8000488281</ele>
        <time>2024-09-15T09:16:39.000Z</time>
      </trkpt>
      <trkpt lat="45.77259" lon="2.95196">
        <ele>1081.4000244141</ele>
        <time>2024-09-15T09:16:40.000Z</time>
      </trkpt>
      <trkpt lat="45.77262" lon="2.95196">
        <ele>1080.8000488281</ele>
        <time>2024-09-15T09:16:41.000Z</time>
      </trkpt>
      <trkpt lat="45.77266" lon="2.95196">
        <ele>1080</ele>
        <time>2024-09-15T09:16:42.000Z</time>
      </trkpt>
      <trkpt lat="45.7727" lon="2.95195">
        <ele>1079.8000488281</ele>
        <time>2024-09-15T09:16:43.000Z</time>
      </trkpt>
      <trkpt lat="45.77274" lon="2.95196">
        <ele>1079.4000244141</ele>
        <time>2024-09-15T09:16:44.000Z</time>
      </trkpt>
      <trkpt lat="45.77277" lon="2.95196">
        <ele>1079</ele>
        <time>2024-09-15T09:16:45.000Z</time>
      </trkpt>
      <trkpt lat="45.77281" lon="2.95195">
        <ele>1078.5999755859</ele>
        <time>2024-09-15T09:16:46.000Z</time>
      </trkpt>
      <trkpt lat="45.77284" lon="2.95195">
        <ele>1078.4000244141</ele>
        <time>2024-09-15T09:16:47.000Z</time>
      </trkpt>
      <trkpt lat="45.77287" lon="2.95195">
        <ele>1078.1999511719</ele>
        <time>2024-09-15T09:16:48.000Z</time>
      </trkpt>
      <trkpt lat="45.77291" lon="2.95195">
        <ele>1078</ele>
        <time>2024-09-15T09:16:49.000Z</time>
      </trkpt>
      <trkpt lat="45.77294" lon="2.95194">
        <ele>1077.8000488281</ele>
        <time>2024-09-15T09:16:50.000Z</time>
      </trkpt>
      <trkpt lat="45.77297" lon="2.95194">
        <ele>1077.5999755859</ele>
        <time>2024-09-15T09:16:51.000Z</time>
      </trkpt>
      <trkpt lat="45.77301" lon="2.95194">
        <ele>1077.4000244141</ele>
        <time>2024-09-15T09:16:52.000Z</time>
      </trkpt>
      <trkpt lat="45.77304" lon="2.95194">
        <ele>1077.1999511719</ele>
        <time>2024-09-15T09:16:53.000Z</time>
      </trkpt>
      <trkpt lat="45.77308" lon="2.95193">
        <ele>1077</ele>
        <time>2024-09-15T09:16:54.000Z</time>
      </trkpt>
      <trkpt lat="45.77311" lon="2.95193">
        <ele>1076.8000488281</ele>
        <time>2024-09-15T09:16:55.000Z</time>
      </trkpt>
      <trkpt lat="45.77314" lon="2.95193">
        <ele>1076.8000488281</ele>
        <time>2024-09-15T09:16:56.000Z</time>
      </trkpt>
      <trkpt lat="45.77318" lon="2.95193">
        <ele>1076.5999755859</ele>
        <time>2024-09-15T09:16:57.000Z</time>
      </trkpt>
      <trkpt lat="45.77322" lon="2.95193">
        <ele>1076.4000244141</ele>
        <time>2024-09-15T09:16:58.000Z</time>
      </trkpt>
      <trkpt lat="45.77325" lon="2.95192">
        <ele>1076.1999511719</ele>
        <time>2024-09-15T09:16:59.000Z</time>
      </trkpt>
      <trkpt lat="45.77329" lon="2.95192">
        <ele>1076</ele>
        <time>2024-09-15T09:17:00.000Z</time>
      </trkpt>
      <trkpt lat="45.77332" lon="2.95192">
        <ele>1075.8000488281</ele>
        <time>2024-09-15T09:17:01.000Z</time>
      </trkpt>
      <trkpt lat="45.77336" lon="2.95192">
        <ele>1075.8000488281</ele>
        <time>2024-09-15T09:17:02.000Z</time>
      </trkpt>
      <trkpt lat="45.77339" lon="2.95191">
        <ele>1075.5999755859</ele>
        <time>2024-09-15T09:17:03.000Z</time>
      </trkpt>
      <trkpt lat="45.77343" lon="2.9519">
        <ele>1075.4000244141</ele>
        <time>2024-09-15T09:17:04.000Z</time>
      </trkpt>
      <trkpt lat="45.77346" lon="2.95189">
        <ele>1075.1999511719</ele>
        <time>2024-09-15T09:17:05.000Z</time>
      </trkpt>
      <trkpt lat="45.7735" lon="2.95189">
        <ele>1075.1999511719</ele>
        <time>2024-09-15T09:17:06.000Z</time>
      </trkpt>
      <trkpt lat="45.77353" lon="2.95188">
        <ele>1074.5999755859</ele>
        <time>2024-09-15T09:17:07.000Z</time>
      </trkpt>
      <trkpt lat="45.77357" lon="2.95186">
        <ele>1074.4000244141</ele>
        <time>2024-09-15T09:17:08.000Z</time>
      </trkpt>
      <trkpt lat="45.7736" lon="2.95185">
        <ele>1074.4000244141</ele>
        <time>2024-09-15T09:17:09.000Z</time>
      </trkpt>
      <trkpt lat="45.77363" lon="2.95185">
        <ele>1074.1999511719</ele>
        <time>2024-09-15T09:17:10.000Z</time>
      </trkpt>
      <trkpt lat="45.77367" lon="2.95184">
        <ele>1074</ele>
        <time>2024-09-15T09:17:11.000Z</time>
      </trkpt>
      <trkpt lat="45.77371" lon="2.95183">
        <ele>1074</ele>
        <time>2024-09-15T09:17:12.000Z</time>
      </trkpt>
      <trkpt lat="45.77374" lon="2.95182">
        <ele>1073.8000488281</ele>
        <time>2024-09-15T09:17:13.000Z</time>
      </trkpt>
      <trkpt lat="45.77377" lon="2.95182">
        <ele>1073.8000488281</ele>
        <time>2024-09-15T09:17:14.000Z</time>
      </trkpt>
      <trkpt lat="45.77381" lon="2.95181">
        <ele>1073.8000488281</ele>
        <time>2024-09-15T09:17:15.000Z</time>
      </trkpt>
      <trkpt lat="45.77384" lon="2.95181">
        <ele>1073.5999755859</ele>
        <time>2024-09-15T09:17:16.000Z</time>
      </trkpt>
      <trkpt lat="45.77388" lon="2.95182">
        <ele>1073.4000244141</ele>
        <time>2024-09-15T09:17:17.000Z</time>
      </trkpt>
      <trkpt lat="45.77392" lon="2.95183">
        <ele>1073.1999511719</ele>
        <time>2024-09-15T09:17:18.000Z</time>
      </trkpt>
      <trkpt lat="45.77395" lon="2.95183">
        <ele>1073.1999511719</ele>
        <time>2024-09-15T09:17:19.000Z</time>
      </trkpt>
      <trkpt lat="45.77399" lon="2.95183">
        <ele>1073</ele>
        <time>2024-09-15T09:17:20.000Z</time>
      </trkpt>
      <trkpt lat="45.77402" lon="2.95183">
        <ele>1072.8000488281</ele>
        <time>2024-09-15T09:17:21.000Z</time>
      </trkpt>
      <trkpt lat="45.77406" lon="2.95183">
        <ele>1072.5999755859</ele>
        <time>2024-09-15T09:17:22.000Z</time>
      </trkpt>
      <trkpt lat="45.77409" lon="2.95183">
        <ele>1072.5999755859</ele>
        <time>2024-09-15T09:17:23.000Z</time>
      </trkpt>
      <trkpt lat="45.77412" lon="2.95184">
        <ele>1072.1999511719</ele>
        <time>2024-09-15T09:17:24.000Z</time>
      </trkpt>
      <trkpt lat="45.77415" lon="2.95184">
        <ele>1071.8000488281</ele>
        <time>2024-09-15T09:17:25.000Z</time>
      </trkpt>
      <trkpt lat="45.77418" lon="2.95184">
        <ele>1071.8000488281</ele>
        <time>2024-09-15T09:17:26.000Z</time>
      </trkpt>
      <trkpt lat="45.77422" lon="2.95184">
        <ele>1071.5999755859</ele>
        <time>2024-09-15T09:17:27.000Z</time>
      </trkpt>
      <trkpt lat="45.77425" lon="2.95185">
        <ele>1071.4000244141</ele>
        <time>2024-09-15T09:17:28.000Z</time>
      </trkpt>
      <trkpt lat="45.77429" lon="2.95187">
        <ele>1071.1999511719</ele>
        <time>2024-09-15T09:17:29.000Z</time>
      </trkpt>
      <trkpt lat="45.77433" lon="2.95187">
        <ele>1070.8000488281</ele>
        <time>2024-09-15T09:17:30.000Z</time>
      </trkpt>
      <trkpt lat="45.77437" lon="2.95189">
        <ele>1070.5999755859</ele>
        <time>2024-09-15T09:17:31.000Z</time>
      </trkpt>
      <trkpt lat="45.7744" lon="2.9519">
        <ele>1070.4000244141</ele>
        <time>2024-09-15T09:17:32.000Z</time>
      </trkpt>
      <trkpt lat="45.77444" lon="2.95191">
        <ele>1070</ele>
        <time>2024-09-15T09:17:33.000Z</time>
      </trkpt>
      <trkpt lat="45.77447" lon="2.95192">
        <ele>1069.8000488281</ele>
        <time>2024-09-15T09:17:34.000Z</time>
      </trkpt>
      <trkpt lat="45.77451" lon="2.95192">
        <ele>1069.4000244141</ele>
        <time>2024-09-15T09:17:35.000Z</time>
      </trkpt>
      <trkpt lat="45.77454" lon="2.95193">
        <ele>1069.1999511719</ele>
        <time>2024-09-15T09:17:36.000Z</time>
      </trkpt>
      <trkpt lat="45.77457" lon="2.95194">
        <ele>1069</ele>
        <time>2024-09-15T09:17:37.000Z</time>
      </trkpt>
      <trkpt lat="45.77461" lon="2.95195">
        <ele>1068.8000488281</ele>
        <time>2024-09-15T09:17:38.000Z</time>
      </trkpt>
      <trkpt lat="45.77464" lon="2.95196">
        <ele>1068.5999755859</ele>
        <time>2024-09-15T09:17:39.000Z</time>
      </trkpt>
      <trkpt lat="45.77467" lon="2.95197">
        <ele>1068.4000244141</ele>
        <time>2024-09-15T09:17:40.000Z</time>
      </trkpt>
      <trkpt lat="45.7747" lon="2.95198">
        <ele>1068.1999511719</ele>
        <time>2024-09-15T09:17:41.000Z</time>
      </trkpt>
      <trkpt lat="45.77473" lon="2.95199">
        <ele>1067.5999755859</ele>
        <time>2024-09-15T09:17:42.000Z</time>
      </trkpt>
      <trkpt lat="45.77477" lon="2.952">
        <ele>1067.5999755859</ele>
        <time>2024-09-15T09:17:43.000Z</time>
      </trkpt>
      <trkpt lat="45.7748" lon="2.95201">
        <ele>1067.5999755859</ele>
        <time>2024-09-15T09:17:44.000Z</time>
      </trkpt>
      <trkpt lat="45.77483" lon="2.95201">
        <ele>1067.4000244141</ele>
        <time>2024-09-15T09:17:45.000Z</time>
      </trkpt>
      <trkpt lat="45.77487" lon="2.95201">
        <ele>1067.1999511719</ele>
        <time>2024-09-15T09:17:46.000Z</time>
      </trkpt>
      <trkpt lat="45.77491" lon="2.95202">
        <ele>1067</ele>
        <time>2024-09-15T09:17:47.000Z</time>
      </trkpt>
      <trkpt lat="45.77494" lon="2.95203">
        <ele>1066.8000488281</ele>
        <time>2024-09-15T09:17:48.000Z</time>
      </trkpt>
      <trkpt lat="45.77498" lon="2.95204">
        <ele>1066.5999755859</ele>
        <time>2024-09-15T09:17:49.000Z</time>
      </trkpt>
      <trkpt lat="45.77501" lon="2.95206">
        <ele>1066.1999511719</ele>
        <time>2024-09-15T09:17:50.000Z</time>
      </trkpt>
      <trkpt lat="45.77504" lon="2.95207">
        <ele>1066</ele>
        <time>2024-09-15T09:17:51.000Z</time>
      </trkpt>
      <trkpt lat="45.77507" lon="2.95209">
        <ele>1065.8000488281</ele>
        <time>2024-09-15T09:17:52.000Z</time>
      </trkpt>
      <trkpt lat="45.77511" lon="2.95211">
        <ele>1065.5999755859</ele>
        <time>2024-09-15T09:17:53.000Z</time>
      </trkpt>
      <trkpt lat="45.77514" lon="2.95211">
        <ele>1065.5999755859</ele>
        <time>2024-09-15T09:17:54.000Z</time>
      </trkpt>
      <trkpt lat="45.77517" lon="2.95212">
        <ele>1065.1999511719</ele>
        <time>2024-09-15T09:17:55.000Z</time>
      </trkpt>
      <trkpt lat="45.77521" lon="2.95213">
        <ele>1065</ele>
        <time>2024-09-15T09:17:56.000Z</time>
      </trkpt>
      <trkpt lat="45.77524" lon="2.95214">
        <ele>1065</ele>
        <time>2024-09-15T09:17:57.000Z</time>
      </trkpt>
      <trkpt lat="45.77528" lon="2.95216">
        <ele>1065</ele>
        <time>2024-09-15T09:17:58.000Z</time>
      </trkpt>
      <trkpt lat="45.77531" lon="2.95218">
        <ele>1064.8000488281</ele>
        <time>2024-09-15T09:17:59.000Z</time>
      </trkpt>
      <trkpt lat="45.77533" lon="2.9522">
        <ele>1065</ele>
        <time>2024-09-15T09:18:00.000Z</time>
      </trkpt>
      <trkpt lat="45.77536" lon="2.95223">
        <ele>1065</ele>
        <time>2024-09-15T09:18:01.000Z</time>
      </trkpt>
      <trkpt lat="45.77539" lon="2.95226">
        <ele>1065</ele>
        <time>2024-09-15T09:18:02.000Z</time>
      </trkpt>
      <trkpt lat="45.77541" lon="2.95229">
        <ele>1065</ele>
        <time>2024-09-15T09:18:03.000Z</time>
      </trkpt>
      <trkpt lat="45.77543" lon="2.95233">
        <ele>1065</ele>
        <time>2024-09-15T09:18:04.000Z</time>
      </trkpt>
      <trkpt lat="45.77544" lon="2.95237">
        <ele>1065.1999511719</ele>
        <time>2024-09-15T09:18:05.000Z</time>
      </trkpt>
      <trkpt lat="45.77546" lon="2.95241">
        <ele>1065.1999511719</ele>
        <time>2024-09-15T09:18:06.000Z</time>
      </trkpt>
      <trkpt lat="45.77547" lon="2.95244">
        <ele>1065.5999755859</ele>
        <time>2024-09-15T09:18:07.000Z</time>
      </trkpt>
      <trkpt lat="45.77549" lon="2.95246">
        <ele>1065.8000488281</ele>
        <time>2024-09-15T09:18:08.000Z</time>
      </trkpt>
      <trkpt lat="45.7755" lon="2.95249">
        <ele>1066.1999511719</ele>
        <time>2024-09-15T09:18:09.000Z</time>
      </trkpt>
      <trkpt lat="45.77552" lon="2.95253">
        <ele>1066.4000244141</ele>
        <time>2024-09-15T09:18:10.000Z</time>
      </trkpt>
      <trkpt lat="45.77554" lon="2.95257">
        <ele>1066.8000488281</ele>
        <time>2024-09-15T09:18:11.000Z</time>
      </trkpt>
      <trkpt lat="45.77556" lon="2.9526">
        <ele>1067</ele>
        <time>2024-09-15T09:18:12.000Z</time>
      </trkpt>
      <trkpt lat="45.77557" lon="2.95263">
        <ele>1067.4000244141</ele>
        <time>2024-09-15T09:18:13.000Z</time>
      </trkpt>
      <trkpt lat="45.77559" lon="2.95267">
        <ele>1067.4000244141</ele>
        <time>2024-09-15T09:18:14.000Z</time>
      </trkpt>
      <trkpt lat="45.7756" lon="2.95271">
        <ele>1067.5999755859</ele>
        <time>2024-09-15T09:18:15.000Z</time>
      </trkpt>
      <trkpt lat="45.77562" lon="2.95274">
        <ele>1067.5999755859</ele>
        <time>2024-09-15T09:18:16.000Z</time>
      </trkpt>
      <trkpt lat="45.77564" lon="2.95276">
        <ele>1067.8000488281</ele>
        <time>2024-09-15T09:18:17.000Z</time>
      </trkpt>
      <trkpt lat="45.77565" lon="2.95279">
        <ele>1067.8000488281</ele>
        <time>2024-09-15T09:18:18.000Z</time>
      </trkpt>
      <trkpt lat="45.77567" lon="2.95281">
        <ele>1067.8000488281</ele>
        <time>2024-09-15T09:18:19.000Z</time>
      </trkpt>
      <trkpt lat="45.77569" lon="2.95283">
        <ele>1068</ele>
        <time>2024-09-15T09:18:20.000Z</time>
      </trkpt>
      <trkpt lat="45.77571" lon="2.95285">
        <ele>1068</ele>
        <time>2024-09-15T09:18:21.000Z</time>
      </trkpt>
      <trkpt lat="45.77573" lon="2.95286">
        <ele>1068.1999511719</ele>
        <time>2024-09-15T09:18:22.000Z</time>
      </trkpt>
      <trkpt lat="45.77575" lon="2.95287">
        <ele>1068.5999755859</ele>
        <time>2024-09-15T09:18:23.000Z</time>
      </trkpt>
      <trkpt lat="45.77577" lon="2.95287">
        <ele>1068.5999755859</ele>
        <time>2024-09-15T09:18:24.000Z</time>
      </trkpt>
      <trkpt lat="45.7758" lon="2.95287">
        <ele>1068.8000488281</ele>
        <time>2024-09-15T09:18:25.000Z</time>
      </trkpt>
      <trkpt lat="45.77582" lon="2.95287">
        <ele>1069</ele>
        <time>2024-09-15T09:18:26.000Z</time>
      </trkpt>
      <trkpt lat="45.77584" lon="2.95287">
        <ele>1069.8000488281</ele>
        <time>2024-09-15T09:18:27.000Z</time>
      </trkpt>
      <trkpt lat="45.77587" lon="2.95286">
        <ele>1070.1999511719</ele>
        <time>2024-09-15T09:18:28.000Z</time>
      </trkpt>
      <trkpt lat="45.77589" lon="2.95285">
        <ele>1070.4000244141</ele>
        <time>2024-09-15T09:18:29.000Z</time>
      </trkpt>
      <trkpt lat="45.77591" lon="2.95284">
        <ele>1070.5999755859</ele>
        <time>2024-09-15T09:18:30.000Z</time>
      </trkpt>
      <trkpt lat="45.77594" lon="2.95282">
        <ele>1071</ele>
        <time>2024-09-15T09:18:31.000Z</time>
      </trkpt>
      <trkpt lat="45.77596" lon="2.95281">
        <ele>1071.1999511719</ele>
        <time>2024-09-15T09:18:32.000Z</time>
      </trkpt>
      <trkpt lat="45.77598" lon="2.95279">
        <ele>1071.4000244141</ele>
        <time>2024-09-15T09:18:33.000Z</time>
      </trkpt>
      <trkpt lat="45.776" lon="2.95278">
        <ele>1071.5999755859</ele>
        <time>2024-09-15T09:18:34.000Z</time>
      </trkpt>
      <trkpt lat="45.77602" lon="2.95277">
        <ele>1071.8000488281</ele>
        <time>2024-09-15T09:18:35.000Z</time>
      </trkpt>
      <trkpt lat="45.77605" lon="2.95276">
        <ele>1072</ele>
        <time>2024-09-15T09:18:36.000Z</time>
      </trkpt>
      <trkpt lat="45.77607" lon="2.95274">
        <ele>1072.1999511719</ele>
        <time>2024-09-15T09:18:37.000Z</time>
      </trkpt>
      <trkpt lat="45.77609" lon="2.95273">
        <ele>1072.4000244141</ele>
        <time>2024-09-15T09:18:38.000Z</time>
      </trkpt>
      <trkpt lat="45.77612" lon="2.95272">
        <ele>1072.8000488281</ele>
        <time>2024-09-15T09:18:39.000Z</time>
      </trkpt>
      <trkpt lat="45.77614" lon="2.95271">
        <ele>1073</ele>
        <time>2024-09-15T09:18:40.000Z</time>
      </trkpt>
      <trkpt lat="45.77616" lon="2.95271">
        <ele>1073.1999511719</ele>
        <time>2024-09-15T09:18:41.000Z</time>
      </trkpt>
      <trkpt lat="45.77618" lon="2.9527">
        <ele>1073.4000244141</ele>
        <time>2024-09-15T09:18:42.000Z</time>
      </trkpt>
      <trkpt lat="45.7762" lon="2.95269">
        <ele>1073.5999755859</ele>
        <time>2024-09-15T09:18:43.000Z</time>
      </trkpt>
      <trkpt lat="45.77622" lon="2.95267">
        <ele>1074</ele>
        <time>2024-09-15T09:18:44.000Z</time>
      </trkpt>
      <trkpt lat="45.77624" lon="2.95265">
        <ele>1074</ele>
        <time>2024-09-15T09:18:45.000Z</time>
      </trkpt>
      <trkpt lat="45.77627" lon="2.95264">
        <ele>1074.4000244141</ele>
        <time>2024-09-15T09:18:46.000Z</time>
      </trkpt>
      <trkpt lat="45.77629" lon="2.95263">
        <ele>1074.5999755859</ele>
        <time>2024-09-15T09:18:47.000Z</time>
      </trkpt>
      <trkpt lat="45.77631" lon="2.95262">
        <ele>1074.5999755859</ele>
        <time>2024-09-15T09:18:48.000Z</time>
      </trkpt>
      <trkpt lat="45.77634" lon="2.95261">
        <ele>1074.8000488281</ele>
        <time>2024-09-15T09:18:49.000Z</time>
      </trkpt>
      <trkpt lat="45.77636" lon="2.95259">
        <ele>1075</ele>
        <time>2024-09-15T09:18:50.000Z</time>
      </trkpt>
      <trkpt lat="45.77638" lon="2.95259">
        <ele>1075.1999511719</ele>
        <time>2024-09-15T09:18:51.000Z</time>
      </trkpt>
      <trkpt lat="45.7764" lon="2.95258">
        <ele>1075.4000244141</ele>
        <time>2024-09-15T09:18:52.000Z</time>
      </trkpt>
      <trkpt lat="45.77642" lon="2.95257">
        <ele>1075.8000488281</ele>
        <time>2024-09-15T09:18:53.000Z</time>
      </trkpt>
      <trkpt lat="45.77645" lon="2.95257">
        <ele>1076</ele>
        <time>2024-09-15T09:18:54.000Z</time>
      </trkpt>
      <trkpt lat="45.77647" lon="2.95256">
        <ele>1076.1999511719</ele>
        <time>2024-09-15T09:18:55.000Z</time>
      </trkpt>
      <trkpt lat="45.77649" lon="2.95255">
        <ele>1076.5999755859</ele>
        <time>2024-09-15T09:18:56.000Z</time>
      </trkpt>
      <trkpt lat="45.77651" lon="2.95254">
        <ele>1077.1999511719</ele>
        <time>2024-09-15T09:18:57.000Z</time>
      </trkpt>
      <trkpt lat="45.77653" lon="2.95254">
        <ele>1077.8000488281</ele>
        <time>2024-09-15T09:18:58.000Z</time>
      </trkpt>
      <trkpt lat="45.77655" lon="2.95254">
        <ele>1078</ele>
        <time>2024-09-15T09:18:59.000Z</time>
      </trkpt>
      <trkpt lat="45.77658" lon="2.95253">
        <ele>1078</ele>
        <time>2024-09-15T09:19:00.000Z</time>
      </trkpt>
      <trkpt lat="45.7766" lon="2.95253">
        <ele>1078.1999511719</ele>
        <time>2024-09-15T09:19:01.000Z</time>
      </trkpt>
      <trkpt lat="45.77663" lon="2.95251">
        <ele>1078.1999511719</ele>
        <time>2024-09-15T09:19:02.000Z</time>
      </trkpt>
      <trkpt lat="45.77665" lon="2.9525">
        <ele>1078.1999511719</ele>
        <time>2024-09-15T09:19:03.000Z</time>
      </trkpt>
      <trkpt lat="45.77667" lon="2.95248">
        <ele>1078.4000244141</ele>
        <time>2024-09-15T09:19:04.000Z</time>
      </trkpt>
      <trkpt lat="45.77669" lon="2.95246">
        <ele>1078.5999755859</ele>
        <time>2024-09-15T09:19:05.000Z</time>
      </trkpt>
      <trkpt lat="45.77671" lon="2.95245">
        <ele>1078.8000488281</ele>
        <time>2024-09-15T09:19:06.000Z</time>
      </trkpt>
      <trkpt lat="45.77674" lon="2.95244">
        <ele>1079</ele>
        <time>2024-09-15T09:19:07.000Z</time>
      </trkpt>
      <trkpt lat="45.77677" lon="2.95244">
        <ele>1079.1999511719</ele>
        <time>2024-09-15T09:19:08.000Z</time>
      </trkpt>
      <trkpt lat="45.77679" lon="2.95243">
        <ele>1079.5999755859</ele>
        <time>2024-09-15T09:19:09.000Z</time>
      </trkpt>
      <trkpt lat="45.77682" lon="2.95242">
        <ele>1079.8000488281</ele>
        <time>2024-09-15T09:19:10.000Z</time>
      </trkpt>
      <trkpt lat="45.77684" lon="2.9524">
        <ele>1080</ele>
        <time>2024-09-15T09:19:11.000Z</time>
      </trkpt>
      <trkpt lat="45.77687" lon="2.95239">
        <ele>1080.1999511719</ele>
        <time>2024-09-15T09:19:12.000Z</time>
      </trkpt>
      <trkpt lat="45.7769" lon="2.95238">
        <ele>1080.4000244141</ele>
        <time>2024-09-15T09:19:13.000Z</time>
      </trkpt>
      <trkpt lat="45.77693" lon="2.95237">
        <ele>1080.5999755859</ele>
        <time>2024-09-15T09:19:14.000Z</time>
      </trkpt>
      <trkpt lat="45.77695" lon="2.95235">
        <ele>1080.8000488281</ele>
        <time>2024-09-15T09:19:15.000Z</time>
      </trkpt>
      <trkpt lat="45.77697" lon="2.95234">
        <ele>1081</ele>
        <time>2024-09-15T09:19:16.000Z</time>
      </trkpt>
      <trkpt lat="45.77699" lon="2.95232">
        <ele>1081.4000244141</ele>
        <time>2024-09-15T09:19:17.000Z</time>
      </trkpt>
      <trkpt lat="45.77701" lon="2.95231">
        <ele>1081.5999755859</ele>
        <time>2024-09-15T09:19:18.000Z</time>
      </trkpt>
      <trkpt lat="45.77703" lon="2.95229">
        <ele>1081.5999755859</ele>
        <time>2024-09-15T09:19:19.000Z</time>
      </trkpt>
      <trkpt lat="45.77706" lon="2.95229">
        <ele>1081.8000488281</ele>
        <time>2024-09-15T09:19:20.000Z</time>
      </trkpt>
      <trkpt lat="45.77708" lon="2.95229">
        <ele>1082</ele>
        <time>2024-09-15T09:19:21.000Z</time>
      </trkpt>
      <trkpt lat="45.77711" lon="2.95229">
        <ele>1082</ele>
        <time>2024-09-15T09:19:22.000Z</time>
      </trkpt>
      <trkpt lat="45.77714" lon="2.95228">
        <ele>1082.1999511719</ele>
        <time>2024-09-15T09:19:23.000Z</time>
      </trkpt>
      <trkpt lat="45.77716" lon="2.95228">
        <ele>1082.1999511719</ele>
        <time>2024-09-15T09:19:24.000Z</time>
      </trkpt>
      <trkpt lat="45.77719" lon="2.95229">
        <ele>1082.1999511719</ele>
        <time>2024-09-15T09:19:25.000Z</time>
      </trkpt>
      <trkpt lat="45.77722" lon="2.95229">
        <ele>1082.1999511719</ele>
        <time>2024-09-15T09:19:26.000Z</time>
      </trkpt>
      <trkpt lat="45.77725" lon="2.9523">
        <ele>1082.1999511719</ele>
        <time>2024-09-15T09:19:27.000Z</time>
      </trkpt>
      <trkpt lat="45.77728" lon="2.95231">
        <ele>1082.1999511719</ele>
        <time>2024-09-15T09:19:28.000Z</time>
      </trkpt>
      <trkpt lat="45.77731" lon="2.95233">
        <ele>1082.1999511719</ele>
        <time>2024-09-15T09:19:29.000Z</time>
      </trkpt>
      <trkpt lat="45.77734" lon="2.95234">
        <ele>1082</ele>
        <time>2024-09-15T09:19:30.000Z</time>
      </trkpt>
      <trkpt lat="45.77737" lon="2.95236">
        <ele>1081.8000488281</ele>
        <time>2024-09-15T09:19:31.000Z</time>
      </trkpt>
      <trkpt lat="45.77741" lon="2.95237">
        <ele>1081.5999755859</ele>
        <time>2024-09-15T09:19:32.000Z</time>
      </trkpt>
      <trkpt lat="45.77743" lon="2.95238">
        <ele>1081.1999511719</ele>
        <time>2024-09-15T09:19:33.000Z</time>
      </trkpt>
      <trkpt lat="45.77747" lon="2.95239">
        <ele>1081</ele>
        <time>2024-09-15T09:19:34.000Z</time>
      </trkpt>
      <trkpt lat="45.7775" lon="2.9524">
        <ele>1081</ele>
        <time>2024-09-15T09:19:35.000Z</time>
      </trkpt>
      <trkpt lat="45.77752" lon="2.95241">
        <ele>1080.8000488281</ele>
        <time>2024-09-15T09:19:36.000Z</time>
      </trkpt>
      <trkpt lat="45.77755" lon="2.95242">
        <ele>1080.8000488281</ele>
        <time>2024-09-15T09:19:37.000Z</time>
      </trkpt>
      <trkpt lat="45.77758" lon="2.95243">
        <ele>1080.8000488281</ele>
        <time>2024-09-15T09:19:38.000Z</time>
      </trkpt>
      <trkpt lat="45.77762" lon="2.95244">
        <ele>1080.5999755859</ele>
        <time>2024-09-15T09:19:39.000Z</time>
      </trkpt>
      <trkpt lat="45.77764" lon="2.95245">
        <ele>1080.8000488281</ele>
        <time>2024-09-15T09:19:40.000Z</time>
      </trkpt>
      <trkpt lat="45.77768" lon="2.95247">
        <ele>1080.5999755859</ele>
        <time>2024-09-15T09:19:41.000Z</time>
      </trkpt>
      <trkpt lat="45.77771" lon="2.95248">
        <ele>1080.5999755859</ele>
        <time>2024-09-15T09:19:42.000Z</time>
      </trkpt>
      <trkpt lat="45.77774" lon="2.95249">
        <ele>1080.4000244141</ele>
        <time>2024-09-15T09:19:43.000Z</time>
      </trkpt>
      <trkpt lat="45.77777" lon="2.95249">
        <ele>1080.1999511719</ele>
        <time>2024-09-15T09:19:44.000Z</time>
      </trkpt>
      <trkpt lat="45.77781" lon="2.95249">
        <ele>1080</ele>
        <time>2024-09-15T09:19:45.000Z</time>
      </trkpt>
      <trkpt lat="45.77784" lon="2.9525">
        <ele>1080</ele>
        <time>2024-09-15T09:19:46.000Z</time>
      </trkpt>
      <trkpt lat="45.77787" lon="2.9525">
        <ele>1079.5999755859</ele>
        <time>2024-09-15T09:19:47.000Z</time>
      </trkpt>
      <trkpt lat="45.7779" lon="2.95251">
        <ele>1079.4000244141</ele>
        <time>2024-09-15T09:19:48.000Z</time>
      </trkpt>
      <trkpt lat="45.77793" lon="2.95252">
        <ele>1079</ele>
        <time>2024-09-15T09:19:49.000Z</time>
      </trkpt>
      <trkpt lat="45.77797" lon="2.95252">
        <ele>1078.5999755859</ele>
        <time>2024-09-15T09:19:50.000Z</time>
      </trkpt>
      <trkpt lat="45.778" lon="2.95253">
        <ele>1078.4000244141</ele>
        <time>2024-09-15T09:19:51.000Z</time>
      </trkpt>
      <trkpt lat="45.77803" lon="2.95253">
        <ele>1078</ele>
        <time>2024-09-15T09:19:52.000Z</time>
      </trkpt>
      <trkpt lat="45.77806" lon="2.95253">
        <ele>1077.8000488281</ele>
        <time>2024-09-15T09:19:53.000Z</time>
      </trkpt>
      <trkpt lat="45.7781" lon="2.95253">
        <ele>1077.5999755859</ele>
        <time>2024-09-15T09:19:54.000Z</time>
      </trkpt>
      <trkpt lat="45.77813" lon="2.95254">
        <ele>1077.4000244141</ele>
        <time>2024-09-15T09:19:55.000Z</time>
      </trkpt>
      <trkpt lat="45.77817" lon="2.95255">
        <ele>1077.4000244141</ele>
        <time>2024-09-15T09:19:56.000Z</time>
      </trkpt>
      <trkpt lat="45.7782" lon="2.95257">
        <ele>1077.1999511719</ele>
        <time>2024-09-15T09:19:57.000Z</time>
      </trkpt>
      <trkpt lat="45.77823" lon="2.95258">
        <ele>1077.1999511719</ele>
        <time>2024-09-15T09:19:58.000Z</time>
      </trkpt>
      <trkpt lat="45.77826" lon="2.95259">
        <ele>1077</ele>
        <time>2024-09-15T09:19:59.000Z</time>
      </trkpt>
      <trkpt lat="45.7783" lon="2.95261">
        <ele>1076.8000488281</ele>
        <time>2024-09-15T09:20:00.000Z</time>
      </trkpt>
      <trkpt lat="45.77833" lon="2.95262">
        <ele>1076.8000488281</ele>
        <time>2024-09-15T09:20:01.000Z</time>
      </trkpt>
      <trkpt lat="45.77836" lon="2.95264">
        <ele>1076.4000244141</ele>
        <time>2024-09-15T09:20:02.000Z</time>
      </trkpt>
      <trkpt lat="45.77839" lon="2.95265">
        <ele>1076</ele>
        <time>2024-09-15T09:20:03.000Z</time>
      </trkpt>
      <trkpt lat="45.77842" lon="2.95266">
        <ele>1075.8000488281</ele>
        <time>2024-09-15T09:20:04.000Z</time>
      </trkpt>
      <trkpt lat="45.77846" lon="2.95267">
        <ele>1075.5999755859</ele>
        <time>2024-09-15T09:20:05.000Z</time>
      </trkpt>
      <trkpt lat="45.7785" lon="2.95267">
        <ele>1075.1999511719</ele>
        <time>2024-09-15T09:20:06.000Z</time>
      </trkpt>
      <trkpt lat="45.77853" lon="2.95268">
        <ele>1075</ele>
        <time>2024-09-15T09:20:07.000Z</time>
      </trkpt>
      <trkpt lat="45.77857" lon="2.95267">
        <ele>1074.5999755859</ele>
        <time>2024-09-15T09:20:08.000Z</time>
      </trkpt>
      <trkpt lat="45.7786" lon="2.95267">
        <ele>1074.5999755859</ele>
        <time>2024-09-15T09:20:09.000Z</time>
      </trkpt>
      <trkpt lat="45.77863" lon="2.95268">
        <ele>1074.4000244141</ele>
        <time>2024-09-15T09:20:10.000Z</time>
      </trkpt>
      <trkpt lat="45.77867" lon="2.95269">
        <ele>1074.4000244141</ele>
        <time>2024-09-15T09:20:11.000Z</time>
      </trkpt>
      <trkpt lat="45.7787" lon="2.95271">
        <ele>1074.1999511719</ele>
        <time>2024-09-15T09:20:12.000Z</time>
      </trkpt>
      <trkpt lat="45.77872" lon="2.95273">
        <ele>1073.8000488281</ele>
        <time>2024-09-15T09:20:13.000Z</time>
      </trkpt>
      <trkpt lat="45.77876" lon="2.95276">
        <ele>1073.5999755859</ele>
        <time>2024-09-15T09:20:14.000Z</time>
      </trkpt>
      <trkpt lat="45.77879" lon="2.9528">
        <ele>1073.4000244141</ele>
        <time>2024-09-15T09:20:15.000Z</time>
      </trkpt>
      <trkpt lat="45.77882" lon="2.95282">
        <ele>1073.4000244141</ele>
        <time>2024-09-15T09:20:16.000Z</time>
      </trkpt>
      <trkpt lat="45.77885" lon="2.95285">
        <ele>1073.1999511719</ele>
        <time>2024-09-15T09:20:17.000Z</time>
      </trkpt>
      <trkpt lat="45.77889" lon="2.95287">
        <ele>1073.1999511719</ele>
        <time>2024-09-15T09:20:18.000Z</time>
      </trkpt>
      <trkpt lat="45.77892" lon="2.95289">
        <ele>1073</ele>
        <time>2024-09-15T09:20:19.000Z</time>
      </trkpt>
      <trkpt lat="45.77895" lon="2.9529">
        <ele>1073</ele>
        <time>2024-09-15T09:20:20.000Z</time>
      </trkpt>
      <trkpt lat="45.77898" lon="2.95292">
        <ele>1072.5999755859</ele>
        <time>2024-09-15T09:20:21.000Z</time>
      </trkpt>
      <trkpt lat="45.77901" lon="2.95294">
        <ele>1072.4000244141</ele>
        <time>2024-09-15T09:20:22.000Z</time>
      </trkpt>
      <trkpt lat="45.77905" lon="2.95296">
        <ele>1072.1999511719</ele>
        <time>2024-09-15T09:20:23.000Z</time>
      </trkpt>
      <trkpt lat="45.77908" lon="2.95299">
        <ele>1072</ele>
        <time>2024-09-15T09:20:24.000Z</time>
      </trkpt>
      <trkpt lat="45.77912" lon="2.95301">
        <ele>1072</ele>
        <time>2024-09-15T09:20:25.000Z</time>
      </trkpt>
      <trkpt lat="45.77915" lon="2.95303">
        <ele>1071.8000488281</ele>
        <time>2024-09-15T09:20:26.000Z</time>
      </trkpt>
      <trkpt lat="45.77918" lon="2.95306">
        <ele>1071.5999755859</ele>
        <time>2024-09-15T09:20:27.000Z</time>
      </trkpt>
      <trkpt lat="45.7792" lon="2.95308">
        <ele>1071.1999511719</ele>
        <time>2024-09-15T09:20:28.000Z</time>
      </trkpt>
      <trkpt lat="45.77923" lon="2.9531">
        <ele>1071</ele>
        <time>2024-09-15T09:20:29.000Z</time>
      </trkpt>
      <trkpt lat="45.77926" lon="2.95312">
        <ele>1070.8000488281</ele>
        <time>2024-09-15T09:20:30.000Z</time>
      </trkpt>
      <trkpt lat="45.7793" lon="2.95315">
        <ele>1070.5999755859</ele>
        <time>2024-09-15T09:20:31.000Z</time>
      </trkpt>
      <trkpt lat="45.77933" lon="2.95317">
        <ele>1070.5999755859</ele>
        <time>2024-09-15T09:20:32.000Z</time>
      </trkpt>
      <trkpt lat="45.77936" lon="2.9532">
        <ele>1070.5999755859</ele>
        <time>2024-09-15T09:20:33.000Z</time>
      </trkpt>
      <trkpt lat="45.77939" lon="2.95323">
        <ele>1070.5999755859</ele>
        <time>2024-09-15T09:20:34.000Z</time>
      </trkpt>
      <trkpt lat="45.77942" lon="2.95326">
        <ele>1070.5999755859</ele>
        <time>2024-09-15T09:20:35.000Z</time>
      </trkpt>
      <trkpt lat="45.77945" lon="2.95328">
        <ele>1070.5999755859</ele>
        <time>2024-09-15T09:20:36.000Z</time>
      </trkpt>
      <trkpt lat="45.77947" lon="2.95329">
        <ele>1070.8000488281</ele>
        <time>2024-09-15T09:20:37.000Z</time>
      </trkpt>
      <trkpt lat="45.7795" lon="2.9533">
        <ele>1070.8000488281</ele>
        <time>2024-09-15T09:20:38.000Z</time>
      </trkpt>
      <trkpt lat="45.77952" lon="2.95331">
        <ele>1071</ele>
        <time>2024-09-15T09:20:39.000Z</time>
      </trkpt>
      <trkpt lat="45.77955" lon="2.95332">
        <ele>1071</ele>
        <time>2024-09-15T09:20:40.000Z</time>
      </trkpt>
      <trkpt lat="45.77957" lon="2.95333">
        <ele>1071</ele>
        <time>2024-09-15T09:20:41.000Z</time>
      </trkpt>
      <trkpt lat="45.7796" lon="2.95333">
        <ele>1071.1999511719</ele>
        <time>2024-09-15T09:20:42.000Z</time>
      </trkpt>
      <trkpt lat="45.77963" lon="2.95334">
        <ele>1071.1999511719</ele>
        <time>2024-09-15T09:20:43.000Z</time>
      </trkpt>
      <trkpt lat="45.77965" lon="2.95335">
        <ele>1071.1999511719</ele>
        <time>2024-09-15T09:20:44.000Z</time>
      </trkpt>
      <trkpt lat="45.77968" lon="2.95337">
        <ele>1071.4000244141</ele>
        <time>2024-09-15T09:20:45.000Z</time>
      </trkpt>
      <trkpt lat="45.7797" lon="2.95338">
        <ele>1071.4000244141</ele>
        <time>2024-09-15T09:20:46.000Z</time>
      </trkpt>
      <trkpt lat="45.77973" lon="2.9534">
        <ele>1071.5999755859</ele>
        <time>2024-09-15T09:20:47.000Z</time>
      </trkpt>
      <trkpt lat="45.77976" lon="2.95341">
        <ele>1071.5999755859</ele>
        <time>2024-09-15T09:20:48.000Z</time>
      </trkpt>
      <trkpt lat="45.77979" lon="2.95343">
        <ele>1072</ele>
        <time>2024-09-15T09:20:49.000Z</time>
      </trkpt>
      <trkpt lat="45.77982" lon="2.95344">
        <ele>1072.1999511719</ele>
        <time>2024-09-15T09:20:50.000Z</time>
      </trkpt>
      <trkpt lat="45.77984" lon="2.95346">
        <ele>1072.5999755859</ele>
        <time>2024-09-15T09:20:51.000Z</time>
      </trkpt>
      <trkpt lat="45.77987" lon="2.95347">
        <ele>1072.8000488281</ele>
        <time>2024-09-15T09:20:52.000Z</time>
      </trkpt>
      <trkpt lat="45.7799" lon="2.95349">
        <ele>1072.8000488281</ele>
        <time>2024-09-15T09:20:53.000Z</time>
      </trkpt>
      <trkpt lat="45.77992" lon="2.95351">
        <ele>1072.8000488281</ele>
        <time>2024-09-15T09:20:54.000Z</time>
      </trkpt>
      <trkpt lat="45.77995" lon="2.95352">
        <ele>1073</ele>
        <time>2024-09-15T09:20:55.000Z</time>
      </trkpt>
      <trkpt lat="45.77998" lon="2.95353">
        <ele>1073.1999511719</ele>
        <time>2024-09-15T09:20:56.000Z</time>
      </trkpt>
      <trkpt lat="45.78" lon="2.95354">
        <ele>1073.4000244141</ele>
        <time>2024-09-15T09:20:57.000Z</time>
      </trkpt>
      <trkpt lat="45.78003" lon="2.95355">
        <ele>1073.5999755859</ele>
        <time>2024-09-15T09:20:58.000Z</time>
      </trkpt>
      <trkpt lat="45.78005" lon="2.95356">
        <ele>1073.8000488281</ele>
        <time>2024-09-15T09:20:59.000Z</time>
      </trkpt>
      <trkpt lat="45.78007" lon="2.95358">
        <ele>1074</ele>
        <time>2024-09-15T09:21:00.000Z</time>
      </trkpt>
      <trkpt lat="45.78008" lon="2.9536">
        <ele>1074.4000244141</ele>
        <time>2024-09-15T09:21:01.000Z</time>
      </trkpt>
      <trkpt lat="45.78011" lon="2.95361">
        <ele>1075</ele>
        <time>2024-09-15T09:21:02.000Z</time>
      </trkpt>
      <trkpt lat="45.78013" lon="2.95362">
        <ele>1075.5999755859</ele>
        <time>2024-09-15T09:21:03.000Z</time>
      </trkpt>
      <trkpt lat="45.78015" lon="2.95364">
        <ele>1076</ele>
        <time>2024-09-15T09:21:04.000Z</time>
      </trkpt>
      <trkpt lat="45.78016" lon="2.95366">
        <ele>1076.4000244141</ele>
        <time>2024-09-15T09:21:05.000Z</time>
      </trkpt>
      <trkpt lat="45.78018" lon="2.95368">
        <ele>1076.5999755859</ele>
        <time>2024-09-15T09:21:06.000Z</time>
      </trkpt>
      <trkpt lat="45.7802" lon="2.9537">
        <ele>1077.4000244141</ele>
        <time>2024-09-15T09:21:07.000Z</time>
      </trkpt>
      <trkpt lat="45.78022" lon="2.95372">
        <ele>1077.5999755859</ele>
        <time>2024-09-15T09:21:08.000Z</time>
      </trkpt>
      <trkpt lat="45.78024" lon="2.95373">
        <ele>1078.1999511719</ele>
        <time>2024-09-15T09:21:09.000Z</time>
      </trkpt>
      <trkpt lat="45.78026" lon="2.95376">
        <ele>1078.8000488281</ele>
        <time>2024-09-15T09:21:10.000Z</time>
      </trkpt>
      <trkpt lat="45.78027" lon="2.95379">
        <ele>1079.1999511719</ele>
        <time>2024-09-15T09:21:11.000Z</time>
      </trkpt>
      <trkpt lat="45.78029" lon="2.95381">
        <ele>1079.1999511719</ele>
        <time>2024-09-15T09:21:12.000Z</time>
      </trkpt>
      <trkpt lat="45.78031" lon="2.95384">
        <ele>1079.4000244141</ele>
        <time>2024-09-15T09:21:13.000Z</time>
      </trkpt>
      <trkpt lat="45.78032" lon="2.95387">
        <ele>1079.5999755859</ele>
        <time>2024-09-15T09:21:14.000Z</time>
      </trkpt>
      <trkpt lat="45.78034" lon="2.95389">
        <ele>1079.8000488281</ele>
        <time>2024-09-15T09:21:15.000Z</time>
      </trkpt>
      <trkpt lat="45.78036" lon="2.95392">
        <ele>1080.1999511719</ele>
        <time>2024-09-15T09:21:16.000Z</time>
      </trkpt>
      <trkpt lat="45.78037" lon="2.95394">
        <ele>1080.4000244141</ele>
        <time>2024-09-15T09:21:17.000Z</time>
      </trkpt>
      <trkpt lat="45.78039" lon="2.95398">
        <ele>1080.5999755859</ele>
        <time>2024-09-15T09:21:18.000Z</time>
      </trkpt>
      <trkpt lat="45.78041" lon="2.95401">
        <ele>1080.8000488281</ele>
        <time>2024-09-15T09:21:19.000Z</time>
      </trkpt>
      <trkpt lat="45.78041" lon="2.95403">
        <ele>1081</ele>
        <time>2024-09-15T09:21:20.000Z</time>
      </trkpt>
      <trkpt lat="45.78042" lon="2.95406">
        <ele>1081.5999755859</ele>
        <time>2024-09-15T09:21:21.000Z</time>
      </trkpt>
      <trkpt lat="45.78043" lon="2.95409">
        <ele>1081.8000488281</ele>
        <time>2024-09-15T09:21:22.000Z</time>
      </trkpt>
      <trkpt lat="45.78043" lon="2.95412">
        <ele>1082</ele>
        <time>2024-09-15T09:21:23.000Z</time>
      </trkpt>
      <trkpt lat="45.78044" lon="2.95415">
        <ele>1082.4000244141</ele>
        <time>2024-09-15T09:21:24.000Z</time>
      </trkpt>
      <trkpt lat="45.78045" lon="2.95418">
        <ele>1082.5999755859</ele>
        <time>2024-09-15T09:21:25.000Z</time>
      </trkpt>
      <trkpt lat="45.78047" lon="2.95421">
        <ele>1083</ele>
        <time>2024-09-15T09:21:26.000Z</time>
      </trkpt>
      <trkpt lat="45.78048" lon="2.95425">
        <ele>1083</ele>
        <time>2024-09-15T09:21:27.000Z</time>
      </trkpt>
      <trkpt lat="45.78049" lon="2.95428">
        <ele>1083.1999511719</ele>
        <time>2024-09-15T09:21:28.000Z</time>
      </trkpt>
      <trkpt lat="45.7805" lon="2.95431">
        <ele>1083.4000244141</ele>
        <time>2024-09-15T09:21:29.000Z</time>
      </trkpt>
      <trkpt lat="45.78051" lon="2.95434">
        <ele>1083.4000244141</ele>
        <time>2024-09-15T09:21:30.000Z</time>
      </trkpt>
      <trkpt lat="45.78052" lon="2.95438">
        <ele>1083.4000244141</ele>
        <time>2024-09-15T09:21:31.000Z</time>
      </trkpt>
      <trkpt lat="45.78054" lon="2.95441">
        <ele>1083.4000244141</ele>
        <time>2024-09-15T09:21:32.000Z</time>
      </trkpt>
      <trkpt lat="45.78056" lon="2.95445">
        <ele>1083.5999755859</ele>
        <time>2024-09-15T09:21:33.000Z</time>
      </trkpt>
      <trkpt lat="45.78057" lon="2.95448">
        <ele>1083.5999755859</ele>
        <time>2024-09-15T09:21:34.000Z</time>
      </trkpt>
      <trkpt lat="45.78058" lon="2.95452">
        <ele>1083.4000244141</ele>
        <time>2024-09-15T09:21:35.000Z</time>
      </trkpt>
      <trkpt lat="45.7806" lon="2.95456">
        <ele>1083.4000244141</ele>
        <time>2024-09-15T09:21:36.000Z</time>
      </trkpt>
      <trkpt lat="45.7806" lon="2.95459">
        <ele>1083.4000244141</ele>
        <time>2024-09-15T09:21:37.000Z</time>
      </trkpt>
      <trkpt lat="45.78061" lon="2.95463">
        <ele>1083.4000244141</ele>
        <time>2024-09-15T09:21:38.000Z</time>
      </trkpt>
      <trkpt lat="45.78062" lon="2.95467">
        <ele>1083.4000244141</ele>
        <time>2024-09-15T09:21:39.000Z</time>
      </trkpt>
      <trkpt lat="45.78063" lon="2.9547">
        <ele>1083.5999755859</ele>
        <time>2024-09-15T09:21:40.000Z</time>
      </trkpt>
      <trkpt lat="45.78064" lon="2.95474">
        <ele>1083.5999755859</ele>
        <time>2024-09-15T09:21:41.000Z</time>
      </trkpt>
      <trkpt lat="45.78065" lon="2.95477">
        <ele>1083.8000488281</ele>
        <time>2024-09-15T09:21:42.000Z</time>
      </trkpt>
      <trkpt lat="45.78067" lon="2.9548">
        <ele>1084</ele>
        <time>2024-09-15T09:21:43.000Z</time>
      </trkpt>
      <trkpt lat="45.78069" lon="2.95483">
        <ele>1084.1999511719</ele>
        <time>2024-09-15T09:21:44.000Z</time>
      </trkpt>
      <trkpt lat="45.7807" lon="2.95487">
        <ele>1084.4000244141</ele>
        <time>2024-09-15T09:21:45.000Z</time>
      </trkpt>
      <trkpt lat="45.78071" lon="2.9549">
        <ele>1084.5999755859</ele>
        <time>2024-09-15T09:21:46.000Z</time>
      </trkpt>
      <trkpt lat="45.78072" lon="2.95494">
        <ele>1084.8000488281</ele>
        <time>2024-09-15T09:21:47.000Z</time>
      </trkpt>
      <trkpt lat="45.78072" lon="2.95497">
        <ele>1084.8000488281</ele>
        <time>2024-09-15T09:21:48.000Z</time>
      </trkpt>
      <trkpt lat="45.78073" lon="2.95501">
        <ele>1084.8000488281</ele>
        <time>2024-09-15T09:21:49.000Z</time>
      </trkpt>
      <trkpt lat="45.78074" lon="2.95505">
        <ele>1084.8000488281</ele>
        <time>2024-09-15T09:21:50.000Z</time>
      </trkpt>
      <trkpt lat="45.78075" lon="2.95508">
        <ele>1084.8000488281</ele>
        <time>2024-09-15T09:21:51.000Z</time>
      </trkpt>
      <trkpt lat="45.78077" lon="2.95512">
        <ele>1084.8000488281</ele>
        <time>2024-09-15T09:21:52.000Z</time>
      </trkpt>
      <trkpt lat="45.78078" lon="2.95515">
        <ele>1084.8000488281</ele>
        <time>2024-09-15T09:21:53.000Z</time>
      </trkpt>
      <trkpt lat="45.78079" lon="2.95519">
        <ele>1084.5999755859</ele>
        <time>2024-09-15T09:21:54.000Z</time>
      </trkpt>
      <trkpt lat="45.7808" lon="2.95523">
        <ele>1084.5999755859</ele>
        <time>2024-09-15T09:21:55.000Z</time>
      </trkpt>
      <trkpt lat="45.78081" lon="2.95526">
        <ele>1084.5999755859</ele>
        <time>2024-09-15T09:21:56.000Z</time>
      </trkpt>
      <trkpt lat="45.78082" lon="2.95529">
        <ele>1084.8000488281</ele>
        <time>2024-09-15T09:21:57.000Z</time>
      </trkpt>
      <trkpt lat="45.78083" lon="2.95532">
        <ele>1084.8000488281</ele>
        <time>2024-09-15T09:21:58.000Z</time>
      </trkpt>
      <trkpt lat="45.78085" lon="2.95534">
        <ele>1084.8000488281</ele>
        <time>2024-09-15T09:21:59.000Z</time>
      </trkpt>
      <trkpt lat="45.78087" lon="2.95535">
        <ele>1085</ele>
        <time>2024-09-15T09:22:00.000Z</time>
      </trkpt>
      <trkpt lat="45.78089" lon="2.95534">
        <ele>1085</ele>
        <time>2024-09-15T09:22:01.000Z</time>
      </trkpt>
      <trkpt lat="45.78092" lon="2.95536">
        <ele>1085.1999511719</ele>
        <time>2024-09-15T09:22:02.000Z</time>
      </trkpt>
      <trkpt lat="45.78093" lon="2.95539">
        <ele>1085.4000244141</ele>
        <time>2024-09-15T09:22:03.000Z</time>
      </trkpt>
      <trkpt lat="45.78095" lon="2.95542">
        <ele>1085.5999755859</ele>
        <time>2024-09-15T09:22:04.000Z</time>
      </trkpt>
      <trkpt lat="45.78096" lon="2.95546">
        <ele>1085.5999755859</ele>
        <time>2024-09-15T09:22:05.000Z</time>
      </trkpt>
      <trkpt lat="45.78097" lon="2.95549">
        <ele>1085.8000488281</ele>
        <time>2024-09-15T09:22:06.000Z</time>
      </trkpt>
      <trkpt lat="45.78099" lon="2.95552">
        <ele>1085.5999755859</ele>
        <time>2024-09-15T09:22:07.000Z</time>
      </trkpt>
      <trkpt lat="45.781" lon="2.95556">
        <ele>1085.8000488281</ele>
        <time>2024-09-15T09:22:08.000Z</time>
      </trkpt>
      <trkpt lat="45.78101" lon="2.95561">
        <ele>1085.8000488281</ele>
        <time>2024-09-15T09:22:09.000Z</time>
      </trkpt>
      <trkpt lat="45.78101" lon="2.95565">
        <ele>1085.5999755859</ele>
        <time>2024-09-15T09:22:10.000Z</time>
      </trkpt>
      <trkpt lat="45.78101" lon="2.95569">
        <ele>1085.5999755859</ele>
        <time>2024-09-15T09:22:11.000Z</time>
      </trkpt>
      <trkpt lat="45.78103" lon="2.95573">
        <ele>1085.4000244141</ele>
        <time>2024-09-15T09:22:12.000Z</time>
      </trkpt>
      <trkpt lat="45.78105" lon="2.95577">
        <ele>1085.4000244141</ele>
        <time>2024-09-15T09:22:13.000Z</time>
      </trkpt>
      <trkpt lat="45.78107" lon="2.95581">
        <ele>1085.1999511719</ele>
        <time>2024-09-15T09:22:14.000Z</time>
      </trkpt>
      <trkpt lat="45.78109" lon="2.95584">
        <ele>1084.8000488281</ele>
        <time>2024-09-15T09:22:15.000Z</time>
      </trkpt>
      <trkpt lat="45.78112" lon="2.95588">
        <ele>1084.5999755859</ele>
        <time>2024-09-15T09:22:16.000Z</time>
      </trkpt>
      <trkpt lat="45.78114" lon="2.95591">
        <ele>1084.5999755859</ele>
        <time>2024-09-15T09:22:17.000Z</time>
      </trkpt>
      <trkpt lat="45.78116" lon="2.95594">
        <ele>1084.4000244141</ele>
        <time>2024-09-15T09:22:18.000Z</time>
      </trkpt>
      <trkpt lat="45.78119" lon="2.95598">
        <ele>1083.5999755859</ele>
        <time>2024-09-15T09:22:19.000Z</time>
      </trkpt>
      <trkpt lat="45.78121" lon="2.95602">
        <ele>1083.5999755859</ele>
        <time>2024-09-15T09:22:20.000Z</time>
      </trkpt>
      <trkpt lat="45.78123" lon="2.95605">
        <ele>1083.4000244141</ele>
        <time>2024-09-15T09:22:21.000Z</time>
      </trkpt>
      <trkpt lat="45.78126" lon="2.9561">
        <ele>1083.4000244141</ele>
        <time>2024-09-15T09:22:22.000Z</time>
      </trkpt>
      <trkpt lat="45.78127" lon="2.95614">
        <ele>1083.1999511719</ele>
        <time>2024-09-15T09:22:23.000Z</time>
      </trkpt>
      <trkpt lat="45.7813" lon="2.95619">
        <ele>1083.1999511719</ele>
        <time>2024-09-15T09:22:24.000Z</time>
      </trkpt>
      <trkpt lat="45.78132" lon="2.95622">
        <ele>1083</ele>
        <time>2024-09-15T09:22:25.000Z</time>
      </trkpt>
      <trkpt lat="45.78134" lon="2.95627">
        <ele>1082.5999755859</ele>
        <time>2024-09-15T09:22:26.000Z</time>
      </trkpt>
      <trkpt lat="45.78135" lon="2.95632">
        <ele>1082.4000244141</ele>
        <time>2024-09-15T09:22:27.000Z</time>
      </trkpt>
      <trkpt lat="45.78137" lon="2.95636">
        <ele>1082</ele>
        <time>2024-09-15T09:22:28.000Z</time>
      </trkpt>
      <trkpt lat="45.78138" lon="2.9564">
        <ele>1082</ele>
        <time>2024-09-15T09:22:29.000Z</time>
      </trkpt>
      <trkpt lat="45.7814" lon="2.95644">
        <ele>1081.5999755859</ele>
        <time>2024-09-15T09:22:30.000Z</time>
      </trkpt>
      <trkpt lat="45.78141" lon="2.9565">
        <ele>1081.4000244141</ele>
        <time>2024-09-15T09:22:31.000Z</time>
      </trkpt>
      <trkpt lat="45.78141" lon="2.95655">
        <ele>1081</ele>
        <time>2024-09-15T09:22:32.000Z</time>
      </trkpt>
      <trkpt lat="45.78141" lon="2.9566">
        <ele>1080.5999755859</ele>
        <time>2024-09-15T09:22:33.000Z</time>
      </trkpt>
      <trkpt lat="45.78141" lon="2.95665">
        <ele>1080.4000244141</ele>
        <time>2024-09-15T09:22:34.000Z</time>
      </trkpt>
      <trkpt lat="45.78141" lon="2.95669">
        <ele>1080.1999511719</ele>
        <time>2024-09-15T09:22:35.000Z</time>
      </trkpt>
      <trkpt lat="45.78142" lon="2.95674">
        <ele>1080</ele>
        <time>2024-09-15T09:22:36.000Z</time>
      </trkpt>
      <trkpt lat="45.78143" lon="2.95679">
        <ele>1079.8000488281</ele>
        <time>2024-09-15T09:22:37.000Z</time>
      </trkpt>
      <trkpt lat="45.78145" lon="2.95684">
        <ele>1079.5999755859</ele>
        <time>2024-09-15T09:22:38.000Z</time>
      </trkpt>
      <trkpt lat="45.78146" lon="2.95688">
        <ele>1079.4000244141</ele>
        <time>2024-09-15T09:22:39.000Z</time>
      </trkpt>
      <trkpt lat="45.78147" lon="2.95693">
        <ele>1079</ele>
        <time>2024-09-15T09:22:40.000Z</time>
      </trkpt>
      <trkpt lat="45.78148" lon="2.95697">
        <ele>1078.8000488281</ele>
        <time>2024-09-15T09:22:41.000Z</time>
      </trkpt>
      <trkpt lat="45.78149" lon="2.95701">
        <ele>1078.8000488281</ele>
        <time>2024-09-15T09:22:42.000Z</time>
      </trkpt>
      <trkpt lat="45.7815" lon="2.95705">
        <ele>1078.4000244141</ele>
        <time>2024-09-15T09:22:43.000Z</time>
      </trkpt>
      <trkpt lat="45.78151" lon="2.95709">
        <ele>1078.1999511719</ele>
        <time>2024-09-15T09:22:44.000Z</time>
      </trkpt>
      <trkpt lat="45.78152" lon="2.95713">
        <ele>1078.1999511719</ele>
        <time>2024-09-15T09:22:45.000Z</time>
      </trkpt>
      <trkpt lat="45.78154" lon="2.95717">
        <ele>1078</ele>
        <time>2024-09-15T09:22:46.000Z</time>
      </trkpt>
      <trkpt lat="45.78156" lon="2.95721">
        <ele>1078</ele>
        <time>2024-09-15T09:22:47.000Z</time>
      </trkpt>
      <trkpt lat="45.78158" lon="2.95724">
        <ele>1077.8000488281</ele>
        <time>2024-09-15T09:22:48.000Z</time>
      </trkpt>
      <trkpt lat="45.7816" lon="2.95728">
        <ele>1077.8000488281</ele>
        <time>2024-09-15T09:22:49.000Z</time>
      </trkpt>
      <trkpt lat="45.78163" lon="2.95731">
        <ele>1077.8000488281</ele>
        <time>2024-09-15T09:22:50.000Z</time>
      </trkpt>
      <trkpt lat="45.78165" lon="2.95735">
        <ele>1077.8000488281</ele>
        <time>2024-09-15T09:22:51.000Z</time>
      </trkpt>
      <trkpt lat="45.78167" lon="2.95739">
        <ele>1077.5999755859</ele>
        <time>2024-09-15T09:22:52.000Z</time>
      </trkpt>
      <trkpt lat="45.78169" lon="2.95743">
        <ele>1077.8000488281</ele>
        <time>2024-09-15T09:22:53.000Z</time>
      </trkpt>
      <trkpt lat="45.78171" lon="2.95747">
        <ele>1077.5999755859</ele>
        <time>2024-09-15T09:22:54.000Z</time>
      </trkpt>
      <trkpt lat="45.78173" lon="2.9575">
        <ele>1077.5999755859</ele>
        <time>2024-09-15T09:22:55.000Z</time>
      </trkpt>
      <trkpt lat="45.78175" lon="2.95754">
        <ele>1077.5999755859</ele>
        <time>2024-09-15T09:22:56.000Z</time>
      </trkpt>
      <trkpt lat="45.78178" lon="2.95757">
        <ele>1077.5999755859</ele>
        <time>2024-09-15T09:22:57.000Z</time>
      </trkpt>
      <trkpt lat="45.7818" lon="2.95761">
        <ele>1077.8000488281</ele>
        <time>2024-09-15T09:22:58.000Z</time>
      </trkpt>
      <trkpt lat="45.78182" lon="2.95764">
        <ele>1078.1999511719</ele>
        <time>2024-09-15T09:22:59.000Z</time>
      </trkpt>
      <trkpt lat="45.78184" lon="2.95768">
        <ele>1077.8000488281</ele>
        <time>2024-09-15T09:23:00.000Z</time>
      </trkpt>
      <trkpt lat="45.78186" lon="2.95771">
        <ele>1077.8000488281</ele>
        <time>2024-09-15T09:23:01.000Z</time>
      </trkpt>
      <trkpt lat="45.78187" lon="2.95775">
        <ele>1078</ele>
        <time>2024-09-15T09:23:02.000Z</time>
      </trkpt>
      <trkpt lat="45.78189" lon="2.95779">
        <ele>1077.8000488281</ele>
        <time>2024-09-15T09:23:03.000Z</time>
      </trkpt>
      <trkpt lat="45.78191" lon="2.95783">
        <ele>1077.8000488281</ele>
        <time>2024-09-15T09:23:04.000Z</time>
      </trkpt>
      <trkpt lat="45.78193" lon="2.95786">
        <ele>1077.8000488281</ele>
        <time>2024-09-15T09:23:05.000Z</time>
      </trkpt>
      <trkpt lat="45.78195" lon="2.9579">
        <ele>1077.5999755859</ele>
        <time>2024-09-15T09:23:06.000Z</time>
      </trkpt>
      <trkpt lat="45.78197" lon="2.95793">
        <ele>1077.5999755859</ele>
        <time>2024-09-15T09:23:07.000Z</time>
      </trkpt>
      <trkpt lat="45.78199" lon="2.95796">
        <ele>1077.8000488281</ele>
        <time>2024-09-15T09:23:08.000Z</time>
      </trkpt>
      <trkpt lat="45.78202" lon="2.95799">
        <ele>1078</ele>
        <time>2024-09-15T09:23:09.000Z</time>
      </trkpt>
      <trkpt lat="45.78204" lon="2.95802">
        <ele>1078</ele>
        <time>2024-09-15T09:23:10.000Z</time>
      </trkpt>
      <trkpt lat="45.78206" lon="2.95805">
        <ele>1078.1999511719</ele>
        <time>2024-09-15T09:23:11.000Z</time>
      </trkpt>
      <trkpt lat="45.78208" lon="2.95808">
        <ele>1078.1999511719</ele>
        <time>2024-09-15T09:23:12.000Z</time>
      </trkpt>
      <trkpt lat="45.7821" lon="2.95812">
        <ele>1078.4000244141</ele>
        <time>2024-09-15T09:23:13.000Z</time>
      </trkpt>
      <trkpt lat="45.78211" lon="2.95815">
        <ele>1078.4000244141</ele>
        <time>2024-09-15T09:23:14.000Z</time>
      </trkpt>
      <trkpt lat="45.78213" lon="2.95819">
        <ele>1078.4000244141</ele>
        <time>2024-09-15T09:23:15.000Z</time>
      </trkpt>
      <trkpt lat="45.78215" lon="2.95822">
        <ele>1078.4000244141</ele>
        <time>2024-09-15T09:23:16.000Z</time>
      </trkpt>
      <trkpt lat="45.78217" lon="2.95826">
        <ele>1078.5999755859</ele>
        <time>2024-09-15T09:23:17.000Z</time>
      </trkpt>
      <trkpt lat="45.78219" lon="2.95829">
        <ele>1078.8000488281</ele>
        <time>2024-09-15T09:23:18.000Z</time>
      </trkpt>
      <trkpt lat="45.7822" lon="2.95833">
        <ele>1078.5999755859</ele>
        <time>2024-09-15T09:23:19.000Z</time>
      </trkpt>
      <trkpt lat="45.78222" lon="2.95837">
        <ele>1079</ele>
        <time>2024-09-15T09:23:20.000Z</time>
      </trkpt>
      <trkpt lat="45.78223" lon="2.95842">
        <ele>1079.1999511719</ele>
        <time>2024-09-15T09:23:21.000Z</time>
      </trkpt>
      <trkpt lat="45.78223" lon="2.95846">
        <ele>1079.1999511719</ele>
        <time>2024-09-15T09:23:22.000Z</time>
      </trkpt>
      <trkpt lat="45.78224" lon="2.9585">
        <ele>1079.1999511719</ele>
        <time>2024-09-15T09:23:23.000Z</time>
      </trkpt>
      <trkpt lat="45.78224" lon="2.95854">
        <ele>1079.4000244141</ele>
        <time>2024-09-15T09:23:24.000Z</time>
      </trkpt>
      <trkpt lat="45.78225" lon="2.95858">
        <ele>1079.4000244141</ele>
        <time>2024-09-15T09:23:25.000Z</time>
      </trkpt>
      <trkpt lat="45.78226" lon="2.95862">
        <ele>1079.5999755859</ele>
        <time>2024-09-15T09:23:26.000Z</time>
      </trkpt>
      <trkpt lat="45.78227" lon="2.95865">
        <ele>1079.5999755859</ele>
        <time>2024-09-15T09:23:27.000Z</time>
      </trkpt>
      <trkpt lat="45.78228" lon="2.95869">
        <ele>1079.8000488281</ele>
        <time>2024-09-15T09:23:28.000Z</time>
      </trkpt>
      <trkpt lat="45.78229" lon="2.95873">
        <ele>1079.8000488281</ele>
        <time>2024-09-15T09:23:29.000Z</time>
      </trkpt>
      <trkpt lat="45.78231" lon="2.95877">
        <ele>1079.8000488281</ele>
        <time>2024-09-15T09:23:30.000Z</time>
      </trkpt>
      <trkpt lat="45.78232" lon="2.95882">
        <ele>1080</ele>
        <time>2024-09-15T09:23:31.000Z</time>
      </trkpt>
      <trkpt lat="45.78233" lon="2.95885">
        <ele>1080</ele>
        <time>2024-09-15T09:23:32.000Z</time>
      </trkpt>
      <trkpt lat="45.78234" lon="2.95889">
        <ele>1080</ele>
        <time>2024-09-15T09:23:33.000Z</time>
      </trkpt>
      <trkpt lat="45.78235" lon="2.95893">
        <ele>1080.1999511719</ele>
        <time>2024-09-15T09:23:34.000Z</time>
      </trkpt>
      <trkpt lat="45.78236" lon="2.95897">
        <ele>1080.1999511719</ele>
        <time>2024-09-15T09:23:35.000Z</time>
      </trkpt>
      <trkpt lat="45.78237" lon="2.959">
        <ele>1080.1999511719</ele>
        <time>2024-09-15T09:23:36.000Z</time>
      </trkpt>
      <trkpt lat="45.78239" lon="2.95904">
        <ele>1080.1999511719</ele>
        <time>2024-09-15T09:23:37.000Z</time>
      </trkpt>
      <trkpt lat="45.7824" lon="2.95907">
        <ele>1080.4000244141</ele>
        <time>2024-09-15T09:23:38.000Z</time>
      </trkpt>
      <trkpt lat="45.78242" lon="2.95911">
        <ele>1080.4000244141</ele>
        <time>2024-09-15T09:23:39.000Z</time>
      </trkpt>
      <trkpt lat="45.78245" lon="2.95914">
        <ele>1080.5999755859</ele>
        <time>2024-09-15T09:23:40.000Z</time>
      </trkpt>
      <trkpt lat="45.78246" lon="2.95918">
        <ele>1080.5999755859</ele>
        <time>2024-09-15T09:23:41.000Z</time>
      </trkpt>
      <trkpt lat="45.78248" lon="2.95922">
        <ele>1080.5999755859</ele>
        <time>2024-09-15T09:23:42.000Z</time>
      </trkpt>
      <trkpt lat="45.78249" lon="2.95926">
        <ele>1081</ele>
        <time>2024-09-15T09:23:43.000Z</time>
      </trkpt>
      <trkpt lat="45.7825" lon="2.95929">
        <ele>1081</ele>
        <time>2024-09-15T09:23:44.000Z</time>
      </trkpt>
      <trkpt lat="45.78251" lon="2.95933">
        <ele>1081</ele>
        <time>2024-09-15T09:23:45.000Z</time>
      </trkpt>
      <trkpt lat="45.78252" lon="2.95937">
        <ele>1081</ele>
        <time>2024-09-15T09:23:46.000Z</time>
      </trkpt>
      <trkpt lat="45.78253" lon="2.95941">
        <ele>1081.1999511719</ele>
        <time>2024-09-15T09:23:47.000Z</time>
      </trkpt>
      <trkpt lat="45.78254" lon="2.95945">
        <ele>1081.1999511719</ele>
        <time>2024-09-15T09:23:48.000Z</time>
      </trkpt>
      <trkpt lat="45.78256" lon="2.95949">
        <ele>1081.1999511719</ele>
        <time>2024-09-15T09:23:49.000Z</time>
      </trkpt>
      <trkpt lat="45.78257" lon="2.95953">
        <ele>1081.4000244141</ele>
        <time>2024-09-15T09:23:50.000Z</time>
      </trkpt>
      <trkpt lat="45.78259" lon="2.95957">
        <ele>1081.4000244141</ele>
        <time>2024-09-15T09:23:51.000Z</time>
      </trkpt>
      <trkpt lat="45.7826" lon="2.95961">
        <ele>1081.5999755859</ele>
        <time>2024-09-15T09:23:52.000Z</time>
      </trkpt>
      <trkpt lat="45.78261" lon="2.95965">
        <ele>1081.5999755859</ele>
        <time>2024-09-15T09:23:53.000Z</time>
      </trkpt>
      <trkpt lat="45.78262" lon="2.95968">
        <ele>1081.8000488281</ele>
        <time>2024-09-15T09:23:54.000Z</time>
      </trkpt>
      <trkpt lat="45.78263" lon="2.95972">
        <ele>1081.8000488281</ele>
        <time>2024-09-15T09:23:55.000Z</time>
      </trkpt>
      <trkpt lat="45.78264" lon="2.95976">
        <ele>1081.8000488281</ele>
        <time>2024-09-15T09:23:56.000Z</time>
      </trkpt>
      <trkpt lat="45.78265" lon="2.9598">
        <ele>1081.8000488281</ele>
        <time>2024-09-15T09:23:57.000Z</time>
      </trkpt>
      <trkpt lat="45.78265" lon="2.95984">
        <ele>1081.8000488281</ele>
        <time>2024-09-15T09:23:58.000Z</time>
      </trkpt>
      <trkpt lat="45.78266" lon="2.95988">
        <ele>1082</ele>
        <time>2024-09-15T09:23:59.000Z</time>
      </trkpt>
      <trkpt lat="45.78267" lon="2.95991">
        <ele>1081.8000488281</ele>
        <time>2024-09-15T09:24:00.000Z</time>
      </trkpt>
      <trkpt lat="45.78269" lon="2.95995">
        <ele>1081.8000488281</ele>
        <time>2024-09-15T09:24:01.000Z</time>
      </trkpt>
      <trkpt lat="45.7827" lon="2.95998">
        <ele>1081.5999755859</ele>
        <time>2024-09-15T09:24:02.000Z</time>
      </trkpt>
      <trkpt lat="45.78271" lon="2.96001">
        <ele>1081.4000244141</ele>
        <time>2024-09-15T09:24:03.000Z</time>
      </trkpt>
      <trkpt lat="45.78272" lon="2.96005">
        <ele>1081.4000244141</ele>
        <time>2024-09-15T09:24:04.000Z</time>
      </trkpt>
      <trkpt lat="45.78272" lon="2.96009">
        <ele>1081.4000244141</ele>
        <time>2024-09-15T09:24:05.000Z</time>
      </trkpt>
      <trkpt lat="45.78273" lon="2.96013">
        <ele>1081.4000244141</ele>
        <time>2024-09-15T09:24:06.000Z</time>
      </trkpt>
      <trkpt lat="45.78274" lon="2.96017">
        <ele>1081.5999755859</ele>
        <time>2024-09-15T09:24:07.000Z</time>
      </trkpt>
      <trkpt lat="45.78275" lon="2.96021">
        <ele>1082.1999511719</ele>
        <time>2024-09-15T09:24:08.000Z</time>
      </trkpt>
      <trkpt lat="45.78275" lon="2.96025">
        <ele>1082.5999755859</ele>
        <time>2024-09-15T09:24:09.000Z</time>
      </trkpt>
      <trkpt lat="45.78277" lon="2.96028">
        <ele>1082.5999755859</ele>
        <time>2024-09-15T09:24:10.000Z</time>
      </trkpt>
      <trkpt lat="45.78278" lon="2.96032">
        <ele>1082.8000488281</ele>
        <time>2024-09-15T09:24:11.000Z</time>
      </trkpt>
      <trkpt lat="45.78279" lon="2.96035">
        <ele>1083</ele>
        <time>2024-09-15T09:24:12.000Z</time>
      </trkpt>
      <trkpt lat="45.7828" lon="2.96039">
        <ele>1083.1999511719</ele>
        <time>2024-09-15T09:24:13.000Z</time>
      </trkpt>
      <trkpt lat="45.78282" lon="2.96042">
        <ele>1083.4000244141</ele>
        <time>2024-09-15T09:24:14.000Z</time>
      </trkpt>
      <trkpt lat="45.78283" lon="2.96046">
        <ele>1083.5999755859</ele>
        <time>2024-09-15T09:24:15.000Z</time>
      </trkpt>
      <trkpt lat="45.78285" lon="2.9605">
        <ele>1083.8000488281</ele>
        <time>2024-09-15T09:24:16.000Z</time>
      </trkpt>
      <trkpt lat="45.78287" lon="2.96054">
        <ele>1084</ele>
        <time>2024-09-15T09:24:17.000Z</time>
      </trkpt>
      <trkpt lat="45.78288" lon="2.96056">
        <ele>1084.1999511719</ele>
        <time>2024-09-15T09:24:18.000Z</time>
      </trkpt>
      <trkpt lat="45.7829" lon="2.96059">
        <ele>1084.4000244141</ele>
        <time>2024-09-15T09:24:19.000Z</time>
      </trkpt>
      <trkpt lat="45.78293" lon="2.96061">
        <ele>1084.5999755859</ele>
        <time>2024-09-15T09:24:20.000Z</time>
      </trkpt>
      <trkpt lat="45.78295" lon="2.96063">
        <ele>1084.5999755859</ele>
        <time>2024-09-15T09:24:21.000Z</time>
      </trkpt>
      <trkpt lat="45.78297" lon="2.96067">
        <ele>1084.8000488281</ele>
        <time>2024-09-15T09:24:22.000Z</time>
      </trkpt>
      <trkpt lat="45.78297" lon="2.96071">
        <ele>1084.8000488281</ele>
        <time>2024-09-15T09:24:23.000Z</time>
      </trkpt>
      <trkpt lat="45.78298" lon="2.96075">
        <ele>1084.8000488281</ele>
        <time>2024-09-15T09:24:24.000Z</time>
      </trkpt>
      <trkpt lat="45.78299" lon="2.96078">
        <ele>1085</ele>
        <time>2024-09-15T09:24:25.000Z</time>
      </trkpt>
      <trkpt lat="45.783" lon="2.96081">
        <ele>1085.1999511719</ele>
        <time>2024-09-15T09:24:26.000Z</time>
      </trkpt>
      <trkpt lat="45.78302" lon="2.96084">
        <ele>1085.4000244141</ele>
        <time>2024-09-15T09:24:27.000Z</time>
      </trkpt>
      <trkpt lat="45.78304" lon="2.96086">
        <ele>1085.5999755859</ele>
        <time>2024-09-15T09:24:28.000Z</time>
      </trkpt>
      <trkpt lat="45.78306" lon="2.96087">
        <ele>1085.5999755859</ele>
        <time>2024-09-15T09:24:29.000Z</time>
      </trkpt>
      <trkpt lat="45.78309" lon="2.96088">
        <ele>1085.5999755859</ele>
        <time>2024-09-15T09:24:30.000Z</time>
      </trkpt>
      <trkpt lat="45.78311" lon="2.96089">
        <ele>1085.5999755859</ele>
        <time>2024-09-15T09:24:31.000Z</time>
      </trkpt>
      <trkpt lat="45.78313" lon="2.96092">
        <ele>1085.8000488281</ele>
        <time>2024-09-15T09:24:32.000Z</time>
      </trkpt>
      <trkpt lat="45.78314" lon="2.96095">
        <ele>1085.8000488281</ele>
        <time>2024-09-15T09:24:33.000Z</time>
      </trkpt>
      <trkpt lat="45.78315" lon="2.96098">
        <ele>1086</ele>
        <time>2024-09-15T09:24:34.000Z</time>
      </trkpt>
      <trkpt lat="45.78316" lon="2.96102">
        <ele>1086.1999511719</ele>
        <time>2024-09-15T09:24:35.000Z</time>
      </trkpt>
      <trkpt lat="45.78318" lon="2.96105">
        <ele>1086.5999755859</ele>
        <time>2024-09-15T09:24:36.000Z</time>
      </trkpt>
      <trkpt lat="45.7832" lon="2.96107">
        <ele>1086.5999755859</ele>
        <time>2024-09-15T09:24:37.000Z</time>
      </trkpt>
      <trkpt lat="45.78322" lon="2.96109">
        <ele>1086.5999755859</ele>
        <time>2024-09-15T09:24:38.000Z</time>
      </trkpt>
      <trkpt lat="45.78325" lon="2.9611">
        <ele>1086.8000488281</ele>
        <time>2024-09-15T09:24:39.000Z</time>
      </trkpt>
      <trkpt lat="45.78327" lon="2.96112">
        <ele>1087</ele>
        <time>2024-09-15T09:24:40.000Z</time>
      </trkpt>
      <trkpt lat="45.78329" lon="2.96113">
        <ele>1087.1999511719</ele>
        <time>2024-09-15T09:24:41.000Z</time>
      </trkpt>
      <trkpt lat="45.78331" lon="2.96114">
        <ele>1087.4000244141</ele>
        <time>2024-09-15T09:24:42.000Z</time>
      </trkpt>
      <trkpt lat="45.78333" lon="2.96115">
        <ele>1087.4000244141</ele>
        <time>2024-09-15T09:24:43.000Z</time>
      </trkpt>
      <trkpt lat="45.78336" lon="2.96116">
        <ele>1087.5999755859</ele>
        <time>2024-09-15T09:24:44.000Z</time>
      </trkpt>
      <trkpt lat="45.78338" lon="2.96117">
        <ele>1088</ele>
        <time>2024-09-15T09:24:45.000Z</time>
      </trkpt>
      <trkpt lat="45.78341" lon="2.96117">
        <ele>1088.4000244141</ele>
        <time>2024-09-15T09:24:46.000Z</time>
      </trkpt>
      <trkpt lat="45.78343" lon="2.96117">
        <ele>1088.4000244141</ele>
        <time>2024-09-15T09:24:47.000Z</time>
      </trkpt>
      <trkpt lat="45.78346" lon="2.96118">
        <ele>1088.5999755859</ele>
        <time>2024-09-15T09:24:48.000Z</time>
      </trkpt>
      <trkpt lat="45.78348" lon="2.96119">
        <ele>1088.8000488281</ele>
        <time>2024-09-15T09:24:49.000Z</time>
      </trkpt>
      <trkpt lat="45.78351" lon="2.96121">
        <ele>1089</ele>
        <time>2024-09-15T09:24:50.000Z</time>
      </trkpt>
      <trkpt lat="45.78353" lon="2.96122">
        <ele>1089</ele>
        <time>2024-09-15T09:24:51.000Z</time>
      </trkpt>
      <trkpt lat="45.78355" lon="2.96123">
        <ele>1089.1999511719</ele>
        <time>2024-09-15T09:24:52.000Z</time>
      </trkpt>
      <trkpt lat="45.78357" lon="2.96122">
        <ele>1089.4000244141</ele>
        <time>2024-09-15T09:24:53.000Z</time>
      </trkpt>
      <trkpt lat="45.7836" lon="2.96121">
        <ele>1089.4000244141</ele>
        <time>2024-09-15T09:24:54.000Z</time>
      </trkpt>
      <trkpt lat="45.78362" lon="2.9612">
        <ele>1089.4000244141</ele>
        <time>2024-09-15T09:24:55.000Z</time>
      </trkpt>
      <trkpt lat="45.78365" lon="2.96119">
        <ele>1089.5999755859</ele>
        <time>2024-09-15T09:24:56.000Z</time>
      </trkpt>
      <trkpt lat="45.78367" lon="2.96118">
        <ele>1089.5999755859</ele>
        <time>2024-09-15T09:24:57.000Z</time>
      </trkpt>
      <trkpt lat="45.78369" lon="2.96118">
        <ele>1089.8000488281</ele>
        <time>2024-09-15T09:24:58.000Z</time>
      </trkpt>
      <trkpt lat="45.78372" lon="2.96117">
        <ele>1089.8000488281</ele>
        <time>2024-09-15T09:24:59.000Z</time>
      </trkpt>
      <trkpt lat="45.78374" lon="2.96117">
        <ele>1090</ele>
        <time>2024-09-15T09:25:00.000Z</time>
      </trkpt>
      <trkpt lat="45.78377" lon="2.96116">
        <ele>1090</ele>
        <time>2024-09-15T09:25:01.000Z</time>
      </trkpt>
      <trkpt lat="45.78379" lon="2.96115">
        <ele>1090.1999511719</ele>
        <time>2024-09-15T09:25:02.000Z</time>
      </trkpt>
      <trkpt lat="45.78382" lon="2.96114">
        <ele>1090.4000244141</ele>
        <time>2024-09-15T09:25:03.000Z</time>
      </trkpt>
      <trkpt lat="45.78384" lon="2.96114">
        <ele>1090.4000244141</ele>
        <time>2024-09-15T09:25:04.000Z</time>
      </trkpt>
      <trkpt lat="45.78387" lon="2.96114">
        <ele>1090.8000488281</ele>
        <time>2024-09-15T09:25:05.000Z</time>
      </trkpt>
      <trkpt lat="45.78389" lon="2.96115">
        <ele>1091.1999511719</ele>
        <time>2024-09-15T09:25:06.000Z</time>
      </trkpt>
      <trkpt lat="45.78391" lon="2.96115">
        <ele>1091.1999511719</ele>
        <time>2024-09-15T09:25:07.000Z</time>
      </trkpt>
      <trkpt lat="45.78394" lon="2.96115">
        <ele>1091.5999755859</ele>
        <time>2024-09-15T09:25:08.000Z</time>
      </trkpt>
      <trkpt lat="45.78396" lon="2.96114">
        <ele>1091.8000488281</ele>
        <time>2024-09-15T09:25:09.000Z</time>
      </trkpt>
      <trkpt lat="45.78399" lon="2.96112">
        <ele>1092</ele>
        <time>2024-09-15T09:25:10.000Z</time>
      </trkpt>
      <trkpt lat="45.78401" lon="2.96111">
        <ele>1092.1999511719</ele>
        <time>2024-09-15T09:25:11.000Z</time>
      </trkpt>
      <trkpt lat="45.78403" lon="2.9611">
        <ele>1092.1999511719</ele>
        <time>2024-09-15T09:25:12.000Z</time>
      </trkpt>
      <trkpt lat="45.78405" lon="2.96109">
        <ele>1092.4000244141</ele>
        <time>2024-09-15T09:25:13.000Z</time>
      </trkpt>
      <trkpt lat="45.78407" lon="2.96107">
        <ele>1092.4000244141</ele>
        <time>2024-09-15T09:25:14.000Z</time>
      </trkpt>
      <trkpt lat="45.7841" lon="2.96106">
        <ele>1092.5999755859</ele>
        <time>2024-09-15T09:25:15.000Z</time>
      </trkpt>
      <trkpt lat="45.78412" lon="2.96105">
        <ele>1092.5999755859</ele>
        <time>2024-09-15T09:25:16.000Z</time>
      </trkpt>
      <trkpt lat="45.78414" lon="2.96104">
        <ele>1092.8000488281</ele>
        <time>2024-09-15T09:25:17.000Z</time>
      </trkpt>
      <trkpt lat="45.78417" lon="2.96103">
        <ele>1093</ele>
        <time>2024-09-15T09:25:18.000Z</time>
      </trkpt>
      <trkpt lat="45.7842" lon="2.96101">
        <ele>1093.1999511719</ele>
        <time>2024-09-15T09:25:19.000Z</time>
      </trkpt>
      <trkpt lat="45.78422" lon="2.96101">
        <ele>1093.4000244141</ele>
        <time>2024-09-15T09:25:20.000Z</time>
      </trkpt>
      <trkpt lat="45.78425" lon="2.961">
        <ele>1093.5999755859</ele>
        <time>2024-09-15T09:25:21.000Z</time>
      </trkpt>
      <trkpt lat="45.78427" lon="2.96099">
        <ele>1093.5999755859</ele>
        <time>2024-09-15T09:25:22.000Z</time>
      </trkpt>
      <trkpt lat="45.7843" lon="2.96098">
        <ele>1093.8000488281</ele>
        <time>2024-09-15T09:25:23.000Z</time>
      </trkpt>
      <trkpt lat="45.78432" lon="2.96098">
        <ele>1094</ele>
        <time>2024-09-15T09:25:24.000Z</time>
      </trkpt>
      <trkpt lat="45.78434" lon="2.96097">
        <ele>1094.1999511719</ele>
        <time>2024-09-15T09:25:25.000Z</time>
      </trkpt>
      <trkpt lat="45.78436" lon="2.96097">
        <ele>1094.4000244141</ele>
        <time>2024-09-15T09:25:26.000Z</time>
      </trkpt>
      <trkpt lat="45.78439" lon="2.96096">
        <ele>1094.5999755859</ele>
        <time>2024-09-15T09:25:27.000Z</time>
      </trkpt>
      <trkpt lat="45.78441" lon="2.96096">
        <ele>1094.8000488281</ele>
        <time>2024-09-15T09:25:28.000Z</time>
      </trkpt>
      <trkpt lat="45.78444" lon="2.96096">
        <ele>1094.8000488281</ele>
        <time>2024-09-15T09:25:29.000Z</time>
      </trkpt>
      <trkpt lat="45.78446" lon="2.96096">
        <ele>1095</ele>
        <time>2024-09-15T09:25:30.000Z</time>
      </trkpt>
      <trkpt lat="45.78448" lon="2.96096">
        <ele>1095.1999511719</ele>
        <time>2024-09-15T09:25:31.000Z</time>
      </trkpt>
      <trkpt lat="45.7845" lon="2.96096">
        <ele>1095.4000244141</ele>
        <time>2024-09-15T09:25:32.000Z</time>
      </trkpt>
      <trkpt lat="45.78453" lon="2.96096">
        <ele>1095.8000488281</ele>
        <time>2024-09-15T09:25:33.000Z</time>
      </trkpt>
      <trkpt lat="45.78455" lon="2.96096">
        <ele>1096</ele>
        <time>2024-09-15T09:25:34.000Z</time>
      </trkpt>
      <trkpt lat="45.78458" lon="2.96097">
        <ele>1096.4000244141</ele>
        <time>2024-09-15T09:25:35.000Z</time>
      </trkpt>
      <trkpt lat="45.7846" lon="2.96097">
        <ele>1096.5999755859</ele>
        <time>2024-09-15T09:25:36.000Z</time>
      </trkpt>
      <trkpt lat="45.78462" lon="2.96098">
        <ele>1096.8000488281</ele>
        <time>2024-09-15T09:25:37.000Z</time>
      </trkpt>
      <trkpt lat="45.78465" lon="2.96099">
        <ele>1097</ele>
        <time>2024-09-15T09:25:38.000Z</time>
      </trkpt>
      <trkpt lat="45.78467" lon="2.96101">
        <ele>1097.1999511719</ele>
        <time>2024-09-15T09:25:39.000Z</time>
      </trkpt>
      <trkpt lat="45.78469" lon="2.96102">
        <ele>1097.1999511719</ele>
        <time>2024-09-15T09:25:40.000Z</time>
      </trkpt>
      <trkpt lat="45.78471" lon="2.96104">
        <ele>1097.4000244141</ele>
        <time>2024-09-15T09:25:41.000Z</time>
      </trkpt>
      <trkpt lat="45.78473" lon="2.96105">
        <ele>1097.4000244141</ele>
        <time>2024-09-15T09:25:42.000Z</time>
      </trkpt>
      <trkpt lat="45.78475" lon="2.96106">
        <ele>1097.8000488281</ele>
        <time>2024-09-15T09:25:43.000Z</time>
      </trkpt>
      <trkpt lat="45.78477" lon="2.96107">
        <ele>1098</ele>
        <time>2024-09-15T09:25:44.000Z</time>
      </trkpt>
      <trkpt lat="45.78479" lon="2.96109">
        <ele>1098.1999511719</ele>
        <time>2024-09-15T09:25:45.000Z</time>
      </trkpt>
      <trkpt lat="45.78481" lon="2.9611">
        <ele>1098.4000244141</ele>
        <time>2024-09-15T09:25:46.000Z</time>
      </trkpt>
      <trkpt lat="45.78483" lon="2.96112">
        <ele>1098.5999755859</ele>
        <time>2024-09-15T09:25:47.000Z</time>
      </trkpt>
      <trkpt lat="45.78485" lon="2.96114">
        <ele>1099</ele>
        <time>2024-09-15T09:25:48.000Z</time>
      </trkpt>
      <trkpt lat="45.78487" lon="2.96116">
        <ele>1099</ele>
        <time>2024-09-15T09:25:49.000Z</time>
      </trkpt>
      <trkpt lat="45.78489" lon="2.96118">
        <ele>1099.1999511719</ele>
        <time>2024-09-15T09:25:50.000Z</time>
      </trkpt>
      <trkpt lat="45.7849" lon="2.9612">
        <ele>1099.1999511719</ele>
        <time>2024-09-15T09:25:51.000Z</time>
      </trkpt>
      <trkpt lat="45.78492" lon="2.96122">
        <ele>1099.5999755859</ele>
        <time>2024-09-15T09:25:52.000Z</time>
      </trkpt>
      <trkpt lat="45.78494" lon="2.96125">
        <ele>1099.8000488281</ele>
        <time>2024-09-15T09:25:53.000Z</time>
      </trkpt>
      <trkpt lat="45.78495" lon="2.96128">
        <ele>1100</ele>
        <time>2024-09-15T09:25:54.000Z</time>
      </trkpt>
      <trkpt lat="45.78496" lon="2.9613">
        <ele>1100</ele>
        <time>2024-09-15T09:25:55.000Z</time>
      </trkpt>
      <trkpt lat="45.78498" lon="2.96133">
        <ele>1100.5999755859</ele>
        <time>2024-09-15T09:25:56.000Z</time>
      </trkpt>
      <trkpt lat="45.78499" lon="2.96136">
        <ele>1100.5999755859</ele>
        <time>2024-09-15T09:25:57.000Z</time>
      </trkpt>
      <trkpt lat="45.785" lon="2.96137">
        <ele>1101</ele>
        <time>2024-09-15T09:25:58.000Z</time>
      </trkpt>
      <trkpt lat="45.78502" lon="2.96139">
        <ele>1101</ele>
        <time>2024-09-15T09:25:59.000Z</time>
      </trkpt>
      <trkpt lat="45.78504" lon="2.96141">
        <ele>1101.1999511719</ele>
        <time>2024-09-15T09:26:00.000Z</time>
      </trkpt>
      <trkpt lat="45.78506" lon="2.96142">
        <ele>1101.4000244141</ele>
        <time>2024-09-15T09:26:01.000Z</time>
      </trkpt>
      <trkpt lat="45.78508" lon="2.96144">
        <ele>1101.5999755859</ele>
        <time>2024-09-15T09:26:02.000Z</time>
      </trkpt>
      <trkpt lat="45.78509" lon="2.96146">
        <ele>1101.5999755859</ele>
        <time>2024-09-15T09:26:03.000Z</time>
      </trkpt>
      <trkpt lat="45.78511" lon="2.96148">
        <ele>1101.8000488281</ele>
        <time>2024-09-15T09:26:04.000Z</time>
      </trkpt>
      <trkpt lat="45.78512" lon="2.9615">
        <ele>1101.8000488281</ele>
        <time>2024-09-15T09:26:05.000Z</time>
      </trkpt>
      <trkpt lat="45.78513" lon="2.96153">
        <ele>1102</ele>
        <time>2024-09-15T09:26:06.000Z</time>
      </trkpt>
      <trkpt lat="45.78514" lon="2.96157">
        <ele>1102.8000488281</ele>
        <time>2024-09-15T09:26:07.000Z</time>
      </trkpt>
      <trkpt lat="45.78514" lon="2.9616">
        <ele>1103.1999511719</ele>
        <time>2024-09-15T09:26:08.000Z</time>
      </trkpt>
      <trkpt lat="45.78513" lon="2.96164">
        <ele>1103.5999755859</ele>
        <time>2024-09-15T09:26:09.000Z</time>
      </trkpt>
      <trkpt lat="45.78512" lon="2.96167">
        <ele>1104.1999511719</ele>
        <time>2024-09-15T09:26:10.000Z</time>
      </trkpt>
      <trkpt lat="45.78511" lon="2.9617">
        <ele>1104.4000244141</ele>
        <time>2024-09-15T09:26:11.000Z</time>
      </trkpt>
      <trkpt lat="45.78509" lon="2.96172">
        <ele>1104.8000488281</ele>
        <time>2024-09-15T09:26:12.000Z</time>
      </trkpt>
      <trkpt lat="45.78508" lon="2.96174">
        <ele>1105</ele>
        <time>2024-09-15T09:26:13.000Z</time>
      </trkpt>
      <trkpt lat="45.78507" lon="2.96176">
        <ele>1105.1999511719</ele>
        <time>2024-09-15T09:26:14.000Z</time>
      </trkpt>
      <trkpt lat="45.78505" lon="2.96178">
        <ele>1105.4000244141</ele>
        <time>2024-09-15T09:26:15.000Z</time>
      </trkpt>
      <trkpt lat="45.78505" lon="2.96179">
        <ele>1105.4000244141</ele>
        <time>2024-09-15T09:26:16.000Z</time>
      </trkpt>
      <trkpt lat="45.78504" lon="2.9618">
        <ele>1105.4000244141</ele>
        <time>2024-09-15T09:26:17.000Z</time>
      </trkpt>
      <trkpt lat="45.78503" lon="2.96181">
        <ele>1105.4000244141</ele>
        <time>2024-09-15T09:26:18.000Z</time>
      </trkpt>
      <trkpt lat="45.78502" lon="2.96183">
        <ele>1105.4000244141</ele>
        <time>2024-09-15T09:26:19.000Z</time>
      </trkpt>
      <trkpt lat="45.78501" lon="2.96184">
        <ele>1105.4000244141</ele>
        <time>2024-09-15T09:26:20.000Z</time>
      </trkpt>
      <trkpt lat="45.785" lon="2.96186">
        <ele>1105.4000244141</ele>
        <time>2024-09-15T09:26:21.000Z</time>
      </trkpt>
      <trkpt lat="45.785" lon="2.96187">
        <ele>1106.1999511719</ele>
        <time>2024-09-15T09:26:22.000Z</time>
      </trkpt>
      <trkpt lat="45.78499" lon="2.96188">
        <ele>1106.8000488281</ele>
        <time>2024-09-15T09:26:23.000Z</time>
      </trkpt>
      <trkpt lat="45.78498" lon="2.96189">
        <ele>1106.8000488281</ele>
        <time>2024-09-15T09:26:24.000Z</time>
      </trkpt>
      <trkpt lat="45.78496" lon="2.9619">
        <ele>1107.1999511719</ele>
        <time>2024-09-15T09:26:25.000Z</time>
      </trkpt>
      <trkpt lat="45.78496" lon="2.9619">
        <ele>1107.5999755859</ele>
        <time>2024-09-15T09:26:26.000Z</time>
      </trkpt>
      <trkpt lat="45.78495" lon="2.96191">
        <ele>1107.8000488281</ele>
        <time>2024-09-15T09:26:27.000Z</time>
      </trkpt>
      <trkpt lat="45.78494" lon="2.96192">
        <ele>1107.8000488281</ele>
        <time>2024-09-15T09:26:28.000Z</time>
      </trkpt>
      <trkpt lat="45.78493" lon="2.96192">
        <ele>1108.1999511719</ele>
        <time>2024-09-15T09:26:29.000Z</time>
      </trkpt>
      <trkpt lat="45.78492" lon="2.96192">
        <ele>1108.8000488281</ele>
        <time>2024-09-15T09:26:30.000Z</time>
      </trkpt>
      <trkpt lat="45.78491" lon="2.96193">
        <ele>1109.1999511719</ele>
        <time>2024-09-15T09:26:31.000Z</time>
      </trkpt>
      <trkpt lat="45.78489" lon="2.96193">
        <ele>1109.4000244141</ele>
        <time>2024-09-15T09:26:32.000Z</time>
      </trkpt>
      <trkpt lat="45.78488" lon="2.96194">
        <ele>1109.5999755859</ele>
        <time>2024-09-15T09:26:33.000Z</time>
      </trkpt>
      <trkpt lat="45.78487" lon="2.96194">
        <ele>1109.8000488281</ele>
        <time>2024-09-15T09:26:34.000Z</time>
      </trkpt>
      <trkpt lat="45.78486" lon="2.96195">
        <ele>1110</ele>
        <time>2024-09-15T09:26:35.000Z</time>
      </trkpt>
      <trkpt lat="45.78485" lon="2.96196">
        <ele>1110.4000244141</ele>
        <time>2024-09-15T09:26:36.000Z</time>
      </trkpt>
      <trkpt lat="45.78483" lon="2.96197">
        <ele>1110.4000244141</ele>
        <time>2024-09-15T09:26:37.000Z</time>
      </trkpt>
      <trkpt lat="45.78482" lon="2.96198">
        <ele>1110.5999755859</ele>
        <time>2024-09-15T09:26:38.000Z</time>
      </trkpt>
      <trkpt lat="45.7848" lon="2.96199">
        <ele>1110.5999755859</ele>
        <time>2024-09-15T09:26:39.000Z</time>
      </trkpt>
      <trkpt lat="45.78478" lon="2.96201">
        <ele>1110.8000488281</ele>
        <time>2024-09-15T09:26:40.000Z</time>
      </trkpt>
      <trkpt lat="45.78476" lon="2.96202">
        <ele>1111</ele>
        <time>2024-09-15T09:26:41.000Z</time>
      </trkpt>
      <trkpt lat="45.78474" lon="2.96203">
        <ele>1111.1999511719</ele>
        <time>2024-09-15T09:26:42.000Z</time>
      </trkpt>
      <trkpt lat="45.78471" lon="2.96205">
        <ele>1111.4000244141</ele>
        <time>2024-09-15T09:26:43.000Z</time>
      </trkpt>
      <trkpt lat="45.78469" lon="2.96205">
        <ele>1111.5999755859</ele>
        <time>2024-09-15T09:26:44.000Z</time>
      </trkpt>
      <trkpt lat="45.78466" lon="2.96204">
        <ele>1111.8000488281</ele>
        <time>2024-09-15T09:26:45.000Z</time>
      </trkpt>
      <trkpt lat="45.78464" lon="2.96204">
        <ele>1112</ele>
        <time>2024-09-15T09:26:46.000Z</time>
      </trkpt>
      <trkpt lat="45.78461" lon="2.96203">
        <ele>1112.4000244141</ele>
        <time>2024-09-15T09:26:47.000Z</time>
      </trkpt>
      <trkpt lat="45.78458" lon="2.96203">
        <ele>1112.4000244141</ele>
        <time>2024-09-15T09:26:48.000Z</time>
      </trkpt>
      <trkpt lat="45.78455" lon="2.96202">
        <ele>1112.4000244141</ele>
        <time>2024-09-15T09:26:49.000Z</time>
      </trkpt>
      <trkpt lat="45.78453" lon="2.96203">
        <ele>1112.4000244141</ele>
        <time>2024-09-15T09:26:50.000Z</time>
      </trkpt>
      <trkpt lat="45.78451" lon="2.96204">
        <ele>1112.4000244141</ele>
        <time>2024-09-15T09:26:51.000Z</time>
      </trkpt>
      <trkpt lat="45.78448" lon="2.96206">
        <ele>1112.5999755859</ele>
        <time>2024-09-15T09:26:52.000Z</time>
      </trkpt>
      <trkpt lat="45.78446" lon="2.96208">
        <ele>1112.5999755859</ele>
        <time>2024-09-15T09:26:53.000Z</time>
      </trkpt>
      <trkpt lat="45.78445" lon="2.96211">
        <ele>1112.8000488281</ele>
        <time>2024-09-15T09:26:54.000Z</time>
      </trkpt>
      <trkpt lat="45.78443" lon="2.96213">
        <ele>1112.8000488281</ele>
        <time>2024-09-15T09:26:55.000Z</time>
      </trkpt>
      <trkpt lat="45.78441" lon="2.96215">
        <ele>1112.8000488281</ele>
        <time>2024-09-15T09:26:56.000Z</time>
      </trkpt>
      <trkpt lat="45.78439" lon="2.96217">
        <ele>1113</ele>
        <time>2024-09-15T09:26:57.000Z</time>
      </trkpt>
      <trkpt lat="45.78437" lon="2.96218">
        <ele>1113</ele>
        <time>2024-09-15T09:26:58.000Z</time>
      </trkpt>
      <trkpt lat="45.78436" lon="2.96219">
        <ele>1113.1999511719</ele>
        <time>2024-09-15T09:26:59.000Z</time>
      </trkpt>
      <trkpt lat="45.78435" lon="2.96221">
        <ele>1113.5999755859</ele>
        <time>2024-09-15T09:27:00.000Z</time>
      </trkpt>
      <trkpt lat="45.78434" lon="2.96222">
        <ele>1113.8000488281</ele>
        <time>2024-09-15T09:27:01.000Z</time>
      </trkpt>
      <trkpt lat="45.78433" lon="2.96223">
        <ele>1113.8000488281</ele>
        <time>2024-09-15T09:27:02.000Z</time>
      </trkpt>
      <trkpt lat="45.78432" lon="2.96224">
        <ele>1114</ele>
        <time>2024-09-15T09:27:03.000Z</time>
      </trkpt>
      <trkpt lat="45.7843" lon="2.96225">
        <ele>1114</ele>
        <time>2024-09-15T09:27:04.000Z</time>
      </trkpt>
      <trkpt lat="45.78429" lon="2.96227">
        <ele>1114.1999511719</ele>
        <time>2024-09-15T09:27:05.000Z</time>
      </trkpt>
      <trkpt lat="45.78428" lon="2.96228">
        <ele>1114.4000244141</ele>
        <time>2024-09-15T09:27:06.000Z</time>
      </trkpt>
      <trkpt lat="45.78427" lon="2.96229">
        <ele>1114.5999755859</ele>
        <time>2024-09-15T09:27:07.000Z</time>
      </trkpt>
      <trkpt lat="45.78426" lon="2.9623">
        <ele>1115</ele>
        <time>2024-09-15T09:27:08.000Z</time>
      </trkpt>
      <trkpt lat="45.78425" lon="2.96232">
        <ele>1115.4000244141</ele>
        <time>2024-09-15T09:27:09.000Z</time>
      </trkpt>
      <trkpt lat="45.78424" lon="2.96233">
        <ele>1115.8000488281</ele>
        <time>2024-09-15T09:27:10.000Z</time>
      </trkpt>
      <trkpt lat="45.78423" lon="2.96234">
        <ele>1116</ele>
        <time>2024-09-15T09:27:11.000Z</time>
      </trkpt>
      <trkpt lat="45.78422" lon="2.96236">
        <ele>1116.1999511719</ele>
        <time>2024-09-15T09:27:12.000Z</time>
      </trkpt>
      <trkpt lat="45.78421" lon="2.96238">
        <ele>1116.1999511719</ele>
        <time>2024-09-15T09:27:13.000Z</time>
      </trkpt>
      <trkpt lat="45.7842" lon="2.96239">
        <ele>1116.4000244141</ele>
        <time>2024-09-15T09:27:14.000Z</time>
      </trkpt>
      <trkpt lat="45.78419" lon="2.9624">
        <ele>1116.8000488281</ele>
        <time>2024-09-15T09:27:15.000Z</time>
      </trkpt>
      <trkpt lat="45.78417" lon="2.96241">
        <ele>1116.8000488281</ele>
        <time>2024-09-15T09:27:16.000Z</time>
      </trkpt>
      <trkpt lat="45.78416" lon="2.96243">
        <ele>1117</ele>
        <time>2024-09-15T09:27:17.000Z</time>
      </trkpt>
      <trkpt lat="45.78415" lon="2.96244">
        <ele>1117.1999511719</ele>
        <time>2024-09-15T09:27:18.000Z</time>
      </trkpt>
      <trkpt lat="45.78415" lon="2.96246">
        <ele>1117.4000244141</ele>
        <time>2024-09-15T09:27:19.000Z</time>
      </trkpt>
      <trkpt lat="45.78414" lon="2.96247">
        <ele>1117.5999755859</ele>
        <time>2024-09-15T09:27:20.000Z</time>
      </trkpt>
      <trkpt lat="45.78413" lon="2.96248">
        <ele>1117.8000488281</ele>
        <time>2024-09-15T09:27:21.000Z</time>
      </trkpt>
      <trkpt lat="45.78412" lon="2.96249">
        <ele>1118</ele>
        <time>2024-09-15T09:27:22.000Z</time>
      </trkpt>
      <trkpt lat="45.78411" lon="2.9625">
        <ele>1118.4000244141</ele>
        <time>2024-09-15T09:27:23.000Z</time>
      </trkpt>
      <trkpt lat="45.7841" lon="2.96252">
        <ele>1118.8000488281</ele>
        <time>2024-09-15T09:27:24.000Z</time>
      </trkpt>
      <trkpt lat="45.78409" lon="2.96253">
        <ele>1119</ele>
        <time>2024-09-15T09:27:25.000Z</time>
      </trkpt>
      <trkpt lat="45.78407" lon="2.96255">
        <ele>1119</ele>
        <time>2024-09-15T09:27:26.000Z</time>
      </trkpt>
      <trkpt lat="45.78407" lon="2.96257">
        <ele>1119.1999511719</ele>
        <time>2024-09-15T09:27:27.000Z</time>
      </trkpt>
      <trkpt lat="45.78406" lon="2.96259">
        <ele>1119.8000488281</ele>
        <time>2024-09-15T09:27:28.000Z</time>
      </trkpt>
      <trkpt lat="45.78405" lon="2.96261">
        <ele>1120</ele>
        <time>2024-09-15T09:27:29.000Z</time>
      </trkpt>
      <trkpt lat="45.78405" lon="2.96262">
        <ele>1120.8000488281</ele>
        <time>2024-09-15T09:27:30.000Z</time>
      </trkpt>
      <trkpt lat="45.78404" lon="2.96264">
        <ele>1120.8000488281</ele>
        <time>2024-09-15T09:27:31.000Z</time>
      </trkpt>
      <trkpt lat="45.78403" lon="2.96266">
        <ele>1120.8000488281</ele>
        <time>2024-09-15T09:27:32.000Z</time>
      </trkpt>
      <trkpt lat="45.78402" lon="2.96267">
        <ele>1121</ele>
        <time>2024-09-15T09:27:33.000Z</time>
      </trkpt>
      <trkpt lat="45.78402" lon="2.96269">
        <ele>1121</ele>
        <time>2024-09-15T09:27:34.000Z</time>
      </trkpt>
      <trkpt lat="45.78401" lon="2.96271">
        <ele>1121</ele>
        <time>2024-09-15T09:27:35.000Z</time>
      </trkpt>
      <trkpt lat="45.784" lon="2.96272">
        <ele>1121.1999511719</ele>
        <time>2024-09-15T09:27:36.000Z</time>
      </trkpt>
      <trkpt lat="45.784" lon="2.96274">
        <ele>1121.5999755859</ele>
        <time>2024-09-15T09:27:37.000Z</time>
      </trkpt>
      <trkpt lat="45.78399" lon="2.96276">
        <ele>1122</ele>
        <time>2024-09-15T09:27:38.000Z</time>
      </trkpt>
      <trkpt lat="45.78397" lon="2.96277">
        <ele>1122</ele>
        <time>2024-09-15T09:27:39.000Z</time>
      </trkpt>
      <trkpt lat="45.78397" lon="2.96278">
        <ele>1122.1999511719</ele>
        <time>2024-09-15T09:27:40.000Z</time>
      </trkpt>
      <trkpt lat="45.78396" lon="2.9628">
        <ele>1122.4000244141</ele>
        <time>2024-09-15T09:27:41.000Z</time>
      </trkpt>
      <trkpt lat="45.78395" lon="2.96281">
        <ele>1122.4000244141</ele>
        <time>2024-09-15T09:27:42.000Z</time>
      </trkpt>
      <trkpt lat="45.78394" lon="2.96283">
        <ele>1122.4000244141</ele>
        <time>2024-09-15T09:27:43.000Z</time>
      </trkpt>
      <trkpt lat="45.78394" lon="2.96285">
        <ele>1122.4000244141</ele>
        <time>2024-09-15T09:27:44.000Z</time>
      </trkpt>
      <trkpt lat="45.78393" lon="2.96287">
        <ele>1122.4000244141</ele>
        <time>2024-09-15T09:27:45.000Z</time>
      </trkpt>
      <trkpt lat="45.78392" lon="2.96289">
        <ele>1122.5999755859</ele>
        <time>2024-09-15T09:27:46.000Z</time>
      </trkpt>
      <trkpt lat="45.7839" lon="2.96291">
        <ele>1122.8000488281</ele>
        <time>2024-09-15T09:27:47.000Z</time>
      </trkpt>
      <trkpt lat="45.78388" lon="2.96294">
        <ele>1122.8000488281</ele>
        <time>2024-09-15T09:27:48.000Z</time>
      </trkpt>
      <trkpt lat="45.78387" lon="2.96296">
        <ele>1122.8000488281</ele>
        <time>2024-09-15T09:27:49.000Z</time>
      </trkpt>
      <trkpt lat="45.78386" lon="2.96299">
        <ele>1123</ele>
        <time>2024-09-15T09:27:50.000Z</time>
      </trkpt>
      <trkpt lat="45.78385" lon="2.96303">
        <ele>1123</ele>
        <time>2024-09-15T09:27:51.000Z</time>
      </trkpt>
      <trkpt lat="45.78385" lon="2.96305">
        <ele>1123.1999511719</ele>
        <time>2024-09-15T09:27:52.000Z</time>
      </trkpt>
      <trkpt lat="45.78384" lon="2.96309">
        <ele>1124.1999511719</ele>
        <time>2024-09-15T09:27:53.000Z</time>
      </trkpt>
      <trkpt lat="45.78383" lon="2.96312">
        <ele>1124.5999755859</ele>
        <time>2024-09-15T09:27:54.000Z</time>
      </trkpt>
      <trkpt lat="45.78383" lon="2.96315">
        <ele>1124.8000488281</ele>
        <time>2024-09-15T09:27:55.000Z</time>
      </trkpt>
      <trkpt lat="45.78382" lon="2.96318">
        <ele>1125.1999511719</ele>
        <time>2024-09-15T09:27:56.000Z</time>
      </trkpt>
      <trkpt lat="45.78382" lon="2.9632">
        <ele>1125.1999511719</ele>
        <time>2024-09-15T09:27:57.000Z</time>
      </trkpt>
      <trkpt lat="45.78382" lon="2.96323">
        <ele>1125.4000244141</ele>
        <time>2024-09-15T09:27:58.000Z</time>
      </trkpt>
      <trkpt lat="45.78381" lon="2.96326">
        <ele>1126</ele>
        <time>2024-09-15T09:27:59.000Z</time>
      </trkpt>
      <trkpt lat="45.78381" lon="2.96329">
        <ele>1126.4000244141</ele>
        <time>2024-09-15T09:28:00.000Z</time>
      </trkpt>
      <trkpt lat="45.78381" lon="2.96332">
        <ele>1126.4000244141</ele>
        <time>2024-09-15T09:28:01.000Z</time>
      </trkpt>
      <trkpt lat="45.7838" lon="2.96336">
        <ele>1126.8000488281</ele>
        <time>2024-09-15T09:28:02.000Z</time>
      </trkpt>
      <trkpt lat="45.7838" lon="2.96338">
        <ele>1127.4000244141</ele>
        <time>2024-09-15T09:28:03.000Z</time>
      </trkpt>
      <trkpt lat="45.78379" lon="2.96342">
        <ele>1127.5999755859</ele>
        <time>2024-09-15T09:28:04.000Z</time>
      </trkpt>
      <trkpt lat="45.78379" lon="2.96345">
        <ele>1127.5999755859</ele>
        <time>2024-09-15T09:28:05.000Z</time>
      </trkpt>
      <trkpt lat="45.78379" lon="2.96348">
        <ele>1127.8000488281</ele>
        <time>2024-09-15T09:28:06.000Z</time>
      </trkpt>
      <trkpt lat="45.78379" lon="2.96352">
        <ele>1127.8000488281</ele>
        <time>2024-09-15T09:28:07.000Z</time>
      </trkpt>
      <trkpt lat="45.78378" lon="2.96355">
        <ele>1128</ele>
        <time>2024-09-15T09:28:08.000Z</time>
      </trkpt>
      <trkpt lat="45.78378" lon="2.96358">
        <ele>1128.1999511719</ele>
        <time>2024-09-15T09:28:09.000Z</time>
      </trkpt>
      <trkpt lat="45.78378" lon="2.96362">
        <ele>1128.1999511719</ele>
        <time>2024-09-15T09:28:10.000Z</time>
      </trkpt>
      <trkpt lat="45.78377" lon="2.96365">
        <ele>1128.4000244141</ele>
        <time>2024-09-15T09:28:11.000Z</time>
      </trkpt>
      <trkpt lat="45.78377" lon="2.96369">
        <ele>1128.5999755859</ele>
        <time>2024-09-15T09:28:12.000Z</time>
      </trkpt>
      <trkpt lat="45.78377" lon="2.96373">
        <ele>1128.5999755859</ele>
        <time>2024-09-15T09:28:13.000Z</time>
      </trkpt>
      <trkpt lat="45.78376" lon="2.96376">
        <ele>1128.8000488281</ele>
        <time>2024-09-15T09:28:14.000Z</time>
      </trkpt>
      <trkpt lat="45.78375" lon="2.96379">
        <ele>1129</ele>
        <time>2024-09-15T09:28:15.000Z</time>
      </trkpt>
      <trkpt lat="45.78374" lon="2.96383">
        <ele>1129.1999511719</ele>
        <time>2024-09-15T09:28:16.000Z</time>
      </trkpt>
      <trkpt lat="45.78374" lon="2.96386">
        <ele>1129.4000244141</ele>
        <time>2024-09-15T09:28:17.000Z</time>
      </trkpt>
      <trkpt lat="45.78374" lon="2.9639">
        <ele>1129.4000244141</ele>
        <time>2024-09-15T09:28:18.000Z</time>
      </trkpt>
      <trkpt lat="45.78373" lon="2.96394">
        <ele>1129.4000244141</ele>
        <time>2024-09-15T09:28:19.000Z</time>
      </trkpt>
      <trkpt lat="45.78373" lon="2.96397">
        <ele>1129.4000244141</ele>
        <time>2024-09-15T09:28:20.000Z</time>
      </trkpt>
      <trkpt lat="45.78373" lon="2.964">
        <ele>1129.4000244141</ele>
        <time>2024-09-15T09:28:21.000Z</time>
      </trkpt>
      <trkpt lat="45.78372" lon="2.96404">
        <ele>1129.4000244141</ele>
        <time>2024-09-15T09:28:22.000Z</time>
      </trkpt>
      <trkpt lat="45.78372" lon="2.96408">
        <ele>1129.4000244141</ele>
        <time>2024-09-15T09:28:23.000Z</time>
      </trkpt>
      <trkpt lat="45.78373" lon="2.96411">
        <ele>1129.1999511719</ele>
        <time>2024-09-15T09:28:24.000Z</time>
      </trkpt>
      <trkpt lat="45.78373" lon="2.96415">
        <ele>1129.1999511719</ele>
        <time>2024-09-15T09:28:25.000Z</time>
      </trkpt>
      <trkpt lat="45.78373" lon="2.96419">
        <ele>1129</ele>
        <time>2024-09-15T09:28:26.000Z</time>
      </trkpt>
      <trkpt lat="45.78373" lon="2.96422">
        <ele>1129.4000244141</ele>
        <time>2024-09-15T09:28:27.000Z</time>
      </trkpt>
      <trkpt lat="45.78374" lon="2.96426">
        <ele>1129.8000488281</ele>
        <time>2024-09-15T09:28:28.000Z</time>
      </trkpt>
      <trkpt lat="45.78374" lon="2.96429">
        <ele>1130.1999511719</ele>
        <time>2024-09-15T09:28:29.000Z</time>
      </trkpt>
      <trkpt lat="45.78375" lon="2.96433">
        <ele>1130.5999755859</ele>
        <time>2024-09-15T09:28:30.000Z</time>
      </trkpt>
      <trkpt lat="45.78375" lon="2.96436">
        <ele>1131</ele>
        <time>2024-09-15T09:28:31.000Z</time>
      </trkpt>
      <trkpt lat="45.78376" lon="2.9644">
        <ele>1131.1999511719</ele>
        <time>2024-09-15T09:28:32.000Z</time>
      </trkpt>
      <trkpt lat="45.78376" lon="2.96443">
        <ele>1131.1999511719</ele>
        <time>2024-09-15T09:28:33.000Z</time>
      </trkpt>
      <trkpt lat="45.78377" lon="2.96447">
        <ele>1131.4000244141</ele>
        <time>2024-09-15T09:28:34.000Z</time>
      </trkpt>
      <trkpt lat="45.78378" lon="2.9645">
        <ele>1131.1999511719</ele>
        <time>2024-09-15T09:28:35.000Z</time>
      </trkpt>
      <trkpt lat="45.78379" lon="2.96454">
        <ele>1131</ele>
        <time>2024-09-15T09:28:36.000Z</time>
      </trkpt>
      <trkpt lat="45.7838" lon="2.96457">
        <ele>1130.8000488281</ele>
        <time>2024-09-15T09:28:37.000Z</time>
      </trkpt>
      <trkpt lat="45.78381" lon="2.96461">
        <ele>1130.5999755859</ele>
        <time>2024-09-15T09:28:38.000Z</time>
      </trkpt>
      <trkpt lat="45.78382" lon="2.96465">
        <ele>1130.5999755859</ele>
        <time>2024-09-15T09:28:39.000Z</time>
      </trkpt>
      <trkpt lat="45.78383" lon="2.96469">
        <ele>1130.5999755859</ele>
        <time>2024-09-15T09:28:40.000Z</time>
      </trkpt>
      <trkpt lat="45.78383" lon="2.96472">
        <ele>1130.4000244141</ele>
        <time>2024-09-15T09:28:41.000Z</time>
      </trkpt>
      <trkpt lat="45.78384" lon="2.96475">
        <ele>1130.4000244141</ele>
        <time>2024-09-15T09:28:42.000Z</time>
      </trkpt>
      <trkpt lat="45.78385" lon="2.9648">
        <ele>1130.4000244141</ele>
        <time>2024-09-15T09:28:43.000Z</time>
      </trkpt>
      <trkpt lat="45.78385" lon="2.96483">
        <ele>1130.4000244141</ele>
        <time>2024-09-15T09:28:44.000Z</time>
      </trkpt>
      <trkpt lat="45.78386" lon="2.96487">
        <ele>1130.4000244141</ele>
        <time>2024-09-15T09:28:45.000Z</time>
      </trkpt>
      <trkpt lat="45.78386" lon="2.96491">
        <ele>1130.5999755859</ele>
        <time>2024-09-15T09:28:46.000Z</time>
      </trkpt>
      <trkpt lat="45.78386" lon="2.96496">
        <ele>1130.5999755859</ele>
        <time>2024-09-15T09:28:47.000Z</time>
      </trkpt>
      <trkpt lat="45.78386" lon="2.965">
        <ele>1130.5999755859</ele>
        <time>2024-09-15T09:28:48.000Z</time>
      </trkpt>
      <trkpt lat="45.78388" lon="2.96504">
        <ele>1130.5999755859</ele>
        <time>2024-09-15T09:28:49.000Z</time>
      </trkpt>
      <trkpt lat="45.78389" lon="2.96508">
        <ele>1130.5999755859</ele>
        <time>2024-09-15T09:28:50.000Z</time>
      </trkpt>
      <trkpt lat="45.7839" lon="2.96512">
        <ele>1130.5999755859</ele>
        <time>2024-09-15T09:28:51.000Z</time>
      </trkpt>
      <trkpt lat="45.78391" lon="2.96516">
        <ele>1130.4000244141</ele>
        <time>2024-09-15T09:28:52.000Z</time>
      </trkpt>
      <trkpt lat="45.78391" lon="2.96519">
        <ele>1130.4000244141</ele>
        <time>2024-09-15T09:28:53.000Z</time>
      </trkpt>
      <trkpt lat="45.78391" lon="2.96523">
        <ele>1130.5999755859</ele>
        <time>2024-09-15T09:28:54.000Z</time>
      </trkpt>
      <trkpt lat="45.78391" lon="2.96527">
        <ele>1130.5999755859</ele>
        <time>2024-09-15T09:28:55.000Z</time>
      </trkpt>
      <trkpt lat="45.7839" lon="2.96531">
        <ele>1130.5999755859</ele>
        <time>2024-09-15T09:28:56.000Z</time>
      </trkpt>
      <trkpt lat="45.7839" lon="2.96535">
        <ele>1130.5999755859</ele>
        <time>2024-09-15T09:28:57.000Z</time>
      </trkpt>
      <trkpt lat="45.7839" lon="2.96539">
        <ele>1130.4000244141</ele>
        <time>2024-09-15T09:28:58.000Z</time>
      </trkpt>
      <trkpt lat="45.78391" lon="2.96543">
        <ele>1130.4000244141</ele>
        <time>2024-09-15T09:28:59.000Z</time>
      </trkpt>
      <trkpt lat="45.78391" lon="2.96547">
        <ele>1130.4000244141</ele>
        <time>2024-09-15T09:29:00.000Z</time>
      </trkpt>
      <trkpt lat="45.78391" lon="2.96551">
        <ele>1130.1999511719</ele>
        <time>2024-09-15T09:29:01.000Z</time>
      </trkpt>
      <trkpt lat="45.78391" lon="2.96555">
        <ele>1130.4000244141</ele>
        <time>2024-09-15T09:29:02.000Z</time>
      </trkpt>
      <trkpt lat="45.78392" lon="2.96559">
        <ele>1130.4000244141</ele>
        <time>2024-09-15T09:29:03.000Z</time>
      </trkpt>
      <trkpt lat="45.78393" lon="2.96563">
        <ele>1130.4000244141</ele>
        <time>2024-09-15T09:29:04.000Z</time>
      </trkpt>
      <trkpt lat="45.78393" lon="2.96567">
        <ele>1130.4000244141</ele>
        <time>2024-09-15T09:29:05.000Z</time>
      </trkpt>
      <trkpt lat="45.78394" lon="2.96571">
        <ele>1130.5999755859</ele>
        <time>2024-09-15T09:29:06.000Z</time>
      </trkpt>
      <trkpt lat="45.78394" lon="2.96575">
        <ele>1130.5999755859</ele>
        <time>2024-09-15T09:29:07.000Z</time>
      </trkpt>
      <trkpt lat="45.78394" lon="2.96579">
        <ele>1130.5999755859</ele>
        <time>2024-09-15T09:29:08.000Z</time>
      </trkpt>
      <trkpt lat="45.78394" lon="2.96583">
        <ele>1130.8000488281</ele>
        <time>2024-09-15T09:29:09.000Z</time>
      </trkpt>
      <trkpt lat="45.78395" lon="2.96587">
        <ele>1131</ele>
        <time>2024-09-15T09:29:10.000Z</time>
      </trkpt>
      <trkpt lat="45.78396" lon="2.9659">
        <ele>1131</ele>
        <time>2024-09-15T09:29:11.000Z</time>
      </trkpt>
      <trkpt lat="45.78397" lon="2.96594">
        <ele>1131.8000488281</ele>
        <time>2024-09-15T09:29:12.000Z</time>
      </trkpt>
      <trkpt lat="45.78398" lon="2.96598">
        <ele>1132</ele>
        <time>2024-09-15T09:29:13.000Z</time>
      </trkpt>
      <trkpt lat="45.78399" lon="2.96601">
        <ele>1132</ele>
        <time>2024-09-15T09:29:14.000Z</time>
      </trkpt>
      <trkpt lat="45.78399" lon="2.96606">
        <ele>1132</ele>
        <time>2024-09-15T09:29:15.000Z</time>
      </trkpt>
      <trkpt lat="45.784" lon="2.96609">
        <ele>1132</ele>
        <time>2024-09-15T09:29:16.000Z</time>
      </trkpt>
      <trkpt lat="45.78401" lon="2.96613">
        <ele>1132</ele>
        <time>2024-09-15T09:29:17.000Z</time>
      </trkpt>
      <trkpt lat="45.78401" lon="2.96617">
        <ele>1132</ele>
        <time>2024-09-15T09:29:18.000Z</time>
      </trkpt>
      <trkpt lat="45.78402" lon="2.96621">
        <ele>1131.5999755859</ele>
        <time>2024-09-15T09:29:19.000Z</time>
      </trkpt>
      <trkpt lat="45.78404" lon="2.96625">
        <ele>1131.4000244141</ele>
        <time>2024-09-15T09:29:20.000Z</time>
      </trkpt>
      <trkpt lat="45.78405" lon="2.96629">
        <ele>1131.4000244141</ele>
        <time>2024-09-15T09:29:21.000Z</time>
      </trkpt>
      <trkpt lat="45.78407" lon="2.96632">
        <ele>1131.4000244141</ele>
        <time>2024-09-15T09:29:22.000Z</time>
      </trkpt>
      <trkpt lat="45.78408" lon="2.96636">
        <ele>1131.8000488281</ele>
        <time>2024-09-15T09:29:23.000Z</time>
      </trkpt>
      <trkpt lat="45.7841" lon="2.96639">
        <ele>1131.8000488281</ele>
        <time>2024-09-15T09:29:24.000Z</time>
      </trkpt>
      <trkpt lat="45.78411" lon="2.96643">
        <ele>1131.5999755859</ele>
        <time>2024-09-15T09:29:25.000Z</time>
      </trkpt>
      <trkpt lat="45.78412" lon="2.96647">
        <ele>1131.4000244141</ele>
        <time>2024-09-15T09:29:26.000Z</time>
      </trkpt>
      <trkpt lat="45.78413" lon="2.96651">
        <ele>1131.4000244141</ele>
        <time>2024-09-15T09:29:27.000Z</time>
      </trkpt>
      <trkpt lat="45.78414" lon="2.96655">
        <ele>1131.4000244141</ele>
        <time>2024-09-15T09:29:28.000Z</time>
      </trkpt>
      <trkpt lat="45.78416" lon="2.96659">
        <ele>1131.4000244141</ele>
        <time>2024-09-15T09:29:29.000Z</time>
      </trkpt>
      <trkpt lat="45.78417" lon="2.96663">
        <ele>1131.1999511719</ele>
        <time>2024-09-15T09:29:30.000Z</time>
      </trkpt>
      <trkpt lat="45.78418" lon="2.96667">
        <ele>1131.1999511719</ele>
        <time>2024-09-15T09:29:31.000Z</time>
      </trkpt>
      <trkpt lat="45.78419" lon="2.96671">
        <ele>1131.1999511719</ele>
        <time>2024-09-15T09:29:32.000Z</time>
      </trkpt>
      <trkpt lat="45.7842" lon="2.96674">
        <ele>1131</ele>
        <time>2024-09-15T09:29:33.000Z</time>
      </trkpt>
      <trkpt lat="45.78421" lon="2.96679">
        <ele>1130.5999755859</ele>
        <time>2024-09-15T09:29:34.000Z</time>
      </trkpt>
      <trkpt lat="45.78422" lon="2.96683">
        <ele>1130.4000244141</ele>
        <time>2024-09-15T09:29:35.000Z</time>
      </trkpt>
      <trkpt lat="45.78423" lon="2.96687">
        <ele>1130.4000244141</ele>
        <time>2024-09-15T09:29:36.000Z</time>
      </trkpt>
      <trkpt lat="45.78424" lon="2.96691">
        <ele>1130</ele>
        <time>2024-09-15T09:29:37.000Z</time>
      </trkpt>
      <trkpt lat="45.78425" lon="2.96695">
        <ele>1129.8000488281</ele>
        <time>2024-09-15T09:29:38.000Z</time>
      </trkpt>
      <trkpt lat="45.78425" lon="2.96699">
        <ele>1129.5999755859</ele>
        <time>2024-09-15T09:29:39.000Z</time>
      </trkpt>
      <trkpt lat="45.78426" lon="2.96704">
        <ele>1129.5999755859</ele>
        <time>2024-09-15T09:29:40.000Z</time>
      </trkpt>
      <trkpt lat="45.78426" lon="2.96709">
        <ele>1129.5999755859</ele>
        <time>2024-09-15T09:29:41.000Z</time>
      </trkpt>
      <trkpt lat="45.78427" lon="2.96713">
        <ele>1129.1999511719</ele>
        <time>2024-09-15T09:29:42.000Z</time>
      </trkpt>
      <trkpt lat="45.78428" lon="2.96717">
        <ele>1129.1999511719</ele>
        <time>2024-09-15T09:29:43.000Z</time>
      </trkpt>
      <trkpt lat="45.78429" lon="2.96721">
        <ele>1129.1999511719</ele>
        <time>2024-09-15T09:29:44.000Z</time>
      </trkpt>
      <trkpt lat="45.7843" lon="2.96726">
        <ele>1129</ele>
        <time>2024-09-15T09:29:45.000Z</time>
      </trkpt>
      <trkpt lat="45.78431" lon="2.9673">
        <ele>1129</ele>
        <time>2024-09-15T09:29:46.000Z</time>
      </trkpt>
      <trkpt lat="45.78431" lon="2.96734">
        <ele>1129</ele>
        <time>2024-09-15T09:29:47.000Z</time>
      </trkpt>
      <trkpt lat="45.78432" lon="2.96738">
        <ele>1129.1999511719</ele>
        <time>2024-09-15T09:29:48.000Z</time>
      </trkpt>
      <trkpt lat="45.78432" lon="2.96743">
        <ele>1129.1999511719</ele>
        <time>2024-09-15T09:29:49.000Z</time>
      </trkpt>
      <trkpt lat="45.78433" lon="2.96747">
        <ele>1129</ele>
        <time>2024-09-15T09:29:50.000Z</time>
      </trkpt>
      <trkpt lat="45.78433" lon="2.96751">
        <ele>1129</ele>
        <time>2024-09-15T09:29:51.000Z</time>
      </trkpt>
      <trkpt lat="45.78434" lon="2.96755">
        <ele>1129</ele>
        <time>2024-09-15T09:29:52.000Z</time>
      </trkpt>
      <trkpt lat="45.78435" lon="2.9676">
        <ele>1128.5999755859</ele>
        <time>2024-09-15T09:29:53.000Z</time>
      </trkpt>
      <trkpt lat="45.78435" lon="2.96764">
        <ele>1128.4000244141</ele>
        <time>2024-09-15T09:29:54.000Z</time>
      </trkpt>
      <trkpt lat="45.78436" lon="2.96768">
        <ele>1128.4000244141</ele>
        <time>2024-09-15T09:29:55.000Z</time>
      </trkpt>
      <trkpt lat="45.78437" lon="2.96772">
        <ele>1128.4000244141</ele>
        <time>2024-09-15T09:29:56.000Z</time>
      </trkpt>
      <trkpt lat="45.78438" lon="2.96776">
        <ele>1128.4000244141</ele>
        <time>2024-09-15T09:29:57.000Z</time>
      </trkpt>
      <trkpt lat="45.7844" lon="2.9678">
        <ele>1128.4000244141</ele>
        <time>2024-09-15T09:29:58.000Z</time>
      </trkpt>
      <trkpt lat="45.78442" lon="2.96784">
        <ele>1128.5999755859</ele>
        <time>2024-09-15T09:29:59.000Z</time>
      </trkpt>
      <trkpt lat="45.78443" lon="2.96788">
        <ele>1128.8000488281</ele>
        <time>2024-09-15T09:30:00.000Z</time>
      </trkpt>
      <trkpt lat="45.78444" lon="2.96792">
        <ele>1128.8000488281</ele>
        <time>2024-09-15T09:30:01.000Z</time>
      </trkpt>
      <trkpt lat="45.78446" lon="2.96796">
        <ele>1128.4000244141</ele>
        <time>2024-09-15T09:30:02.000Z</time>
      </trkpt>
      <trkpt lat="45.78447" lon="2.968">
        <ele>1128.1999511719</ele>
        <time>2024-09-15T09:30:03.000Z</time>
      </trkpt>
      <trkpt lat="45.78448" lon="2.96804">
        <ele>1128</ele>
        <time>2024-09-15T09:30:04.000Z</time>
      </trkpt>
      <trkpt lat="45.7845" lon="2.96808">
        <ele>1128</ele>
        <time>2024-09-15T09:30:05.000Z</time>
      </trkpt>
      <trkpt lat="45.78451" lon="2.96811">
        <ele>1128</ele>
        <time>2024-09-15T09:30:06.000Z</time>
      </trkpt>
      <trkpt lat="45.78453" lon="2.96815">
        <ele>1128</ele>
        <time>2024-09-15T09:30:07.000Z</time>
      </trkpt>
      <trkpt lat="45.78454" lon="2.96818">
        <ele>1128.1999511719</ele>
        <time>2024-09-15T09:30:08.000Z</time>
      </trkpt>
      <trkpt lat="45.78456" lon="2.96822">
        <ele>1128.1999511719</ele>
        <time>2024-09-15T09:30:09.000Z</time>
      </trkpt>
      <trkpt lat="45.78457" lon="2.96825">
        <ele>1128.1999511719</ele>
        <time>2024-09-15T09:30:10.000Z</time>
      </trkpt>
      <trkpt lat="45.78458" lon="2.96829">
        <ele>1128.1999511719</ele>
        <time>2024-09-15T09:30:11.000Z</time>
      </trkpt>
      <trkpt lat="45.78459" lon="2.96832">
        <ele>1128.1999511719</ele>
        <time>2024-09-15T09:30:12.000Z</time>
      </trkpt>
      <trkpt lat="45.78461" lon="2.96835">
        <ele>1128.1999511719</ele>
        <time>2024-09-15T09:30:13.000Z</time>
      </trkpt>
      <trkpt lat="45.78462" lon="2.96839">
        <ele>1128.4000244141</ele>
        <time>2024-09-15T09:30:14.000Z</time>
      </trkpt>
      <trkpt lat="45.78464" lon="2.96842">
        <ele>1128.5999755859</ele>
        <time>2024-09-15T09:30:15.000Z</time>
      </trkpt>
      <trkpt lat="45.78466" lon="2.96845">
        <ele>1128.8000488281</ele>
        <time>2024-09-15T09:30:16.000Z</time>
      </trkpt>
      <trkpt lat="45.78468" lon="2.96847">
        <ele>1129.1999511719</ele>
        <time>2024-09-15T09:30:17.000Z</time>
      </trkpt>
      <trkpt lat="45.7847" lon="2.96851">
        <ele>1129.4000244141</ele>
        <time>2024-09-15T09:30:18.000Z</time>
      </trkpt>
      <trkpt lat="45.78472" lon="2.96854">
        <ele>1129.5999755859</ele>
        <time>2024-09-15T09:30:19.000Z</time>
      </trkpt>
      <trkpt lat="45.78475" lon="2.96857">
        <ele>1130.5999755859</ele>
        <time>2024-09-15T09:30:20.000Z</time>
      </trkpt>
      <trkpt lat="45.78477" lon="2.96861">
        <ele>1130.5999755859</ele>
        <time>2024-09-15T09:30:21.000Z</time>
      </trkpt>
      <trkpt lat="45.78479" lon="2.96864">
        <ele>1130.5999755859</ele>
        <time>2024-09-15T09:30:22.000Z</time>
      </trkpt>
      <trkpt lat="45.78481" lon="2.96868">
        <ele>1130.5999755859</ele>
        <time>2024-09-15T09:30:23.000Z</time>
      </trkpt>
      <trkpt lat="45.78484" lon="2.96871">
        <ele>1130.5999755859</ele>
        <time>2024-09-15T09:30:24.000Z</time>
      </trkpt>
      <trkpt lat="45.78486" lon="2.96875">
        <ele>1130.4000244141</ele>
        <time>2024-09-15T09:30:25.000Z</time>
      </trkpt>
      <trkpt lat="45.78488" lon="2.96879">
        <ele>1130</ele>
        <time>2024-09-15T09:30:26.000Z</time>
      </trkpt>
      <trkpt lat="45.7849" lon="2.96883">
        <ele>1129.8000488281</ele>
        <time>2024-09-15T09:30:27.000Z</time>
      </trkpt>
      <trkpt lat="45.78492" lon="2.96887">
        <ele>1129.5999755859</ele>
        <time>2024-09-15T09:30:28.000Z</time>
      </trkpt>
      <trkpt lat="45.78494" lon="2.96891">
        <ele>1129.5999755859</ele>
        <time>2024-09-15T09:30:29.000Z</time>
      </trkpt>
      <trkpt lat="45.78496" lon="2.96895">
        <ele>1129.1999511719</ele>
        <time>2024-09-15T09:30:30.000Z</time>
      </trkpt>
      <trkpt lat="45.78497" lon="2.96899">
        <ele>1129</ele>
        <time>2024-09-15T09:30:31.000Z</time>
      </trkpt>
      <trkpt lat="45.78499" lon="2.96904">
        <ele>1128.8000488281</ele>
        <time>2024-09-15T09:30:32.000Z</time>
      </trkpt>
      <trkpt lat="45.78501" lon="2.96907">
        <ele>1128.5999755859</ele>
        <time>2024-09-15T09:30:33.000Z</time>
      </trkpt>
      <trkpt lat="45.78503" lon="2.96912">
        <ele>1128.4000244141</ele>
        <time>2024-09-15T09:30:34.000Z</time>
      </trkpt>
      <trkpt lat="45.78504" lon="2.96916">
        <ele>1128</ele>
        <time>2024-09-15T09:30:35.000Z</time>
      </trkpt>
      <trkpt lat="45.78505" lon="2.96921">
        <ele>1127.8000488281</ele>
        <time>2024-09-15T09:30:36.000Z</time>
      </trkpt>
      <trkpt lat="45.78506" lon="2.96925">
        <ele>1127.4000244141</ele>
        <time>2024-09-15T09:30:37.000Z</time>
      </trkpt>
      <trkpt lat="45.78508" lon="2.9693">
        <ele>1127.4000244141</ele>
        <time>2024-09-15T09:30:38.000Z</time>
      </trkpt>
      <trkpt lat="45.78509" lon="2.96935">
        <ele>1127.4000244141</ele>
        <time>2024-09-15T09:30:39.000Z</time>
      </trkpt>
      <trkpt lat="45.78511" lon="2.9694">
        <ele>1127</ele>
        <time>2024-09-15T09:30:40.000Z</time>
      </trkpt>
      <trkpt lat="45.78512" lon="2.96945">
        <ele>1126.5999755859</ele>
        <time>2024-09-15T09:30:41.000Z</time>
      </trkpt>
      <trkpt lat="45.78514" lon="2.9695">
        <ele>1126.4000244141</ele>
        <time>2024-09-15T09:30:42.000Z</time>
      </trkpt>
      <trkpt lat="45.78515" lon="2.96955">
        <ele>1126.1999511719</ele>
        <time>2024-09-15T09:30:43.000Z</time>
      </trkpt>
      <trkpt lat="45.78515" lon="2.9696">
        <ele>1125.5999755859</ele>
        <time>2024-09-15T09:30:44.000Z</time>
      </trkpt>
      <trkpt lat="45.78516" lon="2.96965">
        <ele>1124.1999511719</ele>
        <time>2024-09-15T09:30:45.000Z</time>
      </trkpt>
      <trkpt lat="45.78516" lon="2.9697">
        <ele>1122</ele>
        <time>2024-09-15T09:30:46.000Z</time>
      </trkpt>
      <trkpt lat="45.78517" lon="2.96976">
        <ele>1121.4000244141</ele>
        <time>2024-09-15T09:30:47.000Z</time>
      </trkpt>
      <trkpt lat="45.78517" lon="2.9698">
        <ele>1120</ele>
        <time>2024-09-15T09:30:48.000Z</time>
      </trkpt>
      <trkpt lat="45.78519" lon="2.96985">
        <ele>1119.4000244141</ele>
        <time>2024-09-15T09:30:49.000Z</time>
      </trkpt>
      <trkpt lat="45.78521" lon="2.96989">
        <ele>1119.1999511719</ele>
        <time>2024-09-15T09:30:50.000Z</time>
      </trkpt>
      <trkpt lat="45.78523" lon="2.96993">
        <ele>1119</ele>
        <time>2024-09-15T09:30:51.000Z</time>
      </trkpt>
      <trkpt lat="45.78525" lon="2.96997">
        <ele>1118.5999755859</ele>
        <time>2024-09-15T09:30:52.000Z</time>
      </trkpt>
      <trkpt lat="45.78527" lon="2.97001">
        <ele>1118.1999511719</ele>
        <time>2024-09-15T09:30:53.000Z</time>
      </trkpt>
      <trkpt lat="45.78528" lon="2.97006">
        <ele>1117.5999755859</ele>
        <time>2024-09-15T09:30:54.000Z</time>
      </trkpt>
      <trkpt lat="45.78529" lon="2.97011">
        <ele>1116.8000488281</ele>
        <time>2024-09-15T09:30:55.000Z</time>
      </trkpt>
      <trkpt lat="45.78531" lon="2.97017">
        <ele>1116.1999511719</ele>
        <time>2024-09-15T09:30:56.000Z</time>
      </trkpt>
      <trkpt lat="45.78532" lon="2.97022">
        <ele>1114</ele>
        <time>2024-09-15T09:30:57.000Z</time>
      </trkpt>
      <trkpt lat="45.78533" lon="2.97027">
        <ele>1113</ele>
        <time>2024-09-15T09:30:58.000Z</time>
      </trkpt>
      <trkpt lat="45.78533" lon="2.97032">
        <ele>1112.5999755859</ele>
        <time>2024-09-15T09:30:59.000Z</time>
      </trkpt>
      <trkpt lat="45.78531" lon="2.97036">
        <ele>1112.4000244141</ele>
        <time>2024-09-15T09:31:00.000Z</time>
      </trkpt>
      <trkpt lat="45.7853" lon="2.97041">
        <ele>1112</ele>
        <time>2024-09-15T09:31:01.000Z</time>
      </trkpt>
      <trkpt lat="45.78527" lon="2.97046">
        <ele>1111.4000244141</ele>
        <time>2024-09-15T09:31:02.000Z</time>
      </trkpt>
      <trkpt lat="45.78525" lon="2.97052">
        <ele>1110.5999755859</ele>
        <time>2024-09-15T09:31:03.000Z</time>
      </trkpt>
      <trkpt lat="45.78522" lon="2.97057">
        <ele>1108.5999755859</ele>
        <time>2024-09-15T09:31:04.000Z</time>
      </trkpt>
      <trkpt lat="45.7852" lon="2.97062">
        <ele>1108.1999511719</ele>
        <time>2024-09-15T09:31:05.000Z</time>
      </trkpt>
      <trkpt lat="45.78518" lon="2.97068">
        <ele>1107</ele>
        <time>2024-09-15T09:31:06.000Z</time>
      </trkpt>
      <trkpt lat="45.78516" lon="2.97073">
        <ele>1106.1999511719</ele>
        <time>2024-09-15T09:31:07.000Z</time>
      </trkpt>
      <trkpt lat="45.78514" lon="2.97079">
        <ele>1105.1999511719</ele>
        <time>2024-09-15T09:31:08.000Z</time>
      </trkpt>
      <trkpt lat="45.78513" lon="2.97084">
        <ele>1104.8000488281</ele>
        <time>2024-09-15T09:31:09.000Z</time>
      </trkpt>
      <trkpt lat="45.78511" lon="2.97089">
        <ele>1104.4000244141</ele>
        <time>2024-09-15T09:31:10.000Z</time>
      </trkpt>
      <trkpt lat="45.7851" lon="2.97094">
        <ele>1104</ele>
        <time>2024-09-15T09:31:11.000Z</time>
      </trkpt>
      <trkpt lat="45.78509" lon="2.97099">
        <ele>1103.8000488281</ele>
        <time>2024-09-15T09:31:12.000Z</time>
      </trkpt>
      <trkpt lat="45.78508" lon="2.97104">
        <ele>1103.1999511719</ele>
        <time>2024-09-15T09:31:13.000Z</time>
      </trkpt>
      <trkpt lat="45.78506" lon="2.97108">
        <ele>1103</ele>
        <time>2024-09-15T09:31:14.000Z</time>
      </trkpt>
      <trkpt lat="45.78504" lon="2.97112">
        <ele>1102.8000488281</ele>
        <time>2024-09-15T09:31:15.000Z</time>
      </trkpt>
      <trkpt lat="45.78501" lon="2.97116">
        <ele>1102</ele>
        <time>2024-09-15T09:31:16.000Z</time>
      </trkpt>
      <trkpt lat="45.78499" lon="2.9712">
        <ele>1101.8000488281</ele>
        <time>2024-09-15T09:31:17.000Z</time>
      </trkpt>
      <trkpt lat="45.78495" lon="2.97124">
        <ele>1101.1999511719</ele>
        <time>2024-09-15T09:31:18.000Z</time>
      </trkpt>
      <trkpt lat="45.78492" lon="2.97127">
        <ele>1100.5999755859</ele>
        <time>2024-09-15T09:31:19.000Z</time>
      </trkpt>
      <trkpt lat="45.78488" lon="2.97131">
        <ele>1100</ele>
        <time>2024-09-15T09:31:20.000Z</time>
      </trkpt>
      <trkpt lat="45.78485" lon="2.97135">
        <ele>1099.5999755859</ele>
        <time>2024-09-15T09:31:21.000Z</time>
      </trkpt>
      <trkpt lat="45.78482" lon="2.97141">
        <ele>1099</ele>
        <time>2024-09-15T09:31:22.000Z</time>
      </trkpt>
      <trkpt lat="45.7848" lon="2.97146">
        <ele>1098.5999755859</ele>
        <time>2024-09-15T09:31:23.000Z</time>
      </trkpt>
      <trkpt lat="45.78479" lon="2.97153">
        <ele>1098.1999511719</ele>
        <time>2024-09-15T09:31:24.000Z</time>
      </trkpt>
      <trkpt lat="45.78479" lon="2.97158">
        <ele>1097.5999755859</ele>
        <time>2024-09-15T09:31:25.000Z</time>
      </trkpt>
      <trkpt lat="45.7848" lon="2.97164">
        <ele>1096.8000488281</ele>
        <time>2024-09-15T09:31:26.000Z</time>
      </trkpt>
      <trkpt lat="45.7848" lon="2.97169">
        <ele>1095.8000488281</ele>
        <time>2024-09-15T09:31:27.000Z</time>
      </trkpt>
      <trkpt lat="45.78481" lon="2.97175">
        <ele>1095.1999511719</ele>
        <time>2024-09-15T09:31:28.000Z</time>
      </trkpt>
      <trkpt lat="45.78482" lon="2.97179">
        <ele>1094.4000244141</ele>
        <time>2024-09-15T09:31:29.000Z</time>
      </trkpt>
      <trkpt lat="45.78485" lon="2.97184">
        <ele>1093.8000488281</ele>
        <time>2024-09-15T09:31:30.000Z</time>
      </trkpt>
      <trkpt lat="45.78488" lon="2.97187">
        <ele>1093.1999511719</ele>
        <time>2024-09-15T09:31:31.000Z</time>
      </trkpt>
      <trkpt lat="45.78491" lon="2.97189">
        <ele>1092.5999755859</ele>
        <time>2024-09-15T09:31:32.000Z</time>
      </trkpt>
      <trkpt lat="45.78494" lon="2.97191">
        <ele>1092.1999511719</ele>
        <time>2024-09-15T09:31:33.000Z</time>
      </trkpt>
      <trkpt lat="45.78498" lon="2.97191">
        <ele>1091.5999755859</ele>
        <time>2024-09-15T09:31:34.000Z</time>
      </trkpt>
      <trkpt lat="45.78503" lon="2.97191">
        <ele>1091.1999511719</ele>
        <time>2024-09-15T09:31:35.000Z</time>
      </trkpt>
      <trkpt lat="45.78506" lon="2.97192">
        <ele>1090.1999511719</ele>
        <time>2024-09-15T09:31:36.000Z</time>
      </trkpt>
      <trkpt lat="45.7851" lon="2.97193">
        <ele>1090</ele>
        <time>2024-09-15T09:31:37.000Z</time>
      </trkpt>
      <trkpt lat="45.78514" lon="2.97194">
        <ele>1089.1999511719</ele>
        <time>2024-09-15T09:31:38.000Z</time>
      </trkpt>
      <trkpt lat="45.78518" lon="2.97194">
        <ele>1088.5999755859</ele>
        <time>2024-09-15T09:31:39.000Z</time>
      </trkpt>
      <trkpt lat="45.78521" lon="2.97194">
        <ele>1087.8000488281</ele>
        <time>2024-09-15T09:31:40.000Z</time>
      </trkpt>
      <trkpt lat="45.78526" lon="2.97196">
        <ele>1087.1999511719</ele>
        <time>2024-09-15T09:31:41.000Z</time>
      </trkpt>
      <trkpt lat="45.7853" lon="2.97198">
        <ele>1086.5999755859</ele>
        <time>2024-09-15T09:31:42.000Z</time>
      </trkpt>
      <trkpt lat="45.78534" lon="2.97202">
        <ele>1086</ele>
        <time>2024-09-15T09:31:43.000Z</time>
      </trkpt>
      <trkpt lat="45.78537" lon="2.97206">
        <ele>1084.8000488281</ele>
        <time>2024-09-15T09:31:44.000Z</time>
      </trkpt>
      <trkpt lat="45.78541" lon="2.9721">
        <ele>1083.5999755859</ele>
        <time>2024-09-15T09:31:45.000Z</time>
      </trkpt>
      <trkpt lat="45.78544" lon="2.97213">
        <ele>1083.1999511719</ele>
        <time>2024-09-15T09:31:46.000Z</time>
      </trkpt>
      <trkpt lat="45.78548" lon="2.97215">
        <ele>1082.8000488281</ele>
        <time>2024-09-15T09:31:47.000Z</time>
      </trkpt>
      <trkpt lat="45.78552" lon="2.97217">
        <ele>1082.1999511719</ele>
        <time>2024-09-15T09:31:48.000Z</time>
      </trkpt>
      <trkpt lat="45.78557" lon="2.97218">
        <ele>1081.4000244141</ele>
        <time>2024-09-15T09:31:49.000Z</time>
      </trkpt>
      <trkpt lat="45.78561" lon="2.97219">
        <ele>1080.1999511719</ele>
        <time>2024-09-15T09:31:50.000Z</time>
      </trkpt>
      <trkpt lat="45.78566" lon="2.97218">
        <ele>1079.4000244141</ele>
        <time>2024-09-15T09:31:51.000Z</time>
      </trkpt>
      <trkpt lat="45.78571" lon="2.97217">
        <ele>1079</ele>
        <time>2024-09-15T09:31:52.000Z</time>
      </trkpt>
      <trkpt lat="45.78575" lon="2.97216">
        <ele>1078.4000244141</ele>
        <time>2024-09-15T09:31:53.000Z</time>
      </trkpt>
      <trkpt lat="45.7858" lon="2.97216">
        <ele>1077.8000488281</ele>
        <time>2024-09-15T09:31:54.000Z</time>
      </trkpt>
      <trkpt lat="45.78585" lon="2.97217">
        <ele>1076.8000488281</ele>
        <time>2024-09-15T09:31:55.000Z</time>
      </trkpt>
      <trkpt lat="45.78589" lon="2.97219">
        <ele>1075.4000244141</ele>
        <time>2024-09-15T09:31:56.000Z</time>
      </trkpt>
      <trkpt lat="45.78594" lon="2.97221">
        <ele>1074.1999511719</ele>
        <time>2024-09-15T09:31:57.000Z</time>
      </trkpt>
      <trkpt lat="45.78597" lon="2.97226">
        <ele>1073.5999755859</ele>
        <time>2024-09-15T09:31:58.000Z</time>
      </trkpt>
      <trkpt lat="45.78599" lon="2.97231">
        <ele>1073</ele>
        <time>2024-09-15T09:31:59.000Z</time>
      </trkpt>
      <trkpt lat="45.78601" lon="2.97238">
        <ele>1072.5999755859</ele>
        <time>2024-09-15T09:32:00.000Z</time>
      </trkpt>
      <trkpt lat="45.78602" lon="2.97243">
        <ele>1072.1999511719</ele>
        <time>2024-09-15T09:32:01.000Z</time>
      </trkpt>
      <trkpt lat="45.78601" lon="2.97249">
        <ele>1071</ele>
        <time>2024-09-15T09:32:02.000Z</time>
      </trkpt>
      <trkpt lat="45.786" lon="2.97255">
        <ele>1070.5999755859</ele>
        <time>2024-09-15T09:32:03.000Z</time>
      </trkpt>
      <trkpt lat="45.78598" lon="2.97259">
        <ele>1070</ele>
        <time>2024-09-15T09:32:04.000Z</time>
      </trkpt>
      <trkpt lat="45.78596" lon="2.97265">
        <ele>1068.5999755859</ele>
        <time>2024-09-15T09:32:05.000Z</time>
      </trkpt>
      <trkpt lat="45.78593" lon="2.97269">
        <ele>1067.8000488281</ele>
        <time>2024-09-15T09:32:06.000Z</time>
      </trkpt>
      <trkpt lat="45.78589" lon="2.97274">
        <ele>1067.1999511719</ele>
        <time>2024-09-15T09:32:07.000Z</time>
      </trkpt>
      <trkpt lat="45.78586" lon="2.97279">
        <ele>1066</ele>
        <time>2024-09-15T09:32:08.000Z</time>
      </trkpt>
      <trkpt lat="45.78583" lon="2.97284">
        <ele>1064.8000488281</ele>
        <time>2024-09-15T09:32:09.000Z</time>
      </trkpt>
      <trkpt lat="45.7858" lon="2.97289">
        <ele>1064.4000244141</ele>
        <time>2024-09-15T09:32:10.000Z</time>
      </trkpt>
      <trkpt lat="45.78578" lon="2.97294">
        <ele>1063.5999755859</ele>
        <time>2024-09-15T09:32:11.000Z</time>
      </trkpt>
      <trkpt lat="45.78575" lon="2.97298">
        <ele>1063.1999511719</ele>
        <time>2024-09-15T09:32:12.000Z</time>
      </trkpt>
      <trkpt lat="45.78573" lon="2.97303">
        <ele>1062</ele>
        <time>2024-09-15T09:32:13.000Z</time>
      </trkpt>
      <trkpt lat="45.78571" lon="2.97306">
        <ele>1061.1999511719</ele>
        <time>2024-09-15T09:32:14.000Z</time>
      </trkpt>
      <trkpt lat="45.78567" lon="2.97312">
        <ele>1060.5999755859</ele>
        <time>2024-09-15T09:32:15.000Z</time>
      </trkpt>
      <trkpt lat="45.78564" lon="2.97318">
        <ele>1060</ele>
        <time>2024-09-15T09:32:16.000Z</time>
      </trkpt>
      <trkpt lat="45.78561" lon="2.97324">
        <ele>1059.1999511719</ele>
        <time>2024-09-15T09:32:17.000Z</time>
      </trkpt>
      <trkpt lat="45.78557" lon="2.97329">
        <ele>1058.1999511719</ele>
        <time>2024-09-15T09:32:18.000Z</time>
      </trkpt>
      <trkpt lat="45.78553" lon="2.97333">
        <ele>1057.1999511719</ele>
        <time>2024-09-15T09:32:19.000Z</time>
      </trkpt>
      <trkpt lat="45.7855" lon="2.97337">
        <ele>1056.8000488281</ele>
        <time>2024-09-15T09:32:20.000Z</time>
      </trkpt>
      <trkpt lat="45.78548" lon="2.97341">
        <ele>1055.8000488281</ele>
        <time>2024-09-15T09:32:21.000Z</time>
      </trkpt>
      <trkpt lat="45.78545" lon="2.97346">
        <ele>1055.1999511719</ele>
        <time>2024-09-15T09:32:22.000Z</time>
      </trkpt>
      <trkpt lat="45.78543" lon="2.97351">
        <ele>1055</ele>
        <time>2024-09-15T09:32:23.000Z</time>
      </trkpt>
      <trkpt lat="45.78541" lon="2.97356">
        <ele>1054.1999511719</ele>
        <time>2024-09-15T09:32:24.000Z</time>
      </trkpt>
      <trkpt lat="45.78538" lon="2.97361">
        <ele>1054</ele>
        <time>2024-09-15T09:32:25.000Z</time>
      </trkpt>
      <trkpt lat="45.78536" lon="2.97366">
        <ele>1053.4000244141</ele>
        <time>2024-09-15T09:32:26.000Z</time>
      </trkpt>
      <trkpt lat="45.78533" lon="2.97371">
        <ele>1052.8000488281</ele>
        <time>2024-09-15T09:32:27.000Z</time>
      </trkpt>
      <trkpt lat="45.78532" lon="2.97376">
        <ele>1052.5999755859</ele>
        <time>2024-09-15T09:32:28.000Z</time>
      </trkpt>
      <trkpt lat="45.7853" lon="2.97382">
        <ele>1051.8000488281</ele>
        <time>2024-09-15T09:32:29.000Z</time>
      </trkpt>
      <trkpt lat="45.78527" lon="2.97388">
        <ele>1051.1999511719</ele>
        <time>2024-09-15T09:32:30.000Z</time>
      </trkpt>
      <trkpt lat="45.78525" lon="2.97393">
        <ele>1050.8000488281</ele>
        <time>2024-09-15T09:32:31.000Z</time>
      </trkpt>
      <trkpt lat="45.78522" lon="2.97399">
        <ele>1050.1999511719</ele>
        <time>2024-09-15T09:32:32.000Z</time>
      </trkpt>
      <trkpt lat="45.7852" lon="2.97404">
        <ele>1049.5999755859</ele>
        <time>2024-09-15T09:32:33.000Z</time>
      </trkpt>
      <trkpt lat="45.78518" lon="2.97409">
        <ele>1048.4000244141</ele>
        <time>2024-09-15T09:32:34.000Z</time>
      </trkpt>
      <trkpt lat="45.78515" lon="2.97414">
        <ele>1048.1999511719</ele>
        <time>2024-09-15T09:32:35.000Z</time>
      </trkpt>
      <trkpt lat="45.78513" lon="2.97419">
        <ele>1047.4000244141</ele>
        <time>2024-09-15T09:32:36.000Z</time>
      </trkpt>
      <trkpt lat="45.7851" lon="2.97424">
        <ele>1046.8000488281</ele>
        <time>2024-09-15T09:32:37.000Z</time>
      </trkpt>
      <trkpt lat="45.78509" lon="2.97428">
        <ele>1046.1999511719</ele>
        <time>2024-09-15T09:32:38.000Z</time>
      </trkpt>
      <trkpt lat="45.78507" lon="2.97433">
        <ele>1045.8000488281</ele>
        <time>2024-09-15T09:32:39.000Z</time>
      </trkpt>
      <trkpt lat="45.78505" lon="2.97437">
        <ele>1045</ele>
        <time>2024-09-15T09:32:40.000Z</time>
      </trkpt>
      <trkpt lat="45.78502" lon="2.97443">
        <ele>1044.4000244141</ele>
        <time>2024-09-15T09:32:41.000Z</time>
      </trkpt>
      <trkpt lat="45.78501" lon="2.97447">
        <ele>1044</ele>
        <time>2024-09-15T09:32:42.000Z</time>
      </trkpt>
      <trkpt lat="45.78498" lon="2.97452">
        <ele>1043.1999511719</ele>
        <time>2024-09-15T09:32:43.000Z</time>
      </trkpt>
      <trkpt lat="45.78496" lon="2.97456">
        <ele>1042.5999755859</ele>
        <time>2024-09-15T09:32:44.000Z</time>
      </trkpt>
      <trkpt lat="45.78495" lon="2.97461">
        <ele>1041.5999755859</ele>
        <time>2024-09-15T09:32:45.000Z</time>
      </trkpt>
      <trkpt lat="45.78493" lon="2.97466">
        <ele>1040.8000488281</ele>
        <time>2024-09-15T09:32:46.000Z</time>
      </trkpt>
      <trkpt lat="45.7849" lon="2.97471">
        <ele>1040.1999511719</ele>
        <time>2024-09-15T09:32:47.000Z</time>
      </trkpt>
      <trkpt lat="45.78489" lon="2.97475">
        <ele>1039.8000488281</ele>
        <time>2024-09-15T09:32:48.000Z</time>
      </trkpt>
      <trkpt lat="45.78486" lon="2.97481">
        <ele>1039.1999511719</ele>
        <time>2024-09-15T09:32:49.000Z</time>
      </trkpt>
      <trkpt lat="45.78484" lon="2.97485">
        <ele>1038.8000488281</ele>
        <time>2024-09-15T09:32:50.000Z</time>
      </trkpt>
      <trkpt lat="45.7848" lon="2.97489">
        <ele>1038.5999755859</ele>
        <time>2024-09-15T09:32:51.000Z</time>
      </trkpt>
      <trkpt lat="45.78478" lon="2.97492">
        <ele>1038</ele>
        <time>2024-09-15T09:32:52.000Z</time>
      </trkpt>
      <trkpt lat="45.78475" lon="2.97497">
        <ele>1037.4000244141</ele>
        <time>2024-09-15T09:32:53.000Z</time>
      </trkpt>
      <trkpt lat="45.78474" lon="2.97501">
        <ele>1037</ele>
        <time>2024-09-15T09:32:54.000Z</time>
      </trkpt>
      <trkpt lat="45.78471" lon="2.97506">
        <ele>1036</ele>
        <time>2024-09-15T09:32:55.000Z</time>
      </trkpt>
      <trkpt lat="45.7847" lon="2.97511">
        <ele>1035.1999511719</ele>
        <time>2024-09-15T09:32:56.000Z</time>
      </trkpt>
      <trkpt lat="45.78468" lon="2.97517">
        <ele>1034.5999755859</ele>
        <time>2024-09-15T09:32:57.000Z</time>
      </trkpt>
      <trkpt lat="45.78466" lon="2.97522">
        <ele>1034</ele>
        <time>2024-09-15T09:32:58.000Z</time>
      </trkpt>
      <trkpt lat="45.78464" lon="2.97528">
        <ele>1033.4000244141</ele>
        <time>2024-09-15T09:32:59.000Z</time>
      </trkpt>
      <trkpt lat="45.78463" lon="2.97532">
        <ele>1032.8000488281</ele>
        <time>2024-09-15T09:33:00.000Z</time>
      </trkpt>
      <trkpt lat="45.78461" lon="2.97537">
        <ele>1032.4000244141</ele>
        <time>2024-09-15T09:33:01.000Z</time>
      </trkpt>
      <trkpt lat="45.7846" lon="2.97543">
        <ele>1031.5999755859</ele>
        <time>2024-09-15T09:33:02.000Z</time>
      </trkpt>
      <trkpt lat="45.78458" lon="2.97548">
        <ele>1031</ele>
        <time>2024-09-15T09:33:03.000Z</time>
      </trkpt>
      <trkpt lat="45.78456" lon="2.97553">
        <ele>1030.5999755859</ele>
        <time>2024-09-15T09:33:04.000Z</time>
      </trkpt>
      <trkpt lat="45.78453" lon="2.97558">
        <ele>1030</ele>
        <time>2024-09-15T09:33:05.000Z</time>
      </trkpt>
      <trkpt lat="45.78451" lon="2.97563">
        <ele>1029.4000244141</ele>
        <time>2024-09-15T09:33:06.000Z</time>
      </trkpt>
      <trkpt lat="45.78448" lon="2.97569">
        <ele>1029.1999511719</ele>
        <time>2024-09-15T09:33:07.000Z</time>
      </trkpt>
      <trkpt lat="45.78446" lon="2.97575">
        <ele>1028.8000488281</ele>
        <time>2024-09-15T09:33:08.000Z</time>
      </trkpt>
      <trkpt lat="45.78443" lon="2.9758">
        <ele>1028.1999511719</ele>
        <time>2024-09-15T09:33:09.000Z</time>
      </trkpt>
      <trkpt lat="45.78441" lon="2.97586">
        <ele>1027.8000488281</ele>
        <time>2024-09-15T09:33:10.000Z</time>
      </trkpt>
      <trkpt lat="45.78439" lon="2.9759">
        <ele>1027.1999511719</ele>
        <time>2024-09-15T09:33:11.000Z</time>
      </trkpt>
      <trkpt lat="45.78436" lon="2.97596">
        <ele>1026.4000244141</ele>
        <time>2024-09-15T09:33:12.000Z</time>
      </trkpt>
      <trkpt lat="45.78434" lon="2.97601">
        <ele>1026</ele>
        <time>2024-09-15T09:33:13.000Z</time>
      </trkpt>
      <trkpt lat="45.78432" lon="2.97605">
        <ele>1025.1999511719</ele>
        <time>2024-09-15T09:33:14.000Z</time>
      </trkpt>
      <trkpt lat="45.7843" lon="2.97609">
        <ele>1025</ele>
        <time>2024-09-15T09:33:15.000Z</time>
      </trkpt>
      <trkpt lat="45.78428" lon="2.97614">
        <ele>1024</ele>
        <time>2024-09-15T09:33:16.000Z</time>
      </trkpt>
      <trkpt lat="45.78426" lon="2.97618">
        <ele>1023.4000244141</ele>
        <time>2024-09-15T09:33:17.000Z</time>
      </trkpt>
      <trkpt lat="45.78423" lon="2.97624">
        <ele>1023</ele>
        <time>2024-09-15T09:33:18.000Z</time>
      </trkpt>
      <trkpt lat="45.78421" lon="2.97628">
        <ele>1022.799987793</ele>
        <time>2024-09-15T09:33:19.000Z</time>
      </trkpt>
      <trkpt lat="45.78418" lon="2.97633">
        <ele>1022.5999755859</ele>
        <time>2024-09-15T09:33:20.000Z</time>
      </trkpt>
      <trkpt lat="45.78416" lon="2.97637">
        <ele>1022</ele>
        <time>2024-09-15T09:33:21.000Z</time>
      </trkpt>
      <trkpt lat="45.78413" lon="2.97642">
        <ele>1021.799987793</ele>
        <time>2024-09-15T09:33:22.000Z</time>
      </trkpt>
      <trkpt lat="45.78411" lon="2.97646">
        <ele>1021.200012207</ele>
        <time>2024-09-15T09:33:23.000Z</time>
      </trkpt>
      <trkpt lat="45.78408" lon="2.97651">
        <ele>1020.4000244141</ele>
        <time>2024-09-15T09:33:24.000Z</time>
      </trkpt>
      <trkpt lat="45.78406" lon="2.97655">
        <ele>1020</ele>
        <time>2024-09-15T09:33:25.000Z</time>
      </trkpt>
      <trkpt lat="45.78403" lon="2.9766">
        <ele>1019.200012207</ele>
        <time>2024-09-15T09:33:26.000Z</time>
      </trkpt>
      <trkpt lat="45.78401" lon="2.97664">
        <ele>1019.200012207</ele>
        <time>2024-09-15T09:33:27.000Z</time>
      </trkpt>
      <trkpt lat="45.78398" lon="2.97669">
        <ele>1018.799987793</ele>
        <time>2024-09-15T09:33:28.000Z</time>
      </trkpt>
      <trkpt lat="45.78396" lon="2.97673">
        <ele>1018.200012207</ele>
        <time>2024-09-15T09:33:29.000Z</time>
      </trkpt>
      <trkpt lat="45.78393" lon="2.97679">
        <ele>1017.799987793</ele>
        <time>2024-09-15T09:33:30.000Z</time>
      </trkpt>
      <trkpt lat="45.78391" lon="2.97683">
        <ele>1017.4000244141</ele>
        <time>2024-09-15T09:33:31.000Z</time>
      </trkpt>
      <trkpt lat="45.78389" lon="2.97688">
        <ele>1017.200012207</ele>
        <time>2024-09-15T09:33:32.000Z</time>
      </trkpt>
      <trkpt lat="45.78385" lon="2.97692">
        <ele>1016.799987793</ele>
        <time>2024-09-15T09:33:33.000Z</time>
      </trkpt>
      <trkpt lat="45.78383" lon="2.97697">
        <ele>1016.4000244141</ele>
        <time>2024-09-15T09:33:34.000Z</time>
      </trkpt>
      <trkpt lat="45.7838" lon="2.97701">
        <ele>1015.5999755859</ele>
        <time>2024-09-15T09:33:35.000Z</time>
      </trkpt>
      <trkpt lat="45.78378" lon="2.97706">
        <ele>1015.200012207</ele>
        <time>2024-09-15T09:33:36.000Z</time>
      </trkpt>
      <trkpt lat="45.78375" lon="2.9771">
        <ele>1014.799987793</ele>
        <time>2024-09-15T09:33:37.000Z</time>
      </trkpt>
      <trkpt lat="45.78373" lon="2.97713">
        <ele>1014</ele>
        <time>2024-09-15T09:33:38.000Z</time>
      </trkpt>
      <trkpt lat="45.7837" lon="2.97718">
        <ele>1013.4000244141</ele>
        <time>2024-09-15T09:33:39.000Z</time>
      </trkpt>
      <trkpt lat="45.78369" lon="2.97723">
        <ele>1012.799987793</ele>
        <time>2024-09-15T09:33:40.000Z</time>
      </trkpt>
      <trkpt lat="45.78365" lon="2.97728">
        <ele>1012</ele>
        <time>2024-09-15T09:33:41.000Z</time>
      </trkpt>
      <trkpt lat="45.78363" lon="2.97732">
        <ele>1011.5999755859</ele>
        <time>2024-09-15T09:33:42.000Z</time>
      </trkpt>
      <trkpt lat="45.78361" lon="2.97736">
        <ele>1011</ele>
        <time>2024-09-15T09:33:43.000Z</time>
      </trkpt>
      <trkpt lat="45.78358" lon="2.9774">
        <ele>1010.200012207</ele>
        <time>2024-09-15T09:33:44.000Z</time>
      </trkpt>
      <trkpt lat="45.78355" lon="2.97744">
        <ele>1009.5999755859</ele>
        <time>2024-09-15T09:33:45.000Z</time>
      </trkpt>
      <trkpt lat="45.78352" lon="2.97748">
        <ele>1009</ele>
        <time>2024-09-15T09:33:46.000Z</time>
      </trkpt>
      <trkpt lat="45.78349" lon="2.97753">
        <ele>1008.799987793</ele>
        <time>2024-09-15T09:33:47.000Z</time>
      </trkpt>
      <trkpt lat="45.78346" lon="2.97757">
        <ele>1008.200012207</ele>
        <time>2024-09-15T09:33:48.000Z</time>
      </trkpt>
      <trkpt lat="45.78343" lon="2.97761">
        <ele>1007.799987793</ele>
        <time>2024-09-15T09:33:49.000Z</time>
      </trkpt>
      <trkpt lat="45.7834" lon="2.97765">
        <ele>1007.200012207</ele>
        <time>2024-09-15T09:33:50.000Z</time>
      </trkpt>
      <trkpt lat="45.78337" lon="2.97768">
        <ele>1006.799987793</ele>
        <time>2024-09-15T09:33:51.000Z</time>
      </trkpt>
      <trkpt lat="45.78333" lon="2.97772">
        <ele>1006.4000244141</ele>
        <time>2024-09-15T09:33:52.000Z</time>
      </trkpt>
      <trkpt lat="45.7833" lon="2.97774">
        <ele>1005.799987793</ele>
        <time>2024-09-15T09:33:53.000Z</time>
      </trkpt>
      <trkpt lat="45.78326" lon="2.97778">
        <ele>1005.200012207</ele>
        <time>2024-09-15T09:33:54.000Z</time>
      </trkpt>
      <trkpt lat="45.78324" lon="2.9778">
        <ele>1004.799987793</ele>
        <time>2024-09-15T09:33:55.000Z</time>
      </trkpt>
      <trkpt lat="45.7832" lon="2.97784">
        <ele>1004.4000244141</ele>
        <time>2024-09-15T09:33:56.000Z</time>
      </trkpt>
      <trkpt lat="45.78317" lon="2.97787">
        <ele>1003.799987793</ele>
        <time>2024-09-15T09:33:57.000Z</time>
      </trkpt>
      <trkpt lat="45.78313" lon="2.97789">
        <ele>1003.200012207</ele>
        <time>2024-09-15T09:33:58.000Z</time>
      </trkpt>
      <trkpt lat="45.7831" lon="2.97791">
        <ele>1002.799987793</ele>
        <time>2024-09-15T09:33:59.000Z</time>
      </trkpt>
      <trkpt lat="45.78306" lon="2.97794">
        <ele>1002.4000244141</ele>
        <time>2024-09-15T09:34:00.000Z</time>
      </trkpt>
      <trkpt lat="45.78303" lon="2.97796">
        <ele>1002</ele>
        <time>2024-09-15T09:34:01.000Z</time>
      </trkpt>
      <trkpt lat="45.78299" lon="2.97799">
        <ele>1001.5999755859</ele>
        <time>2024-09-15T09:34:02.000Z</time>
      </trkpt>
      <trkpt lat="45.78296" lon="2.97801">
        <ele>1001.4000244141</ele>
        <time>2024-09-15T09:34:03.000Z</time>
      </trkpt>
      <trkpt lat="45.78291" lon="2.97803">
        <ele>1001</ele>
        <time>2024-09-15T09:34:04.000Z</time>
      </trkpt>
      <trkpt lat="45.78288" lon="2.97805">
        <ele>1000.200012207</ele>
        <time>2024-09-15T09:34:05.000Z</time>
      </trkpt>
      <trkpt lat="45.78284" lon="2.97809">
        <ele>999.79998779297</ele>
        <time>2024-09-15T09:34:06.000Z</time>
      </trkpt>
      <trkpt lat="45.78281" lon="2.97811">
        <ele>999.40002441406</ele>
        <time>2024-09-15T09:34:07.000Z</time>
      </trkpt>
      <trkpt lat="45.78277" lon="2.97815">
        <ele>998.59997558594</ele>
        <time>2024-09-15T09:34:08.000Z</time>
      </trkpt>
      <trkpt lat="45.78274" lon="2.97817">
        <ele>998.40002441406</ele>
        <time>2024-09-15T09:34:09.000Z</time>
      </trkpt>
      <trkpt lat="45.7827" lon="2.97822">
        <ele>998</ele>
        <time>2024-09-15T09:34:10.000Z</time>
      </trkpt>
      <trkpt lat="45.78267" lon="2.97825">
        <ele>997.40002441406</ele>
        <time>2024-09-15T09:34:11.000Z</time>
      </trkpt>
      <trkpt lat="45.78264" lon="2.97829">
        <ele>996.59997558594</ele>
        <time>2024-09-15T09:34:12.000Z</time>
      </trkpt>
      <trkpt lat="45.78261" lon="2.97832">
        <ele>995.79998779297</ele>
        <time>2024-09-15T09:34:13.000Z</time>
      </trkpt>
      <trkpt lat="45.78258" lon="2.97835">
        <ele>995.40002441406</ele>
        <time>2024-09-15T09:34:14.000Z</time>
      </trkpt>
      <trkpt lat="45.78254" lon="2.97838">
        <ele>995</ele>
        <time>2024-09-15T09:34:15.000Z</time>
      </trkpt>
      <trkpt lat="45.78251" lon="2.97842">
        <ele>994.59997558594</ele>
        <time>2024-09-15T09:34:16.000Z</time>
      </trkpt>
      <trkpt lat="45.78247" lon="2.97846">
        <ele>994</ele>
        <time>2024-09-15T09:34:17.000Z</time>
      </trkpt>
      <trkpt lat="45.78244" lon="2.97849">
        <ele>993.79998779297</ele>
        <time>2024-09-15T09:34:18.000Z</time>
      </trkpt>
      <trkpt lat="45.7824" lon="2.97854">
        <ele>993.40002441406</ele>
        <time>2024-09-15T09:34:19.000Z</time>
      </trkpt>
      <trkpt lat="45.78238" lon="2.97857">
        <ele>992.59997558594</ele>
        <time>2024-09-15T09:34:20.000Z</time>
      </trkpt>
      <trkpt lat="45.78234" lon="2.97861">
        <ele>992</ele>
        <time>2024-09-15T09:34:21.000Z</time>
      </trkpt>
      <trkpt lat="45.78232" lon="2.97864">
        <ele>991.40002441406</ele>
        <time>2024-09-15T09:34:22.000Z</time>
      </trkpt>
      <trkpt lat="45.78228" lon="2.97867">
        <ele>990.79998779297</ele>
        <time>2024-09-15T09:34:23.000Z</time>
      </trkpt>
      <trkpt lat="45.78225" lon="2.9787">
        <ele>990</ele>
        <time>2024-09-15T09:34:24.000Z</time>
      </trkpt>
      <trkpt lat="45.78221" lon="2.97874">
        <ele>989.79998779297</ele>
        <time>2024-09-15T09:34:25.000Z</time>
      </trkpt>
      <trkpt lat="45.78218" lon="2.97877">
        <ele>989</ele>
        <time>2024-09-15T09:34:26.000Z</time>
      </trkpt>
      <trkpt lat="45.78215" lon="2.97879">
        <ele>988.40002441406</ele>
        <time>2024-09-15T09:34:27.000Z</time>
      </trkpt>
      <trkpt lat="45.78211" lon="2.97882">
        <ele>987.59997558594</ele>
        <time>2024-09-15T09:34:28.000Z</time>
      </trkpt>
      <trkpt lat="45.78207" lon="2.97884">
        <ele>987.20001220703</ele>
        <time>2024-09-15T09:34:29.000Z</time>
      </trkpt>
      <trkpt lat="45.78203" lon="2.97887">
        <ele>986.40002441406</ele>
        <time>2024-09-15T09:34:30.000Z</time>
      </trkpt>
      <trkpt lat="45.78198" lon="2.97889">
        <ele>985.79998779297</ele>
        <time>2024-09-15T09:34:31.000Z</time>
      </trkpt>
      <trkpt lat="45.78194" lon="2.97891">
        <ele>985.40002441406</ele>
        <time>2024-09-15T09:34:32.000Z</time>
      </trkpt>
      <trkpt lat="45.7819" lon="2.97894">
        <ele>985.20001220703</ele>
        <time>2024-09-15T09:34:33.000Z</time>
      </trkpt>
      <trkpt lat="45.78186" lon="2.97896">
        <ele>984.40002441406</ele>
        <time>2024-09-15T09:34:34.000Z</time>
      </trkpt>
      <trkpt lat="45.78181" lon="2.97897">
        <ele>984</ele>
        <time>2024-09-15T09:34:35.000Z</time>
      </trkpt>
      <trkpt lat="45.78178" lon="2.97898">
        <ele>983.59997558594</ele>
        <time>2024-09-15T09:34:36.000Z</time>
      </trkpt>
      <trkpt lat="45.78173" lon="2.979">
        <ele>983</ele>
        <time>2024-09-15T09:34:37.000Z</time>
      </trkpt>
      <trkpt lat="45.78169" lon="2.97901">
        <ele>982.20001220703</ele>
        <time>2024-09-15T09:34:38.000Z</time>
      </trkpt>
      <trkpt lat="45.78165" lon="2.97902">
        <ele>982</ele>
        <time>2024-09-15T09:34:39.000Z</time>
      </trkpt>
      <trkpt lat="45.78162" lon="2.97904">
        <ele>981.40002441406</ele>
        <time>2024-09-15T09:34:40.000Z</time>
      </trkpt>
      <trkpt lat="45.7816" lon="2.9791">
        <ele>981.20001220703</ele>
        <time>2024-09-15T09:34:41.000Z</time>
      </trkpt>
      <trkpt lat="45.7816" lon="2.97917">
        <ele>981</ele>
        <time>2024-09-15T09:34:42.000Z</time>
      </trkpt>
      <trkpt lat="45.7816" lon="2.97921">
        <ele>980.79998779297</ele>
        <time>2024-09-15T09:34:43.000Z</time>
      </trkpt>
      <trkpt lat="45.7816" lon="2.97927">
        <ele>980.59997558594</ele>
        <time>2024-09-15T09:34:44.000Z</time>
      </trkpt>
      <trkpt lat="45.7816" lon="2.97933">
        <ele>980.20001220703</ele>
        <time>2024-09-15T09:34:45.000Z</time>
      </trkpt>
      <trkpt lat="45.7816" lon="2.9794">
        <ele>979</ele>
        <time>2024-09-15T09:34:46.000Z</time>
      </trkpt>
      <trkpt lat="45.78161" lon="2.97946">
        <ele>978.59997558594</ele>
        <time>2024-09-15T09:34:47.000Z</time>
      </trkpt>
      <trkpt lat="45.78163" lon="2.97954">
        <ele>978.40002441406</ele>
        <time>2024-09-15T09:34:48.000Z</time>
      </trkpt>
      <trkpt lat="45.78165" lon="2.97959">
        <ele>977.79998779297</ele>
        <time>2024-09-15T09:34:49.000Z</time>
      </trkpt>
      <trkpt lat="45.78168" lon="2.97964">
        <ele>977.40002441406</ele>
        <time>2024-09-15T09:34:50.000Z</time>
      </trkpt>
      <trkpt lat="45.7817" lon="2.97969">
        <ele>976.79998779297</ele>
        <time>2024-09-15T09:34:51.000Z</time>
      </trkpt>
      <trkpt lat="45.78171" lon="2.97975">
        <ele>976.20001220703</ele>
        <time>2024-09-15T09:34:52.000Z</time>
      </trkpt>
      <trkpt lat="45.78172" lon="2.9798">
        <ele>975.79998779297</ele>
        <time>2024-09-15T09:34:53.000Z</time>
      </trkpt>
      <trkpt lat="45.78174" lon="2.97986">
        <ele>975.40002441406</ele>
        <time>2024-09-15T09:34:54.000Z</time>
      </trkpt>
      <trkpt lat="45.78175" lon="2.9799">
        <ele>974.79998779297</ele>
        <time>2024-09-15T09:34:55.000Z</time>
      </trkpt>
      <trkpt lat="45.78177" lon="2.97996">
        <ele>974</ele>
        <time>2024-09-15T09:34:56.000Z</time>
      </trkpt>
      <trkpt lat="45.78178" lon="2.98002">
        <ele>973.59997558594</ele>
        <time>2024-09-15T09:34:57.000Z</time>
      </trkpt>
      <trkpt lat="45.78179" lon="2.98008">
        <ele>972.79998779297</ele>
        <time>2024-09-15T09:34:58.000Z</time>
      </trkpt>
      <trkpt lat="45.78179" lon="2.98014">
        <ele>972</ele>
        <time>2024-09-15T09:34:59.000Z</time>
      </trkpt>
      <trkpt lat="45.7818" lon="2.98019">
        <ele>971.59997558594</ele>
        <time>2024-09-15T09:35:00.000Z</time>
      </trkpt>
      <trkpt lat="45.78179" lon="2.98025">
        <ele>971.20001220703</ele>
        <time>2024-09-15T09:35:01.000Z</time>
      </trkpt>
      <trkpt lat="45.78179" lon="2.98031">
        <ele>970.40002441406</ele>
        <time>2024-09-15T09:35:02.000Z</time>
      </trkpt>
      <trkpt lat="45.78179" lon="2.98037">
        <ele>970.20001220703</ele>
        <time>2024-09-15T09:35:03.000Z</time>
      </trkpt>
      <trkpt lat="45.78179" lon="2.98044">
        <ele>969.79998779297</ele>
        <time>2024-09-15T09:35:04.000Z</time>
      </trkpt>
      <trkpt lat="45.78179" lon="2.98049">
        <ele>969.79998779297</ele>
        <time>2024-09-15T09:35:05.000Z</time>
      </trkpt>
      <trkpt lat="45.7818" lon="2.98055">
        <ele>969.20001220703</ele>
        <time>2024-09-15T09:35:06.000Z</time>
      </trkpt>
      <trkpt lat="45.7818" lon="2.98061">
        <ele>968.79998779297</ele>
        <time>2024-09-15T09:35:07.000Z</time>
      </trkpt>
      <trkpt lat="45.7818" lon="2.98068">
        <ele>968.59997558594</ele>
        <time>2024-09-15T09:35:08.000Z</time>
      </trkpt>
      <trkpt lat="45.78181" lon="2.98073">
        <ele>967.79998779297</ele>
        <time>2024-09-15T09:35:09.000Z</time>
      </trkpt>
      <trkpt lat="45.78181" lon="2.98079">
        <ele>966.79998779297</ele>
        <time>2024-09-15T09:35:10.000Z</time>
      </trkpt>
      <trkpt lat="45.78181" lon="2.98085">
        <ele>966.20001220703</ele>
        <time>2024-09-15T09:35:11.000Z</time>
      </trkpt>
      <trkpt lat="45.78181" lon="2.98091">
        <ele>965.79998779297</ele>
        <time>2024-09-15T09:35:12.000Z</time>
      </trkpt>
      <trkpt lat="45.78182" lon="2.98096">
        <ele>965.40002441406</ele>
        <time>2024-09-15T09:35:13.000Z</time>
      </trkpt>
      <trkpt lat="45.78181" lon="2.98103">
        <ele>965.20001220703</ele>
        <time>2024-09-15T09:35:14.000Z</time>
      </trkpt>
      <trkpt lat="45.78181" lon="2.98109">
        <ele>965</ele>
        <time>2024-09-15T09:35:15.000Z</time>
      </trkpt>
      <trkpt lat="45.7818" lon="2.98114">
        <ele>964.59997558594</ele>
        <time>2024-09-15T09:35:16.000Z</time>
      </trkpt>
      <trkpt lat="45.78179" lon="2.9812">
        <ele>963.79998779297</ele>
        <time>2024-09-15T09:35:17.000Z</time>
      </trkpt>
      <trkpt lat="45.78179" lon="2.98126">
        <ele>963.59997558594</ele>
        <time>2024-09-15T09:35:18.000Z</time>
      </trkpt>
      <trkpt lat="45.78178" lon="2.98133">
        <ele>962</ele>
        <time>2024-09-15T09:35:19.000Z</time>
      </trkpt>
      <trkpt lat="45.78178" lon="2.98139">
        <ele>961.59997558594</ele>
        <time>2024-09-15T09:35:20.000Z</time>
      </trkpt>
      <trkpt lat="45.78178" lon="2.98145">
        <ele>961.59997558594</ele>
        <time>2024-09-15T09:35:21.000Z</time>
      </trkpt>
      <trkpt lat="45.78178" lon="2.98151">
        <ele>961.40002441406</ele>
        <time>2024-09-15T09:35:22.000Z</time>
      </trkpt>
      <trkpt lat="45.78177" lon="2.98157">
        <ele>961.20001220703</ele>
        <time>2024-09-15T09:35:23.000Z</time>
      </trkpt>
      <trkpt lat="45.78177" lon="2.98163">
        <ele>960.59997558594</ele>
        <time>2024-09-15T09:35:24.000Z</time>
      </trkpt>
      <trkpt lat="45.78176" lon="2.98169">
        <ele>960.20001220703</ele>
        <time>2024-09-15T09:35:25.000Z</time>
      </trkpt>
      <trkpt lat="45.78176" lon="2.98175">
        <ele>959.79998779297</ele>
        <time>2024-09-15T09:35:26.000Z</time>
      </trkpt>
      <trkpt lat="45.78174" lon="2.98181">
        <ele>959.20001220703</ele>
        <time>2024-09-15T09:35:27.000Z</time>
      </trkpt>
      <trkpt lat="45.78174" lon="2.98187">
        <ele>958.40002441406</ele>
        <time>2024-09-15T09:35:28.000Z</time>
      </trkpt>
      <trkpt lat="45.78172" lon="2.98193">
        <ele>958</ele>
        <time>2024-09-15T09:35:29.000Z</time>
      </trkpt>
      <trkpt lat="45.78171" lon="2.98198">
        <ele>957.59997558594</ele>
        <time>2024-09-15T09:35:30.000Z</time>
      </trkpt>
      <trkpt lat="45.78169" lon="2.98204">
        <ele>957.20001220703</ele>
        <time>2024-09-15T09:35:31.000Z</time>
      </trkpt>
      <trkpt lat="45.78168" lon="2.98209">
        <ele>956.59997558594</ele>
        <time>2024-09-15T09:35:32.000Z</time>
      </trkpt>
      <trkpt lat="45.78165" lon="2.98215">
        <ele>956</ele>
        <time>2024-09-15T09:35:33.000Z</time>
      </trkpt>
      <trkpt lat="45.78163" lon="2.98219">
        <ele>955.59997558594</ele>
        <time>2024-09-15T09:35:34.000Z</time>
      </trkpt>
      <trkpt lat="45.78161" lon="2.98225">
        <ele>955.20001220703</ele>
        <time>2024-09-15T09:35:35.000Z</time>
      </trkpt>
      <trkpt lat="45.78159" lon="2.98231">
        <ele>954.59997558594</ele>
        <time>2024-09-15T09:35:36.000Z</time>
      </trkpt>
      <trkpt lat="45.78157" lon="2.98237">
        <ele>954</ele>
        <time>2024-09-15T09:35:37.000Z</time>
      </trkpt>
      <trkpt lat="45.78155" lon="2.98242">
        <ele>953.40002441406</ele>
        <time>2024-09-15T09:35:38.000Z</time>
      </trkpt>
      <trkpt lat="45.78154" lon="2.98249">
        <ele>953</ele>
        <time>2024-09-15T09:35:39.000Z</time>
      </trkpt>
      <trkpt lat="45.78154" lon="2.98254">
        <ele>952.40002441406</ele>
        <time>2024-09-15T09:35:40.000Z</time>
      </trkpt>
      <trkpt lat="45.78153" lon="2.98261">
        <ele>951.79998779297</ele>
        <time>2024-09-15T09:35:41.000Z</time>
      </trkpt>
      <trkpt lat="45.78153" lon="2.98266">
        <ele>951.20001220703</ele>
        <time>2024-09-15T09:35:42.000Z</time>
      </trkpt>
      <trkpt lat="45.78153" lon="2.98273">
        <ele>950.79998779297</ele>
        <time>2024-09-15T09:35:43.000Z</time>
      </trkpt>
      <trkpt lat="45.78153" lon="2.98279">
        <ele>950.40002441406</ele>
        <time>2024-09-15T09:35:44.000Z</time>
      </trkpt>
      <trkpt lat="45.78153" lon="2.98285">
        <ele>950</ele>
        <time>2024-09-15T09:35:45.000Z</time>
      </trkpt>
      <trkpt lat="45.78152" lon="2.98291">
        <ele>949.59997558594</ele>
        <time>2024-09-15T09:35:46.000Z</time>
      </trkpt>
      <trkpt lat="45.78151" lon="2.98297">
        <ele>949</ele>
        <time>2024-09-15T09:35:47.000Z</time>
      </trkpt>
      <trkpt lat="45.78151" lon="2.98303">
        <ele>948.59997558594</ele>
        <time>2024-09-15T09:35:48.000Z</time>
      </trkpt>
      <trkpt lat="45.7815" lon="2.98309">
        <ele>948</ele>
        <time>2024-09-15T09:35:49.000Z</time>
      </trkpt>
      <trkpt lat="45.7815" lon="2.98315">
        <ele>947.40002441406</ele>
        <time>2024-09-15T09:35:50.000Z</time>
      </trkpt>
      <trkpt lat="45.78149" lon="2.98321">
        <ele>947</ele>
        <time>2024-09-15T09:35:51.000Z</time>
      </trkpt>
      <trkpt lat="45.78148" lon="2.98327">
        <ele>946.79998779297</ele>
        <time>2024-09-15T09:35:52.000Z</time>
      </trkpt>
      <trkpt lat="45.78147" lon="2.98332">
        <ele>946</ele>
        <time>2024-09-15T09:35:53.000Z</time>
      </trkpt>
      <trkpt lat="45.78147" lon="2.98338">
        <ele>945.40002441406</ele>
        <time>2024-09-15T09:35:54.000Z</time>
      </trkpt>
      <trkpt lat="45.78147" lon="2.98343">
        <ele>945</ele>
        <time>2024-09-15T09:35:55.000Z</time>
      </trkpt>
      <trkpt lat="45.78146" lon="2.98349">
        <ele>944.79998779297</ele>
        <time>2024-09-15T09:35:56.000Z</time>
      </trkpt>
      <trkpt lat="45.78145" lon="2.98355">
        <ele>944</ele>
        <time>2024-09-15T09:35:57.000Z</time>
      </trkpt>
      <trkpt lat="45.78145" lon="2.98362">
        <ele>943.59997558594</ele>
        <time>2024-09-15T09:35:58.000Z</time>
      </trkpt>
      <trkpt lat="45.78145" lon="2.98367">
        <ele>943.20001220703</ele>
        <time>2024-09-15T09:35:59.000Z</time>
      </trkpt>
      <trkpt lat="45.78145" lon="2.98373">
        <ele>942.59997558594</ele>
        <time>2024-09-15T09:36:00.000Z</time>
      </trkpt>
      <trkpt lat="45.78145" lon="2.98379">
        <ele>942.20001220703</ele>
        <time>2024-09-15T09:36:01.000Z</time>
      </trkpt>
      <trkpt lat="45.78146" lon="2.98385">
        <ele>941.40002441406</ele>
        <time>2024-09-15T09:36:02.000Z</time>
      </trkpt>
      <trkpt lat="45.78145" lon="2.9839">
        <ele>941.20001220703</ele>
        <time>2024-09-15T09:36:03.000Z</time>
      </trkpt>
      <trkpt lat="45.78146" lon="2.98397">
        <ele>940.40002441406</ele>
        <time>2024-09-15T09:36:04.000Z</time>
      </trkpt>
      <trkpt lat="45.78146" lon="2.98402">
        <ele>940</ele>
        <time>2024-09-15T09:36:05.000Z</time>
      </trkpt>
      <trkpt lat="45.78146" lon="2.98409">
        <ele>939.20001220703</ele>
        <time>2024-09-15T09:36:06.000Z</time>
      </trkpt>
      <trkpt lat="45.78145" lon="2.98415">
        <ele>938.79998779297</ele>
        <time>2024-09-15T09:36:07.000Z</time>
      </trkpt>
      <trkpt lat="45.78145" lon="2.98422">
        <ele>938.59997558594</ele>
        <time>2024-09-15T09:36:08.000Z</time>
      </trkpt>
      <trkpt lat="45.78145" lon="2.98427">
        <ele>938.40002441406</ele>
        <time>2024-09-15T09:36:09.000Z</time>
      </trkpt>
      <trkpt lat="45.78145" lon="2.98434">
        <ele>938</ele>
        <time>2024-09-15T09:36:10.000Z</time>
      </trkpt>
      <trkpt lat="45.78145" lon="2.98439">
        <ele>937.79998779297</ele>
        <time>2024-09-15T09:36:11.000Z</time>
      </trkpt>
      <trkpt lat="45.78145" lon="2.98446">
        <ele>937.59997558594</ele>
        <time>2024-09-15T09:36:12.000Z</time>
      </trkpt>
      <trkpt lat="45.78145" lon="2.98451">
        <ele>937.40002441406</ele>
        <time>2024-09-15T09:36:13.000Z</time>
      </trkpt>
      <trkpt lat="45.78145" lon="2.98458">
        <ele>936.79998779297</ele>
        <time>2024-09-15T09:36:14.000Z</time>
      </trkpt>
      <trkpt lat="45.78145" lon="2.98463">
        <ele>936.59997558594</ele>
        <time>2024-09-15T09:36:15.000Z</time>
      </trkpt>
      <trkpt lat="45.78144" lon="2.9847">
        <ele>936.40002441406</ele>
        <time>2024-09-15T09:36:16.000Z</time>
      </trkpt>
      <trkpt lat="45.78145" lon="2.98475">
        <ele>936</ele>
        <time>2024-09-15T09:36:17.000Z</time>
      </trkpt>
      <trkpt lat="45.78144" lon="2.98482">
        <ele>935.40002441406</ele>
        <time>2024-09-15T09:36:18.000Z</time>
      </trkpt>
      <trkpt lat="45.78144" lon="2.98487">
        <ele>934.40002441406</ele>
        <time>2024-09-15T09:36:19.000Z</time>
      </trkpt>
      <trkpt lat="45.78144" lon="2.98493">
        <ele>934</ele>
        <time>2024-09-15T09:36:20.000Z</time>
      </trkpt>
      <trkpt lat="45.78144" lon="2.98498">
        <ele>934</ele>
        <time>2024-09-15T09:36:21.000Z</time>
      </trkpt>
      <trkpt lat="45.78143" lon="2.98504">
        <ele>933.59997558594</ele>
        <time>2024-09-15T09:36:22.000Z</time>
      </trkpt>
      <trkpt lat="45.78142" lon="2.9851">
        <ele>933.40002441406</ele>
        <time>2024-09-15T09:36:23.000Z</time>
      </trkpt>
      <trkpt lat="45.78142" lon="2.98516">
        <ele>933.20001220703</ele>
        <time>2024-09-15T09:36:24.000Z</time>
      </trkpt>
      <trkpt lat="45.78142" lon="2.98522">
        <ele>933</ele>
        <time>2024-09-15T09:36:25.000Z</time>
      </trkpt>
      <trkpt lat="45.78141" lon="2.98528">
        <ele>933</ele>
        <time>2024-09-15T09:36:26.000Z</time>
      </trkpt>
      <trkpt lat="45.78141" lon="2.98534">
        <ele>932.79998779297</ele>
        <time>2024-09-15T09:36:27.000Z</time>
      </trkpt>
      <trkpt lat="45.78141" lon="2.98539">
        <ele>932.79998779297</ele>
        <time>2024-09-15T09:36:28.000Z</time>
      </trkpt>
      <trkpt lat="45.78139" lon="2.98545">
        <ele>932.59997558594</ele>
        <time>2024-09-15T09:36:29.000Z</time>
      </trkpt>
      <trkpt lat="45.78138" lon="2.98549">
        <ele>932.40002441406</ele>
        <time>2024-09-15T09:36:30.000Z</time>
      </trkpt>
      <trkpt lat="45.78136" lon="2.98555">
        <ele>932</ele>
        <time>2024-09-15T09:36:31.000Z</time>
      </trkpt>
      <trkpt lat="45.78135" lon="2.9856">
        <ele>932</ele>
        <time>2024-09-15T09:36:32.000Z</time>
      </trkpt>
      <trkpt lat="45.78133" lon="2.98565">
        <ele>931.40002441406</ele>
        <time>2024-09-15T09:36:33.000Z</time>
      </trkpt>
      <trkpt lat="45.7813" lon="2.9857">
        <ele>931</ele>
        <time>2024-09-15T09:36:34.000Z</time>
      </trkpt>
      <trkpt lat="45.78126" lon="2.98575">
        <ele>930.79998779297</ele>
        <time>2024-09-15T09:36:35.000Z</time>
      </trkpt>
      <trkpt lat="45.78122" lon="2.98578">
        <ele>930.59997558594</ele>
        <time>2024-09-15T09:36:36.000Z</time>
      </trkpt>
      <trkpt lat="45.78118" lon="2.98581">
        <ele>930.40002441406</ele>
        <time>2024-09-15T09:36:37.000Z</time>
      </trkpt>
      <trkpt lat="45.78114" lon="2.98584">
        <ele>930.40002441406</ele>
        <time>2024-09-15T09:36:38.000Z</time>
      </trkpt>
      <trkpt lat="45.78111" lon="2.98585">
        <ele>930.20001220703</ele>
        <time>2024-09-15T09:36:39.000Z</time>
      </trkpt>
      <trkpt lat="45.78106" lon="2.98587">
        <ele>930</ele>
        <time>2024-09-15T09:36:40.000Z</time>
      </trkpt>
      <trkpt lat="45.78102" lon="2.98588">
        <ele>929.79998779297</ele>
        <time>2024-09-15T09:36:41.000Z</time>
      </trkpt>
      <trkpt lat="45.78098" lon="2.98589">
        <ele>929.59997558594</ele>
        <time>2024-09-15T09:36:42.000Z</time>
      </trkpt>
      <trkpt lat="45.78094" lon="2.9859">
        <ele>929.59997558594</ele>
        <time>2024-09-15T09:36:43.000Z</time>
      </trkpt>
      <trkpt lat="45.78091" lon="2.9859">
        <ele>929.59997558594</ele>
        <time>2024-09-15T09:36:44.000Z</time>
      </trkpt>
      <trkpt lat="45.78087" lon="2.98591">
        <ele>929.59997558594</ele>
        <time>2024-09-15T09:36:45.000Z</time>
      </trkpt>
      <trkpt lat="45.78083" lon="2.98591">
        <ele>929.59997558594</ele>
        <time>2024-09-15T09:36:46.000Z</time>
      </trkpt>
      <trkpt lat="45.7808" lon="2.98591">
        <ele>929.59997558594</ele>
        <time>2024-09-15T09:36:47.000Z</time>
      </trkpt>
      <trkpt lat="45.78076" lon="2.98591">
        <ele>929.59997558594</ele>
        <time>2024-09-15T09:36:48.000Z</time>
      </trkpt>
      <trkpt lat="45.78073" lon="2.98591">
        <ele>929.79998779297</ele>
        <time>2024-09-15T09:36:49.000Z</time>
      </trkpt>
      <trkpt lat="45.78069" lon="2.98591">
        <ele>929.79998779297</ele>
        <time>2024-09-15T09:36:50.000Z</time>
      </trkpt>
      <trkpt lat="45.78066" lon="2.98592">
        <ele>929.79998779297</ele>
        <time>2024-09-15T09:36:51.000Z</time>
      </trkpt>
      <trkpt lat="45.78061" lon="2.98591">
        <ele>929.79998779297</ele>
        <time>2024-09-15T09:36:52.000Z</time>
      </trkpt>
      <trkpt lat="45.78059" lon="2.98591">
        <ele>929.79998779297</ele>
        <time>2024-09-15T09:36:53.000Z</time>
      </trkpt>
      <trkpt lat="45.78055" lon="2.9859">
        <ele>929.79998779297</ele>
        <time>2024-09-15T09:36:54.000Z</time>
      </trkpt>
      <trkpt lat="45.78051" lon="2.9859">
        <ele>929.79998779297</ele>
        <time>2024-09-15T09:36:55.000Z</time>
      </trkpt>
      <trkpt lat="45.78048" lon="2.9859">
        <ele>929.79998779297</ele>
        <time>2024-09-15T09:36:56.000Z</time>
      </trkpt>
      <trkpt lat="45.78045" lon="2.9859">
        <ele>929.79998779297</ele>
        <time>2024-09-15T09:36:57.000Z</time>
      </trkpt>
      <trkpt lat="45.78041" lon="2.98589">
        <ele>930</ele>
        <time>2024-09-15T09:36:58.000Z</time>
      </trkpt>
      <trkpt lat="45.78038" lon="2.98589">
        <ele>930</ele>
        <time>2024-09-15T09:36:59.000Z</time>
      </trkpt>
      <trkpt lat="45.78035" lon="2.98588">
        <ele>930</ele>
        <time>2024-09-15T09:37:00.000Z</time>
      </trkpt>
      <trkpt lat="45.78032" lon="2.98588">
        <ele>930.20001220703</ele>
        <time>2024-09-15T09:37:01.000Z</time>
      </trkpt>
      <trkpt lat="45.78028" lon="2.98587">
        <ele>930.20001220703</ele>
        <time>2024-09-15T09:37:02.000Z</time>
      </trkpt>
      <trkpt lat="45.78025" lon="2.98587">
        <ele>930.20001220703</ele>
        <time>2024-09-15T09:37:03.000Z</time>
      </trkpt>
      <trkpt lat="45.78022" lon="2.98586">
        <ele>930.20001220703</ele>
        <time>2024-09-15T09:37:04.000Z</time>
      </trkpt>
      <trkpt lat="45.78018" lon="2.98586">
        <ele>930.20001220703</ele>
        <time>2024-09-15T09:37:05.000Z</time>
      </trkpt>
      <trkpt lat="45.78015" lon="2.98585">
        <ele>930.40002441406</ele>
        <time>2024-09-15T09:37:06.000Z</time>
      </trkpt>
      <trkpt lat="45.78011" lon="2.98585">
        <ele>930.59997558594</ele>
        <time>2024-09-15T09:37:07.000Z</time>
      </trkpt>
      <trkpt lat="45.78009" lon="2.98583">
        <ele>930.59997558594</ele>
        <time>2024-09-15T09:37:08.000Z</time>
      </trkpt>
      <trkpt lat="45.78005" lon="2.98582">
        <ele>930.79998779297</ele>
        <time>2024-09-15T09:37:09.000Z</time>
      </trkpt>
      <trkpt lat="45.78002" lon="2.98581">
        <ele>930.79998779297</ele>
        <time>2024-09-15T09:37:10.000Z</time>
      </trkpt>
      <trkpt lat="45.77999" lon="2.98579">
        <ele>931</ele>
        <time>2024-09-15T09:37:11.000Z</time>
      </trkpt>
      <trkpt lat="45.77996" lon="2.98577">
        <ele>931</ele>
        <time>2024-09-15T09:37:12.000Z</time>
      </trkpt>
      <trkpt lat="45.77992" lon="2.98576">
        <ele>931</ele>
        <time>2024-09-15T09:37:13.000Z</time>
      </trkpt>
      <trkpt lat="45.77989" lon="2.98575">
        <ele>931</ele>
        <time>2024-09-15T09:37:14.000Z</time>
      </trkpt>
      <trkpt lat="45.77986" lon="2.98573">
        <ele>931.20001220703</ele>
        <time>2024-09-15T09:37:15.000Z</time>
      </trkpt>
      <trkpt lat="45.77983" lon="2.98572">
        <ele>931.20001220703</ele>
        <time>2024-09-15T09:37:16.000Z</time>
      </trkpt>
      <trkpt lat="45.77979" lon="2.98571">
        <ele>931</ele>
        <time>2024-09-15T09:37:17.000Z</time>
      </trkpt>
      <trkpt lat="45.77976" lon="2.9857">
        <ele>931.20001220703</ele>
        <time>2024-09-15T09:37:18.000Z</time>
      </trkpt>
      <trkpt lat="45.77972" lon="2.98569">
        <ele>931</ele>
        <time>2024-09-15T09:37:19.000Z</time>
      </trkpt>
      <trkpt lat="45.77969" lon="2.98569">
        <ele>931</ele>
        <time>2024-09-15T09:37:20.000Z</time>
      </trkpt>
      <trkpt lat="45.77966" lon="2.98567">
        <ele>930.79998779297</ele>
        <time>2024-09-15T09:37:21.000Z</time>
      </trkpt>
      <trkpt lat="45.77963" lon="2.98566">
        <ele>930.59997558594</ele>
        <time>2024-09-15T09:37:22.000Z</time>
      </trkpt>
      <trkpt lat="45.77959" lon="2.98565">
        <ele>930.59997558594</ele>
        <time>2024-09-15T09:37:23.000Z</time>
      </trkpt>
      <trkpt lat="45.77956" lon="2.98564">
        <ele>930.59997558594</ele>
        <time>2024-09-15T09:37:24.000Z</time>
      </trkpt>
      <trkpt lat="45.77953" lon="2.98563">
        <ele>930.59997558594</ele>
        <time>2024-09-15T09:37:25.000Z</time>
      </trkpt>
      <trkpt lat="45.7795" lon="2.98562">
        <ele>930.59997558594</ele>
        <time>2024-09-15T09:37:26.000Z</time>
      </trkpt>
      <trkpt lat="45.77947" lon="2.9856">
        <ele>930.59997558594</ele>
        <time>2024-09-15T09:37:27.000Z</time>
      </trkpt>
      <trkpt lat="45.77944" lon="2.9856">
        <ele>930.59997558594</ele>
        <time>2024-09-15T09:37:28.000Z</time>
      </trkpt>
      <trkpt lat="45.7794" lon="2.98558">
        <ele>930.79998779297</ele>
        <time>2024-09-15T09:37:29.000Z</time>
      </trkpt>
      <trkpt lat="45.77938" lon="2.98557">
        <ele>930.79998779297</ele>
        <time>2024-09-15T09:37:30.000Z</time>
      </trkpt>
      <trkpt lat="45.77934" lon="2.98556">
        <ele>931</ele>
        <time>2024-09-15T09:37:31.000Z</time>
      </trkpt>
      <trkpt lat="45.77931" lon="2.98556">
        <ele>931</ele>
        <time>2024-09-15T09:37:32.000Z</time>
      </trkpt>
      <trkpt lat="45.77927" lon="2.98554">
        <ele>931</ele>
        <time>2024-09-15T09:37:33.000Z</time>
      </trkpt>
      <trkpt lat="45.77924" lon="2.98554">
        <ele>931.20001220703</ele>
        <time>2024-09-15T09:37:34.000Z</time>
      </trkpt>
      <trkpt lat="45.7792" lon="2.98553">
        <ele>931.20001220703</ele>
        <time>2024-09-15T09:37:35.000Z</time>
      </trkpt>
      <trkpt lat="45.77917" lon="2.98551">
        <ele>931.20001220703</ele>
        <time>2024-09-15T09:37:36.000Z</time>
      </trkpt>
      <trkpt lat="45.77914" lon="2.98549">
        <ele>931.20001220703</ele>
        <time>2024-09-15T09:37:37.000Z</time>
      </trkpt>
      <trkpt lat="45.77911" lon="2.98548">
        <ele>931.20001220703</ele>
        <time>2024-09-15T09:37:38.000Z</time>
      </trkpt>
      <trkpt lat="45.77908" lon="2.98545">
        <ele>931</ele>
        <time>2024-09-15T09:37:39.000Z</time>
      </trkpt>
      <trkpt lat="45.77905" lon="2.98545">
        <ele>931.20001220703</ele>
        <time>2024-09-15T09:37:40.000Z</time>
      </trkpt>
      <trkpt lat="45.77901" lon="2.98542">
        <ele>931</ele>
        <time>2024-09-15T09:37:41.000Z</time>
      </trkpt>
      <trkpt lat="45.77899" lon="2.98541">
        <ele>931</ele>
        <time>2024-09-15T09:37:42.000Z</time>
      </trkpt>
      <trkpt lat="45.77896" lon="2.98538">
        <ele>931</ele>
        <time>2024-09-15T09:37:43.000Z</time>
      </trkpt>
      <trkpt lat="45.77893" lon="2.98536">
        <ele>930.79998779297</ele>
        <time>2024-09-15T09:37:44.000Z</time>
      </trkpt>
      <trkpt lat="45.7789" lon="2.98533">
        <ele>930.79998779297</ele>
        <time>2024-09-15T09:37:45.000Z</time>
      </trkpt>
      <trkpt lat="45.77887" lon="2.98531">
        <ele>930.59997558594</ele>
        <time>2024-09-15T09:37:46.000Z</time>
      </trkpt>
      <trkpt lat="45.77885" lon="2.98528">
        <ele>930.59997558594</ele>
        <time>2024-09-15T09:37:47.000Z</time>
      </trkpt>
      <trkpt lat="45.77882" lon="2.98526">
        <ele>930.59997558594</ele>
        <time>2024-09-15T09:37:48.000Z</time>
      </trkpt>
      <trkpt lat="45.77879" lon="2.98523">
        <ele>930.59997558594</ele>
        <time>2024-09-15T09:37:49.000Z</time>
      </trkpt>
      <trkpt lat="45.77875" lon="2.98521">
        <ele>930.59997558594</ele>
        <time>2024-09-15T09:37:50.000Z</time>
      </trkpt>
      <trkpt lat="45.77872" lon="2.9852">
        <ele>930.59997558594</ele>
        <time>2024-09-15T09:37:51.000Z</time>
      </trkpt>
      <trkpt lat="45.77869" lon="2.98518">
        <ele>930.79998779297</ele>
        <time>2024-09-15T09:37:52.000Z</time>
      </trkpt>
      <trkpt lat="45.77866" lon="2.98516">
        <ele>930.79998779297</ele>
        <time>2024-09-15T09:37:53.000Z</time>
      </trkpt>
      <trkpt lat="45.77863" lon="2.98514">
        <ele>930.79998779297</ele>
        <time>2024-09-15T09:37:54.000Z</time>
      </trkpt>
      <trkpt lat="45.7786" lon="2.98512">
        <ele>930.59997558594</ele>
        <time>2024-09-15T09:37:55.000Z</time>
      </trkpt>
      <trkpt lat="45.77857" lon="2.9851">
        <ele>930.59997558594</ele>
        <time>2024-09-15T09:37:56.000Z</time>
      </trkpt>
      <trkpt lat="45.77854" lon="2.98509">
        <ele>930.59997558594</ele>
        <time>2024-09-15T09:37:57.000Z</time>
      </trkpt>
      <trkpt lat="45.77851" lon="2.98507">
        <ele>930.79998779297</ele>
        <time>2024-09-15T09:37:58.000Z</time>
      </trkpt>
      <trkpt lat="45.77848" lon="2.98505">
        <ele>930.79998779297</ele>
        <time>2024-09-15T09:37:59.000Z</time>
      </trkpt>
      <trkpt lat="45.77844" lon="2.98503">
        <ele>930.79998779297</ele>
        <time>2024-09-15T09:38:00.000Z</time>
      </trkpt>
      <trkpt lat="45.77842" lon="2.98501">
        <ele>930.79998779297</ele>
        <time>2024-09-15T09:38:01.000Z</time>
      </trkpt>
      <trkpt lat="45.77838" lon="2.98499">
        <ele>930.79998779297</ele>
        <time>2024-09-15T09:38:02.000Z</time>
      </trkpt>
      <trkpt lat="45.77835" lon="2.98498">
        <ele>930.79998779297</ele>
        <time>2024-09-15T09:38:03.000Z</time>
      </trkpt>
      <trkpt lat="45.77831" lon="2.98496">
        <ele>930.79998779297</ele>
        <time>2024-09-15T09:38:04.000Z</time>
      </trkpt>
      <trkpt lat="45.77828" lon="2.98495">
        <ele>930.79998779297</ele>
        <time>2024-09-15T09:38:05.000Z</time>
      </trkpt>
      <trkpt lat="45.77825" lon="2.98493">
        <ele>930.79998779297</ele>
        <time>2024-09-15T09:38:06.000Z</time>
      </trkpt>
      <trkpt lat="45.77822" lon="2.98492">
        <ele>930.79998779297</ele>
        <time>2024-09-15T09:38:07.000Z</time>
      </trkpt>
      <trkpt lat="45.77819" lon="2.9849">
        <ele>930.79998779297</ele>
        <time>2024-09-15T09:38:08.000Z</time>
      </trkpt>
      <trkpt lat="45.77816" lon="2.98488">
        <ele>930.79998779297</ele>
        <time>2024-09-15T09:38:09.000Z</time>
      </trkpt>
      <trkpt lat="45.77812" lon="2.98487">
        <ele>930.59997558594</ele>
        <time>2024-09-15T09:38:10.000Z</time>
      </trkpt>
      <trkpt lat="45.7781" lon="2.98485">
        <ele>930.59997558594</ele>
        <time>2024-09-15T09:38:11.000Z</time>
      </trkpt>
      <trkpt lat="45.77806" lon="2.98483">
        <ele>930.59997558594</ele>
        <time>2024-09-15T09:38:12.000Z</time>
      </trkpt>
      <trkpt lat="45.77803" lon="2.98481">
        <ele>930.40002441406</ele>
        <time>2024-09-15T09:38:13.000Z</time>
      </trkpt>
      <trkpt lat="45.778" lon="2.98479">
        <ele>930.40002441406</ele>
        <time>2024-09-15T09:38:14.000Z</time>
      </trkpt>
      <trkpt lat="45.77797" lon="2.98478">
        <ele>930.40002441406</ele>
        <time>2024-09-15T09:38:15.000Z</time>
      </trkpt>
      <trkpt lat="45.77794" lon="2.98475">
        <ele>930.40002441406</ele>
        <time>2024-09-15T09:38:16.000Z</time>
      </trkpt>
      <trkpt lat="45.77791" lon="2.98473">
        <ele>930.40002441406</ele>
        <time>2024-09-15T09:38:17.000Z</time>
      </trkpt>
      <trkpt lat="45.77788" lon="2.98471">
        <ele>930.59997558594</ele>
        <time>2024-09-15T09:38:18.000Z</time>
      </trkpt>
      <trkpt lat="45.77785" lon="2.98469">
        <ele>930.59997558594</ele>
        <time>2024-09-15T09:38:19.000Z</time>
      </trkpt>
      <trkpt lat="45.77781" lon="2.98468">
        <ele>930.79998779297</ele>
        <time>2024-09-15T09:38:20.000Z</time>
      </trkpt>
      <trkpt lat="45.77778" lon="2.98466">
        <ele>930.59997558594</ele>
        <time>2024-09-15T09:38:21.000Z</time>
      </trkpt>
      <trkpt lat="45.77775" lon="2.98465">
        <ele>930.59997558594</ele>
        <time>2024-09-15T09:38:22.000Z</time>
      </trkpt>
      <trkpt lat="45.77772" lon="2.98464">
        <ele>930.40002441406</ele>
        <time>2024-09-15T09:38:23.000Z</time>
      </trkpt>
      <trkpt lat="45.77769" lon="2.98461">
        <ele>930.40002441406</ele>
        <time>2024-09-15T09:38:24.000Z</time>
      </trkpt>
      <trkpt lat="45.77765" lon="2.98459">
        <ele>930.20001220703</ele>
        <time>2024-09-15T09:38:25.000Z</time>
      </trkpt>
      <trkpt lat="45.77763" lon="2.98457">
        <ele>930.20001220703</ele>
        <time>2024-09-15T09:38:26.000Z</time>
      </trkpt>
      <trkpt lat="45.77759" lon="2.98454">
        <ele>930.20001220703</ele>
        <time>2024-09-15T09:38:27.000Z</time>
      </trkpt>
      <trkpt lat="45.77756" lon="2.98452">
        <ele>930</ele>
        <time>2024-09-15T09:38:28.000Z</time>
      </trkpt>
      <trkpt lat="45.77754" lon="2.98449">
        <ele>930</ele>
        <time>2024-09-15T09:38:29.000Z</time>
      </trkpt>
      <trkpt lat="45.77751" lon="2.98447">
        <ele>930</ele>
        <time>2024-09-15T09:38:30.000Z</time>
      </trkpt>
      <trkpt lat="45.77748" lon="2.98445">
        <ele>930</ele>
        <time>2024-09-15T09:38:31.000Z</time>
      </trkpt>
      <trkpt lat="45.77745" lon="2.98444">
        <ele>930</ele>
        <time>2024-09-15T09:38:32.000Z</time>
      </trkpt>
      <trkpt lat="45.77742" lon="2.98442">
        <ele>929.79998779297</ele>
        <time>2024-09-15T09:38:33.000Z</time>
      </trkpt>
      <trkpt lat="45.77739" lon="2.98441">
        <ele>929.59997558594</ele>
        <time>2024-09-15T09:38:34.000Z</time>
      </trkpt>
      <trkpt lat="45.77735" lon="2.98439">
        <ele>929.59997558594</ele>
        <time>2024-09-15T09:38:35.000Z</time>
      </trkpt>
      <trkpt lat="45.77733" lon="2.98438">
        <ele>929.20001220703</ele>
        <time>2024-09-15T09:38:36.000Z</time>
      </trkpt>
      <trkpt lat="45.77729" lon="2.98436">
        <ele>929.20001220703</ele>
        <time>2024-09-15T09:38:37.000Z</time>
      </trkpt>
      <trkpt lat="45.77726" lon="2.98434">
        <ele>929.20001220703</ele>
        <time>2024-09-15T09:38:38.000Z</time>
      </trkpt>
      <trkpt lat="45.77722" lon="2.98433">
        <ele>929.20001220703</ele>
        <time>2024-09-15T09:38:39.000Z</time>
      </trkpt>
      <trkpt lat="45.77719" lon="2.98432">
        <ele>929.40002441406</ele>
        <time>2024-09-15T09:38:40.000Z</time>
      </trkpt>
      <trkpt lat="45.77716" lon="2.98431">
        <ele>929.40002441406</ele>
        <time>2024-09-15T09:38:41.000Z</time>
      </trkpt>
      <trkpt lat="45.77712" lon="2.9843">
        <ele>929.40002441406</ele>
        <time>2024-09-15T09:38:42.000Z</time>
      </trkpt>
      <trkpt lat="45.77709" lon="2.98428">
        <ele>929.40002441406</ele>
        <time>2024-09-15T09:38:43.000Z</time>
      </trkpt>
      <trkpt lat="45.77706" lon="2.98427">
        <ele>929.20001220703</ele>
        <time>2024-09-15T09:38:44.000Z</time>
      </trkpt>
      <trkpt lat="45.77702" lon="2.98426">
        <ele>929.20001220703</ele>
        <time>2024-09-15T09:38:45.000Z</time>
      </trkpt>
      <trkpt lat="45.77699" lon="2.98425">
        <ele>929.20001220703</ele>
        <time>2024-09-15T09:38:46.000Z</time>
      </trkpt>
      <trkpt lat="45.77695" lon="2.98424">
        <ele>929</ele>
        <time>2024-09-15T09:38:47.000Z</time>
      </trkpt>
      <trkpt lat="45.77692" lon="2.98424">
        <ele>929</ele>
        <time>2024-09-15T09:38:48.000Z</time>
      </trkpt>
      <trkpt lat="45.77688" lon="2.98422">
        <ele>928.79998779297</ele>
        <time>2024-09-15T09:38:49.000Z</time>
      </trkpt>
      <trkpt lat="45.77686" lon="2.98421">
        <ele>928.79998779297</ele>
        <time>2024-09-15T09:38:50.000Z</time>
      </trkpt>
      <trkpt lat="45.77682" lon="2.98419">
        <ele>928.79998779297</ele>
        <time>2024-09-15T09:38:51.000Z</time>
      </trkpt>
      <trkpt lat="45.77679" lon="2.98418">
        <ele>928.79998779297</ele>
        <time>2024-09-15T09:38:52.000Z</time>
      </trkpt>
      <trkpt lat="45.77676" lon="2.98416">
        <ele>928.79998779297</ele>
        <time>2024-09-15T09:38:53.000Z</time>
      </trkpt>
      <trkpt lat="45.77673" lon="2.98414">
        <ele>928.79998779297</ele>
        <time>2024-09-15T09:38:54.000Z</time>
      </trkpt>
      <trkpt lat="45.7767" lon="2.98412">
        <ele>928.59997558594</ele>
        <time>2024-09-15T09:38:55.000Z</time>
      </trkpt>
      <trkpt lat="45.77667" lon="2.9841">
        <ele>928.59997558594</ele>
        <time>2024-09-15T09:38:56.000Z</time>
      </trkpt>
      <trkpt lat="45.77663" lon="2.98407">
        <ele>928.59997558594</ele>
        <time>2024-09-15T09:38:57.000Z</time>
      </trkpt>
      <trkpt lat="45.7766" lon="2.98406">
        <ele>928.40002441406</ele>
        <time>2024-09-15T09:38:58.000Z</time>
      </trkpt>
      <trkpt lat="45.77657" lon="2.98402">
        <ele>928.40002441406</ele>
        <time>2024-09-15T09:38:59.000Z</time>
      </trkpt>
      <trkpt lat="45.77654" lon="2.984">
        <ele>928.40002441406</ele>
        <time>2024-09-15T09:39:00.000Z</time>
      </trkpt>
      <trkpt lat="45.77651" lon="2.98397">
        <ele>928.20001220703</ele>
        <time>2024-09-15T09:39:01.000Z</time>
      </trkpt>
      <trkpt lat="45.77648" lon="2.98396">
        <ele>928</ele>
        <time>2024-09-15T09:39:02.000Z</time>
      </trkpt>
      <trkpt lat="45.77644" lon="2.98393">
        <ele>928</ele>
        <time>2024-09-15T09:39:03.000Z</time>
      </trkpt>
      <trkpt lat="45.77641" lon="2.98391">
        <ele>927.79998779297</ele>
        <time>2024-09-15T09:39:04.000Z</time>
      </trkpt>
      <trkpt lat="45.77638" lon="2.98389">
        <ele>927.59997558594</ele>
        <time>2024-09-15T09:39:05.000Z</time>
      </trkpt>
      <trkpt lat="45.77634" lon="2.98387">
        <ele>927.59997558594</ele>
        <time>2024-09-15T09:39:06.000Z</time>
      </trkpt>
      <trkpt lat="45.77631" lon="2.98387">
        <ele>927.59997558594</ele>
        <time>2024-09-15T09:39:07.000Z</time>
      </trkpt>
      <trkpt lat="45.77628" lon="2.98389">
        <ele>927.40002441406</ele>
        <time>2024-09-15T09:39:08.000Z</time>
      </trkpt>
      <trkpt lat="45.77626" lon="2.9839">
        <ele>927.40002441406</ele>
        <time>2024-09-15T09:39:09.000Z</time>
      </trkpt>
      <trkpt lat="45.77626" lon="2.98392">
        <ele>927.20001220703</ele>
        <time>2024-09-15T09:39:10.000Z</time>
      </trkpt>
      <trkpt lat="45.77624" lon="2.98397">
        <ele>927</ele>
        <time>2024-09-15T09:39:11.000Z</time>
      </trkpt>
      <trkpt lat="45.77622" lon="2.98401">
        <ele>927</ele>
        <time>2024-09-15T09:39:12.000Z</time>
      </trkpt>
      <trkpt lat="45.77619" lon="2.98406">
        <ele>926.79998779297</ele>
        <time>2024-09-15T09:39:13.000Z</time>
      </trkpt>
      <trkpt lat="45.77617" lon="2.98409">
        <ele>926.59997558594</ele>
        <time>2024-09-15T09:39:14.000Z</time>
      </trkpt>
      <trkpt lat="45.77614" lon="2.98415">
        <ele>926.20001220703</ele>
        <time>2024-09-15T09:39:15.000Z</time>
      </trkpt>
      <trkpt lat="45.77612" lon="2.98419">
        <ele>926.20001220703</ele>
        <time>2024-09-15T09:39:16.000Z</time>
      </trkpt>
      <trkpt lat="45.7761" lon="2.98424">
        <ele>926</ele>
        <time>2024-09-15T09:39:17.000Z</time>
      </trkpt>
      <trkpt lat="45.77608" lon="2.98428">
        <ele>925.79998779297</ele>
        <time>2024-09-15T09:39:18.000Z</time>
      </trkpt>
      <trkpt lat="45.77606" lon="2.98433">
        <ele>925.40002441406</ele>
        <time>2024-09-15T09:39:19.000Z</time>
      </trkpt>
      <trkpt lat="45.77604" lon="2.98437">
        <ele>925.20001220703</ele>
        <time>2024-09-15T09:39:20.000Z</time>
      </trkpt>
      <trkpt lat="45.77602" lon="2.98442">
        <ele>924.59997558594</ele>
        <time>2024-09-15T09:39:21.000Z</time>
      </trkpt>
      <trkpt lat="45.776" lon="2.98446">
        <ele>924.20001220703</ele>
        <time>2024-09-15T09:39:22.000Z</time>
      </trkpt>
      <trkpt lat="45.77598" lon="2.98451">
        <ele>923.79998779297</ele>
        <time>2024-09-15T09:39:23.000Z</time>
      </trkpt>
      <trkpt lat="45.77596" lon="2.98455">
        <ele>923.40002441406</ele>
        <time>2024-09-15T09:39:24.000Z</time>
      </trkpt>
      <trkpt lat="45.77595" lon="2.9846">
        <ele>923.20001220703</ele>
        <time>2024-09-15T09:39:25.000Z</time>
      </trkpt>
      <trkpt lat="45.77592" lon="2.98465">
        <ele>922.79998779297</ele>
        <time>2024-09-15T09:39:26.000Z</time>
      </trkpt>
      <trkpt lat="45.7759" lon="2.98469">
        <ele>922.40002441406</ele>
        <time>2024-09-15T09:39:27.000Z</time>
      </trkpt>
      <trkpt lat="45.77587" lon="2.98474">
        <ele>922</ele>
        <time>2024-09-15T09:39:28.000Z</time>
      </trkpt>
      <trkpt lat="45.77586" lon="2.98478">
        <ele>921.20001220703</ele>
        <time>2024-09-15T09:39:29.000Z</time>
      </trkpt>
      <trkpt lat="45.77583" lon="2.98482">
        <ele>921</ele>
        <time>2024-09-15T09:39:30.000Z</time>
      </trkpt>
      <trkpt lat="45.77581" lon="2.98487">
        <ele>920.59997558594</ele>
        <time>2024-09-15T09:39:31.000Z</time>
      </trkpt>
      <trkpt lat="45.77579" lon="2.98493">
        <ele>920.20001220703</ele>
        <time>2024-09-15T09:39:32.000Z</time>
      </trkpt>
      <trkpt lat="45.77577" lon="2.98497">
        <ele>919.59997558594</ele>
        <time>2024-09-15T09:39:33.000Z</time>
      </trkpt>
      <trkpt lat="45.77575" lon="2.98502">
        <ele>919.40002441406</ele>
        <time>2024-09-15T09:39:34.000Z</time>
      </trkpt>
      <trkpt lat="45.77573" lon="2.98507">
        <ele>919</ele>
        <time>2024-09-15T09:39:35.000Z</time>
      </trkpt>
      <trkpt lat="45.7757" lon="2.98512">
        <ele>918.59997558594</ele>
        <time>2024-09-15T09:39:36.000Z</time>
      </trkpt>
      <trkpt lat="45.77568" lon="2.98516">
        <ele>918</ele>
        <time>2024-09-15T09:39:37.000Z</time>
      </trkpt>
      <trkpt lat="45.77565" lon="2.9852">
        <ele>917.40002441406</ele>
        <time>2024-09-15T09:39:38.000Z</time>
      </trkpt>
      <trkpt lat="45.77562" lon="2.98525">
        <ele>916.79998779297</ele>
        <time>2024-09-15T09:39:39.000Z</time>
      </trkpt>
      <trkpt lat="45.77559" lon="2.98529">
        <ele>916.59997558594</ele>
        <time>2024-09-15T09:39:40.000Z</time>
      </trkpt>
      <trkpt lat="45.77556" lon="2.98534">
        <ele>916.20001220703</ele>
        <time>2024-09-15T09:39:41.000Z</time>
      </trkpt>
      <trkpt lat="45.77554" lon="2.98538">
        <ele>916</ele>
        <time>2024-09-15T09:39:42.000Z</time>
      </trkpt>
      <trkpt lat="45.77551" lon="2.98542">
        <ele>915.59997558594</ele>
        <time>2024-09-15T09:39:43.000Z</time>
      </trkpt>
      <trkpt lat="45.77549" lon="2.98546">
        <ele>915.20001220703</ele>
        <time>2024-09-15T09:39:44.000Z</time>
      </trkpt>
      <trkpt lat="45.77546" lon="2.98551">
        <ele>914.59997558594</ele>
        <time>2024-09-15T09:39:45.000Z</time>
      </trkpt>
      <trkpt lat="45.77544" lon="2.98555">
        <ele>914.20001220703</ele>
        <time>2024-09-15T09:39:46.000Z</time>
      </trkpt>
      <trkpt lat="45.7754" lon="2.98559">
        <ele>914</ele>
        <time>2024-09-15T09:39:47.000Z</time>
      </trkpt>
      <trkpt lat="45.77536" lon="2.98562">
        <ele>913.79998779297</ele>
        <time>2024-09-15T09:39:48.000Z</time>
      </trkpt>
      <trkpt lat="45.77533" lon="2.98566">
        <ele>913.59997558594</ele>
        <time>2024-09-15T09:39:49.000Z</time>
      </trkpt>
      <trkpt lat="45.7753" lon="2.9857">
        <ele>913.40002441406</ele>
        <time>2024-09-15T09:39:50.000Z</time>
      </trkpt>
      <trkpt lat="45.77527" lon="2.98575">
        <ele>912.79998779297</ele>
        <time>2024-09-15T09:39:51.000Z</time>
      </trkpt>
      <trkpt lat="45.77525" lon="2.98579">
        <ele>912.20001220703</ele>
        <time>2024-09-15T09:39:52.000Z</time>
      </trkpt>
      <trkpt lat="45.77522" lon="2.98583">
        <ele>911.79998779297</ele>
        <time>2024-09-15T09:39:53.000Z</time>
      </trkpt>
      <trkpt lat="45.7752" lon="2.98586">
        <ele>911.40002441406</ele>
        <time>2024-09-15T09:39:54.000Z</time>
      </trkpt>
      <trkpt lat="45.77516" lon="2.98591">
        <ele>911.40002441406</ele>
        <time>2024-09-15T09:39:55.000Z</time>
      </trkpt>
      <trkpt lat="45.77514" lon="2.98595">
        <ele>911.20001220703</ele>
        <time>2024-09-15T09:39:56.000Z</time>
      </trkpt>
      <trkpt lat="45.77511" lon="2.98599">
        <ele>911.20001220703</ele>
        <time>2024-09-15T09:39:57.000Z</time>
      </trkpt>
      <trkpt lat="45.77509" lon="2.98603">
        <ele>910.79998779297</ele>
        <time>2024-09-15T09:39:58.000Z</time>
      </trkpt>
      <trkpt lat="45.77506" lon="2.98607">
        <ele>910.40002441406</ele>
        <time>2024-09-15T09:39:59.000Z</time>
      </trkpt>
      <trkpt lat="45.77503" lon="2.98611">
        <ele>910</ele>
        <time>2024-09-15T09:40:00.000Z</time>
      </trkpt>
      <trkpt lat="45.775" lon="2.98615">
        <ele>909.59997558594</ele>
        <time>2024-09-15T09:40:01.000Z</time>
      </trkpt>
      <trkpt lat="45.77498" lon="2.98619">
        <ele>909.40002441406</ele>
        <time>2024-09-15T09:40:02.000Z</time>
      </trkpt>
      <trkpt lat="45.77495" lon="2.98623">
        <ele>909.20001220703</ele>
        <time>2024-09-15T09:40:03.000Z</time>
      </trkpt>
      <trkpt lat="45.77493" lon="2.98628">
        <ele>909</ele>
        <time>2024-09-15T09:40:04.000Z</time>
      </trkpt>
      <trkpt lat="45.7749" lon="2.98631">
        <ele>908.79998779297</ele>
        <time>2024-09-15T09:40:05.000Z</time>
      </trkpt>
      <trkpt lat="45.77488" lon="2.98635">
        <ele>908.59997558594</ele>
        <time>2024-09-15T09:40:06.000Z</time>
      </trkpt>
      <trkpt lat="45.77485" lon="2.98639">
        <ele>908.59997558594</ele>
        <time>2024-09-15T09:40:07.000Z</time>
      </trkpt>
      <trkpt lat="45.77482" lon="2.98644">
        <ele>908.40002441406</ele>
        <time>2024-09-15T09:40:08.000Z</time>
      </trkpt>
      <trkpt lat="45.7748" lon="2.98648">
        <ele>908</ele>
        <time>2024-09-15T09:40:09.000Z</time>
      </trkpt>
      <trkpt lat="45.77477" lon="2.98653">
        <ele>907.79998779297</ele>
        <time>2024-09-15T09:40:10.000Z</time>
      </trkpt>
      <trkpt lat="45.77475" lon="2.98656">
        <ele>907.59997558594</ele>
        <time>2024-09-15T09:40:11.000Z</time>
      </trkpt>
      <trkpt lat="45.77472" lon="2.98661">
        <ele>907.59997558594</ele>
        <time>2024-09-15T09:40:12.000Z</time>
      </trkpt>
      <trkpt lat="45.7747" lon="2.98664">
        <ele>907.40002441406</ele>
        <time>2024-09-15T09:40:13.000Z</time>
      </trkpt>
      <trkpt lat="45.77466" lon="2.98669">
        <ele>907.20001220703</ele>
        <time>2024-09-15T09:40:14.000Z</time>
      </trkpt>
      <trkpt lat="45.77464" lon="2.98672">
        <ele>907.40002441406</ele>
        <time>2024-09-15T09:40:15.000Z</time>
      </trkpt>
      <trkpt lat="45.77461" lon="2.98677">
        <ele>907.20001220703</ele>
        <time>2024-09-15T09:40:16.000Z</time>
      </trkpt>
      <trkpt lat="45.77459" lon="2.9868">
        <ele>907.20001220703</ele>
        <time>2024-09-15T09:40:17.000Z</time>
      </trkpt>
      <trkpt lat="45.77456" lon="2.98684">
        <ele>907.20001220703</ele>
        <time>2024-09-15T09:40:18.000Z</time>
      </trkpt>
      <trkpt lat="45.77453" lon="2.98689">
        <ele>907</ele>
        <time>2024-09-15T09:40:19.000Z</time>
      </trkpt>
      <trkpt lat="45.77451" lon="2.98692">
        <ele>906.79998779297</ele>
        <time>2024-09-15T09:40:20.000Z</time>
      </trkpt>
      <trkpt lat="45.77447" lon="2.98697">
        <ele>906.59997558594</ele>
        <time>2024-09-15T09:40:21.000Z</time>
      </trkpt>
      <trkpt lat="45.77445" lon="2.987">
        <ele>906.40002441406</ele>
        <time>2024-09-15T09:40:22.000Z</time>
      </trkpt>
      <trkpt lat="45.77442" lon="2.98705">
        <ele>906.40002441406</ele>
        <time>2024-09-15T09:40:23.000Z</time>
      </trkpt>
      <trkpt lat="45.7744" lon="2.98709">
        <ele>906.40002441406</ele>
        <time>2024-09-15T09:40:24.000Z</time>
      </trkpt>
      <trkpt lat="45.77437" lon="2.98713">
        <ele>906.20001220703</ele>
        <time>2024-09-15T09:40:25.000Z</time>
      </trkpt>
      <trkpt lat="45.77434" lon="2.98718">
        <ele>906.20001220703</ele>
        <time>2024-09-15T09:40:26.000Z</time>
      </trkpt>
      <trkpt lat="45.77432" lon="2.98722">
        <ele>906</ele>
        <time>2024-09-15T09:40:27.000Z</time>
      </trkpt>
      <trkpt lat="45.77428" lon="2.98727">
        <ele>906</ele>
        <time>2024-09-15T09:40:28.000Z</time>
      </trkpt>
      <trkpt lat="45.77426" lon="2.98731">
        <ele>905.59997558594</ele>
        <time>2024-09-15T09:40:29.000Z</time>
      </trkpt>
      <trkpt lat="45.77423" lon="2.98736">
        <ele>905.59997558594</ele>
        <time>2024-09-15T09:40:30.000Z</time>
      </trkpt>
      <trkpt lat="45.7742" lon="2.9874">
        <ele>905.40002441406</ele>
        <time>2024-09-15T09:40:31.000Z</time>
      </trkpt>
      <trkpt lat="45.77417" lon="2.98745">
        <ele>905.20001220703</ele>
        <time>2024-09-15T09:40:32.000Z</time>
      </trkpt>
      <trkpt lat="45.77415" lon="2.98749">
        <ele>905</ele>
        <time>2024-09-15T09:40:33.000Z</time>
      </trkpt>
      <trkpt lat="45.77411" lon="2.98754">
        <ele>905</ele>
        <time>2024-09-15T09:40:34.000Z</time>
      </trkpt>
      <trkpt lat="45.77409" lon="2.98758">
        <ele>905</ele>
        <time>2024-09-15T09:40:35.000Z</time>
      </trkpt>
      <trkpt lat="45.77406" lon="2.98762">
        <ele>905</ele>
        <time>2024-09-15T09:40:36.000Z</time>
      </trkpt>
      <trkpt lat="45.77404" lon="2.98767">
        <ele>905</ele>
        <time>2024-09-15T09:40:37.000Z</time>
      </trkpt>
      <trkpt lat="45.77401" lon="2.98771">
        <ele>904.79998779297</ele>
        <time>2024-09-15T09:40:38.000Z</time>
      </trkpt>
      <trkpt lat="45.77398" lon="2.98775">
        <ele>904.59997558594</ele>
        <time>2024-09-15T09:40:39.000Z</time>
      </trkpt>
      <trkpt lat="45.77395" lon="2.98779">
        <ele>904.59997558594</ele>
        <time>2024-09-15T09:40:40.000Z</time>
      </trkpt>
      <trkpt lat="45.77393" lon="2.98784">
        <ele>904.20001220703</ele>
        <time>2024-09-15T09:40:41.000Z</time>
      </trkpt>
      <trkpt lat="45.7739" lon="2.98788">
        <ele>903.59997558594</ele>
        <time>2024-09-15T09:40:42.000Z</time>
      </trkpt>
      <trkpt lat="45.77387" lon="2.98793">
        <ele>903.40002441406</ele>
        <time>2024-09-15T09:40:43.000Z</time>
      </trkpt>
      <trkpt lat="45.77384" lon="2.98796">
        <ele>902.79998779297</ele>
        <time>2024-09-15T09:40:44.000Z</time>
      </trkpt>
      <trkpt lat="45.77381" lon="2.98799">
        <ele>902.40002441406</ele>
        <time>2024-09-15T09:40:45.000Z</time>
      </trkpt>
      <trkpt lat="45.77378" lon="2.98804">
        <ele>902.20001220703</ele>
        <time>2024-09-15T09:40:46.000Z</time>
      </trkpt>
      <trkpt lat="45.77375" lon="2.98808">
        <ele>901.79998779297</ele>
        <time>2024-09-15T09:40:47.000Z</time>
      </trkpt>
      <trkpt lat="45.77372" lon="2.98812">
        <ele>901.59997558594</ele>
        <time>2024-09-15T09:40:48.000Z</time>
      </trkpt>
      <trkpt lat="45.7737" lon="2.98816">
        <ele>901</ele>
        <time>2024-09-15T09:40:49.000Z</time>
      </trkpt>
      <trkpt lat="45.77367" lon="2.9882">
        <ele>900.40002441406</ele>
        <time>2024-09-15T09:40:50.000Z</time>
      </trkpt>
      <trkpt lat="45.77364" lon="2.98824">
        <ele>900.20001220703</ele>
        <time>2024-09-15T09:40:51.000Z</time>
      </trkpt>
      <trkpt lat="45.77362" lon="2.98829">
        <ele>899.79998779297</ele>
        <time>2024-09-15T09:40:52.000Z</time>
      </trkpt>
      <trkpt lat="45.7736" lon="2.98833">
        <ele>899.59997558594</ele>
        <time>2024-09-15T09:40:53.000Z</time>
      </trkpt>
      <trkpt lat="45.77357" lon="2.98838">
        <ele>899.40002441406</ele>
        <time>2024-09-15T09:40:54.000Z</time>
      </trkpt>
      <trkpt lat="45.77354" lon="2.98843">
        <ele>899.20001220703</ele>
        <time>2024-09-15T09:40:55.000Z</time>
      </trkpt>
      <trkpt lat="45.77352" lon="2.98847">
        <ele>899</ele>
        <time>2024-09-15T09:40:56.000Z</time>
      </trkpt>
      <trkpt lat="45.7735" lon="2.98852">
        <ele>898.79998779297</ele>
        <time>2024-09-15T09:40:57.000Z</time>
      </trkpt>
      <trkpt lat="45.77347" lon="2.98856">
        <ele>898.40002441406</ele>
        <time>2024-09-15T09:40:58.000Z</time>
      </trkpt>
      <trkpt lat="45.77344" lon="2.98861">
        <ele>898.20001220703</ele>
        <time>2024-09-15T09:40:59.000Z</time>
      </trkpt>
      <trkpt lat="45.77343" lon="2.98865">
        <ele>898.20001220703</ele>
        <time>2024-09-15T09:41:00.000Z</time>
      </trkpt>
      <trkpt lat="45.7734" lon="2.98871">
        <ele>898</ele>
        <time>2024-09-15T09:41:01.000Z</time>
      </trkpt>
      <trkpt lat="45.77338" lon="2.98877">
        <ele>897.79998779297</ele>
        <time>2024-09-15T09:41:02.000Z</time>
      </trkpt>
      <trkpt lat="45.77335" lon="2.98883">
        <ele>897.59997558594</ele>
        <time>2024-09-15T09:41:03.000Z</time>
      </trkpt>
      <trkpt lat="45.77333" lon="2.98888">
        <ele>897.20001220703</ele>
        <time>2024-09-15T09:41:04.000Z</time>
      </trkpt>
      <trkpt lat="45.77331" lon="2.98893">
        <ele>896.79998779297</ele>
        <time>2024-09-15T09:41:05.000Z</time>
      </trkpt>
      <trkpt lat="45.77329" lon="2.98898">
        <ele>896.20001220703</ele>
        <time>2024-09-15T09:41:06.000Z</time>
      </trkpt>
      <trkpt lat="45.77327" lon="2.98904">
        <ele>895.59997558594</ele>
        <time>2024-09-15T09:41:07.000Z</time>
      </trkpt>
      <trkpt lat="45.77326" lon="2.98909">
        <ele>895.40002441406</ele>
        <time>2024-09-15T09:41:08.000Z</time>
      </trkpt>
      <trkpt lat="45.77323" lon="2.98915">
        <ele>895</ele>
        <time>2024-09-15T09:41:09.000Z</time>
      </trkpt>
      <trkpt lat="45.77322" lon="2.98919">
        <ele>894.59997558594</ele>
        <time>2024-09-15T09:41:10.000Z</time>
      </trkpt>
      <trkpt lat="45.7732" lon="2.98926">
        <ele>894.20001220703</ele>
        <time>2024-09-15T09:41:11.000Z</time>
      </trkpt>
      <trkpt lat="45.7732" lon="2.98932">
        <ele>893.59997558594</ele>
        <time>2024-09-15T09:41:12.000Z</time>
      </trkpt>
      <trkpt lat="45.77319" lon="2.98938">
        <ele>893</ele>
        <time>2024-09-15T09:41:13.000Z</time>
      </trkpt>
      <trkpt lat="45.77318" lon="2.98943">
        <ele>892.59997558594</ele>
        <time>2024-09-15T09:41:14.000Z</time>
      </trkpt>
      <trkpt lat="45.77318" lon="2.9895">
        <ele>892.59997558594</ele>
        <time>2024-09-15T09:41:15.000Z</time>
      </trkpt>
      <trkpt lat="45.77317" lon="2.98955">
        <ele>892</ele>
        <time>2024-09-15T09:41:16.000Z</time>
      </trkpt>
      <trkpt lat="45.77316" lon="2.98961">
        <ele>891.59997558594</ele>
        <time>2024-09-15T09:41:17.000Z</time>
      </trkpt>
      <trkpt lat="45.77315" lon="2.98967">
        <ele>891.20001220703</ele>
        <time>2024-09-15T09:41:18.000Z</time>
      </trkpt>
      <trkpt lat="45.77315" lon="2.98973">
        <ele>891.20001220703</ele>
        <time>2024-09-15T09:41:19.000Z</time>
      </trkpt>
      <trkpt lat="45.77315" lon="2.98979">
        <ele>890.79998779297</ele>
        <time>2024-09-15T09:41:20.000Z</time>
      </trkpt>
      <trkpt lat="45.77315" lon="2.98985">
        <ele>890.59997558594</ele>
        <time>2024-09-15T09:41:21.000Z</time>
      </trkpt>
      <trkpt lat="45.77315" lon="2.98992">
        <ele>890.40002441406</ele>
        <time>2024-09-15T09:41:22.000Z</time>
      </trkpt>
      <trkpt lat="45.77316" lon="2.98997">
        <ele>890</ele>
        <time>2024-09-15T09:41:23.000Z</time>
      </trkpt>
      <trkpt lat="45.77315" lon="2.99004">
        <ele>889.79998779297</ele>
        <time>2024-09-15T09:41:24.000Z</time>
      </trkpt>
      <trkpt lat="45.77315" lon="2.9901">
        <ele>889.40002441406</ele>
        <time>2024-09-15T09:41:25.000Z</time>
      </trkpt>
      <trkpt lat="45.77315" lon="2.99017">
        <ele>888.79998779297</ele>
        <time>2024-09-15T09:41:26.000Z</time>
      </trkpt>
      <trkpt lat="45.77315" lon="2.99022">
        <ele>888.40002441406</ele>
        <time>2024-09-15T09:41:27.000Z</time>
      </trkpt>
      <trkpt lat="45.77315" lon="2.99029">
        <ele>888</ele>
        <time>2024-09-15T09:41:28.000Z</time>
      </trkpt>
      <trkpt lat="45.77314" lon="2.99035">
        <ele>887.40002441406</ele>
        <time>2024-09-15T09:41:29.000Z</time>
      </trkpt>
      <trkpt lat="45.77313" lon="2.99041">
        <ele>887</ele>
        <time>2024-09-15T09:41:30.000Z</time>
      </trkpt>
      <trkpt lat="45.77312" lon="2.99046">
        <ele>886.40002441406</ele>
        <time>2024-09-15T09:41:31.000Z</time>
      </trkpt>
      <trkpt lat="45.77311" lon="2.99054">
        <ele>885.79998779297</ele>
        <time>2024-09-15T09:41:32.000Z</time>
      </trkpt>
      <trkpt lat="45.77309" lon="2.99059">
        <ele>885.40002441406</ele>
        <time>2024-09-15T09:41:33.000Z</time>
      </trkpt>
      <trkpt lat="45.77305" lon="2.99063">
        <ele>884.59997558594</ele>
        <time>2024-09-15T09:41:34.000Z</time>
      </trkpt>
      <trkpt lat="45.77299" lon="2.99064">
        <ele>884.40002441406</ele>
        <time>2024-09-15T09:41:35.000Z</time>
      </trkpt>
      <trkpt lat="45.77295" lon="2.99063">
        <ele>884.20001220703</ele>
        <time>2024-09-15T09:41:36.000Z</time>
      </trkpt>
      <trkpt lat="45.77291" lon="2.9906">
        <ele>884</ele>
        <time>2024-09-15T09:41:37.000Z</time>
      </trkpt>
      <trkpt lat="45.77288" lon="2.99057">
        <ele>883.79998779297</ele>
        <time>2024-09-15T09:41:38.000Z</time>
      </trkpt>
      <trkpt lat="45.77285" lon="2.99052">
        <ele>883.40002441406</ele>
        <time>2024-09-15T09:41:39.000Z</time>
      </trkpt>
      <trkpt lat="45.77283" lon="2.99048">
        <ele>882.79998779297</ele>
        <time>2024-09-15T09:41:40.000Z</time>
      </trkpt>
      <trkpt lat="45.7728" lon="2.99044">
        <ele>882.79998779297</ele>
        <time>2024-09-15T09:41:41.000Z</time>
      </trkpt>
      <trkpt lat="45.77278" lon="2.9904">
        <ele>882.59997558594</ele>
        <time>2024-09-15T09:41:42.000Z</time>
      </trkpt>
      <trkpt lat="45.77276" lon="2.99034">
        <ele>882.40002441406</ele>
        <time>2024-09-15T09:41:43.000Z</time>
      </trkpt>
      <trkpt lat="45.77274" lon="2.9903">
        <ele>882.40002441406</ele>
        <time>2024-09-15T09:41:44.000Z</time>
      </trkpt>
      <trkpt lat="45.77273" lon="2.99025">
        <ele>882.59997558594</ele>
        <time>2024-09-15T09:41:45.000Z</time>
      </trkpt>
      <trkpt lat="45.77271" lon="2.99021">
        <ele>882.59997558594</ele>
        <time>2024-09-15T09:41:46.000Z</time>
      </trkpt>
      <trkpt lat="45.7727" lon="2.99015">
        <ele>882.79998779297</ele>
        <time>2024-09-15T09:41:47.000Z</time>
      </trkpt>
      <trkpt lat="45.77269" lon="2.99011">
        <ele>883.20001220703</ele>
        <time>2024-09-15T09:41:48.000Z</time>
      </trkpt>
      <trkpt lat="45.77268" lon="2.99006">
        <ele>883.40002441406</ele>
        <time>2024-09-15T09:41:49.000Z</time>
      </trkpt>
      <trkpt lat="45.77268" lon="2.99002">
        <ele>883.59997558594</ele>
        <time>2024-09-15T09:41:50.000Z</time>
      </trkpt>
      <trkpt lat="45.77267" lon="2.98997">
        <ele>883.79998779297</ele>
        <time>2024-09-15T09:41:51.000Z</time>
      </trkpt>
      <trkpt lat="45.77266" lon="2.98992">
        <ele>884</ele>
        <time>2024-09-15T09:41:52.000Z</time>
      </trkpt>
      <trkpt lat="45.77266" lon="2.98987">
        <ele>884.20001220703</ele>
        <time>2024-09-15T09:41:53.000Z</time>
      </trkpt>
      <trkpt lat="45.77266" lon="2.98982">
        <ele>884.40002441406</ele>
        <time>2024-09-15T09:41:54.000Z</time>
      </trkpt>
      <trkpt lat="45.77265" lon="2.98978">
        <ele>884.40002441406</ele>
        <time>2024-09-15T09:41:55.000Z</time>
      </trkpt>
      <trkpt lat="45.77266" lon="2.98972">
        <ele>884.79998779297</ele>
        <time>2024-09-15T09:41:56.000Z</time>
      </trkpt>
      <trkpt lat="45.77266" lon="2.98969">
        <ele>885</ele>
        <time>2024-09-15T09:41:57.000Z</time>
      </trkpt>
      <trkpt lat="45.77267" lon="2.98964">
        <ele>885.20001220703</ele>
        <time>2024-09-15T09:41:58.000Z</time>
      </trkpt>
      <trkpt lat="45.77267" lon="2.98959">
        <ele>885.40002441406</ele>
        <time>2024-09-15T09:41:59.000Z</time>
      </trkpt>
      <trkpt lat="45.77268" lon="2.98954">
        <ele>885.59997558594</ele>
        <time>2024-09-15T09:42:00.000Z</time>
      </trkpt>
      <trkpt lat="45.77268" lon="2.9895">
        <ele>885.79998779297</ele>
        <time>2024-09-15T09:42:01.000Z</time>
      </trkpt>
      <trkpt lat="45.77268" lon="2.98944">
        <ele>885.79998779297</ele>
        <time>2024-09-15T09:42:02.000Z</time>
      </trkpt>
      <trkpt lat="45.77268" lon="2.98939">
        <ele>886</ele>
        <time>2024-09-15T09:42:03.000Z</time>
      </trkpt>
      <trkpt lat="45.77268" lon="2.98935">
        <ele>886.40002441406</ele>
        <time>2024-09-15T09:42:04.000Z</time>
      </trkpt>
      <trkpt lat="45.77268" lon="2.98929">
        <ele>886.40002441406</ele>
        <time>2024-09-15T09:42:05.000Z</time>
      </trkpt>
      <trkpt lat="45.77267" lon="2.98924">
        <ele>886.79998779297</ele>
        <time>2024-09-15T09:42:06.000Z</time>
      </trkpt>
      <trkpt lat="45.77268" lon="2.98919">
        <ele>887</ele>
        <time>2024-09-15T09:42:07.000Z</time>
      </trkpt>
      <trkpt lat="45.77267" lon="2.98914">
        <ele>887</ele>
        <time>2024-09-15T09:42:08.000Z</time>
      </trkpt>
      <trkpt lat="45.77267" lon="2.98908">
        <ele>887.20001220703</ele>
        <time>2024-09-15T09:42:09.000Z</time>
      </trkpt>
      <trkpt lat="45.77266" lon="2.98903">
        <ele>887.20001220703</ele>
        <time>2024-09-15T09:42:10.000Z</time>
      </trkpt>
      <trkpt lat="45.77266" lon="2.98898">
        <ele>887.20001220703</ele>
        <time>2024-09-15T09:42:11.000Z</time>
      </trkpt>
      <trkpt lat="45.77265" lon="2.98894">
        <ele>887.20001220703</ele>
        <time>2024-09-15T09:42:12.000Z</time>
      </trkpt>
      <trkpt lat="45.77264" lon="2.98888">
        <ele>887.20001220703</ele>
        <time>2024-09-15T09:42:13.000Z</time>
      </trkpt>
      <trkpt lat="45.77263" lon="2.98883">
        <ele>887.20001220703</ele>
        <time>2024-09-15T09:42:14.000Z</time>
      </trkpt>
      <trkpt lat="45.77262" lon="2.98879">
        <ele>887.20001220703</ele>
        <time>2024-09-15T09:42:15.000Z</time>
      </trkpt>
      <trkpt lat="45.77261" lon="2.98873">
        <ele>887.40002441406</ele>
        <time>2024-09-15T09:42:16.000Z</time>
      </trkpt>
      <trkpt lat="45.7726" lon="2.9887">
        <ele>887.40002441406</ele>
        <time>2024-09-15T09:42:17.000Z</time>
      </trkpt>
      <trkpt lat="45.77259" lon="2.98864">
        <ele>887.40002441406</ele>
        <time>2024-09-15T09:42:18.000Z</time>
      </trkpt>
      <trkpt lat="45.77258" lon="2.98859">
        <ele>887.59997558594</ele>
        <time>2024-09-15T09:42:19.000Z</time>
      </trkpt>
      <trkpt lat="45.77257" lon="2.98854">
        <ele>887.79998779297</ele>
        <time>2024-09-15T09:42:20.000Z</time>
      </trkpt>
      <trkpt lat="45.77255" lon="2.98849">
        <ele>887.79998779297</ele>
        <time>2024-09-15T09:42:21.000Z</time>
      </trkpt>
      <trkpt lat="45.77254" lon="2.98845">
        <ele>887.79998779297</ele>
        <time>2024-09-15T09:42:22.000Z</time>
      </trkpt>
      <trkpt lat="45.77252" lon="2.9884">
        <ele>888</ele>
        <time>2024-09-15T09:42:23.000Z</time>
      </trkpt>
      <trkpt lat="45.7725" lon="2.98836">
        <ele>888.20001220703</ele>
        <time>2024-09-15T09:42:24.000Z</time>
      </trkpt>
      <trkpt lat="45.77249" lon="2.9883">
        <ele>888.20001220703</ele>
        <time>2024-09-15T09:42:25.000Z</time>
      </trkpt>
      <trkpt lat="45.77247" lon="2.98826">
        <ele>888.20001220703</ele>
        <time>2024-09-15T09:42:26.000Z</time>
      </trkpt>
      <trkpt lat="45.77246" lon="2.98821">
        <ele>888.20001220703</ele>
        <time>2024-09-15T09:42:27.000Z</time>
      </trkpt>
      <trkpt lat="45.77244" lon="2.98817">
        <ele>888.20001220703</ele>
        <time>2024-09-15T09:42:28.000Z</time>
      </trkpt>
      <trkpt lat="45.77242" lon="2.98812">
        <ele>888.20001220703</ele>
        <time>2024-09-15T09:42:29.000Z</time>
      </trkpt>
      <trkpt lat="45.7724" lon="2.98807">
        <ele>888.20001220703</ele>
        <time>2024-09-15T09:42:30.000Z</time>
      </trkpt>
      <trkpt lat="45.77239" lon="2.98803">
        <ele>888.20001220703</ele>
        <time>2024-09-15T09:42:31.000Z</time>
      </trkpt>
      <trkpt lat="45.77237" lon="2.98798">
        <ele>888.20001220703</ele>
        <time>2024-09-15T09:42:32.000Z</time>
      </trkpt>
      <trkpt lat="45.77235" lon="2.98794">
        <ele>888.20001220703</ele>
        <time>2024-09-15T09:42:33.000Z</time>
      </trkpt>
      <trkpt lat="45.77233" lon="2.98789">
        <ele>888.40002441406</ele>
        <time>2024-09-15T09:42:34.000Z</time>
      </trkpt>
      <trkpt lat="45.77231" lon="2.98785">
        <ele>888.40002441406</ele>
        <time>2024-09-15T09:42:35.000Z</time>
      </trkpt>
      <trkpt lat="45.77229" lon="2.98781">
        <ele>888.40002441406</ele>
        <time>2024-09-15T09:42:36.000Z</time>
      </trkpt>
      <trkpt lat="45.77227" lon="2.98776">
        <ele>888.40002441406</ele>
        <time>2024-09-15T09:42:37.000Z</time>
      </trkpt>
      <trkpt lat="45.77225" lon="2.98772">
        <ele>888.40002441406</ele>
        <time>2024-09-15T09:42:38.000Z</time>
      </trkpt>
      <trkpt lat="45.77223" lon="2.98767">
        <ele>888.59997558594</ele>
        <time>2024-09-15T09:42:39.000Z</time>
      </trkpt>
      <trkpt lat="45.77221" lon="2.98764">
        <ele>888.59997558594</ele>
        <time>2024-09-15T09:42:40.000Z</time>
      </trkpt>
      <trkpt lat="45.7722" lon="2.98758">
        <ele>888.59997558594</ele>
        <time>2024-09-15T09:42:41.000Z</time>
      </trkpt>
      <trkpt lat="45.77218" lon="2.98754">
        <ele>888.59997558594</ele>
        <time>2024-09-15T09:42:42.000Z</time>
      </trkpt>
      <trkpt lat="45.77217" lon="2.98748">
        <ele>888.79998779297</ele>
        <time>2024-09-15T09:42:43.000Z</time>
      </trkpt>
      <trkpt lat="45.77215" lon="2.98744">
        <ele>888.79998779297</ele>
        <time>2024-09-15T09:42:44.000Z</time>
      </trkpt>
      <trkpt lat="45.77213" lon="2.98739">
        <ele>889</ele>
        <time>2024-09-15T09:42:45.000Z</time>
      </trkpt>
      <trkpt lat="45.77211" lon="2.98734">
        <ele>889.20001220703</ele>
        <time>2024-09-15T09:42:46.000Z</time>
      </trkpt>
      <trkpt lat="45.7721" lon="2.9873">
        <ele>889.20001220703</ele>
        <time>2024-09-15T09:42:47.000Z</time>
      </trkpt>
      <trkpt lat="45.77209" lon="2.98729">
        <ele>889.20001220703</ele>
        <time>2024-09-15T09:42:48.000Z</time>
      </trkpt>
    </trkseg>
  </trk>
</gpx>